<?xml version="1.0" encoding="UTF-8" standalone="no" ?>
<gpx xmlns="http://www.topografix.com/GPX/1/1" xmlns:xsi="http://www.w3.org/2001/XMLSchema-instance" xsi:schemaLocation="http://www.topografix.com/GPX/1/1 http://www.topografix.com/GPX/1/1/gpx.xsd" version="1.1" creator="VisuGPX - https://www.visugpx.com">
  <metadata>
    <name>MARCO VAE 2025</name>
  </metadata>
  <wpt lat="43.00671" lon="1.18393">
    <ele>434.4</ele>
    <desc><![CDATA[Départ / Arrivée]]></desc>
  </wpt>
  <trk>
    <name><![CDATA[MARCO + VAE 2025-20270315]]></name>
    <extensions>
      <line xmlns="http://www.topografix.com/GPX/gpx_style/0/2">
        <color>0000FF</color>
        <opacity>1</opacity>
        <width>4</width>
          <extensions>
            <sens>1</sens>
          </extensions>
      </line>
    </extensions>
    <trkseg>
      <trkpt lat="43.00248" lon="1.13481">
        <ele>406.4</ele>
        <time>2025-11-26T16:05:31Z</time>
        <extensions>
          <visugpx:TrkExtension xmlns:visugpx="https://www.visugpx.com/editgpx/">
            <visugpx:node>157</visugpx:node>
            </visugpx:TrkExtension>
        </extensions>
      </trkpt>
      <trkpt lat="43.0036" lon="1.13436">
        <ele>397</ele>
        <time>2025-11-26T16:05:40Z</time>
      </trkpt>
      <trkpt lat="43.00366" lon="1.13432">
        <ele>396</ele>
        <time>2025-11-26T16:05:41Z</time>
      </trkpt>
      <trkpt lat="43.00394" lon="1.13405">
        <ele>390</ele>
        <time>2025-11-26T16:05:47Z</time>
      </trkpt>
      <trkpt lat="43.00406" lon="1.13389">
        <ele>388</ele>
        <time>2025-11-26T16:05:50Z</time>
      </trkpt>
      <trkpt lat="43.00411" lon="1.1338">
        <ele>387</ele>
        <time>2025-11-26T16:05:52Z</time>
      </trkpt>
      <trkpt lat="43.00411" lon="1.13374">
        <ele>386</ele>
        <time>2025-11-26T16:05:53Z</time>
      </trkpt>
      <trkpt lat="43.00422" lon="1.13363">
        <ele>385</ele>
        <time>2025-11-26T16:05:55Z</time>
      </trkpt>
      <trkpt lat="43.00504" lon="1.13274">
        <ele>381</ele>
        <time>2025-11-26T16:06:14Z</time>
      </trkpt>
      <trkpt lat="43.00519" lon="1.1326">
        <ele>380</ele>
        <time>2025-11-26T16:06:17Z</time>
      </trkpt>
      <trkpt lat="43.00532" lon="1.13248">
        <ele>380</ele>
        <time>2025-11-26T16:06:20Z</time>
      </trkpt>
      <trkpt lat="43.00536" lon="1.13244">
        <ele>380</ele>
        <time>2025-11-26T16:06:21Z</time>
      </trkpt>
      <trkpt lat="43.00579" lon="1.13203">
        <ele>379</ele>
        <time>2025-11-26T16:06:30Z</time>
      </trkpt>
      <trkpt lat="43.006" lon="1.1318">
        <ele>379</ele>
        <time>2025-11-26T16:06:35Z</time>
      </trkpt>
      <trkpt lat="43.00756" lon="1.13003">
        <ele>375</ele>
        <time>2025-11-26T16:07:11Z</time>
      </trkpt>
      <trkpt lat="43.00812" lon="1.12952">
        <ele>375</ele>
        <time>2025-11-26T16:07:23Z</time>
      </trkpt>
      <trkpt lat="43.00909" lon="1.12864">
        <ele>375</ele>
        <time>2025-11-26T16:07:43Z</time>
      </trkpt>
      <trkpt lat="43.01" lon="1.12801">
        <ele>375</ele>
        <time>2025-11-26T16:08:02Z</time>
      </trkpt>
      <trkpt lat="43.01029" lon="1.1278">
        <ele>377</ele>
        <time>2025-11-26T16:08:07Z</time>
      </trkpt>
      <trkpt lat="43.01052" lon="1.1276">
        <ele>378</ele>
        <time>2025-11-26T16:08:12Z</time>
      </trkpt>
      <trkpt lat="43.01123" lon="1.12694">
        <ele>376</ele>
        <time>2025-11-26T16:08:28Z</time>
      </trkpt>
      <trkpt lat="43.0121" lon="1.12603">
        <ele>372</ele>
        <time>2025-11-26T16:08:47Z</time>
      </trkpt>
      <trkpt lat="43.01287" lon="1.12514">
        <ele>372</ele>
        <time>2025-11-26T16:09:05Z</time>
      </trkpt>
      <trkpt lat="43.01426" lon="1.12381">
        <ele>372</ele>
        <time>2025-11-26T16:09:35Z</time>
      </trkpt>
      <trkpt lat="43.01589" lon="1.12213">
        <ele>372</ele>
        <time>2025-11-26T16:10:11Z</time>
      </trkpt>
      <trkpt lat="43.01613" lon="1.12192">
        <ele>372</ele>
        <time>2025-11-26T16:10:17Z</time>
      </trkpt>
      <trkpt lat="43.01753" lon="1.12071">
        <ele>372</ele>
        <time>2025-11-26T16:10:46Z</time>
      </trkpt>
      <trkpt lat="43.01944" lon="1.11904">
        <ele>368</ele>
        <time>2025-11-26T16:11:26Z</time>
      </trkpt>
      <trkpt lat="43.0195" lon="1.119">
        <ele>368</ele>
        <time>2025-11-26T16:11:28Z</time>
      </trkpt>
      <trkpt lat="43.02011" lon="1.1186">
        <ele>368</ele>
        <time>2025-11-26T16:11:40Z</time>
      </trkpt>
      <trkpt lat="43.02088" lon="1.11792">
        <ele>368</ele>
        <time>2025-11-26T16:11:56Z</time>
      </trkpt>
      <trkpt lat="43.02138" lon="1.11756">
        <ele>367</ele>
        <time>2025-11-26T16:12:06Z</time>
      </trkpt>
      <trkpt lat="43.02212" lon="1.11708">
        <ele>368</ele>
        <time>2025-11-26T16:12:21Z</time>
      </trkpt>
      <trkpt lat="43.02303" lon="1.11638">
        <ele>368</ele>
        <time>2025-11-26T16:12:39Z</time>
      </trkpt>
      <trkpt lat="43.02361" lon="1.11589">
        <ele>367</ele>
        <time>2025-11-26T16:12:51Z</time>
      </trkpt>
      <trkpt lat="43.02395" lon="1.11561">
        <ele>367</ele>
        <time>2025-11-26T16:12:58Z</time>
      </trkpt>
      <trkpt lat="43.02499" lon="1.11475">
        <ele>365</ele>
        <time>2025-11-26T16:13:20Z</time>
      </trkpt>
      <trkpt lat="43.02506" lon="1.11469">
        <ele>365</ele>
        <time>2025-11-26T16:13:21Z</time>
      </trkpt>
      <trkpt lat="43.02581" lon="1.11405">
        <ele>366</ele>
        <time>2025-11-26T16:13:37Z</time>
      </trkpt>
      <trkpt lat="43.02681" lon="1.11351">
        <ele>367</ele>
        <time>2025-11-26T16:13:56Z</time>
      </trkpt>
      <trkpt lat="43.02711" lon="1.11323">
        <ele>367</ele>
        <time>2025-11-26T16:14:03Z</time>
      </trkpt>
      <trkpt lat="43.02733" lon="1.113">
        <ele>366</ele>
        <time>2025-11-26T16:14:08Z</time>
      </trkpt>
      <trkpt lat="43.02768" lon="1.11269">
        <ele>365</ele>
        <time>2025-11-26T16:14:15Z</time>
      </trkpt>
      <trkpt lat="43.02827" lon="1.11172">
        <ele>363</ele>
        <time>2025-11-26T16:14:31Z</time>
      </trkpt>
      <trkpt lat="43.02881" lon="1.11097">
        <ele>363</ele>
        <time>2025-11-26T16:14:45Z</time>
      </trkpt>
      <trkpt lat="43.02922" lon="1.11056">
        <ele>363</ele>
        <time>2025-11-26T16:14:54Z</time>
      </trkpt>
      <trkpt lat="43.02966" lon="1.11017">
        <ele>363</ele>
        <time>2025-11-26T16:15:04Z</time>
      </trkpt>
      <trkpt lat="43.03044" lon="1.1096">
        <ele>360</ele>
        <time>2025-11-26T16:15:19Z</time>
      </trkpt>
      <trkpt lat="43.03125" lon="1.10909">
        <ele>361</ele>
        <time>2025-11-26T16:15:35Z</time>
      </trkpt>
      <trkpt lat="43.03319" lon="1.10759">
        <ele>364</ele>
        <time>2025-11-26T16:16:15Z</time>
      </trkpt>
      <trkpt lat="43.0338" lon="1.10696">
        <ele>368</ele>
        <time>2025-11-26T16:16:28Z</time>
      </trkpt>
      <trkpt lat="43.03468" lon="1.10554">
        <ele>370</ele>
        <time>2025-11-26T16:16:53Z</time>
      </trkpt>
      <trkpt lat="43.03497" lon="1.10511">
        <ele>368</ele>
        <time>2025-11-26T16:17:00Z</time>
      </trkpt>
      <trkpt lat="43.03597" lon="1.1028">
        <ele>368</ele>
        <time>2025-11-26T16:17:35Z</time>
      </trkpt>
      <trkpt lat="43.03614" lon="1.10174">
        <ele>363</ele>
        <time>2025-11-26T16:17:49Z</time>
      </trkpt>
      <trkpt lat="43.03625" lon="1.10142">
        <ele>362</ele>
        <time>2025-11-26T16:17:54Z</time>
      </trkpt>
      <trkpt lat="43.03634" lon="1.10127">
        <ele>361</ele>
        <time>2025-11-26T16:17:56Z</time>
      </trkpt>
      <trkpt lat="43.03647" lon="1.10118">
        <ele>361</ele>
        <time>2025-11-26T16:17:59Z</time>
      </trkpt>
      <trkpt lat="43.03657" lon="1.10117">
        <ele>361</ele>
        <time>2025-11-26T16:18:01Z</time>
      </trkpt>
      <trkpt lat="43.03672" lon="1.1012">
        <ele>362</ele>
        <time>2025-11-26T16:18:03Z</time>
      </trkpt>
      <trkpt lat="43.03686" lon="1.10123">
        <ele>364</ele>
        <time>2025-11-26T16:18:06Z</time>
      </trkpt>
      <trkpt lat="43.03692" lon="1.10127">
        <ele>364</ele>
        <time>2025-11-26T16:18:07Z</time>
      </trkpt>
      <trkpt lat="43.03696" lon="1.10113">
        <ele>364</ele>
        <time>2025-11-26T16:18:09Z</time>
      </trkpt>
      <trkpt lat="43.03702" lon="1.10013">
        <ele>362</ele>
        <time>2025-11-26T16:18:22Z</time>
      </trkpt>
      <trkpt lat="43.03702" lon="1.09947">
        <ele>361</ele>
        <time>2025-11-26T16:18:31Z</time>
      </trkpt>
      <trkpt lat="43.03704" lon="1.09929">
        <ele>361</ele>
        <time>2025-11-26T16:18:33Z</time>
      </trkpt>
      <trkpt lat="43.03718" lon="1.09883">
        <ele>361</ele>
        <time>2025-11-26T16:18:40Z</time>
      </trkpt>
      <trkpt lat="43.03812" lon="1.09603">
        <ele>359</ele>
        <time>2025-11-26T16:19:20Z</time>
      </trkpt>
      <trkpt lat="43.03817" lon="1.09586">
        <ele>359</ele>
        <time>2025-11-26T16:19:22Z</time>
      </trkpt>
      <trkpt lat="43.03819" lon="1.09582">
        <ele>359</ele>
        <time>2025-11-26T16:19:23Z</time>
      </trkpt>
      <trkpt lat="43.03821" lon="1.09575">
        <ele>359</ele>
        <time>2025-11-26T16:19:24Z</time>
      </trkpt>
      <trkpt lat="43.03828" lon="1.09553">
        <ele>358</ele>
        <time>2025-11-26T16:19:27Z</time>
      </trkpt>
      <trkpt lat="43.03836" lon="1.09515">
        <ele>357</ele>
        <time>2025-11-26T16:19:32Z</time>
      </trkpt>
      <trkpt lat="43.03854" lon="1.09369">
        <ele>358</ele>
        <time>2025-11-26T16:19:51Z</time>
      </trkpt>
      <trkpt lat="43.03856" lon="1.09345">
        <ele>358</ele>
        <time>2025-11-26T16:19:54Z</time>
      </trkpt>
      <trkpt lat="43.0386" lon="1.0931">
        <ele>358</ele>
        <time>2025-11-26T16:19:59Z</time>
      </trkpt>
      <trkpt lat="43.03867" lon="1.09268">
        <ele>358</ele>
        <time>2025-11-26T16:20:04Z</time>
      </trkpt>
      <trkpt lat="43.03878" lon="1.09225">
        <ele>358</ele>
        <time>2025-11-26T16:20:10Z</time>
      </trkpt>
      <trkpt lat="43.03879" lon="1.0921">
        <ele>358</ele>
        <time>2025-11-26T16:20:12Z</time>
      </trkpt>
      <trkpt lat="43.03882" lon="1.09209">
        <ele>358</ele>
        <time>2025-11-26T16:20:13Z</time>
      </trkpt>
      <trkpt lat="43.03884" lon="1.09206">
        <ele>358</ele>
        <time>2025-11-26T16:20:13Z</time>
      </trkpt>
      <trkpt lat="43.03884" lon="1.09202">
        <ele>358</ele>
        <time>2025-11-26T16:20:14Z</time>
      </trkpt>
      <trkpt lat="43.03882" lon="1.09199">
        <ele>358</ele>
        <time>2025-11-26T16:20:14Z</time>
      </trkpt>
      <trkpt lat="43.03892" lon="1.09186">
        <ele>358</ele>
        <time>2025-11-26T16:20:17Z</time>
      </trkpt>
      <trkpt lat="43.03898" lon="1.09174">
        <ele>358</ele>
        <time>2025-11-26T16:20:19Z</time>
      </trkpt>
      <trkpt lat="43.03903" lon="1.09161">
        <ele>358</ele>
        <time>2025-11-26T16:20:21Z</time>
      </trkpt>
      <trkpt lat="43.03916" lon="1.09123">
        <ele>359</ele>
        <time>2025-11-26T16:20:26Z</time>
      </trkpt>
      <trkpt lat="43.03922" lon="1.09105">
        <ele>360</ele>
        <time>2025-11-26T16:20:29Z</time>
      </trkpt>
      <trkpt lat="43.03926" lon="1.09093">
        <ele>361</ele>
        <time>2025-11-26T16:20:30Z</time>
      </trkpt>
      <trkpt lat="43.03932" lon="1.09069">
        <ele>362</ele>
        <time>2025-11-26T16:20:34Z</time>
      </trkpt>
      <trkpt lat="43.03934" lon="1.09053">
        <ele>362</ele>
        <time>2025-11-26T16:20:36Z</time>
      </trkpt>
      <trkpt lat="43.03933" lon="1.09033">
        <ele>362</ele>
        <time>2025-11-26T16:20:39Z</time>
      </trkpt>
      <trkpt lat="43.03929" lon="1.08992">
        <ele>361</ele>
        <time>2025-11-26T16:20:44Z</time>
      </trkpt>
      <trkpt lat="43.03924" lon="1.08966">
        <ele>360</ele>
        <time>2025-11-26T16:20:47Z</time>
      </trkpt>
      <trkpt lat="43.03917" lon="1.08946">
        <ele>359</ele>
        <time>2025-11-26T16:20:50Z</time>
      </trkpt>
      <trkpt lat="43.03914" lon="1.08926">
        <ele>358</ele>
        <time>2025-11-26T16:20:53Z</time>
      </trkpt>
      <trkpt lat="43.03915" lon="1.08896">
        <ele>358</ele>
        <time>2025-11-26T16:20:57Z</time>
      </trkpt>
      <trkpt lat="43.03915" lon="1.08884">
        <ele>358</ele>
        <time>2025-11-26T16:20:58Z</time>
      </trkpt>
      <trkpt lat="43.03916" lon="1.08875">
        <ele>358</ele>
        <time>2025-11-26T16:21:00Z</time>
      </trkpt>
      <trkpt lat="43.03919" lon="1.08856">
        <ele>358</ele>
        <time>2025-11-26T16:21:02Z</time>
      </trkpt>
      <trkpt lat="43.03929" lon="1.08837">
        <ele>359</ele>
        <time>2025-11-26T16:21:05Z</time>
      </trkpt>
      <trkpt lat="43.03982" lon="1.08786">
        <ele>364</ele>
        <time>2025-11-26T16:21:17Z</time>
      </trkpt>
      <trkpt lat="43.04018" lon="1.08752">
        <ele>367</ele>
        <time>2025-11-26T16:21:24Z</time>
      </trkpt>
      <trkpt lat="43.04029" lon="1.08736">
        <ele>368</ele>
        <time>2025-11-26T16:21:27Z</time>
      </trkpt>
      <trkpt lat="43.04038" lon="1.08716">
        <ele>369</ele>
        <time>2025-11-26T16:21:30Z</time>
      </trkpt>
      <trkpt lat="43.04047" lon="1.08691">
        <ele>370</ele>
        <time>2025-11-26T16:21:34Z</time>
      </trkpt>
      <trkpt lat="43.0405" lon="1.08675">
        <ele>371</ele>
        <time>2025-11-26T16:21:36Z</time>
      </trkpt>
      <trkpt lat="43.0405" lon="1.08648">
        <ele>373</ele>
        <time>2025-11-26T16:21:40Z</time>
      </trkpt>
      <trkpt lat="43.0405" lon="1.08629">
        <ele>374</ele>
        <time>2025-11-26T16:21:42Z</time>
      </trkpt>
      <trkpt lat="43.04049" lon="1.08603">
        <ele>376</ele>
        <time>2025-11-26T16:21:46Z</time>
      </trkpt>
      <trkpt lat="43.04047" lon="1.08587">
        <ele>376</ele>
        <time>2025-11-26T16:21:48Z</time>
      </trkpt>
      <trkpt lat="43.04041" lon="1.08558">
        <ele>375</ele>
        <time>2025-11-26T16:21:52Z</time>
      </trkpt>
      <trkpt lat="43.04035" lon="1.08542">
        <ele>374</ele>
        <time>2025-11-26T16:21:54Z</time>
      </trkpt>
      <trkpt lat="43.04034" lon="1.08533">
        <ele>374</ele>
        <time>2025-11-26T16:21:55Z</time>
      </trkpt>
      <trkpt lat="43.04033" lon="1.08524">
        <ele>374</ele>
        <time>2025-11-26T16:21:56Z</time>
      </trkpt>
      <trkpt lat="43.04034" lon="1.08515">
        <ele>374</ele>
        <time>2025-11-26T16:21:57Z</time>
      </trkpt>
      <trkpt lat="43.04036" lon="1.08507">
        <ele>375</ele>
        <time>2025-11-26T16:21:59Z</time>
      </trkpt>
      <trkpt lat="43.04043" lon="1.08492">
        <ele>377</ele>
        <time>2025-11-26T16:22:01Z</time>
      </trkpt>
      <trkpt lat="43.04059" lon="1.08464">
        <ele>379</ele>
        <time>2025-11-26T16:22:05Z</time>
      </trkpt>
      <trkpt lat="43.04065" lon="1.08447">
        <ele>380</ele>
        <time>2025-11-26T16:22:08Z</time>
      </trkpt>
      <trkpt lat="43.04068" lon="1.0843">
        <ele>380</ele>
        <time>2025-11-26T16:22:10Z</time>
      </trkpt>
      <trkpt lat="43.04065" lon="1.08379">
        <ele>381</ele>
        <time>2025-11-26T16:22:17Z</time>
      </trkpt>
      <trkpt lat="43.04072" lon="1.08357">
        <ele>383</ele>
        <time>2025-11-26T16:22:20Z</time>
      </trkpt>
      <trkpt lat="43.04083" lon="1.08342">
        <ele>387</ele>
        <time>2025-11-26T16:22:23Z</time>
      </trkpt>
      <trkpt lat="43.04126" lon="1.08309">
        <ele>393</ele>
        <time>2025-11-26T16:22:31Z</time>
      </trkpt>
      <trkpt lat="43.04137" lon="1.08291">
        <ele>394</ele>
        <time>2025-11-26T16:22:35Z</time>
      </trkpt>
      <trkpt lat="43.04142" lon="1.08281">
        <ele>395</ele>
        <time>2025-11-26T16:22:36Z</time>
      </trkpt>
      <trkpt lat="43.04149" lon="1.08257">
        <ele>395</ele>
        <time>2025-11-26T16:22:39Z</time>
      </trkpt>
      <trkpt lat="43.04149" lon="1.08239">
        <ele>395</ele>
        <time>2025-11-26T16:22:42Z</time>
      </trkpt>
      <trkpt lat="43.04149" lon="1.08226">
        <ele>395</ele>
        <time>2025-11-26T16:22:44Z</time>
      </trkpt>
      <trkpt lat="43.04146" lon="1.08207">
        <ele>395</ele>
        <time>2025-11-26T16:22:46Z</time>
      </trkpt>
      <trkpt lat="43.04131" lon="1.08164">
        <ele>393</ele>
        <time>2025-11-26T16:22:52Z</time>
      </trkpt>
      <trkpt lat="43.04088" lon="1.08034">
        <ele>390</ele>
        <time>2025-11-26T16:23:11Z</time>
      </trkpt>
      <trkpt lat="43.04052" lon="1.07923">
        <ele>387</ele>
        <time>2025-11-26T16:23:27Z</time>
      </trkpt>
      <trkpt lat="43.04044" lon="1.07897">
        <ele>387</ele>
        <time>2025-11-26T16:23:30Z</time>
      </trkpt>
      <trkpt lat="43.04037" lon="1.07872">
        <ele>387</ele>
        <time>2025-11-26T16:23:34Z</time>
      </trkpt>
      <trkpt lat="43.04036" lon="1.07867">
        <ele>386</ele>
        <time>2025-11-26T16:23:34Z</time>
      </trkpt>
      <trkpt lat="43.04034" lon="1.07848">
        <ele>386</ele>
        <time>2025-11-26T16:23:37Z</time>
      </trkpt>
      <trkpt lat="43.04037" lon="1.0778">
        <ele>386</ele>
        <time>2025-11-26T16:23:46Z</time>
      </trkpt>
      <trkpt lat="43.04038" lon="1.07744">
        <ele>386</ele>
        <time>2025-11-26T16:23:50Z</time>
      </trkpt>
      <trkpt lat="43.04037" lon="1.07734">
        <ele>385</ele>
        <time>2025-11-26T16:23:52Z</time>
      </trkpt>
      <trkpt lat="43.04034" lon="1.07726">
        <ele>385</ele>
        <time>2025-11-26T16:23:53Z</time>
      </trkpt>
      <trkpt lat="43.0403" lon="1.07709">
        <ele>384</ele>
        <time>2025-11-26T16:23:55Z</time>
      </trkpt>
      <trkpt lat="43.04026" lon="1.077">
        <ele>384</ele>
        <time>2025-11-26T16:23:57Z</time>
      </trkpt>
      <trkpt lat="43.04024" lon="1.07696">
        <ele>384</ele>
        <time>2025-11-26T16:23:57Z</time>
      </trkpt>
      <trkpt lat="43.0402" lon="1.07681">
        <ele>383</ele>
        <time>2025-11-26T16:23:59Z</time>
      </trkpt>
      <trkpt lat="43.04011" lon="1.07652">
        <ele>382</ele>
        <time>2025-11-26T16:24:03Z</time>
      </trkpt>
      <trkpt lat="43.04011" lon="1.07642">
        <ele>382</ele>
        <time>2025-11-26T16:24:05Z</time>
      </trkpt>
      <trkpt lat="43.04015" lon="1.0758">
        <ele>380</ele>
        <time>2025-11-26T16:24:13Z</time>
      </trkpt>
      <trkpt lat="43.0402" lon="1.07491">
        <ele>376</ele>
        <time>2025-11-26T16:24:24Z</time>
      </trkpt>
      <trkpt lat="43.04021" lon="1.07472">
        <ele>375</ele>
        <time>2025-11-26T16:24:27Z</time>
      </trkpt>
      <trkpt lat="43.04031" lon="1.07429">
        <ele>372</ele>
        <time>2025-11-26T16:24:33Z</time>
      </trkpt>
      <trkpt lat="43.04041" lon="1.07402">
        <ele>370</ele>
        <time>2025-11-26T16:24:37Z</time>
      </trkpt>
      <trkpt lat="43.04056" lon="1.0738">
        <ele>368</ele>
        <time>2025-11-26T16:24:41Z</time>
      </trkpt>
      <trkpt lat="43.04121" lon="1.07319">
        <ele>365</ele>
        <time>2025-11-26T16:24:55Z</time>
      </trkpt>
      <trkpt lat="43.04127" lon="1.07313">
        <ele>365</ele>
        <time>2025-11-26T16:24:56Z</time>
      </trkpt>
      <trkpt lat="43.04132" lon="1.07308">
        <ele>365</ele>
        <time>2025-11-26T16:24:57Z</time>
      </trkpt>
      <trkpt lat="43.04145" lon="1.0729">
        <ele>367</ele>
        <time>2025-11-26T16:25:00Z</time>
      </trkpt>
      <trkpt lat="43.04153" lon="1.07264">
        <ele>368</ele>
        <time>2025-11-26T16:25:04Z</time>
      </trkpt>
      <trkpt lat="43.04162" lon="1.07195">
        <ele>368</ele>
        <time>2025-11-26T16:25:13Z</time>
      </trkpt>
      <trkpt lat="43.04172" lon="1.07148">
        <ele>367</ele>
        <time>2025-11-26T16:25:20Z</time>
      </trkpt>
      <trkpt lat="43.04192" lon="1.071">
        <ele>365</ele>
        <time>2025-11-26T16:25:27Z</time>
      </trkpt>
      <trkpt lat="43.04253" lon="1.07004">
        <ele>362</ele>
        <time>2025-11-26T16:25:43Z</time>
      </trkpt>
      <trkpt lat="43.04259" lon="1.06987">
        <ele>361</ele>
        <time>2025-11-26T16:25:46Z</time>
      </trkpt>
      <trkpt lat="43.04261" lon="1.0697">
        <ele>361</ele>
        <time>2025-11-26T16:25:48Z</time>
      </trkpt>
      <trkpt lat="43.04261" lon="1.0694">
        <ele>359</ele>
        <time>2025-11-26T16:25:52Z</time>
      </trkpt>
      <trkpt lat="43.04261" lon="1.06924">
        <ele>359</ele>
        <time>2025-11-26T16:25:54Z</time>
      </trkpt>
      <trkpt lat="43.0426" lon="1.06894">
        <ele>357</ele>
        <time>2025-11-26T16:25:58Z</time>
      </trkpt>
      <trkpt lat="43.04266" lon="1.06873">
        <ele>357</ele>
        <time>2025-11-26T16:26:01Z</time>
      </trkpt>
      <trkpt lat="43.04295" lon="1.06821">
        <ele>360</ele>
        <time>2025-11-26T16:26:09Z</time>
      </trkpt>
      <trkpt lat="43.04312" lon="1.06776">
        <ele>358</ele>
        <time>2025-11-26T16:26:16Z</time>
      </trkpt>
      <trkpt lat="43.04324" lon="1.06731">
        <ele>356</ele>
        <time>2025-11-26T16:26:22Z</time>
      </trkpt>
      <trkpt lat="43.04327" lon="1.06697">
        <ele>354</ele>
        <time>2025-11-26T16:26:27Z</time>
      </trkpt>
      <trkpt lat="43.04329" lon="1.06557">
        <ele>351</ele>
        <time>2025-11-26T16:26:45Z</time>
      </trkpt>
      <trkpt lat="43.04332" lon="1.06411">
        <ele>352</ele>
        <time>2025-11-26T16:27:04Z</time>
      </trkpt>
      <trkpt lat="43.04333" lon="1.06397">
        <ele>352</ele>
        <time>2025-11-26T16:27:06Z</time>
      </trkpt>
      <trkpt lat="43.04338" lon="1.06333">
        <ele>353</ele>
        <time>2025-11-26T16:27:14Z</time>
      </trkpt>
      <trkpt lat="43.0435" lon="1.06249">
        <ele>351</ele>
        <time>2025-11-26T16:27:25Z</time>
      </trkpt>
      <trkpt lat="43.0436" lon="1.06057">
        <ele>349</ele>
        <time>2025-11-26T16:27:50Z</time>
      </trkpt>
      <trkpt lat="43.04361" lon="1.06025">
        <ele>349</ele>
        <time>2025-11-26T16:27:54Z</time>
      </trkpt>
      <trkpt lat="43.04362" lon="1.06016">
        <ele>349</ele>
        <time>2025-11-26T16:27:55Z</time>
      </trkpt>
      <trkpt lat="43.04361" lon="1.05992">
        <ele>348</ele>
        <time>2025-11-26T16:27:59Z</time>
      </trkpt>
      <trkpt lat="43.04357" lon="1.05968">
        <ele>348</ele>
        <time>2025-11-26T16:28:02Z</time>
      </trkpt>
      <trkpt lat="43.04339" lon="1.0592">
        <ele>347</ele>
        <time>2025-11-26T16:28:09Z</time>
      </trkpt>
      <trkpt lat="43.04328" lon="1.059">
        <ele>347</ele>
        <time>2025-11-26T16:28:12Z</time>
      </trkpt>
      <trkpt lat="43.04315" lon="1.05882">
        <ele>347</ele>
        <time>2025-11-26T16:28:15Z</time>
      </trkpt>
      <trkpt lat="43.04303" lon="1.05874">
        <ele>346</ele>
        <time>2025-11-26T16:28:18Z</time>
      </trkpt>
      <trkpt lat="43.04294" lon="1.05871">
        <ele>346</ele>
        <time>2025-11-26T16:28:19Z</time>
      </trkpt>
      <trkpt lat="43.04273" lon="1.05869">
        <ele>345</ele>
        <time>2025-11-26T16:28:23Z</time>
      </trkpt>
      <trkpt lat="43.04195" lon="1.05879">
        <ele>344</ele>
        <time>2025-11-26T16:28:37Z</time>
      </trkpt>
      <trkpt lat="43.04177" lon="1.05876">
        <ele>343</ele>
        <time>2025-11-26T16:28:40Z</time>
      </trkpt>
      <trkpt lat="43.04168" lon="1.05872">
        <ele>343</ele>
        <time>2025-11-26T16:28:42Z</time>
      </trkpt>
      <trkpt lat="43.04148" lon="1.05855">
        <ele>343</ele>
        <time>2025-11-26T16:28:46Z</time>
      </trkpt>
      <trkpt lat="43.04133" lon="1.05839">
        <ele>343</ele>
        <time>2025-11-26T16:28:50Z</time>
      </trkpt>
      <trkpt lat="43.04103" lon="1.05803">
        <ele>343</ele>
        <time>2025-11-26T16:28:57Z</time>
      </trkpt>
      <trkpt lat="43.04053" lon="1.05719">
        <ele>343</ele>
        <time>2025-11-26T16:29:11Z</time>
      </trkpt>
      <trkpt lat="43.04038" lon="1.05689">
        <ele>343</ele>
        <time>2025-11-26T16:29:15Z</time>
      </trkpt>
      <trkpt lat="43.0403" lon="1.05663">
        <ele>342</ele>
        <time>2025-11-26T16:29:19Z</time>
      </trkpt>
      <trkpt lat="43.04026" lon="1.05635">
        <ele>342</ele>
        <time>2025-11-26T16:29:23Z</time>
      </trkpt>
      <trkpt lat="43.04004" lon="1.05194">
        <ele>342</ele>
        <time>2025-11-26T16:30:20Z</time>
      </trkpt>
      <trkpt lat="43.03985" lon="1.05034">
        <ele>343</ele>
        <time>2025-11-26T16:30:41Z</time>
      </trkpt>
      <trkpt lat="43.03985" lon="1.05015">
        <ele>343</ele>
        <time>2025-11-26T16:30:44Z</time>
      </trkpt>
      <trkpt lat="43.04" lon="1.04926">
        <ele>340</ele>
        <time>2025-11-26T16:30:56Z</time>
      </trkpt>
      <trkpt lat="43.03988" lon="1.04809">
        <ele>341</ele>
        <time>2025-11-26T16:31:11Z</time>
      </trkpt>
      <trkpt lat="43.03984" lon="1.04567">
        <ele>343</ele>
        <time>2025-11-26T16:31:43Z</time>
      </trkpt>
      <trkpt lat="43.03982" lon="1.04406">
        <ele>340</ele>
        <time>2025-11-26T16:32:04Z</time>
      </trkpt>
      <trkpt lat="43.03971" lon="1.04269">
        <ele>342</ele>
        <time>2025-11-26T16:32:21Z</time>
      </trkpt>
      <trkpt lat="43.03974" lon="1.0422">
        <ele>344</ele>
        <time>2025-11-26T16:32:28Z</time>
      </trkpt>
      <trkpt lat="43.03976" lon="1.04207">
        <ele>345</ele>
        <time>2025-11-26T16:32:30Z</time>
      </trkpt>
      <trkpt lat="43.03981" lon="1.04189">
        <ele>347</ele>
        <time>2025-11-26T16:32:32Z</time>
      </trkpt>
      <trkpt lat="43.03996" lon="1.04139">
        <ele>356</ele>
        <time>2025-11-26T16:32:39Z</time>
      </trkpt>
      <trkpt lat="43.03998" lon="1.04125">
        <ele>358</ele>
        <time>2025-11-26T16:32:41Z</time>
      </trkpt>
      <trkpt lat="43.03998" lon="1.04119">
        <ele>359</ele>
        <time>2025-11-26T16:32:42Z</time>
      </trkpt>
      <trkpt lat="43.03996" lon="1.04102">
        <ele>362</ele>
        <time>2025-11-26T16:32:44Z</time>
      </trkpt>
      <trkpt lat="43.03965" lon="1.04028">
        <ele>359</ele>
        <time>2025-11-26T16:32:55Z</time>
      </trkpt>
      <trkpt lat="43.03902" lon="1.03795">
        <ele>351</ele>
        <time>2025-11-26T16:33:27Z</time>
      </trkpt>
      <trkpt lat="43.03888" lon="1.03653">
        <ele>345</ele>
        <time>2025-11-26T16:33:46Z</time>
      </trkpt>
      <trkpt lat="43.03889" lon="1.03594">
        <ele>342</ele>
        <time>2025-11-26T16:33:54Z</time>
      </trkpt>
      <trkpt lat="43.03901" lon="1.03474">
        <ele>338</ele>
        <time>2025-11-26T16:34:09Z</time>
      </trkpt>
      <trkpt lat="43.03906" lon="1.03443">
        <ele>337</ele>
        <time>2025-11-26T16:34:14Z</time>
      </trkpt>
      <trkpt lat="43.03914" lon="1.034">
        <ele>335</ele>
        <time>2025-11-26T16:34:19Z</time>
      </trkpt>
      <trkpt lat="43.03927" lon="1.03345">
        <ele>336</ele>
        <time>2025-11-26T16:34:27Z</time>
      </trkpt>
      <trkpt lat="43.03941" lon="1.03291">
        <ele>337</ele>
        <time>2025-11-26T16:34:34Z</time>
      </trkpt>
      <trkpt lat="43.03948" lon="1.03262">
        <ele>337</ele>
        <time>2025-11-26T16:34:38Z</time>
      </trkpt>
      <trkpt lat="43.03951" lon="1.03251">
        <ele>338</ele>
        <time>2025-11-26T16:34:40Z</time>
      </trkpt>
      <trkpt lat="43.03969" lon="1.0318">
        <ele>337</ele>
        <time>2025-11-26T16:34:50Z</time>
      </trkpt>
      <trkpt lat="43.03973" lon="1.03161">
        <ele>336</ele>
        <time>2025-11-26T16:34:52Z</time>
      </trkpt>
      <trkpt lat="43.0398" lon="1.03134">
        <ele>336</ele>
        <time>2025-11-26T16:34:56Z</time>
      </trkpt>
      <trkpt lat="43.03984" lon="1.03088">
        <ele>335</ele>
        <time>2025-11-26T16:35:02Z</time>
      </trkpt>
      <trkpt lat="43.03955" lon="1.03066">
        <ele>334</ele>
        <time>2025-11-26T16:35:08Z</time>
      </trkpt>
      <trkpt lat="43.0389" lon="1.0301">
        <ele>334</ele>
        <time>2025-11-26T16:35:21Z</time>
      </trkpt>
      <trkpt lat="43.03881" lon="1.03">
        <ele>334</ele>
        <time>2025-11-26T16:35:24Z</time>
      </trkpt>
      <trkpt lat="43.03876" lon="1.02994">
        <ele>334</ele>
        <time>2025-11-26T16:35:25Z</time>
      </trkpt>
      <trkpt lat="43.03871" lon="1.02981">
        <ele>334</ele>
        <time>2025-11-26T16:35:27Z</time>
      </trkpt>
      <trkpt lat="43.03868" lon="1.02963">
        <ele>334</ele>
        <time>2025-11-26T16:35:29Z</time>
      </trkpt>
      <trkpt lat="43.03869" lon="1.02942">
        <ele>333</ele>
        <time>2025-11-26T16:35:32Z</time>
      </trkpt>
      <trkpt lat="43.03867" lon="1.02926">
        <ele>333</ele>
        <time>2025-11-26T16:35:34Z</time>
      </trkpt>
      <trkpt lat="43.03864" lon="1.0292">
        <ele>333</ele>
        <time>2025-11-26T16:35:35Z</time>
      </trkpt>
      <trkpt lat="43.03858" lon="1.02915">
        <ele>333</ele>
        <time>2025-11-26T16:35:36Z</time>
      </trkpt>
      <trkpt lat="43.03837" lon="1.02909">
        <ele>333</ele>
        <time>2025-11-26T16:35:40Z</time>
      </trkpt>
      <trkpt lat="43.03806" lon="1.02907">
        <ele>333</ele>
        <time>2025-11-26T16:35:45Z</time>
      </trkpt>
      <trkpt lat="43.03779" lon="1.0291">
        <ele>333</ele>
        <time>2025-11-26T16:35:50Z</time>
      </trkpt>
      <trkpt lat="43.03746" lon="1.02915">
        <ele>333</ele>
        <time>2025-11-26T16:35:56Z</time>
      </trkpt>
      <trkpt lat="43.03631" lon="1.02958">
        <ele>333</ele>
        <time>2025-11-26T16:36:17Z</time>
      </trkpt>
      <trkpt lat="43.03562" lon="1.02982">
        <ele>335</ele>
        <time>2025-11-26T16:36:30Z</time>
      </trkpt>
      <trkpt lat="43.03509" lon="1.02999">
        <ele>335</ele>
        <time>2025-11-26T16:36:40Z</time>
      </trkpt>
      <trkpt lat="43.03493" lon="1.03003">
        <ele>335</ele>
        <time>2025-11-26T16:36:43Z</time>
      </trkpt>
      <trkpt lat="43.03474" lon="1.03005">
        <ele>335</ele>
        <time>2025-11-26T16:36:46Z</time>
      </trkpt>
      <trkpt lat="43.03441" lon="1.03">
        <ele>334</ele>
        <time>2025-11-26T16:36:52Z</time>
      </trkpt>
      <trkpt lat="43.03428" lon="1.02996">
        <ele>334</ele>
        <time>2025-11-26T16:36:54Z</time>
      </trkpt>
      <trkpt lat="43.03411" lon="1.02989">
        <ele>334</ele>
        <time>2025-11-26T16:36:57Z</time>
      </trkpt>
      <trkpt lat="43.03392" lon="1.02973">
        <ele>334</ele>
        <time>2025-11-26T16:37:01Z</time>
      </trkpt>
      <trkpt lat="43.03361" lon="1.0295">
        <ele>334</ele>
        <time>2025-11-26T16:37:08Z</time>
      </trkpt>
      <trkpt lat="43.03342" lon="1.02926">
        <ele>334</ele>
        <time>2025-11-26T16:37:12Z</time>
      </trkpt>
      <trkpt lat="43.03339" lon="1.02919">
        <ele>334</ele>
        <time>2025-11-26T16:37:13Z</time>
      </trkpt>
      <trkpt lat="43.03339" lon="1.02909">
        <ele>334</ele>
        <time>2025-11-26T16:37:15Z</time>
      </trkpt>
      <trkpt lat="43.03336" lon="1.029">
        <ele>334</ele>
        <time>2025-11-26T16:37:16Z</time>
      </trkpt>
      <trkpt lat="43.03331" lon="1.02892">
        <ele>334</ele>
        <time>2025-11-26T16:37:17Z</time>
      </trkpt>
      <trkpt lat="43.03325" lon="1.02887">
        <ele>334</ele>
        <time>2025-11-26T16:37:19Z</time>
      </trkpt>
      <trkpt lat="43.03323" lon="1.02886">
        <ele>334</ele>
        <time>2025-11-26T16:37:19Z</time>
      </trkpt>
      <trkpt lat="43.0332" lon="1.02885">
        <ele>334</ele>
        <time>2025-11-26T16:37:19Z</time>
      </trkpt>
      <trkpt lat="43.03314" lon="1.02884">
        <ele>335</ele>
        <time>2025-11-26T16:37:21Z</time>
      </trkpt>
      <trkpt lat="43.03309" lon="1.02886">
        <ele>335</ele>
        <time>2025-11-26T16:37:21Z</time>
      </trkpt>
      <trkpt lat="43.03305" lon="1.02889">
        <ele>335</ele>
        <time>2025-11-26T16:37:22Z</time>
      </trkpt>
      <trkpt lat="43.03302" lon="1.02891">
        <ele>335</ele>
        <time>2025-11-26T16:37:23Z</time>
      </trkpt>
      <trkpt lat="43.03284" lon="1.02882">
        <ele>336</ele>
        <time>2025-11-26T16:37:26Z</time>
      </trkpt>
      <trkpt lat="43.03269" lon="1.02872">
        <ele>336</ele>
        <time>2025-11-26T16:37:29Z</time>
      </trkpt>
      <trkpt lat="43.03257" lon="1.02861">
        <ele>337</ele>
        <time>2025-11-26T16:37:32Z</time>
      </trkpt>
      <trkpt lat="43.03244" lon="1.02846">
        <ele>337</ele>
        <time>2025-11-26T16:37:35Z</time>
      </trkpt>
      <trkpt lat="43.03237" lon="1.02836">
        <ele>337</ele>
        <time>2025-11-26T16:37:37Z</time>
      </trkpt>
      <trkpt lat="43.03228" lon="1.02819">
        <ele>338</ele>
        <time>2025-11-26T16:37:39Z</time>
      </trkpt>
      <trkpt lat="43.03221" lon="1.02797">
        <ele>338</ele>
        <time>2025-11-26T16:37:42Z</time>
      </trkpt>
      <trkpt lat="43.03218" lon="1.02783">
        <ele>339</ele>
        <time>2025-11-26T16:37:44Z</time>
      </trkpt>
      <trkpt lat="43.03213" lon="1.02752">
        <ele>340</ele>
        <time>2025-11-26T16:37:48Z</time>
      </trkpt>
      <trkpt lat="43.03191" lon="1.02579">
        <ele>337</ele>
        <time>2025-11-26T16:38:11Z</time>
      </trkpt>
      <trkpt lat="43.03174" lon="1.0244">
        <ele>336</ele>
        <time>2025-11-26T16:38:30Z</time>
      </trkpt>
      <trkpt lat="43.0314" lon="1.02162">
        <ele>334</ele>
        <time>2025-11-26T16:39:06Z</time>
      </trkpt>
      <trkpt lat="43.03138" lon="1.02144">
        <ele>334</ele>
        <time>2025-11-26T16:39:09Z</time>
      </trkpt>
      <trkpt lat="43.03135" lon="1.02127">
        <ele>334</ele>
        <time>2025-11-26T16:39:11Z</time>
      </trkpt>
      <trkpt lat="43.03132" lon="1.0211">
        <ele>334</ele>
        <time>2025-11-26T16:39:13Z</time>
      </trkpt>
      <trkpt lat="43.03125" lon="1.02043">
        <ele>334</ele>
        <time>2025-11-26T16:39:22Z</time>
      </trkpt>
      <trkpt lat="43.03115" lon="1.0197">
        <ele>333</ele>
        <time>2025-11-26T16:39:32Z</time>
      </trkpt>
      <trkpt lat="43.03114" lon="1.01959">
        <ele>333</ele>
        <time>2025-11-26T16:39:33Z</time>
      </trkpt>
      <trkpt lat="43.03107" lon="1.01903">
        <ele>332</ele>
        <time>2025-11-26T16:39:41Z</time>
      </trkpt>
      <trkpt lat="43.03107" lon="1.01899">
        <ele>332</ele>
        <time>2025-11-26T16:39:41Z</time>
      </trkpt>
      <trkpt lat="43.03098" lon="1.01811">
        <ele>332</ele>
        <time>2025-11-26T16:39:53Z</time>
      </trkpt>
      <trkpt lat="43.03093" lon="1.01777">
        <ele>333</ele>
        <time>2025-11-26T16:39:57Z</time>
      </trkpt>
      <trkpt lat="43.03081" lon="1.01671">
        <ele>338</ele>
        <time>2025-11-26T16:40:11Z</time>
      </trkpt>
      <trkpt lat="43.03083" lon="1.01648">
        <ele>341</ele>
        <time>2025-11-26T16:40:14Z</time>
      </trkpt>
      <trkpt lat="43.03087" lon="1.01637">
        <ele>343</ele>
        <time>2025-11-26T16:40:16Z</time>
      </trkpt>
      <trkpt lat="43.03094" lon="1.0162">
        <ele>344</ele>
        <time>2025-11-26T16:40:18Z</time>
      </trkpt>
      <trkpt lat="43.03099" lon="1.01608">
        <ele>345</ele>
        <time>2025-11-26T16:40:20Z</time>
      </trkpt>
      <trkpt lat="43.03114" lon="1.0157">
        <ele>345</ele>
        <time>2025-11-26T16:40:26Z</time>
      </trkpt>
      <trkpt lat="43.03124" lon="1.01546">
        <ele>342</ele>
        <time>2025-11-26T16:40:29Z</time>
      </trkpt>
      <trkpt lat="43.03139" lon="1.01489">
        <ele>339</ele>
        <time>2025-11-26T16:40:37Z</time>
      </trkpt>
      <trkpt lat="43.03145" lon="1.01461">
        <ele>337</ele>
        <time>2025-11-26T16:40:41Z</time>
      </trkpt>
      <trkpt lat="43.03161" lon="1.01342">
        <ele>331</ele>
        <time>2025-11-26T16:40:57Z</time>
      </trkpt>
      <trkpt lat="43.03168" lon="1.01285">
        <ele>331</ele>
        <time>2025-11-26T16:41:04Z</time>
      </trkpt>
      <trkpt lat="43.03194" lon="1.01115">
        <ele>332</ele>
        <time>2025-11-26T16:41:27Z</time>
      </trkpt>
      <trkpt lat="43.0321" lon="1.00975">
        <ele>331</ele>
        <time>2025-11-26T16:41:45Z</time>
      </trkpt>
      <trkpt lat="43.0327" lon="1.00544">
        <ele>329</ele>
        <time>2025-11-26T16:42:42Z</time>
      </trkpt>
      <trkpt lat="43.0328" lon="1.00467">
        <ele>329</ele>
        <time>2025-11-26T16:42:52Z</time>
      </trkpt>
      <trkpt lat="43.0328" lon="1.00462">
        <ele>329</ele>
        <time>2025-11-26T16:42:53Z</time>
      </trkpt>
      <trkpt lat="43.0328" lon="1.00437">
        <ele>329</ele>
        <time>2025-11-26T16:42:56Z</time>
      </trkpt>
      <trkpt lat="43.03279" lon="1.00416">
        <ele>329</ele>
        <time>2025-11-26T16:42:59Z</time>
      </trkpt>
      <trkpt lat="43.03276" lon="1.00392">
        <ele>328</ele>
        <time>2025-11-26T16:43:02Z</time>
      </trkpt>
      <trkpt lat="43.03271" lon="1.00369">
        <ele>328</ele>
        <time>2025-11-26T16:43:05Z</time>
      </trkpt>
      <trkpt lat="43.03266" lon="1.0035">
        <ele>327</ele>
        <time>2025-11-26T16:43:08Z</time>
      </trkpt>
      <trkpt lat="43.03259" lon="1.00329">
        <ele>327</ele>
        <time>2025-11-26T16:43:11Z</time>
      </trkpt>
      <trkpt lat="43.03248" lon="1.00304">
        <ele>328</ele>
        <time>2025-11-26T16:43:15Z</time>
      </trkpt>
      <trkpt lat="43.03223" lon="1.00255">
        <ele>330</ele>
        <time>2025-11-26T16:43:23Z</time>
      </trkpt>
      <trkpt lat="43.03215" lon="1.00234">
        <ele>330</ele>
        <time>2025-11-26T16:43:26Z</time>
      </trkpt>
      <trkpt lat="43.03209" lon="1.00206">
        <ele>331</ele>
        <time>2025-11-26T16:43:29Z</time>
      </trkpt>
      <trkpt lat="43.03206" lon="1.0019">
        <ele>331</ele>
        <time>2025-11-26T16:43:32Z</time>
      </trkpt>
      <trkpt lat="43.03205" lon="1.00173">
        <ele>331</ele>
        <time>2025-11-26T16:43:34Z</time>
      </trkpt>
      <trkpt lat="43.03204" lon="1.00156">
        <ele>332</ele>
        <time>2025-11-26T16:43:36Z</time>
      </trkpt>
      <trkpt lat="43.03204" lon="1.00137">
        <ele>333</ele>
        <time>2025-11-26T16:43:38Z</time>
      </trkpt>
      <trkpt lat="43.03196" lon="1.00137">
        <ele>334</ele>
        <time>2025-11-26T16:43:40Z</time>
      </trkpt>
      <trkpt lat="43.03188" lon="1.0013">
        <ele>335</ele>
        <time>2025-11-26T16:43:42Z</time>
      </trkpt>
      <trkpt lat="43.03158" lon="1.00102">
        <ele>341</ele>
        <time>2025-11-26T16:43:48Z</time>
      </trkpt>
      <trkpt lat="43.03143" lon="1.00094">
        <ele>342</ele>
        <time>2025-11-26T16:43:51Z</time>
      </trkpt>
      <trkpt lat="43.03099" lon="1.00081">
        <ele>347</ele>
        <time>2025-11-26T16:43:59Z</time>
      </trkpt>
      <trkpt lat="43.0308" lon="1.0008">
        <ele>349</ele>
        <time>2025-11-26T16:44:02Z</time>
      </trkpt>
      <trkpt lat="43.03066" lon="1.00089">
        <ele>349</ele>
        <time>2025-11-26T16:44:05Z</time>
      </trkpt>
      <trkpt lat="43.03056" lon="1.00105">
        <ele>348</ele>
        <time>2025-11-26T16:44:08Z</time>
      </trkpt>
      <trkpt lat="43.03046" lon="1.0013">
        <ele>345</ele>
        <time>2025-11-26T16:44:11Z</time>
      </trkpt>
      <trkpt lat="43.03033" lon="1.00141">
        <ele>345</ele>
        <time>2025-11-26T16:44:14Z</time>
      </trkpt>
      <trkpt lat="43.03016" lon="1.00145">
        <ele>346</ele>
        <time>2025-11-26T16:44:17Z</time>
      </trkpt>
      <trkpt lat="43.02987" lon="1.00138">
        <ele>349</ele>
        <time>2025-11-26T16:44:23Z</time>
      </trkpt>
      <trkpt lat="43.02974" lon="1.00124">
        <ele>350</ele>
        <time>2025-11-26T16:44:25Z</time>
      </trkpt>
      <trkpt lat="43.0297" lon="1.00104">
        <ele>352</ele>
        <time>2025-11-26T16:44:28Z</time>
      </trkpt>
      <trkpt lat="43.02979" lon="1.00018">
        <ele>357</ele>
        <time>2025-11-26T16:44:39Z</time>
      </trkpt>
      <trkpt lat="43.02984" lon="0.99967">
        <ele>359</ele>
        <time>2025-11-26T16:44:46Z</time>
      </trkpt>
      <trkpt lat="43.03" lon="0.99824">
        <ele>366</ele>
        <time>2025-11-26T16:45:05Z</time>
      </trkpt>
      <trkpt lat="43.0301" lon="0.99799">
        <ele>368</ele>
        <time>2025-11-26T16:45:09Z</time>
      </trkpt>
      <trkpt lat="43.03022" lon="0.99784">
        <ele>370</ele>
        <time>2025-11-26T16:45:12Z</time>
      </trkpt>
      <trkpt lat="43.03086" lon="0.99724">
        <ele>373</ele>
        <time>2025-11-26T16:45:25Z</time>
      </trkpt>
      <trkpt lat="43.03097" lon="0.99711">
        <ele>374</ele>
        <time>2025-11-26T16:45:28Z</time>
      </trkpt>
      <trkpt lat="43.03099" lon="0.99703">
        <ele>374</ele>
        <time>2025-11-26T16:45:29Z</time>
      </trkpt>
      <trkpt lat="43.03098" lon="0.9969">
        <ele>374</ele>
        <time>2025-11-26T16:45:31Z</time>
      </trkpt>
      <trkpt lat="43.03092" lon="0.99628">
        <ele>374</ele>
        <time>2025-11-26T16:45:39Z</time>
      </trkpt>
      <trkpt lat="43.03087" lon="0.99571">
        <ele>374</ele>
        <time>2025-11-26T16:45:46Z</time>
      </trkpt>
      <trkpt lat="43.03074" lon="0.99535">
        <ele>375</ele>
        <time>2025-11-26T16:45:52Z</time>
      </trkpt>
      <trkpt lat="43.03062" lon="0.99488">
        <ele>377</ele>
        <time>2025-11-26T16:45:58Z</time>
      </trkpt>
      <trkpt lat="43.03006" lon="0.99235">
        <ele>388</ele>
        <time>2025-11-26T16:46:32Z</time>
      </trkpt>
      <trkpt lat="43.02941" lon="0.98973">
        <ele>410</ele>
        <time>2025-11-26T16:47:08Z</time>
      </trkpt>
      <trkpt lat="43.02928" lon="0.98905">
        <ele>415</ele>
        <time>2025-11-26T16:47:18Z</time>
      </trkpt>
      <trkpt lat="43.02917" lon="0.98885">
        <ele>415</ele>
        <time>2025-11-26T16:47:21Z</time>
      </trkpt>
      <trkpt lat="43.0291" lon="0.98871">
        <ele>417</ele>
        <time>2025-11-26T16:47:23Z</time>
      </trkpt>
      <trkpt lat="43.02909" lon="0.98868">
        <ele>417</ele>
        <time>2025-11-26T16:47:23Z</time>
      </trkpt>
      <trkpt lat="43.02909" lon="0.98863">
        <ele>418</ele>
        <time>2025-11-26T16:47:24Z</time>
      </trkpt>
      <trkpt lat="43.02911" lon="0.9886">
        <ele>418</ele>
        <time>2025-11-26T16:47:25Z</time>
      </trkpt>
      <trkpt lat="43.02916" lon="0.98859">
        <ele>417</ele>
        <time>2025-11-26T16:47:26Z</time>
      </trkpt>
      <trkpt lat="43.0292" lon="0.98862">
        <ele>417</ele>
        <time>2025-11-26T16:47:26Z</time>
      </trkpt>
      <trkpt lat="43.02971" lon="0.98916">
        <ele>416</ele>
        <time>2025-11-26T16:47:38Z</time>
      </trkpt>
      <trkpt lat="43.02975" lon="0.98917">
        <ele>416</ele>
        <time>2025-11-26T16:47:39Z</time>
      </trkpt>
      <trkpt lat="43.02979" lon="0.98915">
        <ele>417</ele>
        <time>2025-11-26T16:47:39Z</time>
      </trkpt>
      <trkpt lat="43.0298" lon="0.98912">
        <ele>417</ele>
        <time>2025-11-26T16:47:40Z</time>
      </trkpt>
      <trkpt lat="43.0298" lon="0.98908">
        <ele>418</ele>
        <time>2025-11-26T16:47:40Z</time>
      </trkpt>
      <trkpt lat="43.02968" lon="0.98886">
        <ele>420</ele>
        <time>2025-11-26T16:47:44Z</time>
      </trkpt>
      <trkpt lat="43.0296" lon="0.98862">
        <ele>422</ele>
        <time>2025-11-26T16:47:47Z</time>
      </trkpt>
      <trkpt lat="43.02956" lon="0.98831">
        <ele>425</ele>
        <time>2025-11-26T16:47:51Z</time>
      </trkpt>
      <trkpt lat="43.02961" lon="0.98806">
        <ele>428</ele>
        <time>2025-11-26T16:47:55Z</time>
      </trkpt>
      <trkpt lat="43.02975" lon="0.98777">
        <ele>432</ele>
        <time>2025-11-26T16:47:59Z</time>
      </trkpt>
      <trkpt lat="43.02985" lon="0.98752">
        <ele>435</ele>
        <time>2025-11-26T16:48:03Z</time>
      </trkpt>
      <trkpt lat="43.02985" lon="0.98729">
        <ele>441</ele>
        <time>2025-11-26T16:48:06Z</time>
      </trkpt>
      <trkpt lat="43.02976" lon="0.98707">
        <ele>446</ele>
        <time>2025-11-26T16:48:09Z</time>
      </trkpt>
      <trkpt lat="43.02965" lon="0.98699">
        <ele>448</ele>
        <time>2025-11-26T16:48:11Z</time>
      </trkpt>
      <trkpt lat="43.02949" lon="0.98702">
        <ele>446</ele>
        <time>2025-11-26T16:48:14Z</time>
      </trkpt>
      <trkpt lat="43.02921" lon="0.98717">
        <ele>442</ele>
        <time>2025-11-26T16:48:20Z</time>
      </trkpt>
      <trkpt lat="43.02903" lon="0.98719">
        <ele>441</ele>
        <time>2025-11-26T16:48:23Z</time>
      </trkpt>
      <trkpt lat="43.02853" lon="0.98711">
        <ele>443</ele>
        <time>2025-11-26T16:48:32Z</time>
      </trkpt>
      <trkpt lat="43.0284" lon="0.98706">
        <ele>443</ele>
        <time>2025-11-26T16:48:34Z</time>
      </trkpt>
      <trkpt lat="43.02834" lon="0.98695">
        <ele>444</ele>
        <time>2025-11-26T16:48:36Z</time>
      </trkpt>
      <trkpt lat="43.02833" lon="0.98682">
        <ele>445</ele>
        <time>2025-11-26T16:48:38Z</time>
      </trkpt>
      <trkpt lat="43.02837" lon="0.98642">
        <ele>448</ele>
        <time>2025-11-26T16:48:43Z</time>
      </trkpt>
      <trkpt lat="43.02836" lon="0.98613">
        <ele>449</ele>
        <time>2025-11-26T16:48:47Z</time>
      </trkpt>
      <trkpt lat="43.02829" lon="0.98581">
        <ele>450</ele>
        <time>2025-11-26T16:48:51Z</time>
      </trkpt>
      <trkpt lat="43.02814" lon="0.98526">
        <ele>451</ele>
        <time>2025-11-26T16:48:59Z</time>
      </trkpt>
      <trkpt lat="43.02703" lon="0.98183">
        <ele>438</ele>
        <time>2025-11-26T16:49:48Z</time>
      </trkpt>
      <trkpt lat="43.02698" lon="0.98156">
        <ele>436</ele>
        <time>2025-11-26T16:49:51Z</time>
      </trkpt>
      <trkpt lat="43.02698" lon="0.98133">
        <ele>435</ele>
        <time>2025-11-26T16:49:54Z</time>
      </trkpt>
      <trkpt lat="43.02704" lon="0.98105">
        <ele>433</ele>
        <time>2025-11-26T16:49:58Z</time>
      </trkpt>
      <trkpt lat="43.02728" lon="0.9806">
        <ele>429</ele>
        <time>2025-11-26T16:50:05Z</time>
      </trkpt>
      <trkpt lat="43.02736" lon="0.98035">
        <ele>427</ele>
        <time>2025-11-26T16:50:09Z</time>
      </trkpt>
      <trkpt lat="43.02736" lon="0.98001">
        <ele>423</ele>
        <time>2025-11-26T16:50:13Z</time>
      </trkpt>
      <trkpt lat="43.02727" lon="0.97975">
        <ele>422</ele>
        <time>2025-11-26T16:50:17Z</time>
      </trkpt>
      <trkpt lat="43.02715" lon="0.97956">
        <ele>421</ele>
        <time>2025-11-26T16:50:20Z</time>
      </trkpt>
      <trkpt lat="43.026" lon="0.97826">
        <ele>419</ele>
        <time>2025-11-26T16:50:47Z</time>
      </trkpt>
      <trkpt lat="43.02586" lon="0.97805">
        <ele>419</ele>
        <time>2025-11-26T16:50:50Z</time>
      </trkpt>
      <trkpt lat="43.02574" lon="0.97767">
        <ele>415</ele>
        <time>2025-11-26T16:50:56Z</time>
      </trkpt>
      <trkpt lat="43.02562" lon="0.97603">
        <ele>413</ele>
        <time>2025-11-26T16:51:17Z</time>
      </trkpt>
      <trkpt lat="43.02561" lon="0.97587">
        <ele>413</ele>
        <time>2025-11-26T16:51:19Z</time>
      </trkpt>
      <trkpt lat="43.02553" lon="0.97531">
        <ele>414</ele>
        <time>2025-11-26T16:51:27Z</time>
      </trkpt>
      <trkpt lat="43.02544" lon="0.97453">
        <ele>415</ele>
        <time>2025-11-26T16:51:37Z</time>
      </trkpt>
      <trkpt lat="43.02544" lon="0.97411">
        <ele>414</ele>
        <time>2025-11-26T16:51:42Z</time>
      </trkpt>
      <trkpt lat="43.02559" lon="0.97233">
        <ele>417</ele>
        <time>2025-11-26T16:52:06Z</time>
      </trkpt>
      <trkpt lat="43.02562" lon="0.97175">
        <ele>417</ele>
        <time>2025-11-26T16:52:13Z</time>
      </trkpt>
      <trkpt lat="43.0256" lon="0.97137">
        <ele>416</ele>
        <time>2025-11-26T16:52:18Z</time>
      </trkpt>
      <trkpt lat="43.02555" lon="0.97071">
        <ele>416</ele>
        <time>2025-11-26T16:52:27Z</time>
      </trkpt>
      <trkpt lat="43.0255" lon="0.96996">
        <ele>417</ele>
        <time>2025-11-26T16:52:37Z</time>
      </trkpt>
      <trkpt lat="43.02535" lon="0.96921">
        <ele>418</ele>
        <time>2025-11-26T16:52:47Z</time>
      </trkpt>
      <trkpt lat="43.02536" lon="0.96911">
        <ele>418</ele>
        <time>2025-11-26T16:52:48Z</time>
      </trkpt>
      <trkpt lat="43.02539" lon="0.96904">
        <ele>418</ele>
        <time>2025-11-26T16:52:49Z</time>
      </trkpt>
      <trkpt lat="43.02536" lon="0.96901">
        <ele>418</ele>
        <time>2025-11-26T16:52:50Z</time>
      </trkpt>
      <trkpt lat="43.02534" lon="0.969">
        <ele>418</ele>
        <time>2025-11-26T16:52:50Z</time>
      </trkpt>
      <trkpt lat="43.0253" lon="0.96891">
        <ele>418</ele>
        <time>2025-11-26T16:52:52Z</time>
      </trkpt>
      <trkpt lat="43.02525" lon="0.96871">
        <ele>418</ele>
        <time>2025-11-26T16:52:54Z</time>
      </trkpt>
      <trkpt lat="43.02519" lon="0.96838">
        <ele>418</ele>
        <time>2025-11-26T16:52:59Z</time>
      </trkpt>
      <trkpt lat="43.02518" lon="0.96834">
        <ele>418</ele>
        <time>2025-11-26T16:52:59Z</time>
      </trkpt>
      <trkpt lat="43.02513" lon="0.96811">
        <ele>418</ele>
        <time>2025-11-26T16:53:02Z</time>
      </trkpt>
      <trkpt lat="43.02503" lon="0.96763">
        <ele>418</ele>
        <time>2025-11-26T16:53:09Z</time>
      </trkpt>
      <trkpt lat="43.02501" lon="0.96742">
        <ele>418</ele>
        <time>2025-11-26T16:53:12Z</time>
      </trkpt>
      <trkpt lat="43.02499" lon="0.96584">
        <ele>413</ele>
        <time>2025-11-26T16:53:32Z</time>
      </trkpt>
      <trkpt lat="43.02499" lon="0.96568">
        <ele>412</ele>
        <time>2025-11-26T16:53:34Z</time>
      </trkpt>
      <trkpt lat="43.02498" lon="0.96554">
        <ele>412</ele>
        <time>2025-11-26T16:53:36Z</time>
      </trkpt>
      <trkpt lat="43.02495" lon="0.96537">
        <ele>412</ele>
        <time>2025-11-26T16:53:38Z</time>
      </trkpt>
      <trkpt lat="43.0249" lon="0.96516">
        <ele>411</ele>
        <time>2025-11-26T16:53:41Z</time>
      </trkpt>
      <trkpt lat="43.0247" lon="0.9644">
        <ele>410</ele>
        <time>2025-11-26T16:53:52Z</time>
      </trkpt>
      <trkpt lat="43.02462" lon="0.96403">
        <ele>410</ele>
        <time>2025-11-26T16:53:57Z</time>
      </trkpt>
      <trkpt lat="43.0246" lon="0.9638">
        <ele>410</ele>
        <time>2025-11-26T16:54:00Z</time>
      </trkpt>
      <trkpt lat="43.02453" lon="0.96312">
        <ele>409</ele>
        <time>2025-11-26T16:54:09Z</time>
      </trkpt>
      <trkpt lat="43.02449" lon="0.9628">
        <ele>409</ele>
        <time>2025-11-26T16:54:13Z</time>
      </trkpt>
      <trkpt lat="43.02437" lon="0.962">
        <ele>409</ele>
        <time>2025-11-26T16:54:24Z</time>
      </trkpt>
      <trkpt lat="43.02426" lon="0.96077">
        <ele>413</ele>
        <time>2025-11-26T16:54:40Z</time>
      </trkpt>
      <trkpt lat="43.02424" lon="0.96057">
        <ele>413</ele>
        <time>2025-11-26T16:54:42Z</time>
      </trkpt>
      <trkpt lat="43.02419" lon="0.96037">
        <ele>414</ele>
        <time>2025-11-26T16:54:45Z</time>
      </trkpt>
      <trkpt lat="43.02413" lon="0.96016">
        <ele>414</ele>
        <time>2025-11-26T16:54:48Z</time>
      </trkpt>
      <trkpt lat="43.02395" lon="0.95967">
        <ele>416</ele>
        <time>2025-11-26T16:54:55Z</time>
      </trkpt>
      <trkpt lat="43.02387" lon="0.95949">
        <ele>417</ele>
        <time>2025-11-26T16:54:58Z</time>
      </trkpt>
      <trkpt lat="43.02381" lon="0.95936">
        <ele>417</ele>
        <time>2025-11-26T16:55:00Z</time>
      </trkpt>
      <trkpt lat="43.02367" lon="0.95908">
        <ele>418</ele>
        <time>2025-11-26T16:55:04Z</time>
      </trkpt>
      <trkpt lat="43.02358" lon="0.95892">
        <ele>419</ele>
        <time>2025-11-26T16:55:07Z</time>
      </trkpt>
      <trkpt lat="43.02339" lon="0.95868">
        <ele>419</ele>
        <time>2025-11-26T16:55:12Z</time>
      </trkpt>
      <trkpt lat="43.02316" lon="0.95843">
        <ele>420</ele>
        <time>2025-11-26T16:55:17Z</time>
      </trkpt>
      <trkpt lat="43.02295" lon="0.95821">
        <ele>422</ele>
        <time>2025-11-26T16:55:22Z</time>
      </trkpt>
      <trkpt lat="43.02284" lon="0.95804">
        <ele>422</ele>
        <time>2025-11-26T16:55:24Z</time>
      </trkpt>
      <trkpt lat="43.0227" lon="0.95777">
        <ele>423</ele>
        <time>2025-11-26T16:55:29Z</time>
      </trkpt>
      <trkpt lat="43.02249" lon="0.95727">
        <ele>424</ele>
        <time>2025-11-26T16:55:36Z</time>
      </trkpt>
      <trkpt lat="43.02205" lon="0.95594">
        <ele>428</ele>
        <time>2025-11-26T16:55:55Z</time>
      </trkpt>
      <trkpt lat="43.02198" lon="0.95579">
        <ele>428</ele>
        <time>2025-11-26T16:55:58Z</time>
      </trkpt>
      <trkpt lat="43.02198" lon="0.95574">
        <ele>428</ele>
        <time>2025-11-26T16:55:58Z</time>
      </trkpt>
      <trkpt lat="43.02195" lon="0.95542">
        <ele>428</ele>
        <time>2025-11-26T16:56:02Z</time>
      </trkpt>
      <trkpt lat="43.0219" lon="0.955">
        <ele>428</ele>
        <time>2025-11-26T16:56:08Z</time>
      </trkpt>
      <trkpt lat="43.02186" lon="0.95482">
        <ele>427</ele>
        <time>2025-11-26T16:56:10Z</time>
      </trkpt>
      <trkpt lat="43.02179" lon="0.95461">
        <ele>427</ele>
        <time>2025-11-26T16:56:13Z</time>
      </trkpt>
      <trkpt lat="43.02153" lon="0.95404">
        <ele>426</ele>
        <time>2025-11-26T16:56:22Z</time>
      </trkpt>
      <trkpt lat="43.02115" lon="0.95337">
        <ele>426</ele>
        <time>2025-11-26T16:56:33Z</time>
      </trkpt>
      <trkpt lat="43.02067" lon="0.95267">
        <ele>430</ele>
        <time>2025-11-26T16:56:46Z</time>
      </trkpt>
      <trkpt lat="43.02011" lon="0.95196">
        <ele>432</ele>
        <time>2025-11-26T16:56:59Z</time>
      </trkpt>
      <trkpt lat="43.01993" lon="0.95166">
        <ele>432</ele>
        <time>2025-11-26T16:57:04Z</time>
      </trkpt>
      <trkpt lat="43.01957" lon="0.95082">
        <ele>434</ele>
        <time>2025-11-26T16:57:17Z</time>
      </trkpt>
      <trkpt lat="43.01926" lon="0.9503">
        <ele>429</ele>
        <time>2025-11-26T16:57:26Z</time>
      </trkpt>
      <trkpt lat="43.01916" lon="0.95013">
        <ele>427</ele>
        <time>2025-11-26T16:57:29Z</time>
      </trkpt>
      <trkpt lat="43.01911" lon="0.95">
        <ele>427</ele>
        <time>2025-11-26T16:57:30Z</time>
      </trkpt>
      <trkpt lat="43.01908" lon="0.9499">
        <ele>426</ele>
        <time>2025-11-26T16:57:32Z</time>
      </trkpt>
      <trkpt lat="43.01906" lon="0.94975">
        <ele>426</ele>
        <time>2025-11-26T16:57:34Z</time>
      </trkpt>
      <trkpt lat="43.01912" lon="0.949">
        <ele>424</ele>
        <time>2025-11-26T16:57:44Z</time>
      </trkpt>
      <trkpt lat="43.01915" lon="0.94882">
        <ele>422</ele>
        <time>2025-11-26T16:57:46Z</time>
      </trkpt>
      <trkpt lat="43.01918" lon="0.94864">
        <ele>422</ele>
        <time>2025-11-26T16:57:48Z</time>
      </trkpt>
      <trkpt lat="43.01925" lon="0.9484">
        <ele>421</ele>
        <time>2025-11-26T16:57:52Z</time>
      </trkpt>
      <trkpt lat="43.01938" lon="0.94807">
        <ele>422</ele>
        <time>2025-11-26T16:57:57Z</time>
      </trkpt>
      <trkpt lat="43.01952" lon="0.94777">
        <ele>421</ele>
        <time>2025-11-26T16:58:01Z</time>
      </trkpt>
      <trkpt lat="43.01997" lon="0.94702">
        <ele>419</ele>
        <time>2025-11-26T16:58:14Z</time>
      </trkpt>
      <trkpt lat="43.02007" lon="0.94678">
        <ele>418</ele>
        <time>2025-11-26T16:58:18Z</time>
      </trkpt>
      <trkpt lat="43.02031" lon="0.94605">
        <ele>414</ele>
        <time>2025-11-26T16:58:28Z</time>
      </trkpt>
      <trkpt lat="43.02071" lon="0.94514">
        <ele>411</ele>
        <time>2025-11-26T16:58:42Z</time>
      </trkpt>
      <trkpt lat="43.02093" lon="0.94443">
        <ele>406</ele>
        <time>2025-11-26T16:58:52Z</time>
      </trkpt>
      <trkpt lat="43.0211" lon="0.94408">
        <ele>405</ele>
        <time>2025-11-26T16:58:57Z</time>
      </trkpt>
      <trkpt lat="43.02125" lon="0.94382">
        <ele>404</ele>
        <time>2025-11-26T16:59:02Z</time>
      </trkpt>
      <trkpt lat="43.02134" lon="0.94371">
        <ele>404</ele>
        <time>2025-11-26T16:59:04Z</time>
      </trkpt>
      <trkpt lat="43.02147" lon="0.94353">
        <ele>403</ele>
        <time>2025-11-26T16:59:07Z</time>
      </trkpt>
      <trkpt lat="43.02154" lon="0.94342">
        <ele>402</ele>
        <time>2025-11-26T16:59:09Z</time>
      </trkpt>
      <trkpt lat="43.02161" lon="0.94326">
        <ele>400</ele>
        <time>2025-11-26T16:59:11Z</time>
      </trkpt>
      <trkpt lat="43.02168" lon="0.94302">
        <ele>400</ele>
        <time>2025-11-26T16:59:15Z</time>
      </trkpt>
      <trkpt lat="43.02174" lon="0.94275">
        <ele>401</ele>
        <time>2025-11-26T16:59:18Z</time>
      </trkpt>
      <trkpt lat="43.02183" lon="0.94244">
        <ele>401</ele>
        <time>2025-11-26T16:59:23Z</time>
      </trkpt>
      <trkpt lat="43.02221" lon="0.94144">
        <ele>398</ele>
        <time>2025-11-26T16:59:37Z</time>
      </trkpt>
      <trkpt lat="43.02239" lon="0.94116">
        <ele>397</ele>
        <time>2025-11-26T16:59:42Z</time>
      </trkpt>
      <trkpt lat="43.02267" lon="0.94087">
        <ele>397</ele>
        <time>2025-11-26T16:59:48Z</time>
      </trkpt>
      <trkpt lat="43.02293" lon="0.94063">
        <ele>397</ele>
        <time>2025-11-26T16:59:54Z</time>
      </trkpt>
      <trkpt lat="43.02355" lon="0.94012">
        <ele>397</ele>
        <time>2025-11-26T17:00:07Z</time>
      </trkpt>
      <trkpt lat="43.02412" lon="0.93968">
        <ele>397</ele>
        <time>2025-11-26T17:00:19Z</time>
      </trkpt>
      <trkpt lat="43.02428" lon="0.9396">
        <ele>397</ele>
        <time>2025-11-26T17:00:22Z</time>
      </trkpt>
      <trkpt lat="43.02441" lon="0.93955">
        <ele>397</ele>
        <time>2025-11-26T17:00:24Z</time>
      </trkpt>
      <trkpt lat="43.02458" lon="0.93951">
        <ele>397</ele>
        <time>2025-11-26T17:00:27Z</time>
      </trkpt>
      <trkpt lat="43.02468" lon="0.9395">
        <ele>397</ele>
        <time>2025-11-26T17:00:29Z</time>
      </trkpt>
      <trkpt lat="43.02497" lon="0.93947">
        <ele>398</ele>
        <time>2025-11-26T17:00:34Z</time>
      </trkpt>
      <trkpt lat="43.02507" lon="0.93943">
        <ele>399</ele>
        <time>2025-11-26T17:00:36Z</time>
      </trkpt>
      <trkpt lat="43.02517" lon="0.93936">
        <ele>399</ele>
        <time>2025-11-26T17:00:38Z</time>
      </trkpt>
      <trkpt lat="43.02525" lon="0.93925">
        <ele>399</ele>
        <time>2025-11-26T17:00:40Z</time>
      </trkpt>
      <trkpt lat="43.02553" lon="0.93862">
        <ele>396</ele>
        <time>2025-11-26T17:00:49Z</time>
      </trkpt>
      <trkpt lat="43.02564" lon="0.93849">
        <ele>396</ele>
        <time>2025-11-26T17:00:52Z</time>
      </trkpt>
      <trkpt lat="43.02644" lon="0.93765">
        <ele>396</ele>
        <time>2025-11-26T17:01:10Z</time>
      </trkpt>
      <trkpt lat="43.02658" lon="0.93745">
        <ele>395</ele>
        <time>2025-11-26T17:01:14Z</time>
      </trkpt>
      <trkpt lat="43.02669" lon="0.93727">
        <ele>394</ele>
        <time>2025-11-26T17:01:17Z</time>
      </trkpt>
      <trkpt lat="43.0268" lon="0.93701">
        <ele>393</ele>
        <time>2025-11-26T17:01:21Z</time>
      </trkpt>
      <trkpt lat="43.02689" lon="0.93671">
        <ele>393</ele>
        <time>2025-11-26T17:01:25Z</time>
      </trkpt>
      <trkpt lat="43.02743" lon="0.93419">
        <ele>391</ele>
        <time>2025-11-26T17:01:59Z</time>
      </trkpt>
      <trkpt lat="43.02751" lon="0.93387">
        <ele>389</ele>
        <time>2025-11-26T17:02:03Z</time>
      </trkpt>
      <trkpt lat="43.02752" lon="0.93377">
        <ele>388</ele>
        <time>2025-11-26T17:02:05Z</time>
      </trkpt>
      <trkpt lat="43.02742" lon="0.93344">
        <ele>383</ele>
        <time>2025-11-26T17:02:09Z</time>
      </trkpt>
      <trkpt lat="43.02741" lon="0.93329">
        <ele>382</ele>
        <time>2025-11-26T17:02:11Z</time>
      </trkpt>
      <trkpt lat="43.02743" lon="0.93306">
        <ele>380</ele>
        <time>2025-11-26T17:02:14Z</time>
      </trkpt>
      <trkpt lat="43.02751" lon="0.93283">
        <ele>378</ele>
        <time>2025-11-26T17:02:18Z</time>
      </trkpt>
      <trkpt lat="43.02768" lon="0.9326">
        <ele>378</ele>
        <time>2025-11-26T17:02:22Z</time>
      </trkpt>
      <trkpt lat="43.02846" lon="0.93209">
        <ele>379</ele>
        <time>2025-11-26T17:02:37Z</time>
      </trkpt>
      <trkpt lat="43.02869" lon="0.93198">
        <ele>378</ele>
        <time>2025-11-26T17:02:42Z</time>
      </trkpt>
      <trkpt lat="43.02882" lon="0.93195">
        <ele>378</ele>
        <time>2025-11-26T17:02:44Z</time>
      </trkpt>
      <trkpt lat="43.02896" lon="0.93197">
        <ele>378</ele>
        <time>2025-11-26T17:02:46Z</time>
      </trkpt>
      <trkpt lat="43.02931" lon="0.93222">
        <ele>379</ele>
        <time>2025-11-26T17:02:53Z</time>
      </trkpt>
      <trkpt lat="43.02941" lon="0.93226">
        <ele>380</ele>
        <time>2025-11-26T17:02:55Z</time>
      </trkpt>
      <trkpt lat="43.02949" lon="0.93227">
        <ele>380</ele>
        <time>2025-11-26T17:02:57Z</time>
      </trkpt>
      <trkpt lat="43.02955" lon="0.93226">
        <ele>380</ele>
        <time>2025-11-26T17:02:58Z</time>
      </trkpt>
      <trkpt lat="43.0296" lon="0.93224">
        <ele>380</ele>
        <time>2025-11-26T17:02:59Z</time>
      </trkpt>
      <trkpt lat="43.02965" lon="0.93221">
        <ele>379</ele>
        <time>2025-11-26T17:03:00Z</time>
      </trkpt>
      <trkpt lat="43.02969" lon="0.93216">
        <ele>379</ele>
        <time>2025-11-26T17:03:01Z</time>
      </trkpt>
      <trkpt lat="43.02972" lon="0.93209">
        <ele>379</ele>
        <time>2025-11-26T17:03:02Z</time>
      </trkpt>
      <trkpt lat="43.02974" lon="0.93194">
        <ele>378</ele>
        <time>2025-11-26T17:03:04Z</time>
      </trkpt>
      <trkpt lat="43.0298" lon="0.9312">
        <ele>373</ele>
        <time>2025-11-26T17:03:13Z</time>
      </trkpt>
      <trkpt lat="43.02984" lon="0.93092">
        <ele>372</ele>
        <time>2025-11-26T17:03:17Z</time>
      </trkpt>
      <trkpt lat="43.02989" lon="0.93071">
        <ele>370</ele>
        <time>2025-11-26T17:03:20Z</time>
      </trkpt>
      <trkpt lat="43.02997" lon="0.9305">
        <ele>369</ele>
        <time>2025-11-26T17:03:23Z</time>
      </trkpt>
      <trkpt lat="43.03008" lon="0.93036">
        <ele>369</ele>
        <time>2025-11-26T17:03:26Z</time>
      </trkpt>
      <trkpt lat="43.03015" lon="0.93029">
        <ele>368</ele>
        <time>2025-11-26T17:03:27Z</time>
      </trkpt>
      <trkpt lat="43.03022" lon="0.93024">
        <ele>368</ele>
        <time>2025-11-26T17:03:29Z</time>
      </trkpt>
      <trkpt lat="43.03067" lon="0.93013">
        <ele>367</ele>
        <time>2025-11-26T17:03:37Z</time>
      </trkpt>
      <trkpt lat="43.0308" lon="0.93012">
        <ele>367</ele>
        <time>2025-11-26T17:03:39Z</time>
      </trkpt>
      <trkpt lat="43.03101" lon="0.93018">
        <ele>368</ele>
        <time>2025-11-26T17:03:43Z</time>
      </trkpt>
      <trkpt lat="43.0312" lon="0.93028">
        <ele>369</ele>
        <time>2025-11-26T17:03:47Z</time>
      </trkpt>
      <trkpt lat="43.0313" lon="0.93032">
        <ele>370</ele>
        <time>2025-11-26T17:03:48Z</time>
      </trkpt>
      <trkpt lat="43.03153" lon="0.93024">
        <ele>368</ele>
        <time>2025-11-26T17:03:53Z</time>
      </trkpt>
      <trkpt lat="43.0319" lon="0.92996">
        <ele>363</ele>
        <time>2025-11-26T17:04:00Z</time>
      </trkpt>
      <trkpt lat="43.03212" lon="0.92972">
        <ele>360</ele>
        <time>2025-11-26T17:04:05Z</time>
      </trkpt>
      <trkpt lat="43.0323" lon="0.92962">
        <ele>359</ele>
        <time>2025-11-26T17:04:09Z</time>
      </trkpt>
      <trkpt lat="43.03236" lon="0.92957">
        <ele>358</ele>
        <time>2025-11-26T17:04:10Z</time>
      </trkpt>
      <trkpt lat="43.03245" lon="0.92946">
        <ele>357</ele>
        <time>2025-11-26T17:04:12Z</time>
      </trkpt>
      <trkpt lat="43.0325" lon="0.92938">
        <ele>356</ele>
        <time>2025-11-26T17:04:13Z</time>
      </trkpt>
      <trkpt lat="43.03253" lon="0.92932">
        <ele>355</ele>
        <time>2025-11-26T17:04:14Z</time>
      </trkpt>
      <trkpt lat="43.03257" lon="0.92919">
        <ele>353</ele>
        <time>2025-11-26T17:04:16Z</time>
      </trkpt>
      <trkpt lat="43.03259" lon="0.92917">
        <ele>353</ele>
        <time>2025-11-26T17:04:17Z</time>
      </trkpt>
      <trkpt lat="43.03261" lon="0.92914">
        <ele>353</ele>
        <time>2025-11-26T17:04:17Z</time>
      </trkpt>
      <trkpt lat="43.03266" lon="0.92914">
        <ele>353</ele>
        <time>2025-11-26T17:04:18Z</time>
      </trkpt>
      <trkpt lat="43.03274" lon="0.92916">
        <ele>352</ele>
        <time>2025-11-26T17:04:19Z</time>
      </trkpt>
      <trkpt lat="43.03309" lon="0.92935">
        <ele>352</ele>
        <time>2025-11-26T17:04:26Z</time>
      </trkpt>
      <trkpt lat="43.03348" lon="0.92955">
        <ele>351</ele>
        <time>2025-11-26T17:04:34Z</time>
      </trkpt>
      <trkpt lat="43.03356" lon="0.92962">
        <ele>350</ele>
        <time>2025-11-26T17:04:35Z</time>
      </trkpt>
      <trkpt lat="43.03376" lon="0.92987">
        <ele>350</ele>
        <time>2025-11-26T17:04:40Z</time>
      </trkpt>
      <trkpt lat="43.03404" lon="0.93011">
        <ele>349</ele>
        <time>2025-11-26T17:04:46Z</time>
      </trkpt>
      <trkpt lat="43.03423" lon="0.93026">
        <ele>348</ele>
        <time>2025-11-26T17:04:50Z</time>
      </trkpt>
      <trkpt lat="43.03428" lon="0.93027">
        <ele>349</ele>
        <time>2025-11-26T17:04:51Z</time>
      </trkpt>
      <trkpt lat="43.03432" lon="0.93025">
        <ele>349</ele>
        <time>2025-11-26T17:04:52Z</time>
      </trkpt>
      <trkpt lat="43.03436" lon="0.93019">
        <ele>349</ele>
        <time>2025-11-26T17:04:53Z</time>
      </trkpt>
      <trkpt lat="43.03487" lon="0.92822">
        <ele>354</ele>
        <time>2025-11-26T17:05:20Z</time>
      </trkpt>
      <trkpt lat="43.03499" lon="0.92789">
        <ele>353</ele>
        <time>2025-11-26T17:05:25Z</time>
      </trkpt>
      <trkpt lat="43.03504" lon="0.92774">
        <ele>353</ele>
        <time>2025-11-26T17:05:27Z</time>
      </trkpt>
      <trkpt lat="43.03528" lon="0.9271">
        <ele>356</ele>
        <time>2025-11-26T17:05:36Z</time>
      </trkpt>
      <trkpt lat="43.03531" lon="0.92694">
        <ele>357</ele>
        <time>2025-11-26T17:05:38Z</time>
      </trkpt>
      <trkpt lat="43.03533" lon="0.92675">
        <ele>357</ele>
        <time>2025-11-26T17:05:41Z</time>
      </trkpt>
      <trkpt lat="43.03535" lon="0.92564">
        <ele>363</ele>
        <time>2025-11-26T17:05:55Z</time>
      </trkpt>
      <trkpt lat="43.03537" lon="0.92545">
        <ele>364</ele>
        <time>2025-11-26T17:05:58Z</time>
      </trkpt>
      <trkpt lat="43.03565" lon="0.9239">
        <ele>370</ele>
        <time>2025-11-26T17:06:18Z</time>
      </trkpt>
      <trkpt lat="43.03568" lon="0.92382">
        <ele>370</ele>
        <time>2025-11-26T17:06:20Z</time>
      </trkpt>
      <trkpt lat="43.03561" lon="0.9237">
        <ele>370</ele>
        <time>2025-11-26T17:06:22Z</time>
      </trkpt>
      <trkpt lat="43.03555" lon="0.92364">
        <ele>369</ele>
        <time>2025-11-26T17:06:23Z</time>
      </trkpt>
      <trkpt lat="43.03552" lon="0.92361">
        <ele>369</ele>
        <time>2025-11-26T17:06:24Z</time>
      </trkpt>
      <trkpt lat="43.03527" lon="0.92357">
        <ele>368</ele>
        <time>2025-11-26T17:06:28Z</time>
      </trkpt>
      <trkpt lat="43.03488" lon="0.92355">
        <ele>366</ele>
        <time>2025-11-26T17:06:35Z</time>
      </trkpt>
      <trkpt lat="43.03473" lon="0.92349">
        <ele>365</ele>
        <time>2025-11-26T17:06:38Z</time>
      </trkpt>
      <trkpt lat="43.03454" lon="0.92327">
        <ele>364</ele>
        <time>2025-11-26T17:06:42Z</time>
      </trkpt>
      <trkpt lat="43.03432" lon="0.92294">
        <ele>364</ele>
        <time>2025-11-26T17:06:48Z</time>
      </trkpt>
      <trkpt lat="43.03415" lon="0.92258">
        <ele>364</ele>
        <time>2025-11-26T17:06:54Z</time>
      </trkpt>
      <trkpt lat="43.03386" lon="0.92179">
        <ele>366</ele>
        <time>2025-11-26T17:07:05Z</time>
      </trkpt>
      <trkpt lat="43.03332" lon="0.9204">
        <ele>365</ele>
        <time>2025-11-26T17:07:26Z</time>
      </trkpt>
      <trkpt lat="43.03321" lon="0.92012">
        <ele>366</ele>
        <time>2025-11-26T17:07:30Z</time>
      </trkpt>
      <trkpt lat="43.03313" lon="0.91996">
        <ele>366</ele>
        <time>2025-11-26T17:07:32Z</time>
      </trkpt>
      <trkpt lat="43.03303" lon="0.91985">
        <ele>365</ele>
        <time>2025-11-26T17:07:34Z</time>
      </trkpt>
      <trkpt lat="43.03295" lon="0.91983">
        <ele>365</ele>
        <time>2025-11-26T17:07:36Z</time>
      </trkpt>
      <trkpt lat="43.03281" lon="0.91986">
        <ele>364</ele>
        <time>2025-11-26T17:07:38Z</time>
      </trkpt>
      <trkpt lat="43.03236" lon="0.92019">
        <ele>360</ele>
        <time>2025-11-26T17:07:48Z</time>
      </trkpt>
      <trkpt lat="43.03222" lon="0.92027">
        <ele>360</ele>
        <time>2025-11-26T17:07:50Z</time>
      </trkpt>
      <trkpt lat="43.03213" lon="0.92029">
        <ele>360</ele>
        <time>2025-11-26T17:07:52Z</time>
      </trkpt>
      <trkpt lat="43.03202" lon="0.92028">
        <ele>360</ele>
        <time>2025-11-26T17:07:54Z</time>
      </trkpt>
      <trkpt lat="43.03193" lon="0.92019">
        <ele>360</ele>
        <time>2025-11-26T17:07:56Z</time>
      </trkpt>
      <trkpt lat="43.03191" lon="0.92017">
        <ele>360</ele>
        <time>2025-11-26T17:07:56Z</time>
      </trkpt>
      <trkpt lat="43.03181" lon="0.92003">
        <ele>361</ele>
        <time>2025-11-26T17:07:59Z</time>
      </trkpt>
      <trkpt lat="43.03174" lon="0.91997">
        <ele>361</ele>
        <time>2025-11-26T17:08:00Z</time>
      </trkpt>
      <trkpt lat="43.03166" lon="0.91994">
        <ele>361</ele>
        <time>2025-11-26T17:08:02Z</time>
      </trkpt>
      <trkpt lat="43.03153" lon="0.91995">
        <ele>363</ele>
        <time>2025-11-26T17:08:04Z</time>
      </trkpt>
      <trkpt lat="43.03138" lon="0.92001">
        <ele>363</ele>
        <time>2025-11-26T17:08:07Z</time>
      </trkpt>
      <trkpt lat="43.03128" lon="0.92014">
        <ele>363</ele>
        <time>2025-11-26T17:08:09Z</time>
      </trkpt>
      <trkpt lat="43.0312" lon="0.9203">
        <ele>362</ele>
        <time>2025-11-26T17:08:12Z</time>
      </trkpt>
      <trkpt lat="43.03098" lon="0.92049">
        <ele>362</ele>
        <time>2025-11-26T17:08:16Z</time>
      </trkpt>
      <trkpt lat="43.03076" lon="0.92053">
        <ele>362</ele>
        <time>2025-11-26T17:08:20Z</time>
      </trkpt>
      <trkpt lat="43.03037" lon="0.92034">
        <ele>364</ele>
        <time>2025-11-26T17:08:28Z</time>
      </trkpt>
      <trkpt lat="43.03018" lon="0.92023">
        <ele>365</ele>
        <time>2025-11-26T17:08:31Z</time>
      </trkpt>
      <trkpt lat="43.03006" lon="0.92017">
        <ele>365</ele>
        <time>2025-11-26T17:08:34Z</time>
      </trkpt>
      <trkpt lat="43.02994" lon="0.92014">
        <ele>365</ele>
        <time>2025-11-26T17:08:36Z</time>
      </trkpt>
      <trkpt lat="43.02966" lon="0.9202">
        <ele>365</ele>
        <time>2025-11-26T17:08:41Z</time>
      </trkpt>
      <trkpt lat="43.02944" lon="0.92029">
        <ele>365</ele>
        <time>2025-11-26T17:08:45Z</time>
      </trkpt>
      <trkpt lat="43.02919" lon="0.92035">
        <ele>365</ele>
        <time>2025-11-26T17:08:49Z</time>
      </trkpt>
      <trkpt lat="43.02907" lon="0.92036">
        <ele>364</ele>
        <time>2025-11-26T17:08:52Z</time>
      </trkpt>
      <trkpt lat="43.02894" lon="0.92034">
        <ele>364</ele>
        <time>2025-11-26T17:08:54Z</time>
      </trkpt>
      <trkpt lat="43.02878" lon="0.92027">
        <ele>364</ele>
        <time>2025-11-26T17:08:57Z</time>
      </trkpt>
      <trkpt lat="43.02856" lon="0.9201">
        <ele>364</ele>
        <time>2025-11-26T17:09:01Z</time>
      </trkpt>
      <trkpt lat="43.02769" lon="0.91913">
        <ele>366</ele>
        <time>2025-11-26T17:09:21Z</time>
      </trkpt>
      <trkpt lat="43.02725" lon="0.9187">
        <ele>371</ele>
        <time>2025-11-26T17:09:31Z</time>
      </trkpt>
      <trkpt lat="43.02694" lon="0.91831">
        <ele>372</ele>
        <time>2025-11-26T17:09:39Z</time>
      </trkpt>
      <trkpt lat="43.02675" lon="0.91801">
        <ele>373</ele>
        <time>2025-11-26T17:09:44Z</time>
      </trkpt>
      <trkpt lat="43.02628" lon="0.91722">
        <ele>375</ele>
        <time>2025-11-26T17:09:57Z</time>
      </trkpt>
      <trkpt lat="43.02575" lon="0.91647">
        <ele>372</ele>
        <time>2025-11-26T17:10:11Z</time>
      </trkpt>
      <trkpt lat="43.02554" lon="0.91621">
        <ele>373</ele>
        <time>2025-11-26T17:10:16Z</time>
      </trkpt>
      <trkpt lat="43.02526" lon="0.91592">
        <ele>372</ele>
        <time>2025-11-26T17:10:22Z</time>
      </trkpt>
      <trkpt lat="43.02449" lon="0.91531">
        <ele>372</ele>
        <time>2025-11-26T17:10:38Z</time>
      </trkpt>
      <trkpt lat="43.0243" lon="0.91508">
        <ele>371</ele>
        <time>2025-11-26T17:10:42Z</time>
      </trkpt>
      <trkpt lat="43.02412" lon="0.91456">
        <ele>376</ele>
        <time>2025-11-26T17:10:50Z</time>
      </trkpt>
      <trkpt lat="43.02401" lon="0.91435">
        <ele>379</ele>
        <time>2025-11-26T17:10:53Z</time>
      </trkpt>
      <trkpt lat="43.02384" lon="0.91418">
        <ele>379</ele>
        <time>2025-11-26T17:10:57Z</time>
      </trkpt>
      <trkpt lat="43.02315" lon="0.91375">
        <ele>377</ele>
        <time>2025-11-26T17:11:10Z</time>
      </trkpt>
      <trkpt lat="43.02297" lon="0.91346">
        <ele>379</ele>
        <time>2025-11-26T17:11:15Z</time>
      </trkpt>
      <trkpt lat="43.0229" lon="0.91319">
        <ele>381</ele>
        <time>2025-11-26T17:11:19Z</time>
      </trkpt>
      <trkpt lat="43.02285" lon="0.91262">
        <ele>386</ele>
        <time>2025-11-26T17:11:26Z</time>
      </trkpt>
      <trkpt lat="43.02277" lon="0.9124">
        <ele>387</ele>
        <time>2025-11-26T17:11:30Z</time>
      </trkpt>
      <trkpt lat="43.02268" lon="0.91228">
        <ele>386</ele>
        <time>2025-11-26T17:11:32Z</time>
      </trkpt>
      <trkpt lat="43.02207" lon="0.91199">
        <ele>380</ele>
        <time>2025-11-26T17:11:43Z</time>
      </trkpt>
      <trkpt lat="43.02168" lon="0.9117">
        <ele>374</ele>
        <time>2025-11-26T17:11:51Z</time>
      </trkpt>
      <trkpt lat="43.02149" lon="0.91155">
        <ele>376</ele>
        <time>2025-11-26T17:11:55Z</time>
      </trkpt>
      <trkpt lat="43.02121" lon="0.91115">
        <ele>379</ele>
        <time>2025-11-26T17:12:02Z</time>
      </trkpt>
      <trkpt lat="43.02106" lon="0.91102">
        <ele>379</ele>
        <time>2025-11-26T17:12:05Z</time>
      </trkpt>
      <trkpt lat="43.02082" lon="0.91091">
        <ele>377</ele>
        <time>2025-11-26T17:12:10Z</time>
      </trkpt>
      <trkpt lat="43.02045" lon="0.91081">
        <ele>379</ele>
        <time>2025-11-26T17:12:17Z</time>
      </trkpt>
      <trkpt lat="43.02027" lon="0.91072">
        <ele>380</ele>
        <time>2025-11-26T17:12:20Z</time>
      </trkpt>
      <trkpt lat="43.02011" lon="0.91056">
        <ele>381</ele>
        <time>2025-11-26T17:12:24Z</time>
      </trkpt>
      <trkpt lat="43.01997" lon="0.91027">
        <ele>381</ele>
        <time>2025-11-26T17:12:28Z</time>
      </trkpt>
      <trkpt lat="43.01978" lon="0.90982">
        <ele>382</ele>
        <time>2025-11-26T17:12:35Z</time>
      </trkpt>
      <trkpt lat="43.01967" lon="0.90959">
        <ele>383</ele>
        <time>2025-11-26T17:12:38Z</time>
      </trkpt>
      <trkpt lat="43.0195" lon="0.90926">
        <ele>383</ele>
        <time>2025-11-26T17:12:44Z</time>
      </trkpt>
      <trkpt lat="43.01899" lon="0.9085">
        <ele>382</ele>
        <time>2025-11-26T17:12:57Z</time>
      </trkpt>
      <trkpt lat="43.01883" lon="0.90819">
        <ele>383</ele>
        <time>2025-11-26T17:13:02Z</time>
      </trkpt>
      <trkpt lat="43.01856" lon="0.90733">
        <ele>385</ele>
        <time>2025-11-26T17:13:14Z</time>
      </trkpt>
      <trkpt lat="43.0185" lon="0.90722">
        <ele>385</ele>
        <time>2025-11-26T17:13:16Z</time>
      </trkpt>
      <trkpt lat="43.01844" lon="0.90716">
        <ele>385</ele>
        <time>2025-11-26T17:13:17Z</time>
      </trkpt>
      <trkpt lat="43.01828" lon="0.90706">
        <ele>384</ele>
        <time>2025-11-26T17:13:20Z</time>
      </trkpt>
      <trkpt lat="43.0182" lon="0.90705">
        <ele>385</ele>
        <time>2025-11-26T17:13:22Z</time>
      </trkpt>
      <trkpt lat="43.01805" lon="0.90709">
        <ele>385</ele>
        <time>2025-11-26T17:13:25Z</time>
      </trkpt>
      <trkpt lat="43.01752" lon="0.90747">
        <ele>384</ele>
        <time>2025-11-26T17:13:35Z</time>
      </trkpt>
      <trkpt lat="43.01742" lon="0.9075">
        <ele>384</ele>
        <time>2025-11-26T17:13:37Z</time>
      </trkpt>
      <trkpt lat="43.01733" lon="0.9075">
        <ele>384</ele>
        <time>2025-11-26T17:13:39Z</time>
      </trkpt>
      <trkpt lat="43.01713" lon="0.90744">
        <ele>384</ele>
        <time>2025-11-26T17:13:42Z</time>
      </trkpt>
      <trkpt lat="43.01695" lon="0.90731">
        <ele>385</ele>
        <time>2025-11-26T17:13:46Z</time>
      </trkpt>
      <trkpt lat="43.01684" lon="0.90719">
        <ele>385</ele>
        <time>2025-11-26T17:13:48Z</time>
      </trkpt>
      <trkpt lat="43.01676" lon="0.90706">
        <ele>386</ele>
        <time>2025-11-26T17:13:51Z</time>
      </trkpt>
      <trkpt lat="43.01666" lon="0.90685">
        <ele>387</ele>
        <time>2025-11-26T17:13:54Z</time>
      </trkpt>
      <trkpt lat="43.0166" lon="0.90664">
        <ele>388</ele>
        <time>2025-11-26T17:13:57Z</time>
      </trkpt>
      <trkpt lat="43.01654" lon="0.90617">
        <ele>390</ele>
        <time>2025-11-26T17:14:03Z</time>
      </trkpt>
      <trkpt lat="43.01648" lon="0.90595">
        <ele>390</ele>
        <time>2025-11-26T17:14:06Z</time>
      </trkpt>
      <trkpt lat="43.01623" lon="0.90533">
        <ele>390</ele>
        <time>2025-11-26T17:14:15Z</time>
      </trkpt>
      <trkpt lat="43.01619" lon="0.90524">
        <ele>390</ele>
        <time>2025-11-26T17:14:17Z</time>
      </trkpt>
      <trkpt lat="43.01602" lon="0.90483">
        <ele>388</ele>
        <time>2025-11-26T17:14:23Z</time>
      </trkpt>
      <trkpt lat="43.01593" lon="0.90467">
        <ele>387</ele>
        <time>2025-11-26T17:14:25Z</time>
      </trkpt>
      <trkpt lat="43.01582" lon="0.90457">
        <ele>387</ele>
        <time>2025-11-26T17:14:28Z</time>
      </trkpt>
      <trkpt lat="43.01566" lon="0.90452">
        <ele>387</ele>
        <time>2025-11-26T17:14:31Z</time>
      </trkpt>
      <trkpt lat="43.01492" lon="0.90466">
        <ele>390</ele>
        <time>2025-11-26T17:14:44Z</time>
      </trkpt>
      <trkpt lat="43.01484" lon="0.90467">
        <ele>390</ele>
        <time>2025-11-26T17:14:45Z</time>
      </trkpt>
      <trkpt lat="43.01383" lon="0.90467">
        <ele>394</ele>
        <time>2025-11-26T17:15:03Z</time>
      </trkpt>
      <trkpt lat="43.01295" lon="0.90478">
        <ele>389</ele>
        <time>2025-11-26T17:15:19Z</time>
      </trkpt>
      <trkpt lat="43.01257" lon="0.90477">
        <ele>387</ele>
        <time>2025-11-26T17:15:26Z</time>
      </trkpt>
      <trkpt lat="43.01197" lon="0.90461">
        <ele>388</ele>
        <time>2025-11-26T17:15:37Z</time>
      </trkpt>
      <trkpt lat="43.01104" lon="0.90459">
        <ele>391</ele>
        <time>2025-11-26T17:15:53Z</time>
      </trkpt>
      <trkpt lat="43.01053" lon="0.9045">
        <ele>393</ele>
        <time>2025-11-26T17:16:03Z</time>
      </trkpt>
      <trkpt lat="43.00952" lon="0.90396">
        <ele>397</ele>
        <time>2025-11-26T17:16:22Z</time>
      </trkpt>
      <trkpt lat="43.00898" lon="0.90364">
        <ele>400</ele>
        <time>2025-11-26T17:16:32Z</time>
      </trkpt>
      <trkpt lat="43.00838" lon="0.90311">
        <ele>402</ele>
        <time>2025-11-26T17:16:45Z</time>
      </trkpt>
      <trkpt lat="43.00802" lon="0.90277">
        <ele>408</ele>
        <time>2025-11-26T17:16:53Z</time>
      </trkpt>
      <trkpt lat="43.00779" lon="0.90268">
        <ele>408</ele>
        <time>2025-11-26T17:16:57Z</time>
      </trkpt>
      <trkpt lat="43.00759" lon="0.90263">
        <ele>408</ele>
        <time>2025-11-26T17:17:01Z</time>
      </trkpt>
      <trkpt lat="43.00727" lon="0.90262">
        <ele>405</ele>
        <time>2025-11-26T17:17:06Z</time>
      </trkpt>
      <trkpt lat="43.00693" lon="0.90262">
        <ele>401</ele>
        <time>2025-11-26T17:17:12Z</time>
      </trkpt>
      <trkpt lat="43.00655" lon="0.9026">
        <ele>397</ele>
        <time>2025-11-26T17:17:19Z</time>
      </trkpt>
      <trkpt lat="43.0065" lon="0.90259">
        <ele>397</ele>
        <time>2025-11-26T17:17:20Z</time>
      </trkpt>
      <trkpt lat="43.0064" lon="0.90256">
        <ele>397</ele>
        <time>2025-11-26T17:17:22Z</time>
      </trkpt>
      <trkpt lat="43.00618" lon="0.90245">
        <ele>397</ele>
        <time>2025-11-26T17:17:26Z</time>
      </trkpt>
      <trkpt lat="43.00633" lon="0.90221">
        <ele>399</ele>
        <time>2025-11-26T17:17:30Z</time>
      </trkpt>
      <trkpt lat="43.00636" lon="0.90213">
        <ele>400</ele>
        <time>2025-11-26T17:17:31Z</time>
      </trkpt>
      <trkpt lat="43.00636" lon="0.90204">
        <ele>401</ele>
        <time>2025-11-26T17:17:32Z</time>
      </trkpt>
      <trkpt lat="43.00634" lon="0.90194">
        <ele>402</ele>
        <time>2025-11-26T17:17:34Z</time>
      </trkpt>
      <trkpt lat="43.0063" lon="0.90183">
        <ele>402</ele>
        <time>2025-11-26T17:17:35Z</time>
      </trkpt>
      <trkpt lat="43.00614" lon="0.90145">
        <ele>403</ele>
        <time>2025-11-26T17:17:41Z</time>
      </trkpt>
      <trkpt lat="43.00608" lon="0.90127">
        <ele>403</ele>
        <time>2025-11-26T17:17:44Z</time>
      </trkpt>
      <trkpt lat="43.00608" lon="0.90115">
        <ele>403</ele>
        <time>2025-11-26T17:17:45Z</time>
      </trkpt>
      <trkpt lat="43.00609" lon="0.90107">
        <ele>404</ele>
        <time>2025-11-26T17:17:46Z</time>
      </trkpt>
      <trkpt lat="43.00613" lon="0.90093">
        <ele>405</ele>
        <time>2025-11-26T17:17:48Z</time>
      </trkpt>
      <trkpt lat="43.00622" lon="0.90082">
        <ele>407</ele>
        <time>2025-11-26T17:17:50Z</time>
      </trkpt>
      <trkpt lat="43.00646" lon="0.90061">
        <ele>411</ele>
        <time>2025-11-26T17:17:56Z</time>
      </trkpt>
      <trkpt lat="43.00652" lon="0.90053">
        <ele>412</ele>
        <time>2025-11-26T17:17:57Z</time>
      </trkpt>
      <trkpt lat="43.00656" lon="0.90042">
        <ele>412</ele>
        <time>2025-11-26T17:17:59Z</time>
      </trkpt>
      <trkpt lat="43.00664" lon="0.9001">
        <ele>414</ele>
        <time>2025-11-26T17:18:03Z</time>
      </trkpt>
      <trkpt lat="43.00665" lon="0.89988">
        <ele>414</ele>
        <time>2025-11-26T17:18:06Z</time>
      </trkpt>
      <trkpt lat="43.00665" lon="0.8994">
        <ele>414</ele>
        <time>2025-11-26T17:18:12Z</time>
      </trkpt>
      <trkpt lat="43.00666" lon="0.89923">
        <ele>415</ele>
        <time>2025-11-26T17:18:14Z</time>
      </trkpt>
      <trkpt lat="43.00668" lon="0.8991">
        <ele>415</ele>
        <time>2025-11-26T17:18:16Z</time>
      </trkpt>
      <trkpt lat="43.00673" lon="0.89895">
        <ele>415</ele>
        <time>2025-11-26T17:18:18Z</time>
      </trkpt>
      <trkpt lat="43.00682" lon="0.89871">
        <ele>415</ele>
        <time>2025-11-26T17:18:22Z</time>
      </trkpt>
      <trkpt lat="43.00686" lon="0.89856">
        <ele>415</ele>
        <time>2025-11-26T17:18:24Z</time>
      </trkpt>
      <trkpt lat="43.00701" lon="0.8978">
        <ele>417</ele>
        <time>2025-11-26T17:18:34Z</time>
      </trkpt>
      <trkpt lat="43.00721" lon="0.89716">
        <ele>421</ele>
        <time>2025-11-26T17:18:43Z</time>
      </trkpt>
      <trkpt lat="43.00726" lon="0.89701">
        <ele>422</ele>
        <time>2025-11-26T17:18:45Z</time>
      </trkpt>
      <trkpt lat="43.00728" lon="0.89688">
        <ele>422</ele>
        <time>2025-11-26T17:18:47Z</time>
      </trkpt>
      <trkpt lat="43.00729" lon="0.89664">
        <ele>422</ele>
        <time>2025-11-26T17:18:50Z</time>
      </trkpt>
      <trkpt lat="43.0074" lon="0.89571">
        <ele>422</ele>
        <time>2025-11-26T17:19:02Z</time>
      </trkpt>
      <trkpt lat="43.00744" lon="0.8955">
        <ele>423</ele>
        <time>2025-11-26T17:19:05Z</time>
      </trkpt>
      <trkpt lat="43.00754" lon="0.8952">
        <ele>425</ele>
        <time>2025-11-26T17:19:09Z</time>
      </trkpt>
      <trkpt lat="43.00775" lon="0.89475">
        <ele>427</ele>
        <time>2025-11-26T17:19:16Z</time>
      </trkpt>
      <trkpt lat="43.00788" lon="0.89453">
        <ele>429</ele>
        <time>2025-11-26T17:19:20Z</time>
      </trkpt>
      <trkpt lat="43.00798" lon="0.89437">
        <ele>430</ele>
        <time>2025-11-26T17:19:23Z</time>
      </trkpt>
      <trkpt lat="43.0081" lon="0.8942">
        <ele>431</ele>
        <time>2025-11-26T17:19:26Z</time>
      </trkpt>
      <trkpt lat="43.00824" lon="0.89405">
        <ele>433</ele>
        <time>2025-11-26T17:19:29Z</time>
      </trkpt>
      <trkpt lat="43.00858" lon="0.89374">
        <ele>437</ele>
        <time>2025-11-26T17:19:36Z</time>
      </trkpt>
      <trkpt lat="43.00873" lon="0.89359">
        <ele>438</ele>
        <time>2025-11-26T17:19:40Z</time>
      </trkpt>
      <trkpt lat="43.00885" lon="0.89343">
        <ele>438</ele>
        <time>2025-11-26T17:19:43Z</time>
      </trkpt>
      <trkpt lat="43.00909" lon="0.89307">
        <ele>440</ele>
        <time>2025-11-26T17:19:49Z</time>
      </trkpt>
      <trkpt lat="43.00924" lon="0.89278">
        <ele>442</ele>
        <time>2025-11-26T17:19:54Z</time>
      </trkpt>
      <trkpt lat="43.00941" lon="0.89244">
        <ele>444</ele>
        <time>2025-11-26T17:19:59Z</time>
      </trkpt>
      <trkpt lat="43.00948" lon="0.89233">
        <ele>446</ele>
        <time>2025-11-26T17:20:01Z</time>
      </trkpt>
      <trkpt lat="43.00954" lon="0.89224">
        <ele>447</ele>
        <time>2025-11-26T17:20:02Z</time>
      </trkpt>
      <trkpt lat="43.00961" lon="0.89217">
        <ele>448</ele>
        <time>2025-11-26T17:20:04Z</time>
      </trkpt>
      <trkpt lat="43.00972" lon="0.89209">
        <ele>449</ele>
        <time>2025-11-26T17:20:06Z</time>
      </trkpt>
      <trkpt lat="43.01014" lon="0.89184">
        <ele>452</ele>
        <time>2025-11-26T17:20:14Z</time>
      </trkpt>
      <trkpt lat="43.01028" lon="0.89173">
        <ele>453</ele>
        <time>2025-11-26T17:20:17Z</time>
      </trkpt>
      <trkpt lat="43.01037" lon="0.89165">
        <ele>454</ele>
        <time>2025-11-26T17:20:19Z</time>
      </trkpt>
      <trkpt lat="43.01044" lon="0.89154">
        <ele>455</ele>
        <time>2025-11-26T17:20:21Z</time>
      </trkpt>
      <trkpt lat="43.01052" lon="0.89138">
        <ele>456</ele>
        <time>2025-11-26T17:20:24Z</time>
      </trkpt>
      <trkpt lat="43.01079" lon="0.89072">
        <ele>459</ele>
        <time>2025-11-26T17:20:33Z</time>
      </trkpt>
      <trkpt lat="43.01085" lon="0.89054">
        <ele>459</ele>
        <time>2025-11-26T17:20:36Z</time>
      </trkpt>
      <trkpt lat="43.01087" lon="0.89047">
        <ele>459</ele>
        <time>2025-11-26T17:20:37Z</time>
      </trkpt>
      <trkpt lat="43.01088" lon="0.8904">
        <ele>459</ele>
        <time>2025-11-26T17:20:38Z</time>
      </trkpt>
      <trkpt lat="43.01088" lon="0.89033">
        <ele>459</ele>
        <time>2025-11-26T17:20:39Z</time>
      </trkpt>
      <trkpt lat="43.01086" lon="0.89023">
        <ele>459</ele>
        <time>2025-11-26T17:20:40Z</time>
      </trkpt>
      <trkpt lat="43.01082" lon="0.89014">
        <ele>459</ele>
        <time>2025-11-26T17:20:41Z</time>
      </trkpt>
      <trkpt lat="43.01076" lon="0.89005">
        <ele>459</ele>
        <time>2025-11-26T17:20:43Z</time>
      </trkpt>
      <trkpt lat="43.01064" lon="0.8899">
        <ele>460</ele>
        <time>2025-11-26T17:20:46Z</time>
      </trkpt>
      <trkpt lat="43.01027" lon="0.88946">
        <ele>462</ele>
        <time>2025-11-26T17:20:55Z</time>
      </trkpt>
      <trkpt lat="43.01009" lon="0.88921">
        <ele>465</ele>
        <time>2025-11-26T17:20:59Z</time>
      </trkpt>
      <trkpt lat="43.01002" lon="0.88912">
        <ele>466</ele>
        <time>2025-11-26T17:21:01Z</time>
      </trkpt>
      <trkpt lat="43.00986" lon="0.88893">
        <ele>469</ele>
        <time>2025-11-26T17:21:05Z</time>
      </trkpt>
      <trkpt lat="43.00981" lon="0.88888">
        <ele>469</ele>
        <time>2025-11-26T17:21:06Z</time>
      </trkpt>
      <trkpt lat="43.00975" lon="0.88884">
        <ele>470</ele>
        <time>2025-11-26T17:21:07Z</time>
      </trkpt>
      <trkpt lat="43.00969" lon="0.88882">
        <ele>470</ele>
        <time>2025-11-26T17:21:08Z</time>
      </trkpt>
      <trkpt lat="43.00961" lon="0.88882">
        <ele>471</ele>
        <time>2025-11-26T17:21:10Z</time>
      </trkpt>
      <trkpt lat="43.00932" lon="0.88889">
        <ele>471</ele>
        <time>2025-11-26T17:21:15Z</time>
      </trkpt>
      <trkpt lat="43.00927" lon="0.88888">
        <ele>472</ele>
        <time>2025-11-26T17:21:16Z</time>
      </trkpt>
      <trkpt lat="43.00921" lon="0.88886">
        <ele>472</ele>
        <time>2025-11-26T17:21:17Z</time>
      </trkpt>
      <trkpt lat="43.00916" lon="0.88882">
        <ele>473</ele>
        <time>2025-11-26T17:21:18Z</time>
      </trkpt>
      <trkpt lat="43.00912" lon="0.88875">
        <ele>473</ele>
        <time>2025-11-26T17:21:19Z</time>
      </trkpt>
      <trkpt lat="43.0091" lon="0.88868">
        <ele>473</ele>
        <time>2025-11-26T17:21:20Z</time>
      </trkpt>
      <trkpt lat="43.0091" lon="0.88858">
        <ele>474</ele>
        <time>2025-11-26T17:21:21Z</time>
      </trkpt>
      <trkpt lat="43.00913" lon="0.88847">
        <ele>476</ele>
        <time>2025-11-26T17:21:23Z</time>
      </trkpt>
      <trkpt lat="43.00917" lon="0.88841">
        <ele>477</ele>
        <time>2025-11-26T17:21:24Z</time>
      </trkpt>
      <trkpt lat="43.00922" lon="0.88836">
        <ele>477</ele>
        <time>2025-11-26T17:21:25Z</time>
      </trkpt>
      <trkpt lat="43.00945" lon="0.88825">
        <ele>477</ele>
        <time>2025-11-26T17:21:29Z</time>
      </trkpt>
      <trkpt lat="43.00953" lon="0.88818">
        <ele>478</ele>
        <time>2025-11-26T17:21:31Z</time>
      </trkpt>
      <trkpt lat="43.00958" lon="0.88811">
        <ele>478</ele>
        <time>2025-11-26T17:21:32Z</time>
      </trkpt>
      <trkpt lat="43.00962" lon="0.88802">
        <ele>479</ele>
        <time>2025-11-26T17:21:34Z</time>
      </trkpt>
      <trkpt lat="43.00963" lon="0.88791">
        <ele>480</ele>
        <time>2025-11-26T17:21:35Z</time>
      </trkpt>
      <trkpt lat="43.00964" lon="0.88777">
        <ele>482</ele>
        <time>2025-11-26T17:21:37Z</time>
      </trkpt>
      <trkpt lat="43.00962" lon="0.88763">
        <ele>483</ele>
        <time>2025-11-26T17:21:39Z</time>
      </trkpt>
      <trkpt lat="43.00959" lon="0.88746">
        <ele>485</ele>
        <time>2025-11-26T17:21:41Z</time>
      </trkpt>
      <trkpt lat="43.00943" lon="0.8871">
        <ele>488</ele>
        <time>2025-11-26T17:21:46Z</time>
      </trkpt>
      <trkpt lat="43.00937" lon="0.88694">
        <ele>489</ele>
        <time>2025-11-26T17:21:49Z</time>
      </trkpt>
      <trkpt lat="43.00935" lon="0.88685">
        <ele>490</ele>
        <time>2025-11-26T17:21:50Z</time>
      </trkpt>
      <trkpt lat="43.00935" lon="0.88676">
        <ele>490</ele>
        <time>2025-11-26T17:21:51Z</time>
      </trkpt>
      <trkpt lat="43.00937" lon="0.88667">
        <ele>491</ele>
        <time>2025-11-26T17:21:52Z</time>
      </trkpt>
      <trkpt lat="43.00944" lon="0.88653">
        <ele>493</ele>
        <time>2025-11-26T17:21:55Z</time>
      </trkpt>
      <trkpt lat="43.00953" lon="0.88643">
        <ele>494</ele>
        <time>2025-11-26T17:21:57Z</time>
      </trkpt>
      <trkpt lat="43.00995" lon="0.88612">
        <ele>505</ele>
        <time>2025-11-26T17:22:05Z</time>
      </trkpt>
      <trkpt lat="43.01007" lon="0.88599">
        <ele>507</ele>
        <time>2025-11-26T17:22:08Z</time>
      </trkpt>
      <trkpt lat="43.01013" lon="0.8859">
        <ele>507</ele>
        <time>2025-11-26T17:22:10Z</time>
      </trkpt>
      <trkpt lat="43.01016" lon="0.88582">
        <ele>508</ele>
        <time>2025-11-26T17:22:11Z</time>
      </trkpt>
      <trkpt lat="43.01018" lon="0.88572">
        <ele>509</ele>
        <time>2025-11-26T17:22:12Z</time>
      </trkpt>
      <trkpt lat="43.01018" lon="0.88559">
        <ele>509</ele>
        <time>2025-11-26T17:22:14Z</time>
      </trkpt>
      <trkpt lat="43.01017" lon="0.88545">
        <ele>511</ele>
        <time>2025-11-26T17:22:16Z</time>
      </trkpt>
      <trkpt lat="43.01008" lon="0.8851">
        <ele>514</ele>
        <time>2025-11-26T17:22:20Z</time>
      </trkpt>
      <trkpt lat="43.01006" lon="0.88497">
        <ele>515</ele>
        <time>2025-11-26T17:22:22Z</time>
      </trkpt>
      <trkpt lat="43.01007" lon="0.88469">
        <ele>516</ele>
        <time>2025-11-26T17:22:26Z</time>
      </trkpt>
      <trkpt lat="43.01012" lon="0.88439">
        <ele>517</ele>
        <time>2025-11-26T17:22:30Z</time>
      </trkpt>
      <trkpt lat="43.01048" lon="0.88293">
        <ele>521</ele>
        <time>2025-11-26T17:22:50Z</time>
      </trkpt>
      <trkpt lat="43.011" lon="0.88121">
        <ele>523</ele>
        <time>2025-11-26T17:23:14Z</time>
      </trkpt>
      <trkpt lat="43.01115" lon="0.88071">
        <ele>523</ele>
        <time>2025-11-26T17:23:21Z</time>
      </trkpt>
      <trkpt lat="43.01127" lon="0.88036">
        <ele>524</ele>
        <time>2025-11-26T17:23:26Z</time>
      </trkpt>
      <trkpt lat="43.0115" lon="0.87978">
        <ele>529</ele>
        <time>2025-11-26T17:23:35Z</time>
      </trkpt>
      <trkpt lat="43.01191" lon="0.87871">
        <ele>532</ele>
        <time>2025-11-26T17:23:50Z</time>
      </trkpt>
      <trkpt lat="43.01229" lon="0.87764">
        <ele>541</ele>
        <time>2025-11-26T17:24:06Z</time>
      </trkpt>
      <trkpt lat="43.01266" lon="0.87652">
        <ele>551</ele>
        <time>2025-11-26T17:24:22Z</time>
      </trkpt>
      <trkpt lat="43.01274" lon="0.87626">
        <ele>552</ele>
        <time>2025-11-26T17:24:26Z</time>
      </trkpt>
      <trkpt lat="43.0128" lon="0.87604">
        <ele>554</ele>
        <time>2025-11-26T17:24:29Z</time>
      </trkpt>
      <trkpt lat="43.01291" lon="0.87551">
        <ele>557</ele>
        <time>2025-11-26T17:24:36Z</time>
      </trkpt>
      <trkpt lat="43.01307" lon="0.87482">
        <ele>563</ele>
        <time>2025-11-26T17:24:45Z</time>
      </trkpt>
      <trkpt lat="43.01319" lon="0.87424">
        <ele>566</ele>
        <time>2025-11-26T17:24:53Z</time>
      </trkpt>
      <trkpt lat="43.01328" lon="0.8738">
        <ele>569</ele>
        <time>2025-11-26T17:24:59Z</time>
      </trkpt>
      <trkpt lat="43.01334" lon="0.87331">
        <ele>572</ele>
        <time>2025-11-26T17:25:05Z</time>
      </trkpt>
      <trkpt lat="43.01342" lon="0.87221">
        <ele>575</ele>
        <time>2025-11-26T17:25:20Z</time>
      </trkpt>
      <trkpt lat="43.01347" lon="0.87145">
        <ele>577</ele>
        <time>2025-11-26T17:25:30Z</time>
      </trkpt>
      <trkpt lat="43.01352" lon="0.87018">
        <ele>581</ele>
        <time>2025-11-26T17:25:46Z</time>
      </trkpt>
      <trkpt lat="43.01355" lon="0.86917">
        <ele>585</ele>
        <time>2025-11-26T17:25:59Z</time>
      </trkpt>
      <trkpt lat="43.01359" lon="0.86844">
        <ele>590</ele>
        <time>2025-11-26T17:26:09Z</time>
      </trkpt>
      <trkpt lat="43.01362" lon="0.86799">
        <ele>594</ele>
        <time>2025-11-26T17:26:15Z</time>
      </trkpt>
      <trkpt lat="43.01372" lon="0.86695">
        <ele>606</ele>
        <time>2025-11-26T17:26:28Z</time>
      </trkpt>
      <trkpt lat="43.01372" lon="0.86679">
        <ele>608</ele>
        <time>2025-11-26T17:26:31Z</time>
      </trkpt>
      <trkpt lat="43.0137" lon="0.86666">
        <ele>610</ele>
        <time>2025-11-26T17:26:32Z</time>
      </trkpt>
      <trkpt lat="43.01367" lon="0.86655">
        <ele>613</ele>
        <time>2025-11-26T17:26:34Z</time>
      </trkpt>
      <trkpt lat="43.01362" lon="0.86645">
        <ele>615</ele>
        <time>2025-11-26T17:26:35Z</time>
      </trkpt>
      <trkpt lat="43.01356" lon="0.86636">
        <ele>617</ele>
        <time>2025-11-26T17:26:37Z</time>
      </trkpt>
      <trkpt lat="43.01349" lon="0.86629">
        <ele>620</ele>
        <time>2025-11-26T17:26:39Z</time>
      </trkpt>
      <trkpt lat="43.01284" lon="0.8658">
        <ele>631</ele>
        <time>2025-11-26T17:26:52Z</time>
      </trkpt>
      <trkpt lat="43.01272" lon="0.86567">
        <ele>633</ele>
        <time>2025-11-26T17:26:54Z</time>
      </trkpt>
      <trkpt lat="43.01267" lon="0.86559">
        <ele>635</ele>
        <time>2025-11-26T17:26:56Z</time>
      </trkpt>
      <trkpt lat="43.01257" lon="0.86542">
        <ele>638</ele>
        <time>2025-11-26T17:26:59Z</time>
      </trkpt>
      <trkpt lat="43.01231" lon="0.86477">
        <ele>655</ele>
        <time>2025-11-26T17:27:08Z</time>
      </trkpt>
      <trkpt lat="43.01225" lon="0.86468">
        <ele>658</ele>
        <time>2025-11-26T17:27:10Z</time>
      </trkpt>
      <trkpt lat="43.01217" lon="0.86461">
        <ele>660</ele>
        <time>2025-11-26T17:27:12Z</time>
      </trkpt>
      <trkpt lat="43.01213" lon="0.86459">
        <ele>660</ele>
        <time>2025-11-26T17:27:12Z</time>
      </trkpt>
      <trkpt lat="43.01209" lon="0.8646">
        <ele>660</ele>
        <time>2025-11-26T17:27:13Z</time>
      </trkpt>
      <trkpt lat="43.01205" lon="0.86463">
        <ele>660</ele>
        <time>2025-11-26T17:27:14Z</time>
      </trkpt>
      <trkpt lat="43.012" lon="0.86469">
        <ele>659</ele>
        <time>2025-11-26T17:27:15Z</time>
      </trkpt>
      <trkpt lat="43.01185" lon="0.86502">
        <ele>654</ele>
        <time>2025-11-26T17:27:20Z</time>
      </trkpt>
      <trkpt lat="43.0118" lon="0.8651">
        <ele>653</ele>
        <time>2025-11-26T17:27:21Z</time>
      </trkpt>
      <trkpt lat="43.01166" lon="0.86523">
        <ele>652</ele>
        <time>2025-11-26T17:27:24Z</time>
      </trkpt>
      <trkpt lat="43.01159" lon="0.86527">
        <ele>651</ele>
        <time>2025-11-26T17:27:26Z</time>
      </trkpt>
      <trkpt lat="43.0115" lon="0.8653">
        <ele>650</ele>
        <time>2025-11-26T17:27:27Z</time>
      </trkpt>
      <trkpt lat="43.01142" lon="0.86532">
        <ele>650</ele>
        <time>2025-11-26T17:27:29Z</time>
      </trkpt>
      <trkpt lat="43.01127" lon="0.86529">
        <ele>650</ele>
        <time>2025-11-26T17:27:32Z</time>
      </trkpt>
      <trkpt lat="43.0112" lon="0.86525">
        <ele>651</ele>
        <time>2025-11-26T17:27:33Z</time>
      </trkpt>
      <trkpt lat="43.01112" lon="0.8652">
        <ele>652</ele>
        <time>2025-11-26T17:27:35Z</time>
      </trkpt>
      <trkpt lat="43.01105" lon="0.86511">
        <ele>653</ele>
        <time>2025-11-26T17:27:36Z</time>
      </trkpt>
      <trkpt lat="43.01099" lon="0.86501">
        <ele>654</ele>
        <time>2025-11-26T17:27:38Z</time>
      </trkpt>
      <trkpt lat="43.01095" lon="0.86491">
        <ele>655</ele>
        <time>2025-11-26T17:27:39Z</time>
      </trkpt>
      <trkpt lat="43.0109" lon="0.86475">
        <ele>656</ele>
        <time>2025-11-26T17:27:42Z</time>
      </trkpt>
      <trkpt lat="43.01087" lon="0.86455">
        <ele>658</ele>
        <time>2025-11-26T17:27:44Z</time>
      </trkpt>
      <trkpt lat="43.01086" lon="0.86442">
        <ele>659</ele>
        <time>2025-11-26T17:27:46Z</time>
      </trkpt>
      <trkpt lat="43.01087" lon="0.86429">
        <ele>660</ele>
        <time>2025-11-26T17:27:48Z</time>
      </trkpt>
      <trkpt lat="43.01089" lon="0.86412">
        <ele>662</ele>
        <time>2025-11-26T17:27:50Z</time>
      </trkpt>
      <trkpt lat="43.01093" lon="0.86393">
        <ele>664</ele>
        <time>2025-11-26T17:27:53Z</time>
      </trkpt>
      <trkpt lat="43.011" lon="0.86375">
        <ele>667</ele>
        <time>2025-11-26T17:27:55Z</time>
      </trkpt>
      <trkpt lat="43.01106" lon="0.8636">
        <ele>669</ele>
        <time>2025-11-26T17:27:57Z</time>
      </trkpt>
      <trkpt lat="43.01113" lon="0.86349">
        <ele>671</ele>
        <time>2025-11-26T17:27:59Z</time>
      </trkpt>
      <trkpt lat="43.01119" lon="0.86342">
        <ele>673</ele>
        <time>2025-11-26T17:28:01Z</time>
      </trkpt>
      <trkpt lat="43.01127" lon="0.86336">
        <ele>674</ele>
        <time>2025-11-26T17:28:02Z</time>
      </trkpt>
      <trkpt lat="43.01136" lon="0.86332">
        <ele>676</ele>
        <time>2025-11-26T17:28:04Z</time>
      </trkpt>
      <trkpt lat="43.01145" lon="0.8633">
        <ele>677</ele>
        <time>2025-11-26T17:28:06Z</time>
      </trkpt>
      <trkpt lat="43.01154" lon="0.86329">
        <ele>678</ele>
        <time>2025-11-26T17:28:07Z</time>
      </trkpt>
      <trkpt lat="43.01163" lon="0.8633">
        <ele>679</ele>
        <time>2025-11-26T17:28:09Z</time>
      </trkpt>
      <trkpt lat="43.01202" lon="0.86338">
        <ele>682</ele>
        <time>2025-11-26T17:28:16Z</time>
      </trkpt>
      <trkpt lat="43.01228" lon="0.86341">
        <ele>684</ele>
        <time>2025-11-26T17:28:21Z</time>
      </trkpt>
      <trkpt lat="43.01241" lon="0.86341">
        <ele>685</ele>
        <time>2025-11-26T17:28:23Z</time>
      </trkpt>
      <trkpt lat="43.0125" lon="0.8634">
        <ele>686</ele>
        <time>2025-11-26T17:28:24Z</time>
      </trkpt>
      <trkpt lat="43.01259" lon="0.86336">
        <ele>686</ele>
        <time>2025-11-26T17:28:26Z</time>
      </trkpt>
      <trkpt lat="43.01266" lon="0.86331">
        <ele>686</ele>
        <time>2025-11-26T17:28:28Z</time>
      </trkpt>
      <trkpt lat="43.01274" lon="0.86323">
        <ele>687</ele>
        <time>2025-11-26T17:28:29Z</time>
      </trkpt>
      <trkpt lat="43.0128" lon="0.86312">
        <ele>689</ele>
        <time>2025-11-26T17:28:31Z</time>
      </trkpt>
      <trkpt lat="43.01287" lon="0.86298">
        <ele>691</ele>
        <time>2025-11-26T17:28:33Z</time>
      </trkpt>
      <trkpt lat="43.01298" lon="0.86264">
        <ele>697</ele>
        <time>2025-11-26T17:28:38Z</time>
      </trkpt>
      <trkpt lat="43.01305" lon="0.86249">
        <ele>699</ele>
        <time>2025-11-26T17:28:40Z</time>
      </trkpt>
      <trkpt lat="43.01313" lon="0.86235">
        <ele>704</ele>
        <time>2025-11-26T17:28:43Z</time>
      </trkpt>
      <trkpt lat="43.01321" lon="0.86225">
        <ele>708</ele>
        <time>2025-11-26T17:28:45Z</time>
      </trkpt>
      <trkpt lat="43.0133" lon="0.86218">
        <ele>711</ele>
        <time>2025-11-26T17:28:47Z</time>
      </trkpt>
      <trkpt lat="43.01341" lon="0.8621">
        <ele>713</ele>
        <time>2025-11-26T17:28:49Z</time>
      </trkpt>
      <trkpt lat="43.01366" lon="0.86199">
        <ele>714</ele>
        <time>2025-11-26T17:28:53Z</time>
      </trkpt>
      <trkpt lat="43.01377" lon="0.86194">
        <ele>714</ele>
        <time>2025-11-26T17:28:55Z</time>
      </trkpt>
      <trkpt lat="43.01396" lon="0.86191">
        <ele>713</ele>
        <time>2025-11-26T17:28:59Z</time>
      </trkpt>
      <trkpt lat="43.01433" lon="0.86188">
        <ele>708</ele>
        <time>2025-11-26T17:29:05Z</time>
      </trkpt>
      <trkpt lat="43.01439" lon="0.86186">
        <ele>708</ele>
        <time>2025-11-26T17:29:07Z</time>
      </trkpt>
      <trkpt lat="43.01446" lon="0.86185">
        <ele>707</ele>
        <time>2025-11-26T17:29:08Z</time>
      </trkpt>
      <trkpt lat="43.01456" lon="0.86179">
        <ele>707</ele>
        <time>2025-11-26T17:29:10Z</time>
      </trkpt>
      <trkpt lat="43.01466" lon="0.86171">
        <ele>708</ele>
        <time>2025-11-26T17:29:12Z</time>
      </trkpt>
      <trkpt lat="43.01487" lon="0.86147">
        <ele>710</ele>
        <time>2025-11-26T17:29:17Z</time>
      </trkpt>
      <trkpt lat="43.01589" lon="0.85996">
        <ele>713</ele>
        <time>2025-11-26T17:29:43Z</time>
      </trkpt>
      <trkpt lat="43.01605" lon="0.85964">
        <ele>714</ele>
        <time>2025-11-26T17:29:48Z</time>
      </trkpt>
      <trkpt lat="43.0161" lon="0.85949">
        <ele>715</ele>
        <time>2025-11-26T17:29:51Z</time>
      </trkpt>
      <trkpt lat="43.01614" lon="0.85932">
        <ele>715</ele>
        <time>2025-11-26T17:29:53Z</time>
      </trkpt>
      <trkpt lat="43.01615" lon="0.85917">
        <ele>716</ele>
        <time>2025-11-26T17:29:55Z</time>
      </trkpt>
      <trkpt lat="43.01614" lon="0.85894">
        <ele>716</ele>
        <time>2025-11-26T17:29:58Z</time>
      </trkpt>
      <trkpt lat="43.01609" lon="0.85855">
        <ele>717</ele>
        <time>2025-11-26T17:30:03Z</time>
      </trkpt>
      <trkpt lat="43.01605" lon="0.85833">
        <ele>718</ele>
        <time>2025-11-26T17:30:06Z</time>
      </trkpt>
      <trkpt lat="43.01601" lon="0.85814">
        <ele>717</ele>
        <time>2025-11-26T17:30:09Z</time>
      </trkpt>
      <trkpt lat="43.01595" lon="0.85797">
        <ele>717</ele>
        <time>2025-11-26T17:30:11Z</time>
      </trkpt>
      <trkpt lat="43.01585" lon="0.85781">
        <ele>717</ele>
        <time>2025-11-26T17:30:14Z</time>
      </trkpt>
      <trkpt lat="43.01575" lon="0.85767">
        <ele>717</ele>
        <time>2025-11-26T17:30:16Z</time>
      </trkpt>
      <trkpt lat="43.01564" lon="0.85756">
        <ele>716</ele>
        <time>2025-11-26T17:30:19Z</time>
      </trkpt>
      <trkpt lat="43.01553" lon="0.85751">
        <ele>716</ele>
        <time>2025-11-26T17:30:21Z</time>
      </trkpt>
      <trkpt lat="43.01542" lon="0.85748">
        <ele>716</ele>
        <time>2025-11-26T17:30:23Z</time>
      </trkpt>
      <trkpt lat="43.01488" lon="0.8574">
        <ele>719</ele>
        <time>2025-11-26T17:30:32Z</time>
      </trkpt>
      <trkpt lat="43.0147" lon="0.85735">
        <ele>722</ele>
        <time>2025-11-26T17:30:36Z</time>
      </trkpt>
      <trkpt lat="43.01457" lon="0.85728">
        <ele>724</ele>
        <time>2025-11-26T17:30:38Z</time>
      </trkpt>
      <trkpt lat="43.01443" lon="0.85718">
        <ele>726</ele>
        <time>2025-11-26T17:30:41Z</time>
      </trkpt>
      <trkpt lat="43.01429" lon="0.85704">
        <ele>726</ele>
        <time>2025-11-26T17:30:44Z</time>
      </trkpt>
      <trkpt lat="43.01418" lon="0.85691">
        <ele>726</ele>
        <time>2025-11-26T17:30:47Z</time>
      </trkpt>
      <trkpt lat="43.01409" lon="0.85677">
        <ele>726</ele>
        <time>2025-11-26T17:30:49Z</time>
      </trkpt>
      <trkpt lat="43.01397" lon="0.85651">
        <ele>726</ele>
        <time>2025-11-26T17:30:53Z</time>
      </trkpt>
      <trkpt lat="43.01391" lon="0.85633">
        <ele>726</ele>
        <time>2025-11-26T17:30:56Z</time>
      </trkpt>
      <trkpt lat="43.01385" lon="0.85608">
        <ele>725</ele>
        <time>2025-11-26T17:30:59Z</time>
      </trkpt>
      <trkpt lat="43.01382" lon="0.85591">
        <ele>724</ele>
        <time>2025-11-26T17:31:01Z</time>
      </trkpt>
      <trkpt lat="43.01381" lon="0.85577">
        <ele>722</ele>
        <time>2025-11-26T17:31:03Z</time>
      </trkpt>
      <trkpt lat="43.01382" lon="0.85524">
        <ele>713</ele>
        <time>2025-11-26T17:31:10Z</time>
      </trkpt>
      <trkpt lat="43.01379" lon="0.85501">
        <ele>711</ele>
        <time>2025-11-26T17:31:13Z</time>
      </trkpt>
      <trkpt lat="43.01375" lon="0.85485">
        <ele>709</ele>
        <time>2025-11-26T17:31:15Z</time>
      </trkpt>
      <trkpt lat="43.01365" lon="0.85468">
        <ele>709</ele>
        <time>2025-11-26T17:31:18Z</time>
      </trkpt>
      <trkpt lat="43.01341" lon="0.85447">
        <ele>709</ele>
        <time>2025-11-26T17:31:23Z</time>
      </trkpt>
      <trkpt lat="43.01329" lon="0.8544">
        <ele>709</ele>
        <time>2025-11-26T17:31:26Z</time>
      </trkpt>
      <trkpt lat="43.01314" lon="0.85435">
        <ele>708</ele>
        <time>2025-11-26T17:31:28Z</time>
      </trkpt>
      <trkpt lat="43.01288" lon="0.85431">
        <ele>708</ele>
        <time>2025-11-26T17:31:33Z</time>
      </trkpt>
      <trkpt lat="43.01268" lon="0.85426">
        <ele>707</ele>
        <time>2025-11-26T17:31:37Z</time>
      </trkpt>
      <trkpt lat="43.01228" lon="0.85413">
        <ele>707</ele>
        <time>2025-11-26T17:31:44Z</time>
      </trkpt>
      <trkpt lat="43.01202" lon="0.85401">
        <ele>708</ele>
        <time>2025-11-26T17:31:49Z</time>
      </trkpt>
      <trkpt lat="43.01186" lon="0.85391">
        <ele>707</ele>
        <time>2025-11-26T17:31:52Z</time>
      </trkpt>
      <trkpt lat="43.01172" lon="0.8538">
        <ele>707</ele>
        <time>2025-11-26T17:31:55Z</time>
      </trkpt>
      <trkpt lat="43.01144" lon="0.8535">
        <ele>706</ele>
        <time>2025-11-26T17:32:01Z</time>
      </trkpt>
      <trkpt lat="43.01126" lon="0.85325">
        <ele>705</ele>
        <time>2025-11-26T17:32:06Z</time>
      </trkpt>
      <trkpt lat="43.01104" lon="0.85297">
        <ele>702</ele>
        <time>2025-11-26T17:32:11Z</time>
      </trkpt>
      <trkpt lat="43.01085" lon="0.85285">
        <ele>702</ele>
        <time>2025-11-26T17:32:15Z</time>
      </trkpt>
      <trkpt lat="43.01048" lon="0.85273">
        <ele>703</ele>
        <time>2025-11-26T17:32:22Z</time>
      </trkpt>
      <trkpt lat="43.01014" lon="0.8525">
        <ele>699</ele>
        <time>2025-11-26T17:32:28Z</time>
      </trkpt>
      <trkpt lat="43.00998" lon="0.85245">
        <ele>700</ele>
        <time>2025-11-26T17:32:31Z</time>
      </trkpt>
      <trkpt lat="43.00982" lon="0.85242">
        <ele>703</ele>
        <time>2025-11-26T17:32:34Z</time>
      </trkpt>
      <trkpt lat="43.00967" lon="0.85242">
        <ele>705</ele>
        <time>2025-11-26T17:32:37Z</time>
      </trkpt>
      <trkpt lat="43.00953" lon="0.85245">
        <ele>708</ele>
        <time>2025-11-26T17:32:39Z</time>
      </trkpt>
      <trkpt lat="43.00941" lon="0.85251">
        <ele>711</ele>
        <time>2025-11-26T17:32:42Z</time>
      </trkpt>
      <trkpt lat="43.00921" lon="0.85265">
        <ele>718</ele>
        <time>2025-11-26T17:32:46Z</time>
      </trkpt>
      <trkpt lat="43.00913" lon="0.85267">
        <ele>720</ele>
        <time>2025-11-26T17:32:47Z</time>
      </trkpt>
      <trkpt lat="43.00908" lon="0.85267">
        <ele>722</ele>
        <time>2025-11-26T17:32:48Z</time>
      </trkpt>
      <trkpt lat="43.00904" lon="0.85264">
        <ele>722</ele>
        <time>2025-11-26T17:32:49Z</time>
      </trkpt>
      <trkpt lat="43.00902" lon="0.8526">
        <ele>722</ele>
        <time>2025-11-26T17:32:49Z</time>
      </trkpt>
      <trkpt lat="43.00901" lon="0.85253">
        <ele>721</ele>
        <time>2025-11-26T17:32:50Z</time>
      </trkpt>
      <trkpt lat="43.00906" lon="0.85218">
        <ele>717</ele>
        <time>2025-11-26T17:32:55Z</time>
      </trkpt>
      <trkpt lat="43.00907" lon="0.85203">
        <ele>715</ele>
        <time>2025-11-26T17:32:57Z</time>
      </trkpt>
      <trkpt lat="43.00906" lon="0.85188">
        <ele>715</ele>
        <time>2025-11-26T17:32:59Z</time>
      </trkpt>
      <trkpt lat="43.00904" lon="0.85169">
        <ele>714</ele>
        <time>2025-11-26T17:33:01Z</time>
      </trkpt>
      <trkpt lat="43.00903" lon="0.85157">
        <ele>717</ele>
        <time>2025-11-26T17:33:03Z</time>
      </trkpt>
      <trkpt lat="43.00904" lon="0.85149">
        <ele>718</ele>
        <time>2025-11-26T17:33:04Z</time>
      </trkpt>
      <trkpt lat="43.00907" lon="0.85145">
        <ele>718</ele>
        <time>2025-11-26T17:33:05Z</time>
      </trkpt>
      <trkpt lat="43.00912" lon="0.85141">
        <ele>717</ele>
        <time>2025-11-26T17:33:06Z</time>
      </trkpt>
      <trkpt lat="43.00918" lon="0.85138">
        <ele>715</ele>
        <time>2025-11-26T17:33:07Z</time>
      </trkpt>
      <trkpt lat="43.00937" lon="0.85135">
        <ele>711</ele>
        <time>2025-11-26T17:33:10Z</time>
      </trkpt>
      <trkpt lat="43.00948" lon="0.8513">
        <ele>709</ele>
        <time>2025-11-26T17:33:12Z</time>
      </trkpt>
      <trkpt lat="43.00958" lon="0.85122">
        <ele>708</ele>
        <time>2025-11-26T17:33:14Z</time>
      </trkpt>
      <trkpt lat="43.00979" lon="0.85097">
        <ele>707</ele>
        <time>2025-11-26T17:33:19Z</time>
      </trkpt>
      <trkpt lat="43.00989" lon="0.85081">
        <ele>707</ele>
        <time>2025-11-26T17:33:22Z</time>
      </trkpt>
      <trkpt lat="43.00998" lon="0.85059">
        <ele>707</ele>
        <time>2025-11-26T17:33:25Z</time>
      </trkpt>
      <trkpt lat="43.01011" lon="0.85021">
        <ele>709</ele>
        <time>2025-11-26T17:33:31Z</time>
      </trkpt>
      <trkpt lat="43.01019" lon="0.84995">
        <ele>710</ele>
        <time>2025-11-26T17:33:34Z</time>
      </trkpt>
      <trkpt lat="43.01024" lon="0.8496">
        <ele>714</ele>
        <time>2025-11-26T17:33:39Z</time>
      </trkpt>
      <trkpt lat="43.01027" lon="0.8495">
        <ele>715</ele>
        <time>2025-11-26T17:33:41Z</time>
      </trkpt>
      <trkpt lat="43.01033" lon="0.84943">
        <ele>714</ele>
        <time>2025-11-26T17:33:42Z</time>
      </trkpt>
      <trkpt lat="43.01045" lon="0.84935">
        <ele>713</ele>
        <time>2025-11-26T17:33:44Z</time>
      </trkpt>
      <trkpt lat="43.0105" lon="0.8493">
        <ele>712</ele>
        <time>2025-11-26T17:33:45Z</time>
      </trkpt>
      <trkpt lat="43.01055" lon="0.84922">
        <ele>712</ele>
        <time>2025-11-26T17:33:47Z</time>
      </trkpt>
      <trkpt lat="43.01064" lon="0.84904">
        <ele>714</ele>
        <time>2025-11-26T17:33:50Z</time>
      </trkpt>
      <trkpt lat="43.0107" lon="0.84896">
        <ele>715</ele>
        <time>2025-11-26T17:33:51Z</time>
      </trkpt>
      <trkpt lat="43.01076" lon="0.84891">
        <ele>714</ele>
        <time>2025-11-26T17:33:52Z</time>
      </trkpt>
      <trkpt lat="43.01083" lon="0.84889">
        <ele>713</ele>
        <time>2025-11-26T17:33:54Z</time>
      </trkpt>
      <trkpt lat="43.01089" lon="0.8489">
        <ele>711</ele>
        <time>2025-11-26T17:33:55Z</time>
      </trkpt>
      <trkpt lat="43.01095" lon="0.84892">
        <ele>710</ele>
        <time>2025-11-26T17:33:56Z</time>
      </trkpt>
      <trkpt lat="43.01116" lon="0.84908">
        <ele>702</ele>
        <time>2025-11-26T17:34:00Z</time>
      </trkpt>
      <trkpt lat="43.01124" lon="0.84912">
        <ele>700</ele>
        <time>2025-11-26T17:34:02Z</time>
      </trkpt>
      <trkpt lat="43.01132" lon="0.84913">
        <ele>698</ele>
        <time>2025-11-26T17:34:03Z</time>
      </trkpt>
      <trkpt lat="43.01146" lon="0.84913">
        <ele>696</ele>
        <time>2025-11-26T17:34:06Z</time>
      </trkpt>
      <trkpt lat="43.01155" lon="0.84912">
        <ele>695</ele>
        <time>2025-11-26T17:34:07Z</time>
      </trkpt>
      <trkpt lat="43.01163" lon="0.84907">
        <ele>694</ele>
        <time>2025-11-26T17:34:09Z</time>
      </trkpt>
      <trkpt lat="43.01172" lon="0.84899">
        <ele>693</ele>
        <time>2025-11-26T17:34:11Z</time>
      </trkpt>
      <trkpt lat="43.0118" lon="0.84888">
        <ele>693</ele>
        <time>2025-11-26T17:34:13Z</time>
      </trkpt>
      <trkpt lat="43.01185" lon="0.8488">
        <ele>692</ele>
        <time>2025-11-26T17:34:14Z</time>
      </trkpt>
      <trkpt lat="43.01188" lon="0.84868">
        <ele>693</ele>
        <time>2025-11-26T17:34:16Z</time>
      </trkpt>
      <trkpt lat="43.01196" lon="0.84801">
        <ele>698</ele>
        <time>2025-11-26T17:34:24Z</time>
      </trkpt>
      <trkpt lat="43.0121" lon="0.84732">
        <ele>701</ele>
        <time>2025-11-26T17:34:34Z</time>
      </trkpt>
      <trkpt lat="43.01217" lon="0.84712">
        <ele>701</ele>
        <time>2025-11-26T17:34:37Z</time>
      </trkpt>
      <trkpt lat="43.01222" lon="0.84703">
        <ele>700</ele>
        <time>2025-11-26T17:34:38Z</time>
      </trkpt>
      <trkpt lat="43.01228" lon="0.84694">
        <ele>699</ele>
        <time>2025-11-26T17:34:40Z</time>
      </trkpt>
      <trkpt lat="43.01235" lon="0.84687">
        <ele>697</ele>
        <time>2025-11-26T17:34:41Z</time>
      </trkpt>
      <trkpt lat="43.01243" lon="0.84681">
        <ele>695</ele>
        <time>2025-11-26T17:34:43Z</time>
      </trkpt>
      <trkpt lat="43.01276" lon="0.84664">
        <ele>689</ele>
        <time>2025-11-26T17:34:49Z</time>
      </trkpt>
      <trkpt lat="43.01284" lon="0.84657">
        <ele>688</ele>
        <time>2025-11-26T17:34:51Z</time>
      </trkpt>
      <trkpt lat="43.01291" lon="0.84647">
        <ele>687</ele>
        <time>2025-11-26T17:34:53Z</time>
      </trkpt>
      <trkpt lat="43.01296" lon="0.84633">
        <ele>687</ele>
        <time>2025-11-26T17:34:55Z</time>
      </trkpt>
      <trkpt lat="43.01301" lon="0.8461">
        <ele>688</ele>
        <time>2025-11-26T17:34:58Z</time>
      </trkpt>
      <trkpt lat="43.01313" lon="0.84547">
        <ele>690</ele>
        <time>2025-11-26T17:35:06Z</time>
      </trkpt>
      <trkpt lat="43.01315" lon="0.84528">
        <ele>691</ele>
        <time>2025-11-26T17:35:09Z</time>
      </trkpt>
      <trkpt lat="43.01317" lon="0.84511">
        <ele>692</ele>
        <time>2025-11-26T17:35:11Z</time>
      </trkpt>
      <trkpt lat="43.01319" lon="0.84443">
        <ele>687</ele>
        <time>2025-11-26T17:35:20Z</time>
      </trkpt>
      <trkpt lat="43.01321" lon="0.84421">
        <ele>684</ele>
        <time>2025-11-26T17:35:23Z</time>
      </trkpt>
      <trkpt lat="43.01324" lon="0.84402">
        <ele>682</ele>
        <time>2025-11-26T17:35:25Z</time>
      </trkpt>
      <trkpt lat="43.01328" lon="0.84388">
        <ele>680</ele>
        <time>2025-11-26T17:35:27Z</time>
      </trkpt>
      <trkpt lat="43.01335" lon="0.84364">
        <ele>678</ele>
        <time>2025-11-26T17:35:31Z</time>
      </trkpt>
      <trkpt lat="43.01339" lon="0.84347">
        <ele>677</ele>
        <time>2025-11-26T17:35:33Z</time>
      </trkpt>
      <trkpt lat="43.01342" lon="0.84331">
        <ele>676</ele>
        <time>2025-11-26T17:35:35Z</time>
      </trkpt>
      <trkpt lat="43.01344" lon="0.84281">
        <ele>669</ele>
        <time>2025-11-26T17:35:42Z</time>
      </trkpt>
      <trkpt lat="43.01345" lon="0.84224">
        <ele>662</ele>
        <time>2025-11-26T17:35:49Z</time>
      </trkpt>
      <trkpt lat="43.01343" lon="0.84215">
        <ele>661</ele>
        <time>2025-11-26T17:35:50Z</time>
      </trkpt>
      <trkpt lat="43.01339" lon="0.84203">
        <ele>659</ele>
        <time>2025-11-26T17:35:52Z</time>
      </trkpt>
      <trkpt lat="43.01264" lon="0.84104">
        <ele>650</ele>
        <time>2025-11-26T17:36:10Z</time>
      </trkpt>
      <trkpt lat="43.01253" lon="0.84091">
        <ele>649</ele>
        <time>2025-11-26T17:36:13Z</time>
      </trkpt>
      <trkpt lat="43.01238" lon="0.84076">
        <ele>648</ele>
        <time>2025-11-26T17:36:16Z</time>
      </trkpt>
      <trkpt lat="43.01207" lon="0.84049">
        <ele>642</ele>
        <time>2025-11-26T17:36:23Z</time>
      </trkpt>
      <trkpt lat="43.012" lon="0.8404">
        <ele>640</ele>
        <time>2025-11-26T17:36:25Z</time>
      </trkpt>
      <trkpt lat="43.01195" lon="0.84033">
        <ele>639</ele>
        <time>2025-11-26T17:36:26Z</time>
      </trkpt>
      <trkpt lat="43.01193" lon="0.84025">
        <ele>638</ele>
        <time>2025-11-26T17:36:27Z</time>
      </trkpt>
      <trkpt lat="43.01192" lon="0.84011">
        <ele>636</ele>
        <time>2025-11-26T17:36:29Z</time>
      </trkpt>
      <trkpt lat="43.01194" lon="0.83999">
        <ele>635</ele>
        <time>2025-11-26T17:36:30Z</time>
      </trkpt>
      <trkpt lat="43.01204" lon="0.83962">
        <ele>631</ele>
        <time>2025-11-26T17:36:36Z</time>
      </trkpt>
      <trkpt lat="43.01211" lon="0.83942">
        <ele>628</ele>
        <time>2025-11-26T17:36:38Z</time>
      </trkpt>
      <trkpt lat="43.01216" lon="0.83932">
        <ele>628</ele>
        <time>2025-11-26T17:36:40Z</time>
      </trkpt>
      <trkpt lat="43.01227" lon="0.83917">
        <ele>627</ele>
        <time>2025-11-26T17:36:43Z</time>
      </trkpt>
      <trkpt lat="43.01255" lon="0.83897">
        <ele>626</ele>
        <time>2025-11-26T17:36:48Z</time>
      </trkpt>
      <trkpt lat="43.01262" lon="0.83895">
        <ele>626</ele>
        <time>2025-11-26T17:36:50Z</time>
      </trkpt>
      <trkpt lat="43.01269" lon="0.83894">
        <ele>625</ele>
        <time>2025-11-26T17:36:51Z</time>
      </trkpt>
      <trkpt lat="43.01287" lon="0.83902">
        <ele>627</ele>
        <time>2025-11-26T17:36:54Z</time>
      </trkpt>
      <trkpt lat="43.01291" lon="0.83902">
        <ele>627</ele>
        <time>2025-11-26T17:36:55Z</time>
      </trkpt>
      <trkpt lat="43.01294" lon="0.83901">
        <ele>626</ele>
        <time>2025-11-26T17:36:56Z</time>
      </trkpt>
      <trkpt lat="43.01297" lon="0.83899">
        <ele>626</ele>
        <time>2025-11-26T17:36:56Z</time>
      </trkpt>
      <trkpt lat="43.01299" lon="0.83895">
        <ele>625</ele>
        <time>2025-11-26T17:36:57Z</time>
      </trkpt>
      <trkpt lat="43.013" lon="0.8389">
        <ele>623</ele>
        <time>2025-11-26T17:36:57Z</time>
      </trkpt>
      <trkpt lat="43.013" lon="0.83885">
        <ele>622</ele>
        <time>2025-11-26T17:36:58Z</time>
      </trkpt>
      <trkpt lat="43.01298" lon="0.8388">
        <ele>620</ele>
        <time>2025-11-26T17:36:59Z</time>
      </trkpt>
      <trkpt lat="43.01293" lon="0.83874">
        <ele>619</ele>
        <time>2025-11-26T17:37:00Z</time>
      </trkpt>
      <trkpt lat="43.01256" lon="0.83854">
        <ele>616</ele>
        <time>2025-11-26T17:37:07Z</time>
      </trkpt>
      <trkpt lat="43.01247" lon="0.83844">
        <ele>614</ele>
        <time>2025-11-26T17:37:09Z</time>
      </trkpt>
      <trkpt lat="43.0124" lon="0.83831">
        <ele>611</ele>
        <time>2025-11-26T17:37:11Z</time>
      </trkpt>
      <trkpt lat="43.0119" lon="0.83707">
        <ele>593</ele>
        <time>2025-11-26T17:37:30Z</time>
      </trkpt>
      <trkpt lat="43.01184" lon="0.83689">
        <ele>592</ele>
        <time>2025-11-26T17:37:32Z</time>
      </trkpt>
      <trkpt lat="43.01181" lon="0.83677">
        <ele>591</ele>
        <time>2025-11-26T17:37:34Z</time>
      </trkpt>
      <trkpt lat="43.01181" lon="0.83666">
        <ele>590</ele>
        <time>2025-11-26T17:37:35Z</time>
      </trkpt>
      <trkpt lat="43.01182" lon="0.83654">
        <ele>588</ele>
        <time>2025-11-26T17:37:37Z</time>
      </trkpt>
      <trkpt lat="43.01185" lon="0.83639">
        <ele>586</ele>
        <time>2025-11-26T17:37:39Z</time>
      </trkpt>
      <trkpt lat="43.01191" lon="0.83623">
        <ele>585</ele>
        <time>2025-11-26T17:37:41Z</time>
      </trkpt>
      <trkpt lat="43.01196" lon="0.83611">
        <ele>584</ele>
        <time>2025-11-26T17:37:43Z</time>
      </trkpt>
      <trkpt lat="43.01212" lon="0.83585">
        <ele>582</ele>
        <time>2025-11-26T17:37:48Z</time>
      </trkpt>
      <trkpt lat="43.0125" lon="0.8353">
        <ele>578</ele>
        <time>2025-11-26T17:37:57Z</time>
      </trkpt>
      <trkpt lat="43.01284" lon="0.83476">
        <ele>571</ele>
        <time>2025-11-26T17:38:07Z</time>
      </trkpt>
      <trkpt lat="43.01297" lon="0.83458">
        <ele>571</ele>
        <time>2025-11-26T17:38:10Z</time>
      </trkpt>
      <trkpt lat="43.01311" lon="0.83443">
        <ele>573</ele>
        <time>2025-11-26T17:38:13Z</time>
      </trkpt>
      <trkpt lat="43.0133" lon="0.83436">
        <ele>575</ele>
        <time>2025-11-26T17:38:17Z</time>
      </trkpt>
      <trkpt lat="43.01341" lon="0.83431">
        <ele>576</ele>
        <time>2025-11-26T17:38:19Z</time>
      </trkpt>
      <trkpt lat="43.01361" lon="0.83419">
        <ele>575</ele>
        <time>2025-11-26T17:38:23Z</time>
      </trkpt>
      <trkpt lat="43.01369" lon="0.83414">
        <ele>574</ele>
        <time>2025-11-26T17:38:24Z</time>
      </trkpt>
      <trkpt lat="43.01379" lon="0.83405">
        <ele>572</ele>
        <time>2025-11-26T17:38:26Z</time>
      </trkpt>
      <trkpt lat="43.01386" lon="0.83398">
        <ele>571</ele>
        <time>2025-11-26T17:38:28Z</time>
      </trkpt>
      <trkpt lat="43.01405" lon="0.83368">
        <ele>569</ele>
        <time>2025-11-26T17:38:33Z</time>
      </trkpt>
      <trkpt lat="43.01413" lon="0.83357">
        <ele>568</ele>
        <time>2025-11-26T17:38:35Z</time>
      </trkpt>
      <trkpt lat="43.01422" lon="0.83348">
        <ele>568</ele>
        <time>2025-11-26T17:38:37Z</time>
      </trkpt>
      <trkpt lat="43.0145" lon="0.83324">
        <ele>566</ele>
        <time>2025-11-26T17:38:43Z</time>
      </trkpt>
      <trkpt lat="43.01513" lon="0.83282">
        <ele>562</ele>
        <time>2025-11-26T17:38:55Z</time>
      </trkpt>
      <trkpt lat="43.01616" lon="0.83204">
        <ele>569</ele>
        <time>2025-11-26T17:39:16Z</time>
      </trkpt>
      <trkpt lat="43.01636" lon="0.83189">
        <ele>570</ele>
        <time>2025-11-26T17:39:20Z</time>
      </trkpt>
      <trkpt lat="43.01652" lon="0.83172">
        <ele>571</ele>
        <time>2025-11-26T17:39:24Z</time>
      </trkpt>
      <trkpt lat="43.01667" lon="0.83156">
        <ele>572</ele>
        <time>2025-11-26T17:39:27Z</time>
      </trkpt>
      <trkpt lat="43.0169" lon="0.83127">
        <ele>568</ele>
        <time>2025-11-26T17:39:33Z</time>
      </trkpt>
      <trkpt lat="43.01703" lon="0.83109">
        <ele>567</ele>
        <time>2025-11-26T17:39:36Z</time>
      </trkpt>
      <trkpt lat="43.0173" lon="0.83068">
        <ele>567</ele>
        <time>2025-11-26T17:39:43Z</time>
      </trkpt>
      <trkpt lat="43.01748" lon="0.8304">
        <ele>568</ele>
        <time>2025-11-26T17:39:48Z</time>
      </trkpt>
      <trkpt lat="43.01773" lon="0.82995">
        <ele>566</ele>
        <time>2025-11-26T17:39:56Z</time>
      </trkpt>
      <trkpt lat="43.01783" lon="0.82976">
        <ele>564</ele>
        <time>2025-11-26T17:39:59Z</time>
      </trkpt>
      <trkpt lat="43.01791" lon="0.82956">
        <ele>563</ele>
        <time>2025-11-26T17:40:02Z</time>
      </trkpt>
      <trkpt lat="43.01795" lon="0.82943">
        <ele>562</ele>
        <time>2025-11-26T17:40:03Z</time>
      </trkpt>
      <trkpt lat="43.01803" lon="0.82915">
        <ele>561</ele>
        <time>2025-11-26T17:40:07Z</time>
      </trkpt>
      <trkpt lat="43.01809" lon="0.82887">
        <ele>560</ele>
        <time>2025-11-26T17:40:11Z</time>
      </trkpt>
      <trkpt lat="43.01831" lon="0.82774">
        <ele>560</ele>
        <time>2025-11-26T17:40:26Z</time>
      </trkpt>
      <trkpt lat="43.01832" lon="0.82761">
        <ele>560</ele>
        <time>2025-11-26T17:40:28Z</time>
      </trkpt>
      <trkpt lat="43.01832" lon="0.82751">
        <ele>560</ele>
        <time>2025-11-26T17:40:29Z</time>
      </trkpt>
      <trkpt lat="43.01831" lon="0.82743">
        <ele>560</ele>
        <time>2025-11-26T17:40:30Z</time>
      </trkpt>
      <trkpt lat="43.01816" lon="0.82693">
        <ele>557</ele>
        <time>2025-11-26T17:40:37Z</time>
      </trkpt>
      <trkpt lat="43.01813" lon="0.82681">
        <ele>556</ele>
        <time>2025-11-26T17:40:39Z</time>
      </trkpt>
      <trkpt lat="43.01811" lon="0.82667">
        <ele>555</ele>
        <time>2025-11-26T17:40:41Z</time>
      </trkpt>
      <trkpt lat="43.01811" lon="0.82636">
        <ele>554</ele>
        <time>2025-11-26T17:40:45Z</time>
      </trkpt>
      <trkpt lat="43.01812" lon="0.82576">
        <ele>552</ele>
        <time>2025-11-26T17:40:53Z</time>
      </trkpt>
      <trkpt lat="43.01815" lon="0.82506">
        <ele>549</ele>
        <time>2025-11-26T17:41:02Z</time>
      </trkpt>
      <trkpt lat="43.01815" lon="0.8244">
        <ele>546</ele>
        <time>2025-11-26T17:41:10Z</time>
      </trkpt>
      <trkpt lat="43.01814" lon="0.82428">
        <ele>545</ele>
        <time>2025-11-26T17:41:12Z</time>
      </trkpt>
      <trkpt lat="43.01812" lon="0.82416">
        <ele>544</ele>
        <time>2025-11-26T17:41:14Z</time>
      </trkpt>
      <trkpt lat="43.01805" lon="0.82398">
        <ele>541</ele>
        <time>2025-11-26T17:41:16Z</time>
      </trkpt>
      <trkpt lat="43.01803" lon="0.8239">
        <ele>540</ele>
        <time>2025-11-26T17:41:17Z</time>
      </trkpt>
      <trkpt lat="43.01802" lon="0.82377">
        <ele>539</ele>
        <time>2025-11-26T17:41:19Z</time>
      </trkpt>
      <trkpt lat="43.01803" lon="0.82364">
        <ele>539</ele>
        <time>2025-11-26T17:41:21Z</time>
      </trkpt>
      <trkpt lat="43.01817" lon="0.82287">
        <ele>541</ele>
        <time>2025-11-26T17:41:31Z</time>
      </trkpt>
      <trkpt lat="43.01818" lon="0.82276">
        <ele>541</ele>
        <time>2025-11-26T17:41:33Z</time>
      </trkpt>
      <trkpt lat="43.01817" lon="0.82265">
        <ele>541</ele>
        <time>2025-11-26T17:41:34Z</time>
      </trkpt>
      <trkpt lat="43.01815" lon="0.82256">
        <ele>540</ele>
        <time>2025-11-26T17:41:35Z</time>
      </trkpt>
      <trkpt lat="43.01812" lon="0.82249">
        <ele>539</ele>
        <time>2025-11-26T17:41:36Z</time>
      </trkpt>
      <trkpt lat="43.01806" lon="0.82237">
        <ele>537</ele>
        <time>2025-11-26T17:41:38Z</time>
      </trkpt>
      <trkpt lat="43.01801" lon="0.82226">
        <ele>536</ele>
        <time>2025-11-26T17:41:40Z</time>
      </trkpt>
      <trkpt lat="43.01798" lon="0.82213">
        <ele>535</ele>
        <time>2025-11-26T17:41:42Z</time>
      </trkpt>
      <trkpt lat="43.0179" lon="0.82166">
        <ele>533</ele>
        <time>2025-11-26T17:41:48Z</time>
      </trkpt>
      <trkpt lat="43.0178" lon="0.8212">
        <ele>530</ele>
        <time>2025-11-26T17:41:54Z</time>
      </trkpt>
      <trkpt lat="43.01775" lon="0.82104">
        <ele>528</ele>
        <time>2025-11-26T17:41:56Z</time>
      </trkpt>
      <trkpt lat="43.01763" lon="0.82074">
        <ele>523</ele>
        <time>2025-11-26T17:42:01Z</time>
      </trkpt>
      <trkpt lat="43.01758" lon="0.8206">
        <ele>522</ele>
        <time>2025-11-26T17:42:03Z</time>
      </trkpt>
      <trkpt lat="43.01756" lon="0.82048">
        <ele>521</ele>
        <time>2025-11-26T17:42:04Z</time>
      </trkpt>
      <trkpt lat="43.01754" lon="0.82032">
        <ele>521</ele>
        <time>2025-11-26T17:42:07Z</time>
      </trkpt>
      <trkpt lat="43.01754" lon="0.82019">
        <ele>521</ele>
        <time>2025-11-26T17:42:08Z</time>
      </trkpt>
      <trkpt lat="43.01756" lon="0.82003">
        <ele>521</ele>
        <time>2025-11-26T17:42:10Z</time>
      </trkpt>
      <trkpt lat="43.01759" lon="0.81977">
        <ele>522</ele>
        <time>2025-11-26T17:42:14Z</time>
      </trkpt>
      <trkpt lat="43.01767" lon="0.81937">
        <ele>523</ele>
        <time>2025-11-26T17:42:19Z</time>
      </trkpt>
      <trkpt lat="43.01768" lon="0.81927">
        <ele>523</ele>
        <time>2025-11-26T17:42:20Z</time>
      </trkpt>
      <trkpt lat="43.01767" lon="0.81918">
        <ele>523</ele>
        <time>2025-11-26T17:42:22Z</time>
      </trkpt>
      <trkpt lat="43.01764" lon="0.81909">
        <ele>522</ele>
        <time>2025-11-26T17:42:23Z</time>
      </trkpt>
      <trkpt lat="43.0176" lon="0.81901">
        <ele>522</ele>
        <time>2025-11-26T17:42:24Z</time>
      </trkpt>
      <trkpt lat="43.0175" lon="0.8189">
        <ele>520</ele>
        <time>2025-11-26T17:42:27Z</time>
      </trkpt>
      <trkpt lat="43.01732" lon="0.81865">
        <ele>516</ele>
        <time>2025-11-26T17:42:31Z</time>
      </trkpt>
      <trkpt lat="43.01708" lon="0.81823">
        <ele>511</ele>
        <time>2025-11-26T17:42:38Z</time>
      </trkpt>
      <trkpt lat="43.01703" lon="0.81814">
        <ele>510</ele>
        <time>2025-11-26T17:42:39Z</time>
      </trkpt>
      <trkpt lat="43.01696" lon="0.81805">
        <ele>509</ele>
        <time>2025-11-26T17:42:41Z</time>
      </trkpt>
      <trkpt lat="43.01683" lon="0.81795">
        <ele>505</ele>
        <time>2025-11-26T17:42:44Z</time>
      </trkpt>
      <trkpt lat="43.01674" lon="0.81784">
        <ele>504</ele>
        <time>2025-11-26T17:42:46Z</time>
      </trkpt>
      <trkpt lat="43.01666" lon="0.81773">
        <ele>502</ele>
        <time>2025-11-26T17:42:48Z</time>
      </trkpt>
      <trkpt lat="43.01655" lon="0.81747">
        <ele>501</ele>
        <time>2025-11-26T17:42:52Z</time>
      </trkpt>
      <trkpt lat="43.0165" lon="0.81731">
        <ele>499</ele>
        <time>2025-11-26T17:42:54Z</time>
      </trkpt>
      <trkpt lat="43.01647" lon="0.81714">
        <ele>497</ele>
        <time>2025-11-26T17:42:56Z</time>
      </trkpt>
      <trkpt lat="43.01644" lon="0.81692">
        <ele>495</ele>
        <time>2025-11-26T17:42:59Z</time>
      </trkpt>
      <trkpt lat="43.01639" lon="0.8163">
        <ele>491</ele>
        <time>2025-11-26T17:43:07Z</time>
      </trkpt>
      <trkpt lat="43.01636" lon="0.81558">
        <ele>489</ele>
        <time>2025-11-26T17:43:17Z</time>
      </trkpt>
      <trkpt lat="43.01633" lon="0.81544">
        <ele>489</ele>
        <time>2025-11-26T17:43:19Z</time>
      </trkpt>
      <trkpt lat="43.0163" lon="0.81531">
        <ele>489</ele>
        <time>2025-11-26T17:43:21Z</time>
      </trkpt>
      <trkpt lat="43.01614" lon="0.81494">
        <ele>487</ele>
        <time>2025-11-26T17:43:26Z</time>
      </trkpt>
      <trkpt lat="43.01611" lon="0.81482">
        <ele>487</ele>
        <time>2025-11-26T17:43:28Z</time>
      </trkpt>
      <trkpt lat="43.0161" lon="0.81472">
        <ele>486</ele>
        <time>2025-11-26T17:43:29Z</time>
      </trkpt>
      <trkpt lat="43.01608" lon="0.81416">
        <ele>484</ele>
        <time>2025-11-26T17:43:36Z</time>
      </trkpt>
      <trkpt lat="43.01608" lon="0.81363">
        <ele>483</ele>
        <time>2025-11-26T17:43:43Z</time>
      </trkpt>
      <trkpt lat="43.01602" lon="0.81294">
        <ele>479</ele>
        <time>2025-11-26T17:43:52Z</time>
      </trkpt>
      <trkpt lat="43.01603" lon="0.81279">
        <ele>479</ele>
        <time>2025-11-26T17:43:54Z</time>
      </trkpt>
      <trkpt lat="43.01605" lon="0.8126">
        <ele>478</ele>
        <time>2025-11-26T17:43:57Z</time>
      </trkpt>
      <trkpt lat="43.01608" lon="0.81231">
        <ele>477</ele>
        <time>2025-11-26T17:44:01Z</time>
      </trkpt>
      <trkpt lat="43.01623" lon="0.81137">
        <ele>472</ele>
        <time>2025-11-26T17:44:13Z</time>
      </trkpt>
      <trkpt lat="43.01623" lon="0.81121">
        <ele>471</ele>
        <time>2025-11-26T17:44:15Z</time>
      </trkpt>
      <trkpt lat="43.01619" lon="0.81066">
        <ele>470</ele>
        <time>2025-11-26T17:44:22Z</time>
      </trkpt>
      <trkpt lat="43.01613" lon="0.80973">
        <ele>471</ele>
        <time>2025-11-26T17:44:35Z</time>
      </trkpt>
      <trkpt lat="43.01614" lon="0.80952">
        <ele>471</ele>
        <time>2025-11-26T17:44:37Z</time>
      </trkpt>
      <trkpt lat="43.01614" lon="0.80934">
        <ele>471</ele>
        <time>2025-11-26T17:44:40Z</time>
      </trkpt>
      <trkpt lat="43.01619" lon="0.8086">
        <ele>471</ele>
        <time>2025-11-26T17:44:49Z</time>
      </trkpt>
      <trkpt lat="43.01624" lon="0.80797">
        <ele>470</ele>
        <time>2025-11-26T17:44:58Z</time>
      </trkpt>
      <trkpt lat="43.01629" lon="0.80697">
        <ele>469</ele>
        <time>2025-11-26T17:45:11Z</time>
      </trkpt>
      <trkpt lat="43.0163" lon="0.80636">
        <ele>468</ele>
        <time>2025-11-26T17:45:18Z</time>
      </trkpt>
      <trkpt lat="43.01628" lon="0.8061">
        <ele>467</ele>
        <time>2025-11-26T17:45:22Z</time>
      </trkpt>
      <trkpt lat="43.01626" lon="0.80596">
        <ele>467</ele>
        <time>2025-11-26T17:45:24Z</time>
      </trkpt>
      <trkpt lat="43.0162" lon="0.80573">
        <ele>467</ele>
        <time>2025-11-26T17:45:27Z</time>
      </trkpt>
      <trkpt lat="43.01605" lon="0.80535">
        <ele>466</ele>
        <time>2025-11-26T17:45:33Z</time>
      </trkpt>
      <trkpt lat="43.01593" lon="0.80499">
        <ele>466</ele>
        <time>2025-11-26T17:45:38Z</time>
      </trkpt>
      <trkpt lat="43.01585" lon="0.80474">
        <ele>466</ele>
        <time>2025-11-26T17:45:41Z</time>
      </trkpt>
      <trkpt lat="43.01579" lon="0.8045">
        <ele>467</ele>
        <time>2025-11-26T17:45:45Z</time>
      </trkpt>
      <trkpt lat="43.01574" lon="0.80417">
        <ele>467</ele>
        <time>2025-11-26T17:45:49Z</time>
      </trkpt>
      <trkpt lat="43.01572" lon="0.80393">
        <ele>467</ele>
        <time>2025-11-26T17:45:52Z</time>
      </trkpt>
      <trkpt lat="43.0157" lon="0.80379">
        <ele>468</ele>
        <time>2025-11-26T17:45:54Z</time>
      </trkpt>
      <trkpt lat="43.0157" lon="0.80377">
        <ele>468</ele>
        <time>2025-11-26T17:45:54Z</time>
      </trkpt>
      <trkpt lat="43.01565" lon="0.80377">
        <ele>468</ele>
        <time>2025-11-26T17:45:55Z</time>
      </trkpt>
      <trkpt lat="43.01565" lon="0.80378">
        <ele>468</ele>
        <time>2025-11-26T17:45:55Z</time>
      </trkpt>
      <trkpt lat="43.01565" lon="0.80377">
        <ele>468</ele>
        <time>2025-11-26T17:45:55Z</time>
      </trkpt>
      <trkpt lat="43.0155" lon="0.80371">
        <ele>471</ele>
        <time>2025-11-26T17:45:58Z</time>
      </trkpt>
      <trkpt lat="43.01516" lon="0.8036">
        <ele>476</ele>
        <time>2025-11-26T17:46:04Z</time>
      </trkpt>
      <trkpt lat="43.01492" lon="0.80353">
        <ele>479</ele>
        <time>2025-11-26T17:46:09Z</time>
      </trkpt>
      <trkpt lat="43.0148" lon="0.80348">
        <ele>479</ele>
        <time>2025-11-26T17:46:11Z</time>
      </trkpt>
      <trkpt lat="43.01479" lon="0.80347">
        <ele>479</ele>
        <time>2025-11-26T17:46:11Z</time>
      </trkpt>
      <trkpt lat="43.01449" lon="0.8033">
        <ele>479</ele>
        <time>2025-11-26T17:46:17Z</time>
      </trkpt>
      <trkpt lat="43.01429" lon="0.8032">
        <ele>478</ele>
        <time>2025-11-26T17:46:21Z</time>
      </trkpt>
      <trkpt lat="43.01422" lon="0.80319">
        <ele>478</ele>
        <time>2025-11-26T17:46:22Z</time>
      </trkpt>
      <trkpt lat="43.01417" lon="0.8032">
        <ele>479</ele>
        <time>2025-11-26T17:46:23Z</time>
      </trkpt>
      <trkpt lat="43.01413" lon="0.80322">
        <ele>478</ele>
        <time>2025-11-26T17:46:24Z</time>
      </trkpt>
      <trkpt lat="43.01399" lon="0.80329">
        <ele>477</ele>
        <time>2025-11-26T17:46:26Z</time>
      </trkpt>
      <trkpt lat="43.01375" lon="0.80341">
        <ele>474</ele>
        <time>2025-11-26T17:46:31Z</time>
      </trkpt>
      <trkpt lat="43.01369" lon="0.80342">
        <ele>473</ele>
        <time>2025-11-26T17:46:32Z</time>
      </trkpt>
      <trkpt lat="43.01361" lon="0.8034">
        <ele>472</ele>
        <time>2025-11-26T17:46:33Z</time>
      </trkpt>
      <trkpt lat="43.01349" lon="0.80327">
        <ele>470</ele>
        <time>2025-11-26T17:46:36Z</time>
      </trkpt>
      <trkpt lat="43.01343" lon="0.80316">
        <ele>469</ele>
        <time>2025-11-26T17:46:38Z</time>
      </trkpt>
      <trkpt lat="43.01336" lon="0.80295">
        <ele>468</ele>
        <time>2025-11-26T17:46:41Z</time>
      </trkpt>
      <trkpt lat="43.01332" lon="0.80273">
        <ele>467</ele>
        <time>2025-11-26T17:46:44Z</time>
      </trkpt>
      <trkpt lat="43.01328" lon="0.8025">
        <ele>467</ele>
        <time>2025-11-26T17:46:47Z</time>
      </trkpt>
      <trkpt lat="43.01323" lon="0.80119">
        <ele>462</ele>
        <time>2025-11-26T17:47:04Z</time>
      </trkpt>
      <trkpt lat="43.01319" lon="0.79959">
        <ele>452</ele>
        <time>2025-11-26T17:47:25Z</time>
      </trkpt>
      <trkpt lat="43.01318" lon="0.79918">
        <ele>450</ele>
        <time>2025-11-26T17:47:30Z</time>
      </trkpt>
      <trkpt lat="43.01316" lon="0.79904">
        <ele>450</ele>
        <time>2025-11-26T17:47:32Z</time>
      </trkpt>
      <trkpt lat="43.01313" lon="0.7989">
        <ele>449</ele>
        <time>2025-11-26T17:47:34Z</time>
      </trkpt>
      <trkpt lat="43.01308" lon="0.79879">
        <ele>448</ele>
        <time>2025-11-26T17:47:36Z</time>
      </trkpt>
      <trkpt lat="43.01304" lon="0.79871">
        <ele>448</ele>
        <time>2025-11-26T17:47:37Z</time>
      </trkpt>
      <trkpt lat="43.01299" lon="0.79865">
        <ele>447</ele>
        <time>2025-11-26T17:47:38Z</time>
      </trkpt>
      <trkpt lat="43.01287" lon="0.79859">
        <ele>446</ele>
        <time>2025-11-26T17:47:40Z</time>
      </trkpt>
      <trkpt lat="43.01268" lon="0.79855">
        <ele>445</ele>
        <time>2025-11-26T17:47:44Z</time>
      </trkpt>
      <trkpt lat="43.01263" lon="0.79854">
        <ele>445</ele>
        <time>2025-11-26T17:47:45Z</time>
      </trkpt>
      <trkpt lat="43.01207" lon="0.79845">
        <ele>443</ele>
        <time>2025-11-26T17:47:55Z</time>
      </trkpt>
      <trkpt lat="43.01187" lon="0.79842">
        <ele>442</ele>
        <time>2025-11-26T17:47:58Z</time>
      </trkpt>
      <trkpt lat="43.0114" lon="0.79839">
        <ele>442</ele>
        <time>2025-11-26T17:48:07Z</time>
      </trkpt>
      <trkpt lat="43.01108" lon="0.79843">
        <ele>444</ele>
        <time>2025-11-26T17:48:12Z</time>
      </trkpt>
      <trkpt lat="43.01095" lon="0.79847">
        <ele>444</ele>
        <time>2025-11-26T17:48:15Z</time>
      </trkpt>
      <trkpt lat="43.0108" lon="0.79853">
        <ele>445</ele>
        <time>2025-11-26T17:48:17Z</time>
      </trkpt>
      <trkpt lat="43.01025" lon="0.79881">
        <ele>446</ele>
        <time>2025-11-26T17:48:28Z</time>
      </trkpt>
      <trkpt lat="43.01002" lon="0.7989">
        <ele>446</ele>
        <time>2025-11-26T17:48:32Z</time>
      </trkpt>
      <trkpt lat="43.00999" lon="0.79891">
        <ele>446</ele>
        <time>2025-11-26T17:48:33Z</time>
      </trkpt>
      <trkpt lat="43.00941" lon="0.79908">
        <ele>450</ele>
        <time>2025-11-26T17:48:43Z</time>
      </trkpt>
      <trkpt lat="43.00913" lon="0.79917">
        <ele>452</ele>
        <time>2025-11-26T17:48:48Z</time>
      </trkpt>
      <trkpt lat="43.00884" lon="0.79929">
        <ele>455</ele>
        <time>2025-11-26T17:48:54Z</time>
      </trkpt>
      <trkpt lat="43.00865" lon="0.79932">
        <ele>457</ele>
        <time>2025-11-26T17:48:57Z</time>
      </trkpt>
      <trkpt lat="43.00854" lon="0.79932">
        <ele>457</ele>
        <time>2025-11-26T17:48:59Z</time>
      </trkpt>
      <trkpt lat="43.00842" lon="0.7993">
        <ele>457</ele>
        <time>2025-11-26T17:49:01Z</time>
      </trkpt>
      <trkpt lat="43.00823" lon="0.79926">
        <ele>456</ele>
        <time>2025-11-26T17:49:05Z</time>
      </trkpt>
      <trkpt lat="43.00791" lon="0.79917">
        <ele>454</ele>
        <time>2025-11-26T17:49:10Z</time>
      </trkpt>
      <trkpt lat="43.00767" lon="0.79911">
        <ele>453</ele>
        <time>2025-11-26T17:49:15Z</time>
      </trkpt>
      <trkpt lat="43.00716" lon="0.79902">
        <ele>453</ele>
        <time>2025-11-26T17:49:24Z</time>
      </trkpt>
      <trkpt lat="43.00554" lon="0.79875">
        <ele>454</ele>
        <time>2025-11-26T17:49:53Z</time>
      </trkpt>
      <trkpt lat="43.00418" lon="0.79853">
        <ele>455</ele>
        <time>2025-11-26T17:50:17Z</time>
      </trkpt>
      <trkpt lat="43.00403" lon="0.7985">
        <ele>455</ele>
        <time>2025-11-26T17:50:20Z</time>
      </trkpt>
      <trkpt lat="43.00376" lon="0.79846">
        <ele>454</ele>
        <time>2025-11-26T17:50:25Z</time>
      </trkpt>
      <trkpt lat="43.00364" lon="0.79842">
        <ele>453</ele>
        <time>2025-11-26T17:50:27Z</time>
      </trkpt>
      <trkpt lat="43.00357" lon="0.79839">
        <ele>453</ele>
        <time>2025-11-26T17:50:28Z</time>
      </trkpt>
      <trkpt lat="43.00332" lon="0.79825">
        <ele>452</ele>
        <time>2025-11-26T17:50:33Z</time>
      </trkpt>
      <trkpt lat="43.00309" lon="0.79812">
        <ele>452</ele>
        <time>2025-11-26T17:50:38Z</time>
      </trkpt>
      <trkpt lat="43.00004" lon="0.79642">
        <ele>459</ele>
        <time>2025-11-26T17:51:36Z</time>
      </trkpt>
      <trkpt lat="42.99876" lon="0.79572">
        <ele>471</ele>
        <time>2025-11-26T17:52:01Z</time>
      </trkpt>
      <trkpt lat="42.99584" lon="0.79407">
        <ele>474</ele>
        <time>2025-11-26T17:52:57Z</time>
      </trkpt>
      <trkpt lat="42.99469" lon="0.79332">
        <ele>484</ele>
        <time>2025-11-26T17:53:20Z</time>
      </trkpt>
      <trkpt lat="42.99388" lon="0.79276">
        <ele>484</ele>
        <time>2025-11-26T17:53:36Z</time>
      </trkpt>
      <trkpt lat="42.99284" lon="0.79208">
        <ele>485</ele>
        <time>2025-11-26T17:53:56Z</time>
      </trkpt>
      <trkpt lat="42.99218" lon="0.79168">
        <ele>488</ele>
        <time>2025-11-26T17:54:09Z</time>
      </trkpt>
      <trkpt lat="42.99207" lon="0.79163">
        <ele>489</ele>
        <time>2025-11-26T17:54:11Z</time>
      </trkpt>
      <trkpt lat="42.99179" lon="0.79159">
        <ele>487</ele>
        <time>2025-11-26T17:54:16Z</time>
      </trkpt>
      <trkpt lat="42.99166" lon="0.79157">
        <ele>486</ele>
        <time>2025-11-26T17:54:19Z</time>
      </trkpt>
      <trkpt lat="42.99061" lon="0.7911">
        <ele>490</ele>
        <time>2025-11-26T17:54:38Z</time>
      </trkpt>
      <trkpt lat="42.99042" lon="0.79105">
        <ele>489</ele>
        <time>2025-11-26T17:54:42Z</time>
      </trkpt>
      <trkpt lat="42.99021" lon="0.79104">
        <ele>486</ele>
        <time>2025-11-26T17:54:45Z</time>
      </trkpt>
      <trkpt lat="42.98999" lon="0.79107">
        <ele>483</ele>
        <time>2025-11-26T17:54:49Z</time>
      </trkpt>
      <trkpt lat="42.98941" lon="0.79118">
        <ele>479</ele>
        <time>2025-11-26T17:55:00Z</time>
      </trkpt>
      <trkpt lat="42.98844" lon="0.79136">
        <ele>486</ele>
        <time>2025-11-26T17:55:17Z</time>
      </trkpt>
      <trkpt lat="42.98805" lon="0.79144">
        <ele>490</ele>
        <time>2025-11-26T17:55:24Z</time>
      </trkpt>
      <trkpt lat="42.98782" lon="0.79153">
        <ele>491</ele>
        <time>2025-11-26T17:55:28Z</time>
      </trkpt>
      <trkpt lat="42.98769" lon="0.7916">
        <ele>492</ele>
        <time>2025-11-26T17:55:31Z</time>
      </trkpt>
      <trkpt lat="42.98735" lon="0.79185">
        <ele>491</ele>
        <time>2025-11-26T17:55:38Z</time>
      </trkpt>
      <trkpt lat="42.98707" lon="0.79206">
        <ele>490</ele>
        <time>2025-11-26T17:55:44Z</time>
      </trkpt>
      <trkpt lat="42.98695" lon="0.79213">
        <ele>489</ele>
        <time>2025-11-26T17:55:46Z</time>
      </trkpt>
      <trkpt lat="42.98684" lon="0.79216">
        <ele>489</ele>
        <time>2025-11-26T17:55:48Z</time>
      </trkpt>
      <trkpt lat="42.98676" lon="0.79217">
        <ele>490</ele>
        <time>2025-11-26T17:55:49Z</time>
      </trkpt>
      <trkpt lat="42.98666" lon="0.79216">
        <ele>491</ele>
        <time>2025-11-26T17:55:51Z</time>
      </trkpt>
      <trkpt lat="42.98656" lon="0.79213">
        <ele>491</ele>
        <time>2025-11-26T17:55:53Z</time>
      </trkpt>
      <trkpt lat="42.98648" lon="0.7921">
        <ele>491</ele>
        <time>2025-11-26T17:55:54Z</time>
      </trkpt>
      <trkpt lat="42.9864" lon="0.79204">
        <ele>491</ele>
        <time>2025-11-26T17:55:56Z</time>
      </trkpt>
      <trkpt lat="42.98631" lon="0.79197">
        <ele>492</ele>
        <time>2025-11-26T17:55:58Z</time>
      </trkpt>
      <trkpt lat="42.98623" lon="0.79186">
        <ele>493</ele>
        <time>2025-11-26T17:56:00Z</time>
      </trkpt>
      <trkpt lat="42.98618" lon="0.79175">
        <ele>494</ele>
        <time>2025-11-26T17:56:02Z</time>
      </trkpt>
      <trkpt lat="42.98613" lon="0.79161">
        <ele>495</ele>
        <time>2025-11-26T17:56:04Z</time>
      </trkpt>
      <trkpt lat="42.98606" lon="0.79121">
        <ele>501</ele>
        <time>2025-11-26T17:56:09Z</time>
      </trkpt>
      <trkpt lat="42.98602" lon="0.79108">
        <ele>503</ele>
        <time>2025-11-26T17:56:11Z</time>
      </trkpt>
      <trkpt lat="42.98597" lon="0.79098">
        <ele>504</ele>
        <time>2025-11-26T17:56:12Z</time>
      </trkpt>
      <trkpt lat="42.98586" lon="0.79087">
        <ele>505</ele>
        <time>2025-11-26T17:56:15Z</time>
      </trkpt>
      <trkpt lat="42.9858" lon="0.79081">
        <ele>505</ele>
        <time>2025-11-26T17:56:16Z</time>
      </trkpt>
      <trkpt lat="42.98569" lon="0.79075">
        <ele>505</ele>
        <time>2025-11-26T17:56:18Z</time>
      </trkpt>
      <trkpt lat="42.9847" lon="0.79044">
        <ele>500</ele>
        <time>2025-11-26T17:56:36Z</time>
      </trkpt>
      <trkpt lat="42.98459" lon="0.79039">
        <ele>500</ele>
        <time>2025-11-26T17:56:38Z</time>
      </trkpt>
      <trkpt lat="42.98452" lon="0.79033">
        <ele>500</ele>
        <time>2025-11-26T17:56:40Z</time>
      </trkpt>
      <trkpt lat="42.98446" lon="0.79026">
        <ele>501</ele>
        <time>2025-11-26T17:56:41Z</time>
      </trkpt>
      <trkpt lat="42.9844" lon="0.79017">
        <ele>501</ele>
        <time>2025-11-26T17:56:43Z</time>
      </trkpt>
      <trkpt lat="42.98437" lon="0.79">
        <ele>503</ele>
        <time>2025-11-26T17:56:45Z</time>
      </trkpt>
      <trkpt lat="42.98437" lon="0.78984">
        <ele>504</ele>
        <time>2025-11-26T17:56:47Z</time>
      </trkpt>
      <trkpt lat="42.9844" lon="0.7897">
        <ele>505</ele>
        <time>2025-11-26T17:56:49Z</time>
      </trkpt>
      <trkpt lat="42.98462" lon="0.78919">
        <ele>512</ele>
        <time>2025-11-26T17:56:57Z</time>
      </trkpt>
      <trkpt lat="42.985" lon="0.78833">
        <ele>518</ele>
        <time>2025-11-26T17:57:10Z</time>
      </trkpt>
      <trkpt lat="42.98523" lon="0.7878">
        <ele>522</ele>
        <time>2025-11-26T17:57:18Z</time>
      </trkpt>
      <trkpt lat="42.98526" lon="0.7877">
        <ele>523</ele>
        <time>2025-11-26T17:57:19Z</time>
      </trkpt>
      <trkpt lat="42.98527" lon="0.7876">
        <ele>523</ele>
        <time>2025-11-26T17:57:21Z</time>
      </trkpt>
      <trkpt lat="42.98526" lon="0.78753">
        <ele>523</ele>
        <time>2025-11-26T17:57:21Z</time>
      </trkpt>
      <trkpt lat="42.98522" lon="0.78742">
        <ele>524</ele>
        <time>2025-11-26T17:57:23Z</time>
      </trkpt>
      <trkpt lat="42.98517" lon="0.78731">
        <ele>526</ele>
        <time>2025-11-26T17:57:25Z</time>
      </trkpt>
      <trkpt lat="42.98511" lon="0.78726">
        <ele>526</ele>
        <time>2025-11-26T17:57:26Z</time>
      </trkpt>
      <trkpt lat="42.98506" lon="0.78726">
        <ele>526</ele>
        <time>2025-11-26T17:57:27Z</time>
      </trkpt>
      <trkpt lat="42.985" lon="0.78726">
        <ele>526</ele>
        <time>2025-11-26T17:57:28Z</time>
      </trkpt>
      <trkpt lat="42.98493" lon="0.78728">
        <ele>526</ele>
        <time>2025-11-26T17:57:29Z</time>
      </trkpt>
      <trkpt lat="42.98486" lon="0.78734">
        <ele>526</ele>
        <time>2025-11-26T17:57:31Z</time>
      </trkpt>
      <trkpt lat="42.98466" lon="0.78763">
        <ele>524</ele>
        <time>2025-11-26T17:57:36Z</time>
      </trkpt>
      <trkpt lat="42.98458" lon="0.78771">
        <ele>524</ele>
        <time>2025-11-26T17:57:38Z</time>
      </trkpt>
      <trkpt lat="42.9844" lon="0.78784">
        <ele>523</ele>
        <time>2025-11-26T17:57:41Z</time>
      </trkpt>
      <trkpt lat="42.9843" lon="0.78787">
        <ele>523</ele>
        <time>2025-11-26T17:57:43Z</time>
      </trkpt>
      <trkpt lat="42.98421" lon="0.78789">
        <ele>523</ele>
        <time>2025-11-26T17:57:45Z</time>
      </trkpt>
      <trkpt lat="42.98413" lon="0.78789">
        <ele>523</ele>
        <time>2025-11-26T17:57:46Z</time>
      </trkpt>
      <trkpt lat="42.98402" lon="0.78785">
        <ele>525</ele>
        <time>2025-11-26T17:57:48Z</time>
      </trkpt>
      <trkpt lat="42.98392" lon="0.78781">
        <ele>526</ele>
        <time>2025-11-26T17:57:50Z</time>
      </trkpt>
      <trkpt lat="42.98374" lon="0.7877">
        <ele>528</ele>
        <time>2025-11-26T17:57:54Z</time>
      </trkpt>
      <trkpt lat="42.98366" lon="0.78767">
        <ele>529</ele>
        <time>2025-11-26T17:57:55Z</time>
      </trkpt>
      <trkpt lat="42.98361" lon="0.78767">
        <ele>529</ele>
        <time>2025-11-26T17:57:56Z</time>
      </trkpt>
      <trkpt lat="42.98354" lon="0.78768">
        <ele>529</ele>
        <time>2025-11-26T17:57:57Z</time>
      </trkpt>
      <trkpt lat="42.98349" lon="0.78772">
        <ele>529</ele>
        <time>2025-11-26T17:57:58Z</time>
      </trkpt>
      <trkpt lat="42.98341" lon="0.7878">
        <ele>528</ele>
        <time>2025-11-26T17:58:00Z</time>
      </trkpt>
      <trkpt lat="42.98329" lon="0.78802">
        <ele>527</ele>
        <time>2025-11-26T17:58:04Z</time>
      </trkpt>
      <trkpt lat="42.98317" lon="0.78821">
        <ele>527</ele>
        <time>2025-11-26T17:58:07Z</time>
      </trkpt>
      <trkpt lat="42.98309" lon="0.78827">
        <ele>526</ele>
        <time>2025-11-26T17:58:08Z</time>
      </trkpt>
      <trkpt lat="42.98301" lon="0.78831">
        <ele>526</ele>
        <time>2025-11-26T17:58:10Z</time>
      </trkpt>
      <trkpt lat="42.98291" lon="0.78832">
        <ele>527</ele>
        <time>2025-11-26T17:58:12Z</time>
      </trkpt>
      <trkpt lat="42.98281" lon="0.7883">
        <ele>527</ele>
        <time>2025-11-26T17:58:13Z</time>
      </trkpt>
      <trkpt lat="42.98261" lon="0.78822">
        <ele>529</ele>
        <time>2025-11-26T17:58:17Z</time>
      </trkpt>
      <trkpt lat="42.98186" lon="0.78785">
        <ele>533</ele>
        <time>2025-11-26T17:58:31Z</time>
      </trkpt>
      <trkpt lat="42.98184" lon="0.78792">
        <ele>532</ele>
        <time>2025-11-26T17:58:32Z</time>
      </trkpt>
      <trkpt lat="42.9818" lon="0.78801">
        <ele>531</ele>
        <time>2025-11-26T17:58:34Z</time>
      </trkpt>
      <trkpt lat="42.98176" lon="0.78807">
        <ele>531</ele>
        <time>2025-11-26T17:58:35Z</time>
      </trkpt>
      <trkpt lat="42.98169" lon="0.78814">
        <ele>530</ele>
        <time>2025-11-26T17:58:36Z</time>
      </trkpt>
      <trkpt lat="42.98164" lon="0.78819">
        <ele>530</ele>
        <time>2025-11-26T17:58:37Z</time>
      </trkpt>
      <trkpt lat="42.98159" lon="0.78821">
        <ele>529</ele>
        <time>2025-11-26T17:58:38Z</time>
      </trkpt>
      <trkpt lat="42.98147" lon="0.78822">
        <ele>529</ele>
        <time>2025-11-26T17:58:41Z</time>
      </trkpt>
      <trkpt lat="42.98128" lon="0.78819">
        <ele>530</ele>
        <time>2025-11-26T17:58:44Z</time>
      </trkpt>
      <trkpt lat="42.98121" lon="0.7882">
        <ele>530</ele>
        <time>2025-11-26T17:58:45Z</time>
      </trkpt>
      <trkpt lat="42.98093" lon="0.78828">
        <ele>530</ele>
        <time>2025-11-26T17:58:50Z</time>
      </trkpt>
      <trkpt lat="42.98053" lon="0.78846">
        <ele>525</ele>
        <time>2025-11-26T17:58:58Z</time>
      </trkpt>
      <trkpt lat="42.98036" lon="0.78848">
        <ele>524</ele>
        <time>2025-11-26T17:59:01Z</time>
      </trkpt>
      <trkpt lat="42.98015" lon="0.78851">
        <ele>522</ele>
        <time>2025-11-26T17:59:05Z</time>
      </trkpt>
      <trkpt lat="42.97963" lon="0.78848">
        <ele>517</ele>
        <time>2025-11-26T17:59:14Z</time>
      </trkpt>
      <trkpt lat="42.9794" lon="0.78845">
        <ele>515</ele>
        <time>2025-11-26T17:59:18Z</time>
      </trkpt>
      <trkpt lat="42.97895" lon="0.78835">
        <ele>514</ele>
        <time>2025-11-26T17:59:26Z</time>
      </trkpt>
      <trkpt lat="42.97877" lon="0.78833">
        <ele>515</ele>
        <time>2025-11-26T17:59:29Z</time>
      </trkpt>
      <trkpt lat="42.97864" lon="0.78833">
        <ele>516</ele>
        <time>2025-11-26T17:59:32Z</time>
      </trkpt>
      <trkpt lat="42.97845" lon="0.78836">
        <ele>516</ele>
        <time>2025-11-26T17:59:35Z</time>
      </trkpt>
      <trkpt lat="42.97827" lon="0.78844">
        <ele>515</ele>
        <time>2025-11-26T17:59:38Z</time>
      </trkpt>
      <trkpt lat="42.97775" lon="0.78874">
        <ele>514</ele>
        <time>2025-11-26T17:59:48Z</time>
      </trkpt>
      <trkpt lat="42.97763" lon="0.78876">
        <ele>514</ele>
        <time>2025-11-26T17:59:51Z</time>
      </trkpt>
      <trkpt lat="42.97737" lon="0.78878">
        <ele>517</ele>
        <time>2025-11-26T17:59:55Z</time>
      </trkpt>
      <trkpt lat="42.97719" lon="0.7888">
        <ele>519</ele>
        <time>2025-11-26T17:59:58Z</time>
      </trkpt>
      <trkpt lat="42.97683" lon="0.78904">
        <ele>514</ele>
        <time>2025-11-26T18:00:05Z</time>
      </trkpt>
      <trkpt lat="42.97665" lon="0.78913">
        <ele>512</ele>
        <time>2025-11-26T18:00:09Z</time>
      </trkpt>
      <trkpt lat="42.97646" lon="0.78918">
        <ele>510</ele>
        <time>2025-11-26T18:00:12Z</time>
      </trkpt>
      <trkpt lat="42.97616" lon="0.7892">
        <ele>509</ele>
        <time>2025-11-26T18:00:18Z</time>
      </trkpt>
      <trkpt lat="42.97599" lon="0.78917">
        <ele>509</ele>
        <time>2025-11-26T18:00:21Z</time>
      </trkpt>
      <trkpt lat="42.9755" lon="0.7889">
        <ele>516</ele>
        <time>2025-11-26T18:00:30Z</time>
      </trkpt>
      <trkpt lat="42.9751" lon="0.78866">
        <ele>518</ele>
        <time>2025-11-26T18:00:38Z</time>
      </trkpt>
      <trkpt lat="42.9749" lon="0.78859">
        <ele>517</ele>
        <time>2025-11-26T18:00:42Z</time>
      </trkpt>
      <trkpt lat="42.97479" lon="0.78858">
        <ele>516</ele>
        <time>2025-11-26T18:00:44Z</time>
      </trkpt>
      <trkpt lat="42.97469" lon="0.78859">
        <ele>515</ele>
        <time>2025-11-26T18:00:45Z</time>
      </trkpt>
      <trkpt lat="42.97456" lon="0.78863">
        <ele>513</ele>
        <time>2025-11-26T18:00:48Z</time>
      </trkpt>
      <trkpt lat="42.97418" lon="0.78885">
        <ele>508</ele>
        <time>2025-11-26T18:00:55Z</time>
      </trkpt>
      <trkpt lat="42.97352" lon="0.78916">
        <ele>508</ele>
        <time>2025-11-26T18:01:07Z</time>
      </trkpt>
      <trkpt lat="42.97293" lon="0.78943">
        <ele>516</ele>
        <time>2025-11-26T18:01:19Z</time>
      </trkpt>
      <trkpt lat="42.97271" lon="0.78957">
        <ele>520</ele>
        <time>2025-11-26T18:01:23Z</time>
      </trkpt>
      <trkpt lat="42.97258" lon="0.78968">
        <ele>521</ele>
        <time>2025-11-26T18:01:26Z</time>
      </trkpt>
      <trkpt lat="42.97212" lon="0.7902">
        <ele>525</ele>
        <time>2025-11-26T18:01:36Z</time>
      </trkpt>
      <trkpt lat="42.97202" lon="0.79029">
        <ele>524</ele>
        <time>2025-11-26T18:01:38Z</time>
      </trkpt>
      <trkpt lat="42.9719" lon="0.79037">
        <ele>524</ele>
        <time>2025-11-26T18:01:41Z</time>
      </trkpt>
      <trkpt lat="42.97134" lon="0.79053">
        <ele>525</ele>
        <time>2025-11-26T18:01:51Z</time>
      </trkpt>
      <trkpt lat="42.97047" lon="0.79091">
        <ele>523</ele>
        <time>2025-11-26T18:02:07Z</time>
      </trkpt>
      <trkpt lat="42.96983" lon="0.7912">
        <ele>525</ele>
        <time>2025-11-26T18:02:19Z</time>
      </trkpt>
      <trkpt lat="42.9696" lon="0.79128">
        <ele>525</ele>
        <time>2025-11-26T18:02:23Z</time>
      </trkpt>
      <trkpt lat="42.96939" lon="0.7913">
        <ele>526</ele>
        <time>2025-11-26T18:02:27Z</time>
      </trkpt>
      <trkpt lat="42.96889" lon="0.79116">
        <ele>534</ele>
        <time>2025-11-26T18:02:36Z</time>
      </trkpt>
      <trkpt lat="42.96872" lon="0.79116">
        <ele>535</ele>
        <time>2025-11-26T18:02:39Z</time>
      </trkpt>
      <trkpt lat="42.96859" lon="0.79122">
        <ele>536</ele>
        <time>2025-11-26T18:02:42Z</time>
      </trkpt>
      <trkpt lat="42.96804" lon="0.79156">
        <ele>537</ele>
        <time>2025-11-26T18:02:52Z</time>
      </trkpt>
      <trkpt lat="42.96791" lon="0.79167">
        <ele>538</ele>
        <time>2025-11-26T18:02:55Z</time>
      </trkpt>
      <trkpt lat="42.96704" lon="0.7927">
        <ele>556</ele>
        <time>2025-11-26T18:03:16Z</time>
      </trkpt>
      <trkpt lat="42.96694" lon="0.79285">
        <ele>558</ele>
        <time>2025-11-26T18:03:18Z</time>
      </trkpt>
      <trkpt lat="42.9669" lon="0.79294">
        <ele>558</ele>
        <time>2025-11-26T18:03:20Z</time>
      </trkpt>
      <trkpt lat="42.96679" lon="0.79326">
        <ele>555</ele>
        <time>2025-11-26T18:03:24Z</time>
      </trkpt>
      <trkpt lat="42.96675" lon="0.79345">
        <ele>553</ele>
        <time>2025-11-26T18:03:27Z</time>
      </trkpt>
      <trkpt lat="42.96671" lon="0.79375">
        <ele>548</ele>
        <time>2025-11-26T18:03:31Z</time>
      </trkpt>
      <trkpt lat="42.9667" lon="0.79401">
        <ele>543</ele>
        <time>2025-11-26T18:03:34Z</time>
      </trkpt>
      <trkpt lat="42.96666" lon="0.79419">
        <ele>540</ele>
        <time>2025-11-26T18:03:37Z</time>
      </trkpt>
      <trkpt lat="42.9666" lon="0.79432">
        <ele>542</ele>
        <time>2025-11-26T18:03:39Z</time>
      </trkpt>
      <trkpt lat="42.96654" lon="0.7944">
        <ele>543</ele>
        <time>2025-11-26T18:03:40Z</time>
      </trkpt>
      <trkpt lat="42.96646" lon="0.79446">
        <ele>545</ele>
        <time>2025-11-26T18:03:42Z</time>
      </trkpt>
      <trkpt lat="42.96641" lon="0.79448">
        <ele>547</ele>
        <time>2025-11-26T18:03:43Z</time>
      </trkpt>
      <trkpt lat="42.96631" lon="0.79447">
        <ele>549</ele>
        <time>2025-11-26T18:03:44Z</time>
      </trkpt>
      <trkpt lat="42.96586" lon="0.7944">
        <ele>562</ele>
        <time>2025-11-26T18:03:52Z</time>
      </trkpt>
      <trkpt lat="42.96547" lon="0.79436">
        <ele>569</ele>
        <time>2025-11-26T18:03:59Z</time>
      </trkpt>
      <trkpt lat="42.96444" lon="0.79438">
        <ele>583</ele>
        <time>2025-11-26T18:04:18Z</time>
      </trkpt>
      <trkpt lat="42.96425" lon="0.79442">
        <ele>584</ele>
        <time>2025-11-26T18:04:21Z</time>
      </trkpt>
      <trkpt lat="42.96412" lon="0.7945">
        <ele>583</ele>
        <time>2025-11-26T18:04:24Z</time>
      </trkpt>
      <trkpt lat="42.964" lon="0.7946">
        <ele>584</ele>
        <time>2025-11-26T18:04:26Z</time>
      </trkpt>
      <trkpt lat="42.96382" lon="0.79478">
        <ele>583</ele>
        <time>2025-11-26T18:04:30Z</time>
      </trkpt>
      <trkpt lat="42.96351" lon="0.79509">
        <ele>582</ele>
        <time>2025-11-26T18:04:37Z</time>
      </trkpt>
      <trkpt lat="42.96326" lon="0.79543">
        <ele>577</ele>
        <time>2025-11-26T18:04:43Z</time>
      </trkpt>
      <trkpt lat="42.96306" lon="0.79565">
        <ele>578</ele>
        <time>2025-11-26T18:04:48Z</time>
      </trkpt>
      <trkpt lat="42.96295" lon="0.79577">
        <ele>579</ele>
        <time>2025-11-26T18:04:50Z</time>
      </trkpt>
      <trkpt lat="42.9627" lon="0.79614">
        <ele>581</ele>
        <time>2025-11-26T18:04:57Z</time>
      </trkpt>
      <trkpt lat="42.96263" lon="0.79622">
        <ele>581</ele>
        <time>2025-11-26T18:04:59Z</time>
      </trkpt>
      <trkpt lat="42.96242" lon="0.79634">
        <ele>584</ele>
        <time>2025-11-26T18:05:03Z</time>
      </trkpt>
      <trkpt lat="42.96231" lon="0.79643">
        <ele>583</ele>
        <time>2025-11-26T18:05:05Z</time>
      </trkpt>
      <trkpt lat="42.96222" lon="0.79647">
        <ele>583</ele>
        <time>2025-11-26T18:05:07Z</time>
      </trkpt>
      <trkpt lat="42.96199" lon="0.79651">
        <ele>586</ele>
        <time>2025-11-26T18:05:11Z</time>
      </trkpt>
      <trkpt lat="42.96189" lon="0.79654">
        <ele>586</ele>
        <time>2025-11-26T18:05:13Z</time>
      </trkpt>
      <trkpt lat="42.96181" lon="0.79659">
        <ele>585</ele>
        <time>2025-11-26T18:05:14Z</time>
      </trkpt>
      <trkpt lat="42.96173" lon="0.79668">
        <ele>581</ele>
        <time>2025-11-26T18:05:16Z</time>
      </trkpt>
      <trkpt lat="42.96162" lon="0.79681">
        <ele>580</ele>
        <time>2025-11-26T18:05:19Z</time>
      </trkpt>
      <trkpt lat="42.96127" lon="0.7972">
        <ele>577</ele>
        <time>2025-11-26T18:05:27Z</time>
      </trkpt>
      <trkpt lat="42.96113" lon="0.79729">
        <ele>576</ele>
        <time>2025-11-26T18:05:29Z</time>
      </trkpt>
      <trkpt lat="42.96086" lon="0.79737">
        <ele>578</ele>
        <time>2025-11-26T18:05:34Z</time>
      </trkpt>
      <trkpt lat="42.96073" lon="0.79739">
        <ele>578</ele>
        <time>2025-11-26T18:05:37Z</time>
      </trkpt>
      <trkpt lat="42.96021" lon="0.79738">
        <ele>586</ele>
        <time>2025-11-26T18:05:46Z</time>
      </trkpt>
      <trkpt lat="42.95986" lon="0.79735">
        <ele>592</ele>
        <time>2025-11-26T18:05:52Z</time>
      </trkpt>
      <trkpt lat="42.95967" lon="0.7973">
        <ele>596</ele>
        <time>2025-11-26T18:05:55Z</time>
      </trkpt>
      <trkpt lat="42.95962" lon="0.79726">
        <ele>598</ele>
        <time>2025-11-26T18:05:57Z</time>
      </trkpt>
      <trkpt lat="42.95958" lon="0.7972">
        <ele>599</ele>
        <time>2025-11-26T18:05:58Z</time>
      </trkpt>
      <trkpt lat="42.95955" lon="0.79713">
        <ele>601</ele>
        <time>2025-11-26T18:05:59Z</time>
      </trkpt>
      <trkpt lat="42.95948" lon="0.79686">
        <ele>605</ele>
        <time>2025-11-26T18:06:02Z</time>
      </trkpt>
      <trkpt lat="42.95944" lon="0.79681">
        <ele>605</ele>
        <time>2025-11-26T18:06:03Z</time>
      </trkpt>
      <trkpt lat="42.95939" lon="0.7968">
        <ele>605</ele>
        <time>2025-11-26T18:06:04Z</time>
      </trkpt>
      <trkpt lat="42.95934" lon="0.79682">
        <ele>605</ele>
        <time>2025-11-26T18:06:05Z</time>
      </trkpt>
      <trkpt lat="42.9593" lon="0.79686">
        <ele>604</ele>
        <time>2025-11-26T18:06:06Z</time>
      </trkpt>
      <trkpt lat="42.95928" lon="0.79708">
        <ele>603</ele>
        <time>2025-11-26T18:06:09Z</time>
      </trkpt>
      <trkpt lat="42.95929" lon="0.79727">
        <ele>602</ele>
        <time>2025-11-26T18:06:11Z</time>
      </trkpt>
      <trkpt lat="42.95931" lon="0.79742">
        <ele>601</ele>
        <time>2025-11-26T18:06:13Z</time>
      </trkpt>
      <trkpt lat="42.95935" lon="0.79758">
        <ele>601</ele>
        <time>2025-11-26T18:06:16Z</time>
      </trkpt>
      <trkpt lat="42.95969" lon="0.79845">
        <ele>594</ele>
        <time>2025-11-26T18:06:28Z</time>
      </trkpt>
      <trkpt lat="42.95971" lon="0.79856">
        <ele>593</ele>
        <time>2025-11-26T18:06:30Z</time>
      </trkpt>
      <trkpt lat="42.95972" lon="0.79873">
        <ele>592</ele>
        <time>2025-11-26T18:06:32Z</time>
      </trkpt>
      <trkpt lat="42.95972" lon="0.79884">
        <ele>592</ele>
        <time>2025-11-26T18:06:34Z</time>
      </trkpt>
      <trkpt lat="42.95969" lon="0.79901">
        <ele>594</ele>
        <time>2025-11-26T18:06:36Z</time>
      </trkpt>
      <trkpt lat="42.9593" lon="0.79976">
        <ele>605</ele>
        <time>2025-11-26T18:06:48Z</time>
      </trkpt>
      <trkpt lat="42.95918" lon="0.80005">
        <ele>602</ele>
        <time>2025-11-26T18:06:52Z</time>
      </trkpt>
      <trkpt lat="42.95897" lon="0.80059">
        <ele>603</ele>
        <time>2025-11-26T18:07:00Z</time>
      </trkpt>
      <trkpt lat="42.95866" lon="0.80111">
        <ele>610</ele>
        <time>2025-11-26T18:07:09Z</time>
      </trkpt>
      <trkpt lat="42.9583" lon="0.80176">
        <ele>606</ele>
        <time>2025-11-26T18:07:19Z</time>
      </trkpt>
      <trkpt lat="42.95814" lon="0.80198">
        <ele>609</ele>
        <time>2025-11-26T18:07:23Z</time>
      </trkpt>
      <trkpt lat="42.95809" lon="0.80203">
        <ele>610</ele>
        <time>2025-11-26T18:07:25Z</time>
      </trkpt>
      <trkpt lat="42.95802" lon="0.80209">
        <ele>611</ele>
        <time>2025-11-26T18:07:26Z</time>
      </trkpt>
      <trkpt lat="42.95785" lon="0.80215">
        <ele>616</ele>
        <time>2025-11-26T18:07:29Z</time>
      </trkpt>
      <trkpt lat="42.95774" lon="0.80223">
        <ele>619</ele>
        <time>2025-11-26T18:07:31Z</time>
      </trkpt>
      <trkpt lat="42.95743" lon="0.8025">
        <ele>621</ele>
        <time>2025-11-26T18:07:38Z</time>
      </trkpt>
      <trkpt lat="42.95698" lon="0.80295">
        <ele>616</ele>
        <time>2025-11-26T18:07:48Z</time>
      </trkpt>
      <trkpt lat="42.95682" lon="0.80307">
        <ele>613</ele>
        <time>2025-11-26T18:07:51Z</time>
      </trkpt>
      <trkpt lat="42.95677" lon="0.8031">
        <ele>612</ele>
        <time>2025-11-26T18:07:52Z</time>
      </trkpt>
      <trkpt lat="42.9567" lon="0.80309">
        <ele>613</ele>
        <time>2025-11-26T18:07:53Z</time>
      </trkpt>
      <trkpt lat="42.95651" lon="0.803">
        <ele>620</ele>
        <time>2025-11-26T18:07:57Z</time>
      </trkpt>
      <trkpt lat="42.95643" lon="0.80298">
        <ele>623</ele>
        <time>2025-11-26T18:07:58Z</time>
      </trkpt>
      <trkpt lat="42.95632" lon="0.80296">
        <ele>626</ele>
        <time>2025-11-26T18:08:00Z</time>
      </trkpt>
      <trkpt lat="42.9562" lon="0.80296">
        <ele>628</ele>
        <time>2025-11-26T18:08:02Z</time>
      </trkpt>
      <trkpt lat="42.95607" lon="0.80293">
        <ele>632</ele>
        <time>2025-11-26T18:08:05Z</time>
      </trkpt>
      <trkpt lat="42.95592" lon="0.80294">
        <ele>634</ele>
        <time>2025-11-26T18:08:07Z</time>
      </trkpt>
      <trkpt lat="42.95585" lon="0.80299">
        <ele>634</ele>
        <time>2025-11-26T18:08:09Z</time>
      </trkpt>
      <trkpt lat="42.95563" lon="0.80324">
        <ele>630</ele>
        <time>2025-11-26T18:08:14Z</time>
      </trkpt>
      <trkpt lat="42.95525" lon="0.80362">
        <ele>631</ele>
        <time>2025-11-26T18:08:22Z</time>
      </trkpt>
      <trkpt lat="42.95503" lon="0.80385">
        <ele>629</ele>
        <time>2025-11-26T18:08:27Z</time>
      </trkpt>
      <trkpt lat="42.95495" lon="0.80391">
        <ele>628</ele>
        <time>2025-11-26T18:08:29Z</time>
      </trkpt>
      <trkpt lat="42.95488" lon="0.80393">
        <ele>628</ele>
        <time>2025-11-26T18:08:30Z</time>
      </trkpt>
      <trkpt lat="42.95482" lon="0.80393">
        <ele>629</ele>
        <time>2025-11-26T18:08:31Z</time>
      </trkpt>
      <trkpt lat="42.95475" lon="0.80391">
        <ele>630</ele>
        <time>2025-11-26T18:08:33Z</time>
      </trkpt>
      <trkpt lat="42.95458" lon="0.80382">
        <ele>635</ele>
        <time>2025-11-26T18:08:36Z</time>
      </trkpt>
      <trkpt lat="42.95422" lon="0.80356">
        <ele>645</ele>
        <time>2025-11-26T18:08:43Z</time>
      </trkpt>
      <trkpt lat="42.95413" lon="0.80353">
        <ele>647</ele>
        <time>2025-11-26T18:08:45Z</time>
      </trkpt>
      <trkpt lat="42.95406" lon="0.80353">
        <ele>649</ele>
        <time>2025-11-26T18:08:46Z</time>
      </trkpt>
      <trkpt lat="42.95402" lon="0.80354">
        <ele>650</ele>
        <time>2025-11-26T18:08:47Z</time>
      </trkpt>
      <trkpt lat="42.95398" lon="0.8036">
        <ele>650</ele>
        <time>2025-11-26T18:08:48Z</time>
      </trkpt>
      <trkpt lat="42.95397" lon="0.80369">
        <ele>649</ele>
        <time>2025-11-26T18:08:49Z</time>
      </trkpt>
      <trkpt lat="42.95398" lon="0.80378">
        <ele>647</ele>
        <time>2025-11-26T18:08:50Z</time>
      </trkpt>
      <trkpt lat="42.954" lon="0.80387">
        <ele>644</ele>
        <time>2025-11-26T18:08:51Z</time>
      </trkpt>
      <trkpt lat="42.95405" lon="0.80398">
        <ele>640</ele>
        <time>2025-11-26T18:08:53Z</time>
      </trkpt>
      <trkpt lat="42.95441" lon="0.80464">
        <ele>624</ele>
        <time>2025-11-26T18:09:04Z</time>
      </trkpt>
      <trkpt lat="42.95446" lon="0.80477">
        <ele>623</ele>
        <time>2025-11-26T18:09:06Z</time>
      </trkpt>
      <trkpt lat="42.95447" lon="0.80488">
        <ele>622</ele>
        <time>2025-11-26T18:09:07Z</time>
      </trkpt>
      <trkpt lat="42.95445" lon="0.80504">
        <ele>622</ele>
        <time>2025-11-26T18:09:09Z</time>
      </trkpt>
      <trkpt lat="42.95431" lon="0.80559">
        <ele>618</ele>
        <time>2025-11-26T18:09:17Z</time>
      </trkpt>
      <trkpt lat="42.95427" lon="0.80575">
        <ele>616</ele>
        <time>2025-11-26T18:09:19Z</time>
      </trkpt>
      <trkpt lat="42.95423" lon="0.80585">
        <ele>615</ele>
        <time>2025-11-26T18:09:20Z</time>
      </trkpt>
      <trkpt lat="42.95407" lon="0.80607">
        <ele>620</ele>
        <time>2025-11-26T18:09:24Z</time>
      </trkpt>
      <trkpt lat="42.95392" lon="0.80641">
        <ele>626</ele>
        <time>2025-11-26T18:09:30Z</time>
      </trkpt>
      <trkpt lat="42.95384" lon="0.80663">
        <ele>628</ele>
        <time>2025-11-26T18:09:33Z</time>
      </trkpt>
      <trkpt lat="42.9538" lon="0.80679">
        <ele>629</ele>
        <time>2025-11-26T18:09:35Z</time>
      </trkpt>
      <trkpt lat="42.95379" lon="0.80698">
        <ele>628</ele>
        <time>2025-11-26T18:09:38Z</time>
      </trkpt>
      <trkpt lat="42.95379" lon="0.80714">
        <ele>627</ele>
        <time>2025-11-26T18:09:40Z</time>
      </trkpt>
      <trkpt lat="42.95382" lon="0.80735">
        <ele>625</ele>
        <time>2025-11-26T18:09:42Z</time>
      </trkpt>
      <trkpt lat="42.95399" lon="0.80801">
        <ele>617</ele>
        <time>2025-11-26T18:09:52Z</time>
      </trkpt>
      <trkpt lat="42.95403" lon="0.80826">
        <ele>616</ele>
        <time>2025-11-26T18:09:55Z</time>
      </trkpt>
      <trkpt lat="42.95404" lon="0.80845">
        <ele>616</ele>
        <time>2025-11-26T18:09:57Z</time>
      </trkpt>
      <trkpt lat="42.95403" lon="0.80861">
        <ele>617</ele>
        <time>2025-11-26T18:09:59Z</time>
      </trkpt>
      <trkpt lat="42.95399" lon="0.80881">
        <ele>619</ele>
        <time>2025-11-26T18:10:02Z</time>
      </trkpt>
      <trkpt lat="42.95388" lon="0.80925">
        <ele>624</ele>
        <time>2025-11-26T18:10:08Z</time>
      </trkpt>
      <trkpt lat="42.95376" lon="0.80981">
        <ele>627</ele>
        <time>2025-11-26T18:10:16Z</time>
      </trkpt>
      <trkpt lat="42.95369" lon="0.8102">
        <ele>628</ele>
        <time>2025-11-26T18:10:21Z</time>
      </trkpt>
      <trkpt lat="42.95368" lon="0.81041">
        <ele>628</ele>
        <time>2025-11-26T18:10:24Z</time>
      </trkpt>
      <trkpt lat="42.95368" lon="0.81056">
        <ele>628</ele>
        <time>2025-11-26T18:10:26Z</time>
      </trkpt>
      <trkpt lat="42.95385" lon="0.81118">
        <ele>624</ele>
        <time>2025-11-26T18:10:34Z</time>
      </trkpt>
      <trkpt lat="42.95386" lon="0.81131">
        <ele>623</ele>
        <time>2025-11-26T18:10:36Z</time>
      </trkpt>
      <trkpt lat="42.95385" lon="0.81143">
        <ele>622</ele>
        <time>2025-11-26T18:10:38Z</time>
      </trkpt>
      <trkpt lat="42.95383" lon="0.81155">
        <ele>621</ele>
        <time>2025-11-26T18:10:39Z</time>
      </trkpt>
      <trkpt lat="42.9538" lon="0.81163">
        <ele>620</ele>
        <time>2025-11-26T18:10:40Z</time>
      </trkpt>
      <trkpt lat="42.95377" lon="0.8117">
        <ele>620</ele>
        <time>2025-11-26T18:10:41Z</time>
      </trkpt>
      <trkpt lat="42.95372" lon="0.81176">
        <ele>619</ele>
        <time>2025-11-26T18:10:43Z</time>
      </trkpt>
      <trkpt lat="42.95366" lon="0.8118">
        <ele>619</ele>
        <time>2025-11-26T18:10:44Z</time>
      </trkpt>
      <trkpt lat="42.95349" lon="0.81183">
        <ele>617</ele>
        <time>2025-11-26T18:10:47Z</time>
      </trkpt>
      <trkpt lat="42.95335" lon="0.81189">
        <ele>615</ele>
        <time>2025-11-26T18:10:49Z</time>
      </trkpt>
      <trkpt lat="42.95323" lon="0.81196">
        <ele>620</ele>
        <time>2025-11-26T18:10:52Z</time>
      </trkpt>
      <trkpt lat="42.95298" lon="0.81221">
        <ele>630</ele>
        <time>2025-11-26T18:10:57Z</time>
      </trkpt>
      <trkpt lat="42.95268" lon="0.81262">
        <ele>635</ele>
        <time>2025-11-26T18:11:05Z</time>
      </trkpt>
      <trkpt lat="42.9526" lon="0.81278">
        <ele>635</ele>
        <time>2025-11-26T18:11:07Z</time>
      </trkpt>
      <trkpt lat="42.95253" lon="0.81299">
        <ele>631</ele>
        <time>2025-11-26T18:11:10Z</time>
      </trkpt>
      <trkpt lat="42.9525" lon="0.81312">
        <ele>628</ele>
        <time>2025-11-26T18:11:12Z</time>
      </trkpt>
      <trkpt lat="42.9524" lon="0.81405">
        <ele>625</ele>
        <time>2025-11-26T18:11:24Z</time>
      </trkpt>
      <trkpt lat="42.95234" lon="0.81448">
        <ele>626</ele>
        <time>2025-11-26T18:11:30Z</time>
      </trkpt>
      <trkpt lat="42.9523" lon="0.81457">
        <ele>627</ele>
        <time>2025-11-26T18:11:31Z</time>
      </trkpt>
      <trkpt lat="42.95225" lon="0.81467">
        <ele>627</ele>
        <time>2025-11-26T18:11:33Z</time>
      </trkpt>
      <trkpt lat="42.95219" lon="0.81477">
        <ele>627</ele>
        <time>2025-11-26T18:11:35Z</time>
      </trkpt>
      <trkpt lat="42.95209" lon="0.81488">
        <ele>627</ele>
        <time>2025-11-26T18:11:37Z</time>
      </trkpt>
      <trkpt lat="42.95199" lon="0.81497">
        <ele>625</ele>
        <time>2025-11-26T18:11:39Z</time>
      </trkpt>
      <trkpt lat="42.95189" lon="0.81503">
        <ele>625</ele>
        <time>2025-11-26T18:11:41Z</time>
      </trkpt>
      <trkpt lat="42.95167" lon="0.8151">
        <ele>626</ele>
        <time>2025-11-26T18:11:45Z</time>
      </trkpt>
      <trkpt lat="42.95152" lon="0.81514">
        <ele>628</ele>
        <time>2025-11-26T18:11:48Z</time>
      </trkpt>
      <trkpt lat="42.95142" lon="0.81514">
        <ele>630</ele>
        <time>2025-11-26T18:11:50Z</time>
      </trkpt>
      <trkpt lat="42.95135" lon="0.81513">
        <ele>631</ele>
        <time>2025-11-26T18:11:51Z</time>
      </trkpt>
      <trkpt lat="42.95123" lon="0.8151">
        <ele>632</ele>
        <time>2025-11-26T18:11:53Z</time>
      </trkpt>
      <trkpt lat="42.9511" lon="0.81505">
        <ele>634</ele>
        <time>2025-11-26T18:11:55Z</time>
      </trkpt>
      <trkpt lat="42.95096" lon="0.81495">
        <ele>638</ele>
        <time>2025-11-26T18:11:58Z</time>
      </trkpt>
      <trkpt lat="42.95076" lon="0.81479">
        <ele>648</ele>
        <time>2025-11-26T18:12:02Z</time>
      </trkpt>
      <trkpt lat="42.95066" lon="0.81473">
        <ele>653</ele>
        <time>2025-11-26T18:12:04Z</time>
      </trkpt>
      <trkpt lat="42.95056" lon="0.81471">
        <ele>656</ele>
        <time>2025-11-26T18:12:06Z</time>
      </trkpt>
      <trkpt lat="42.95047" lon="0.81472">
        <ele>657</ele>
        <time>2025-11-26T18:12:08Z</time>
      </trkpt>
      <trkpt lat="42.95036" lon="0.81475">
        <ele>659</ele>
        <time>2025-11-26T18:12:10Z</time>
      </trkpt>
      <trkpt lat="42.95028" lon="0.81478">
        <ele>659</ele>
        <time>2025-11-26T18:12:11Z</time>
      </trkpt>
      <trkpt lat="42.95021" lon="0.81482">
        <ele>659</ele>
        <time>2025-11-26T18:12:13Z</time>
      </trkpt>
      <trkpt lat="42.94989" lon="0.81515">
        <ele>654</ele>
        <time>2025-11-26T18:12:20Z</time>
      </trkpt>
      <trkpt lat="42.94925" lon="0.81547">
        <ele>654</ele>
        <time>2025-11-26T18:12:32Z</time>
      </trkpt>
      <trkpt lat="42.94903" lon="0.81559">
        <ele>653</ele>
        <time>2025-11-26T18:12:36Z</time>
      </trkpt>
      <trkpt lat="42.94887" lon="0.81575">
        <ele>651</ele>
        <time>2025-11-26T18:12:40Z</time>
      </trkpt>
      <trkpt lat="42.94878" lon="0.81585">
        <ele>652</ele>
        <time>2025-11-26T18:12:42Z</time>
      </trkpt>
      <trkpt lat="42.94875" lon="0.81596">
        <ele>657</ele>
        <time>2025-11-26T18:12:43Z</time>
      </trkpt>
      <trkpt lat="42.9487" lon="0.81626">
        <ele>668</ele>
        <time>2025-11-26T18:12:47Z</time>
      </trkpt>
      <trkpt lat="42.9487" lon="0.81631">
        <ele>670</ele>
        <time>2025-11-26T18:12:48Z</time>
      </trkpt>
      <trkpt lat="42.9489" lon="0.81642">
        <ele>669</ele>
        <time>2025-11-26T18:12:52Z</time>
      </trkpt>
      <trkpt lat="42.94895" lon="0.81642">
        <ele>668</ele>
        <time>2025-11-26T18:12:52Z</time>
      </trkpt>
      <trkpt lat="42.94902" lon="0.81639">
        <ele>666</ele>
        <time>2025-11-26T18:12:54Z</time>
      </trkpt>
      <trkpt lat="42.94926" lon="0.81621">
        <ele>657</ele>
        <time>2025-11-26T18:12:59Z</time>
      </trkpt>
      <trkpt lat="42.94946" lon="0.81615">
        <ele>654</ele>
        <time>2025-11-26T18:13:02Z</time>
      </trkpt>
      <trkpt lat="42.94961" lon="0.81618">
        <ele>654</ele>
        <time>2025-11-26T18:13:05Z</time>
      </trkpt>
      <trkpt lat="42.94999" lon="0.81636">
        <ele>658</ele>
        <time>2025-11-26T18:13:12Z</time>
      </trkpt>
      <trkpt lat="42.95004" lon="0.8164">
        <ele>659</ele>
        <time>2025-11-26T18:13:13Z</time>
      </trkpt>
      <trkpt lat="42.95011" lon="0.81647">
        <ele>660</ele>
        <time>2025-11-26T18:13:15Z</time>
      </trkpt>
      <trkpt lat="42.95038" lon="0.81736">
        <ele>681</ele>
        <time>2025-11-26T18:13:27Z</time>
      </trkpt>
      <trkpt lat="42.95056" lon="0.81801">
        <ele>685</ele>
        <time>2025-11-26T18:13:36Z</time>
      </trkpt>
      <trkpt lat="42.95058" lon="0.81812">
        <ele>686</ele>
        <time>2025-11-26T18:13:38Z</time>
      </trkpt>
      <trkpt lat="42.95057" lon="0.81819">
        <ele>687</ele>
        <time>2025-11-26T18:13:39Z</time>
      </trkpt>
      <trkpt lat="42.95054" lon="0.81828">
        <ele>688</ele>
        <time>2025-11-26T18:13:40Z</time>
      </trkpt>
      <trkpt lat="42.95049" lon="0.81834">
        <ele>689</ele>
        <time>2025-11-26T18:13:41Z</time>
      </trkpt>
      <trkpt lat="42.94996" lon="0.81871">
        <ele>700</ele>
        <time>2025-11-26T18:13:52Z</time>
      </trkpt>
      <trkpt lat="42.94987" lon="0.81873">
        <ele>702</ele>
        <time>2025-11-26T18:13:53Z</time>
      </trkpt>
      <trkpt lat="42.94978" lon="0.81875">
        <ele>704</ele>
        <time>2025-11-26T18:13:55Z</time>
      </trkpt>
      <trkpt lat="42.94944" lon="0.81875">
        <ele>711</ele>
        <time>2025-11-26T18:14:01Z</time>
      </trkpt>
      <trkpt lat="42.94936" lon="0.81877">
        <ele>712</ele>
        <time>2025-11-26T18:14:03Z</time>
      </trkpt>
      <trkpt lat="42.94928" lon="0.81882">
        <ele>713</ele>
        <time>2025-11-26T18:14:04Z</time>
      </trkpt>
      <trkpt lat="42.9491" lon="0.81898">
        <ele>716</ele>
        <time>2025-11-26T18:14:08Z</time>
      </trkpt>
      <trkpt lat="42.94887" lon="0.81913">
        <ele>726</ele>
        <time>2025-11-26T18:14:12Z</time>
      </trkpt>
      <trkpt lat="42.9488" lon="0.81924">
        <ele>729</ele>
        <time>2025-11-26T18:14:14Z</time>
      </trkpt>
      <trkpt lat="42.94871" lon="0.81946">
        <ele>733</ele>
        <time>2025-11-26T18:14:18Z</time>
      </trkpt>
      <trkpt lat="42.94865" lon="0.81963">
        <ele>736</ele>
        <time>2025-11-26T18:14:20Z</time>
      </trkpt>
      <trkpt lat="42.94861" lon="0.81978">
        <ele>736</ele>
        <time>2025-11-26T18:14:22Z</time>
      </trkpt>
      <trkpt lat="42.94857" lon="0.82071">
        <ele>741</ele>
        <time>2025-11-26T18:14:34Z</time>
      </trkpt>
      <trkpt lat="42.94856" lon="0.82161">
        <ele>748</ele>
        <time>2025-11-26T18:14:46Z</time>
      </trkpt>
      <trkpt lat="42.9486" lon="0.82248">
        <ele>752</ele>
        <time>2025-11-26T18:14:57Z</time>
      </trkpt>
      <trkpt lat="42.94869" lon="0.82279">
        <ele>753</ele>
        <time>2025-11-26T18:15:02Z</time>
      </trkpt>
      <trkpt lat="42.94868" lon="0.82284">
        <ele>754</ele>
        <time>2025-11-26T18:15:02Z</time>
      </trkpt>
      <trkpt lat="42.94867" lon="0.82288">
        <ele>754</ele>
        <time>2025-11-26T18:15:03Z</time>
      </trkpt>
      <trkpt lat="42.94864" lon="0.82292">
        <ele>754</ele>
        <time>2025-11-26T18:15:04Z</time>
      </trkpt>
      <trkpt lat="42.94843" lon="0.82309">
        <ele>754</ele>
        <time>2025-11-26T18:15:08Z</time>
      </trkpt>
      <trkpt lat="42.94836" lon="0.82317">
        <ele>753</ele>
        <time>2025-11-26T18:15:10Z</time>
      </trkpt>
      <trkpt lat="42.94832" lon="0.82323">
        <ele>753</ele>
        <time>2025-11-26T18:15:11Z</time>
      </trkpt>
      <trkpt lat="42.94829" lon="0.82331">
        <ele>755</ele>
        <time>2025-11-26T18:15:12Z</time>
      </trkpt>
      <trkpt lat="42.94821" lon="0.82361">
        <ele>760</ele>
        <time>2025-11-26T18:15:16Z</time>
      </trkpt>
      <trkpt lat="42.948" lon="0.8241">
        <ele>766</ele>
        <time>2025-11-26T18:15:23Z</time>
      </trkpt>
      <trkpt lat="42.94796" lon="0.82416">
        <ele>767</ele>
        <time>2025-11-26T18:15:25Z</time>
      </trkpt>
      <trkpt lat="42.9479" lon="0.82423">
        <ele>769</ele>
        <time>2025-11-26T18:15:26Z</time>
      </trkpt>
      <trkpt lat="42.9477" lon="0.82439">
        <ele>772</ele>
        <time>2025-11-26T18:15:30Z</time>
      </trkpt>
      <trkpt lat="42.94747" lon="0.8247">
        <ele>772</ele>
        <time>2025-11-26T18:15:36Z</time>
      </trkpt>
      <trkpt lat="42.94716" lon="0.82515">
        <ele>787</ele>
        <time>2025-11-26T18:15:44Z</time>
      </trkpt>
      <trkpt lat="42.94709" lon="0.82525">
        <ele>791</ele>
        <time>2025-11-26T18:15:46Z</time>
      </trkpt>
      <trkpt lat="42.947" lon="0.82546">
        <ele>793</ele>
        <time>2025-11-26T18:15:49Z</time>
      </trkpt>
      <trkpt lat="42.94693" lon="0.82569">
        <ele>793</ele>
        <time>2025-11-26T18:15:52Z</time>
      </trkpt>
      <trkpt lat="42.94688" lon="0.82581">
        <ele>792</ele>
        <time>2025-11-26T18:15:54Z</time>
      </trkpt>
      <trkpt lat="42.94671" lon="0.82608">
        <ele>794</ele>
        <time>2025-11-26T18:15:58Z</time>
      </trkpt>
      <trkpt lat="42.94659" lon="0.82633">
        <ele>798</ele>
        <time>2025-11-26T18:16:02Z</time>
      </trkpt>
      <trkpt lat="42.9464" lon="0.82684">
        <ele>808</ele>
        <time>2025-11-26T18:16:10Z</time>
      </trkpt>
      <trkpt lat="42.94637" lon="0.82691">
        <ele>809</ele>
        <time>2025-11-26T18:16:11Z</time>
      </trkpt>
      <trkpt lat="42.94631" lon="0.82698">
        <ele>811</ele>
        <time>2025-11-26T18:16:12Z</time>
      </trkpt>
      <trkpt lat="42.94625" lon="0.82704">
        <ele>813</ele>
        <time>2025-11-26T18:16:14Z</time>
      </trkpt>
      <trkpt lat="42.94612" lon="0.82711">
        <ele>815</ele>
        <time>2025-11-26T18:16:16Z</time>
      </trkpt>
      <trkpt lat="42.94609" lon="0.82715">
        <ele>815</ele>
        <time>2025-11-26T18:16:17Z</time>
      </trkpt>
      <trkpt lat="42.94607" lon="0.82721">
        <ele>815</ele>
        <time>2025-11-26T18:16:18Z</time>
      </trkpt>
      <trkpt lat="42.94604" lon="0.82742">
        <ele>814</ele>
        <time>2025-11-26T18:16:21Z</time>
      </trkpt>
      <trkpt lat="42.94598" lon="0.82795">
        <ele>816</ele>
        <time>2025-11-26T18:16:27Z</time>
      </trkpt>
      <trkpt lat="42.94594" lon="0.8281">
        <ele>816</ele>
        <time>2025-11-26T18:16:30Z</time>
      </trkpt>
      <trkpt lat="42.94579" lon="0.82845">
        <ele>816</ele>
        <time>2025-11-26T18:16:35Z</time>
      </trkpt>
      <trkpt lat="42.94574" lon="0.8286">
        <ele>820</ele>
        <time>2025-11-26T18:16:37Z</time>
      </trkpt>
      <trkpt lat="42.94572" lon="0.82873">
        <ele>822</ele>
        <time>2025-11-26T18:16:39Z</time>
      </trkpt>
      <trkpt lat="42.94574" lon="0.82907">
        <ele>823</ele>
        <time>2025-11-26T18:16:43Z</time>
      </trkpt>
      <trkpt lat="42.94574" lon="0.82921">
        <ele>824</ele>
        <time>2025-11-26T18:16:45Z</time>
      </trkpt>
      <trkpt lat="42.94573" lon="0.82933">
        <ele>825</ele>
        <time>2025-11-26T18:16:47Z</time>
      </trkpt>
      <trkpt lat="42.9457" lon="0.82946">
        <ele>827</ele>
        <time>2025-11-26T18:16:48Z</time>
      </trkpt>
      <trkpt lat="42.94563" lon="0.82969">
        <ele>830</ele>
        <time>2025-11-26T18:16:52Z</time>
      </trkpt>
      <trkpt lat="42.94549" lon="0.83011">
        <ele>836</ele>
        <time>2025-11-26T18:16:58Z</time>
      </trkpt>
      <trkpt lat="42.94539" lon="0.83046">
        <ele>838</ele>
        <time>2025-11-26T18:17:02Z</time>
      </trkpt>
      <trkpt lat="42.94537" lon="0.83061">
        <ele>838</ele>
        <time>2025-11-26T18:17:04Z</time>
      </trkpt>
      <trkpt lat="42.94537" lon="0.83089">
        <ele>838</ele>
        <time>2025-11-26T18:17:08Z</time>
      </trkpt>
      <trkpt lat="42.94535" lon="0.83103">
        <ele>839</ele>
        <time>2025-11-26T18:17:10Z</time>
      </trkpt>
      <trkpt lat="42.94495" lon="0.83156">
        <ele>837</ele>
        <time>2025-11-26T18:17:20Z</time>
      </trkpt>
      <trkpt lat="42.94476" lon="0.83187">
        <ele>845</ele>
        <time>2025-11-26T18:17:25Z</time>
      </trkpt>
      <trkpt lat="42.94468" lon="0.83197">
        <ele>847</ele>
        <time>2025-11-26T18:17:27Z</time>
      </trkpt>
      <trkpt lat="42.94437" lon="0.83226">
        <ele>848</ele>
        <time>2025-11-26T18:17:34Z</time>
      </trkpt>
      <trkpt lat="42.9443" lon="0.83236">
        <ele>846</ele>
        <time>2025-11-26T18:17:36Z</time>
      </trkpt>
      <trkpt lat="42.94422" lon="0.83251">
        <ele>843</ele>
        <time>2025-11-26T18:17:38Z</time>
      </trkpt>
      <trkpt lat="42.94417" lon="0.8327">
        <ele>845</ele>
        <time>2025-11-26T18:17:41Z</time>
      </trkpt>
      <trkpt lat="42.94412" lon="0.83281">
        <ele>849</ele>
        <time>2025-11-26T18:17:42Z</time>
      </trkpt>
      <trkpt lat="42.944" lon="0.83304">
        <ele>858</ele>
        <time>2025-11-26T18:17:46Z</time>
      </trkpt>
      <trkpt lat="42.94368" lon="0.83378">
        <ele>871</ele>
        <time>2025-11-26T18:17:57Z</time>
      </trkpt>
      <trkpt lat="42.94355" lon="0.83421">
        <ele>869</ele>
        <time>2025-11-26T18:18:03Z</time>
      </trkpt>
      <trkpt lat="42.9435" lon="0.83434">
        <ele>869</ele>
        <time>2025-11-26T18:18:05Z</time>
      </trkpt>
      <trkpt lat="42.94334" lon="0.83453">
        <ele>865</ele>
        <time>2025-11-26T18:18:09Z</time>
      </trkpt>
      <trkpt lat="42.94315" lon="0.83467">
        <ele>871</ele>
        <time>2025-11-26T18:18:13Z</time>
      </trkpt>
      <trkpt lat="42.94296" lon="0.83481">
        <ele>876</ele>
        <time>2025-11-26T18:18:17Z</time>
      </trkpt>
      <trkpt lat="42.94265" lon="0.83499">
        <ele>881</ele>
        <time>2025-11-26T18:18:23Z</time>
      </trkpt>
      <trkpt lat="42.94237" lon="0.83513">
        <ele>889</ele>
        <time>2025-11-26T18:18:28Z</time>
      </trkpt>
      <trkpt lat="42.94215" lon="0.83517">
        <ele>894</ele>
        <time>2025-11-26T18:18:32Z</time>
      </trkpt>
      <trkpt lat="42.94199" lon="0.83519">
        <ele>898</ele>
        <time>2025-11-26T18:18:35Z</time>
      </trkpt>
      <trkpt lat="42.94189" lon="0.83518">
        <ele>900</ele>
        <time>2025-11-26T18:18:37Z</time>
      </trkpt>
      <trkpt lat="42.94178" lon="0.83515">
        <ele>903</ele>
        <time>2025-11-26T18:18:38Z</time>
      </trkpt>
      <trkpt lat="42.94158" lon="0.83503">
        <ele>906</ele>
        <time>2025-11-26T18:18:42Z</time>
      </trkpt>
      <trkpt lat="42.94151" lon="0.835">
        <ele>907</ele>
        <time>2025-11-26T18:18:44Z</time>
      </trkpt>
      <trkpt lat="42.94149" lon="0.83501">
        <ele>907</ele>
        <time>2025-11-26T18:18:44Z</time>
      </trkpt>
      <trkpt lat="42.94146" lon="0.83505">
        <ele>908</ele>
        <time>2025-11-26T18:18:45Z</time>
      </trkpt>
      <trkpt lat="42.94147" lon="0.83512">
        <ele>908</ele>
        <time>2025-11-26T18:18:46Z</time>
      </trkpt>
      <trkpt lat="42.9415" lon="0.83518">
        <ele>908</ele>
        <time>2025-11-26T18:18:47Z</time>
      </trkpt>
      <trkpt lat="42.94169" lon="0.83543">
        <ele>906</ele>
        <time>2025-11-26T18:18:51Z</time>
      </trkpt>
      <trkpt lat="42.94176" lon="0.83549">
        <ele>904</ele>
        <time>2025-11-26T18:18:53Z</time>
      </trkpt>
      <trkpt lat="42.94185" lon="0.83555">
        <ele>903</ele>
        <time>2025-11-26T18:18:55Z</time>
      </trkpt>
      <trkpt lat="42.94206" lon="0.83565">
        <ele>900</ele>
        <time>2025-11-26T18:18:59Z</time>
      </trkpt>
      <trkpt lat="42.94225" lon="0.83572">
        <ele>898</ele>
        <time>2025-11-26T18:19:02Z</time>
      </trkpt>
      <trkpt lat="42.94238" lon="0.83574">
        <ele>896</ele>
        <time>2025-11-26T18:19:04Z</time>
      </trkpt>
      <trkpt lat="42.94254" lon="0.83573">
        <ele>894</ele>
        <time>2025-11-26T18:19:07Z</time>
      </trkpt>
      <trkpt lat="42.9427" lon="0.83573">
        <ele>891</ele>
        <time>2025-11-26T18:19:10Z</time>
      </trkpt>
      <trkpt lat="42.94274" lon="0.83574">
        <ele>890</ele>
        <time>2025-11-26T18:19:11Z</time>
      </trkpt>
      <trkpt lat="42.94279" lon="0.83579">
        <ele>890</ele>
        <time>2025-11-26T18:19:12Z</time>
      </trkpt>
      <trkpt lat="42.94282" lon="0.83586">
        <ele>891</ele>
        <time>2025-11-26T18:19:13Z</time>
      </trkpt>
      <trkpt lat="42.94284" lon="0.83596">
        <ele>894</ele>
        <time>2025-11-26T18:19:14Z</time>
      </trkpt>
      <trkpt lat="42.94285" lon="0.8363">
        <ele>904</ele>
        <time>2025-11-26T18:19:19Z</time>
      </trkpt>
      <trkpt lat="42.94287" lon="0.83663">
        <ele>912</ele>
        <time>2025-11-26T18:19:23Z</time>
      </trkpt>
      <trkpt lat="42.94295" lon="0.83704">
        <ele>918</ele>
        <time>2025-11-26T18:19:29Z</time>
      </trkpt>
      <trkpt lat="42.94313" lon="0.83751">
        <ele>920</ele>
        <time>2025-11-26T18:19:36Z</time>
      </trkpt>
      <trkpt lat="42.94329" lon="0.83787">
        <ele>913</ele>
        <time>2025-11-26T18:19:41Z</time>
      </trkpt>
      <trkpt lat="42.94334" lon="0.83803">
        <ele>912</ele>
        <time>2025-11-26T18:19:43Z</time>
      </trkpt>
      <trkpt lat="42.94335" lon="0.83813">
        <ele>912</ele>
        <time>2025-11-26T18:19:45Z</time>
      </trkpt>
      <trkpt lat="42.94335" lon="0.83822">
        <ele>912</ele>
        <time>2025-11-26T18:19:46Z</time>
      </trkpt>
      <trkpt lat="42.94334" lon="0.8383">
        <ele>913</ele>
        <time>2025-11-26T18:19:47Z</time>
      </trkpt>
      <trkpt lat="42.94332" lon="0.83836">
        <ele>914</ele>
        <time>2025-11-26T18:19:48Z</time>
      </trkpt>
      <trkpt lat="42.94328" lon="0.83844">
        <ele>916</ele>
        <time>2025-11-26T18:19:49Z</time>
      </trkpt>
      <trkpt lat="42.94322" lon="0.83849">
        <ele>919</ele>
        <time>2025-11-26T18:19:50Z</time>
      </trkpt>
      <trkpt lat="42.94285" lon="0.83868">
        <ele>933</ele>
        <time>2025-11-26T18:19:57Z</time>
      </trkpt>
      <trkpt lat="42.94261" lon="0.83882">
        <ele>940</ele>
        <time>2025-11-26T18:20:02Z</time>
      </trkpt>
      <trkpt lat="42.94253" lon="0.83889">
        <ele>942</ele>
        <time>2025-11-26T18:20:04Z</time>
      </trkpt>
      <trkpt lat="42.94249" lon="0.83894">
        <ele>943</ele>
        <time>2025-11-26T18:20:05Z</time>
      </trkpt>
      <trkpt lat="42.94247" lon="0.83901">
        <ele>943</ele>
        <time>2025-11-26T18:20:06Z</time>
      </trkpt>
      <trkpt lat="42.94247" lon="0.83906">
        <ele>942</ele>
        <time>2025-11-26T18:20:06Z</time>
      </trkpt>
      <trkpt lat="42.94248" lon="0.83911">
        <ele>941</ele>
        <time>2025-11-26T18:20:07Z</time>
      </trkpt>
      <trkpt lat="42.94251" lon="0.83915">
        <ele>939</ele>
        <time>2025-11-26T18:20:08Z</time>
      </trkpt>
      <trkpt lat="42.94258" lon="0.83921">
        <ele>938</ele>
        <time>2025-11-26T18:20:09Z</time>
      </trkpt>
      <trkpt lat="42.9429" lon="0.83938">
        <ele>934</ele>
        <time>2025-11-26T18:20:15Z</time>
      </trkpt>
      <trkpt lat="42.94298" lon="0.83945">
        <ele>933</ele>
        <time>2025-11-26T18:20:17Z</time>
      </trkpt>
      <trkpt lat="42.94306" lon="0.83955">
        <ele>933</ele>
        <time>2025-11-26T18:20:19Z</time>
      </trkpt>
      <trkpt lat="42.94311" lon="0.83963">
        <ele>934</ele>
        <time>2025-11-26T18:20:20Z</time>
      </trkpt>
      <trkpt lat="42.94329" lon="0.84017">
        <ele>942</ele>
        <time>2025-11-26T18:20:28Z</time>
      </trkpt>
      <trkpt lat="42.94344" lon="0.84049">
        <ele>948</ele>
        <time>2025-11-26T18:20:33Z</time>
      </trkpt>
      <trkpt lat="42.94363" lon="0.84077">
        <ele>950</ele>
        <time>2025-11-26T18:20:38Z</time>
      </trkpt>
      <trkpt lat="42.9438" lon="0.84096">
        <ele>949</ele>
        <time>2025-11-26T18:20:42Z</time>
      </trkpt>
      <trkpt lat="42.94387" lon="0.84107">
        <ele>949</ele>
        <time>2025-11-26T18:20:44Z</time>
      </trkpt>
      <trkpt lat="42.94394" lon="0.84124">
        <ele>950</ele>
        <time>2025-11-26T18:20:46Z</time>
      </trkpt>
      <trkpt lat="42.94403" lon="0.84149">
        <ele>952</ele>
        <time>2025-11-26T18:20:50Z</time>
      </trkpt>
      <trkpt lat="42.94407" lon="0.84171">
        <ele>955</ele>
        <time>2025-11-26T18:20:53Z</time>
      </trkpt>
      <trkpt lat="42.94404" lon="0.84206">
        <ele>961</ele>
        <time>2025-11-26T18:20:57Z</time>
      </trkpt>
      <trkpt lat="42.94397" lon="0.84227">
        <ele>967</ele>
        <time>2025-11-26T18:21:00Z</time>
      </trkpt>
      <trkpt lat="42.94389" lon="0.84242">
        <ele>972</ele>
        <time>2025-11-26T18:21:03Z</time>
      </trkpt>
      <trkpt lat="42.94387" lon="0.8425">
        <ele>974</ele>
        <time>2025-11-26T18:21:04Z</time>
      </trkpt>
      <trkpt lat="42.94387" lon="0.84255">
        <ele>975</ele>
        <time>2025-11-26T18:21:04Z</time>
      </trkpt>
      <trkpt lat="42.94388" lon="0.84263">
        <ele>976</ele>
        <time>2025-11-26T18:21:06Z</time>
      </trkpt>
      <trkpt lat="42.94391" lon="0.84267">
        <ele>975</ele>
        <time>2025-11-26T18:21:06Z</time>
      </trkpt>
      <trkpt lat="42.94396" lon="0.84272">
        <ele>975</ele>
        <time>2025-11-26T18:21:07Z</time>
      </trkpt>
      <trkpt lat="42.94409" lon="0.84279">
        <ele>972</ele>
        <time>2025-11-26T18:21:10Z</time>
      </trkpt>
      <trkpt lat="42.94421" lon="0.84289">
        <ele>972</ele>
        <time>2025-11-26T18:21:12Z</time>
      </trkpt>
      <trkpt lat="42.94433" lon="0.84303">
        <ele>975</ele>
        <time>2025-11-26T18:21:15Z</time>
      </trkpt>
      <trkpt lat="42.94451" lon="0.84332">
        <ele>978</ele>
        <time>2025-11-26T18:21:20Z</time>
      </trkpt>
      <trkpt lat="42.94455" lon="0.84346">
        <ele>981</ele>
        <time>2025-11-26T18:21:22Z</time>
      </trkpt>
      <trkpt lat="42.94462" lon="0.84397">
        <ele>989</ele>
        <time>2025-11-26T18:21:29Z</time>
      </trkpt>
      <trkpt lat="42.94468" lon="0.84418">
        <ele>991</ele>
        <time>2025-11-26T18:21:32Z</time>
      </trkpt>
      <trkpt lat="42.94474" lon="0.84436">
        <ele>992</ele>
        <time>2025-11-26T18:21:34Z</time>
      </trkpt>
      <trkpt lat="42.94487" lon="0.84462">
        <ele>990</ele>
        <time>2025-11-26T18:21:38Z</time>
      </trkpt>
      <trkpt lat="42.94489" lon="0.84471">
        <ele>991</ele>
        <time>2025-11-26T18:21:40Z</time>
      </trkpt>
      <trkpt lat="42.9449" lon="0.84481">
        <ele>992</ele>
        <time>2025-11-26T18:21:41Z</time>
      </trkpt>
      <trkpt lat="42.94489" lon="0.84492">
        <ele>993</ele>
        <time>2025-11-26T18:21:42Z</time>
      </trkpt>
      <trkpt lat="42.94481" lon="0.84526">
        <ele>1000</ele>
        <time>2025-11-26T18:21:47Z</time>
      </trkpt>
      <trkpt lat="42.94468" lon="0.84589">
        <ele>1010</ele>
        <time>2025-11-26T18:21:56Z</time>
      </trkpt>
      <trkpt lat="42.94465" lon="0.846">
        <ele>1011</ele>
        <time>2025-11-26T18:21:57Z</time>
      </trkpt>
      <trkpt lat="42.94458" lon="0.84615">
        <ele>1013</ele>
        <time>2025-11-26T18:21:59Z</time>
      </trkpt>
      <trkpt lat="42.94455" lon="0.84627">
        <ele>1014</ele>
        <time>2025-11-26T18:22:01Z</time>
      </trkpt>
      <trkpt lat="42.94452" lon="0.84639">
        <ele>1015</ele>
        <time>2025-11-26T18:22:03Z</time>
      </trkpt>
      <trkpt lat="42.9445" lon="0.84657">
        <ele>1015</ele>
        <time>2025-11-26T18:22:05Z</time>
      </trkpt>
      <trkpt lat="42.94449" lon="0.84673">
        <ele>1015</ele>
        <time>2025-11-26T18:22:07Z</time>
      </trkpt>
      <trkpt lat="42.94453" lon="0.84742">
        <ele>1013</ele>
        <time>2025-11-26T18:22:16Z</time>
      </trkpt>
      <trkpt lat="42.94453" lon="0.84759">
        <ele>1013</ele>
        <time>2025-11-26T18:22:18Z</time>
      </trkpt>
      <trkpt lat="42.94449" lon="0.84802">
        <ele>1014</ele>
        <time>2025-11-26T18:22:24Z</time>
      </trkpt>
      <trkpt lat="42.94448" lon="0.84824">
        <ele>1014</ele>
        <time>2025-11-26T18:22:27Z</time>
      </trkpt>
      <trkpt lat="42.94448" lon="0.84891">
        <ele>1022</ele>
        <time>2025-11-26T18:22:36Z</time>
      </trkpt>
      <trkpt lat="42.94446" lon="0.84907">
        <ele>1023</ele>
        <time>2025-11-26T18:22:38Z</time>
      </trkpt>
      <trkpt lat="42.94441" lon="0.84937">
        <ele>1025</ele>
        <time>2025-11-26T18:22:42Z</time>
      </trkpt>
      <trkpt lat="42.94437" lon="0.84955">
        <ele>1026</ele>
        <time>2025-11-26T18:22:44Z</time>
      </trkpt>
      <trkpt lat="42.94432" lon="0.84969">
        <ele>1026</ele>
        <time>2025-11-26T18:22:46Z</time>
      </trkpt>
      <trkpt lat="42.94428" lon="0.84977">
        <ele>1026</ele>
        <time>2025-11-26T18:22:48Z</time>
      </trkpt>
      <trkpt lat="42.94423" lon="0.84984">
        <ele>1025</ele>
        <time>2025-11-26T18:22:49Z</time>
      </trkpt>
      <trkpt lat="42.94415" lon="0.8499">
        <ele>1025</ele>
        <time>2025-11-26T18:22:50Z</time>
      </trkpt>
      <trkpt lat="42.94396" lon="0.84999">
        <ele>1027</ele>
        <time>2025-11-26T18:22:54Z</time>
      </trkpt>
      <trkpt lat="42.94385" lon="0.85003">
        <ele>1028</ele>
        <time>2025-11-26T18:22:56Z</time>
      </trkpt>
      <trkpt lat="42.94375" lon="0.85003">
        <ele>1029</ele>
        <time>2025-11-26T18:22:58Z</time>
      </trkpt>
      <trkpt lat="42.94285" lon="0.84989">
        <ele>1040</ele>
        <time>2025-11-26T18:23:14Z</time>
      </trkpt>
      <trkpt lat="42.94269" lon="0.84989">
        <ele>1042</ele>
        <time>2025-11-26T18:23:17Z</time>
      </trkpt>
      <trkpt lat="42.94264" lon="0.84992">
        <ele>1043</ele>
        <time>2025-11-26T18:23:18Z</time>
      </trkpt>
      <trkpt lat="42.9426" lon="0.84996">
        <ele>1042</ele>
        <time>2025-11-26T18:23:19Z</time>
      </trkpt>
      <trkpt lat="42.94258" lon="0.85002">
        <ele>1042</ele>
        <time>2025-11-26T18:23:20Z</time>
      </trkpt>
      <trkpt lat="42.94256" lon="0.85011">
        <ele>1043</ele>
        <time>2025-11-26T18:23:21Z</time>
      </trkpt>
      <trkpt lat="42.94258" lon="0.8502">
        <ele>1043</ele>
        <time>2025-11-26T18:23:22Z</time>
      </trkpt>
      <trkpt lat="42.9426" lon="0.85029">
        <ele>1044</ele>
        <time>2025-11-26T18:23:23Z</time>
      </trkpt>
      <trkpt lat="42.94264" lon="0.85042">
        <ele>1044</ele>
        <time>2025-11-26T18:23:25Z</time>
      </trkpt>
      <trkpt lat="42.94303" lon="0.85131">
        <ele>1050</ele>
        <time>2025-11-26T18:23:39Z</time>
      </trkpt>
      <trkpt lat="42.94314" lon="0.85155">
        <ele>1051</ele>
        <time>2025-11-26T18:23:42Z</time>
      </trkpt>
      <trkpt lat="42.94325" lon="0.85173">
        <ele>1052</ele>
        <time>2025-11-26T18:23:45Z</time>
      </trkpt>
      <trkpt lat="42.94335" lon="0.8519">
        <ele>1053</ele>
        <time>2025-11-26T18:23:48Z</time>
      </trkpt>
      <trkpt lat="42.94345" lon="0.85203">
        <ele>1055</ele>
        <time>2025-11-26T18:23:51Z</time>
      </trkpt>
      <trkpt lat="42.94352" lon="0.8521">
        <ele>1056</ele>
        <time>2025-11-26T18:23:52Z</time>
      </trkpt>
      <trkpt lat="42.94361" lon="0.85216">
        <ele>1057</ele>
        <time>2025-11-26T18:23:54Z</time>
      </trkpt>
      <trkpt lat="42.94375" lon="0.85221">
        <ele>1057</ele>
        <time>2025-11-26T18:23:56Z</time>
      </trkpt>
      <trkpt lat="42.94385" lon="0.85229">
        <ele>1059</ele>
        <time>2025-11-26T18:23:59Z</time>
      </trkpt>
      <trkpt lat="42.94395" lon="0.85239">
        <ele>1060</ele>
        <time>2025-11-26T18:24:01Z</time>
      </trkpt>
      <trkpt lat="42.94429" lon="0.85295">
        <ele>1069</ele>
        <time>2025-11-26T18:24:10Z</time>
      </trkpt>
      <trkpt lat="42.94462" lon="0.85346">
        <ele>1076</ele>
        <time>2025-11-26T18:24:19Z</time>
      </trkpt>
      <trkpt lat="42.94484" lon="0.85388">
        <ele>1074</ele>
        <time>2025-11-26T18:24:26Z</time>
      </trkpt>
      <trkpt lat="42.94487" lon="0.85395">
        <ele>1073</ele>
        <time>2025-11-26T18:24:27Z</time>
      </trkpt>
      <trkpt lat="42.94495" lon="0.85412">
        <ele>1072</ele>
        <time>2025-11-26T18:24:30Z</time>
      </trkpt>
      <trkpt lat="42.94503" lon="0.85427">
        <ele>1069</ele>
        <time>2025-11-26T18:24:32Z</time>
      </trkpt>
      <trkpt lat="42.94511" lon="0.85439">
        <ele>1068</ele>
        <time>2025-11-26T18:24:34Z</time>
      </trkpt>
      <trkpt lat="42.94517" lon="0.85445">
        <ele>1068</ele>
        <time>2025-11-26T18:24:35Z</time>
      </trkpt>
      <trkpt lat="42.94533" lon="0.85456">
        <ele>1068</ele>
        <time>2025-11-26T18:24:39Z</time>
      </trkpt>
      <trkpt lat="42.94568" lon="0.85477">
        <ele>1069</ele>
        <time>2025-11-26T18:24:45Z</time>
      </trkpt>
      <trkpt lat="42.94584" lon="0.85482">
        <ele>1070</ele>
        <time>2025-11-26T18:24:48Z</time>
      </trkpt>
      <trkpt lat="42.94588" lon="0.85486">
        <ele>1070</ele>
        <time>2025-11-26T18:24:49Z</time>
      </trkpt>
      <trkpt lat="42.94593" lon="0.85491">
        <ele>1071</ele>
        <time>2025-11-26T18:24:50Z</time>
      </trkpt>
      <trkpt lat="42.94595" lon="0.85498">
        <ele>1070</ele>
        <time>2025-11-26T18:24:51Z</time>
      </trkpt>
      <trkpt lat="42.94597" lon="0.85509">
        <ele>1068</ele>
        <time>2025-11-26T18:24:53Z</time>
      </trkpt>
      <trkpt lat="42.94599" lon="0.8556">
        <ele>1057</ele>
        <time>2025-11-26T18:24:59Z</time>
      </trkpt>
      <trkpt lat="42.94603" lon="0.85584">
        <ele>1054</ele>
        <time>2025-11-26T18:25:03Z</time>
      </trkpt>
      <trkpt lat="42.94607" lon="0.85602">
        <ele>1053</ele>
        <time>2025-11-26T18:25:05Z</time>
      </trkpt>
      <trkpt lat="42.94612" lon="0.85615">
        <ele>1053</ele>
        <time>2025-11-26T18:25:07Z</time>
      </trkpt>
      <trkpt lat="42.94626" lon="0.85645">
        <ele>1053</ele>
        <time>2025-11-26T18:25:12Z</time>
      </trkpt>
      <trkpt lat="42.94631" lon="0.85657">
        <ele>1053</ele>
        <time>2025-11-26T18:25:13Z</time>
      </trkpt>
      <trkpt lat="42.94633" lon="0.85666">
        <ele>1052</ele>
        <time>2025-11-26T18:25:15Z</time>
      </trkpt>
      <trkpt lat="42.94633" lon="0.85673">
        <ele>1052</ele>
        <time>2025-11-26T18:25:16Z</time>
      </trkpt>
      <trkpt lat="42.94628" lon="0.85702">
        <ele>1047</ele>
        <time>2025-11-26T18:25:19Z</time>
      </trkpt>
      <trkpt lat="42.94627" lon="0.85725">
        <ele>1044</ele>
        <time>2025-11-26T18:25:22Z</time>
      </trkpt>
      <trkpt lat="42.94628" lon="0.85753">
        <ele>1042</ele>
        <time>2025-11-26T18:25:26Z</time>
      </trkpt>
      <trkpt lat="42.94626" lon="0.85776">
        <ele>1040</ele>
        <time>2025-11-26T18:25:29Z</time>
      </trkpt>
      <trkpt lat="42.94623" lon="0.85798">
        <ele>1038</ele>
        <time>2025-11-26T18:25:32Z</time>
      </trkpt>
      <trkpt lat="42.94617" lon="0.85823">
        <ele>1035</ele>
        <time>2025-11-26T18:25:35Z</time>
      </trkpt>
      <trkpt lat="42.94613" lon="0.85844">
        <ele>1032</ele>
        <time>2025-11-26T18:25:38Z</time>
      </trkpt>
      <trkpt lat="42.94608" lon="0.85919">
        <ele>1025</ele>
        <time>2025-11-26T18:25:48Z</time>
      </trkpt>
      <trkpt lat="42.94609" lon="0.85932">
        <ele>1025</ele>
        <time>2025-11-26T18:25:50Z</time>
      </trkpt>
      <trkpt lat="42.94612" lon="0.85949">
        <ele>1025</ele>
        <time>2025-11-26T18:25:52Z</time>
      </trkpt>
      <trkpt lat="42.94623" lon="0.85981">
        <ele>1027</ele>
        <time>2025-11-26T18:25:57Z</time>
      </trkpt>
      <trkpt lat="42.94624" lon="0.85988">
        <ele>1027</ele>
        <time>2025-11-26T18:25:58Z</time>
      </trkpt>
      <trkpt lat="42.94624" lon="0.85994">
        <ele>1026</ele>
        <time>2025-11-26T18:25:58Z</time>
      </trkpt>
      <trkpt lat="42.94621" lon="0.86">
        <ele>1024</ele>
        <time>2025-11-26T18:25:59Z</time>
      </trkpt>
      <trkpt lat="42.94617" lon="0.86003">
        <ele>1022</ele>
        <time>2025-11-26T18:26:00Z</time>
      </trkpt>
      <trkpt lat="42.94613" lon="0.86005">
        <ele>1020</ele>
        <time>2025-11-26T18:26:01Z</time>
      </trkpt>
      <trkpt lat="42.9461" lon="0.86005">
        <ele>1019</ele>
        <time>2025-11-26T18:26:01Z</time>
      </trkpt>
      <trkpt lat="42.94606" lon="0.86004">
        <ele>1017</ele>
        <time>2025-11-26T18:26:02Z</time>
      </trkpt>
      <trkpt lat="42.94602" lon="0.86001">
        <ele>1016</ele>
        <time>2025-11-26T18:26:03Z</time>
      </trkpt>
      <trkpt lat="42.94599" lon="0.85992">
        <ele>1015</ele>
        <time>2025-11-26T18:26:04Z</time>
      </trkpt>
      <trkpt lat="42.94589" lon="0.85952">
        <ele>1014</ele>
        <time>2025-11-26T18:26:10Z</time>
      </trkpt>
      <trkpt lat="42.94576" lon="0.85913">
        <ele>1012</ele>
        <time>2025-11-26T18:26:15Z</time>
      </trkpt>
      <trkpt lat="42.94567" lon="0.85891">
        <ele>1011</ele>
        <time>2025-11-26T18:26:19Z</time>
      </trkpt>
      <trkpt lat="42.94543" lon="0.85845">
        <ele>1007</ele>
        <time>2025-11-26T18:26:26Z</time>
      </trkpt>
      <trkpt lat="42.94521" lon="0.85805">
        <ele>1004</ele>
        <time>2025-11-26T18:26:32Z</time>
      </trkpt>
      <trkpt lat="42.94499" lon="0.85771">
        <ele>1000</ele>
        <time>2025-11-26T18:26:38Z</time>
      </trkpt>
      <trkpt lat="42.94489" lon="0.85753">
        <ele>1001</ele>
        <time>2025-11-26T18:26:41Z</time>
      </trkpt>
      <trkpt lat="42.94483" lon="0.85737">
        <ele>1003</ele>
        <time>2025-11-26T18:26:44Z</time>
      </trkpt>
      <trkpt lat="42.94478" lon="0.85711">
        <ele>1007</ele>
        <time>2025-11-26T18:26:47Z</time>
      </trkpt>
      <trkpt lat="42.94475" lon="0.85705">
        <ele>1008</ele>
        <time>2025-11-26T18:26:48Z</time>
      </trkpt>
      <trkpt lat="42.94471" lon="0.85702">
        <ele>1008</ele>
        <time>2025-11-26T18:26:49Z</time>
      </trkpt>
      <trkpt lat="42.94466" lon="0.85701">
        <ele>1009</ele>
        <time>2025-11-26T18:26:50Z</time>
      </trkpt>
      <trkpt lat="42.9446" lon="0.85702">
        <ele>1009</ele>
        <time>2025-11-26T18:26:51Z</time>
      </trkpt>
      <trkpt lat="42.94457" lon="0.85705">
        <ele>1008</ele>
        <time>2025-11-26T18:26:52Z</time>
      </trkpt>
      <trkpt lat="42.94453" lon="0.85715">
        <ele>1006</ele>
        <time>2025-11-26T18:26:53Z</time>
      </trkpt>
      <trkpt lat="42.94452" lon="0.85723">
        <ele>1005</ele>
        <time>2025-11-26T18:26:54Z</time>
      </trkpt>
      <trkpt lat="42.94453" lon="0.85799">
        <ele>990</ele>
        <time>2025-11-26T18:27:04Z</time>
      </trkpt>
      <trkpt lat="42.94452" lon="0.85854">
        <ele>981</ele>
        <time>2025-11-26T18:27:11Z</time>
      </trkpt>
      <trkpt lat="42.94452" lon="0.85877">
        <ele>978</ele>
        <time>2025-11-26T18:27:14Z</time>
      </trkpt>
      <trkpt lat="42.94455" lon="0.85891">
        <ele>977</ele>
        <time>2025-11-26T18:27:16Z</time>
      </trkpt>
      <trkpt lat="42.9446" lon="0.85903">
        <ele>977</ele>
        <time>2025-11-26T18:27:18Z</time>
      </trkpt>
      <trkpt lat="42.94481" lon="0.85933">
        <ele>977</ele>
        <time>2025-11-26T18:27:23Z</time>
      </trkpt>
      <trkpt lat="42.94486" lon="0.85947">
        <ele>976</ele>
        <time>2025-11-26T18:27:25Z</time>
      </trkpt>
      <trkpt lat="42.94488" lon="0.85963">
        <ele>973</ele>
        <time>2025-11-26T18:27:27Z</time>
      </trkpt>
      <trkpt lat="42.94493" lon="0.86037">
        <ele>964</ele>
        <time>2025-11-26T18:27:37Z</time>
      </trkpt>
      <trkpt lat="42.94497" lon="0.8606">
        <ele>961</ele>
        <time>2025-11-26T18:27:40Z</time>
      </trkpt>
      <trkpt lat="42.94508" lon="0.86094">
        <ele>962</ele>
        <time>2025-11-26T18:27:45Z</time>
      </trkpt>
      <trkpt lat="42.94509" lon="0.86106">
        <ele>962</ele>
        <time>2025-11-26T18:27:47Z</time>
      </trkpt>
      <trkpt lat="42.94509" lon="0.86115">
        <ele>962</ele>
        <time>2025-11-26T18:27:48Z</time>
      </trkpt>
      <trkpt lat="42.94508" lon="0.86123">
        <ele>961</ele>
        <time>2025-11-26T18:27:49Z</time>
      </trkpt>
      <trkpt lat="42.94503" lon="0.86137">
        <ele>958</ele>
        <time>2025-11-26T18:27:51Z</time>
      </trkpt>
      <trkpt lat="42.94478" lon="0.86195">
        <ele>949</ele>
        <time>2025-11-26T18:28:00Z</time>
      </trkpt>
      <trkpt lat="42.94468" lon="0.8622">
        <ele>946</ele>
        <time>2025-11-26T18:28:03Z</time>
      </trkpt>
      <trkpt lat="42.94459" lon="0.86247">
        <ele>943</ele>
        <time>2025-11-26T18:28:07Z</time>
      </trkpt>
      <trkpt lat="42.94451" lon="0.86271">
        <ele>940</ele>
        <time>2025-11-26T18:28:11Z</time>
      </trkpt>
      <trkpt lat="42.94446" lon="0.86294">
        <ele>939</ele>
        <time>2025-11-26T18:28:14Z</time>
      </trkpt>
      <trkpt lat="42.94436" lon="0.8635">
        <ele>935</ele>
        <time>2025-11-26T18:28:21Z</time>
      </trkpt>
      <trkpt lat="42.94422" lon="0.86451">
        <ele>928</ele>
        <time>2025-11-26T18:28:35Z</time>
      </trkpt>
      <trkpt lat="42.94416" lon="0.86487">
        <ele>924</ele>
        <time>2025-11-26T18:28:39Z</time>
      </trkpt>
      <trkpt lat="42.94415" lon="0.86507">
        <ele>923</ele>
        <time>2025-11-26T18:28:42Z</time>
      </trkpt>
      <trkpt lat="42.94417" lon="0.86521">
        <ele>923</ele>
        <time>2025-11-26T18:28:44Z</time>
      </trkpt>
      <trkpt lat="42.94422" lon="0.86534">
        <ele>923</ele>
        <time>2025-11-26T18:28:46Z</time>
      </trkpt>
      <trkpt lat="42.9443" lon="0.86551">
        <ele>924</ele>
        <time>2025-11-26T18:28:48Z</time>
      </trkpt>
      <trkpt lat="42.94432" lon="0.86561">
        <ele>924</ele>
        <time>2025-11-26T18:28:50Z</time>
      </trkpt>
      <trkpt lat="42.94431" lon="0.86568">
        <ele>923</ele>
        <time>2025-11-26T18:28:51Z</time>
      </trkpt>
      <trkpt lat="42.94428" lon="0.86573">
        <ele>922</ele>
        <time>2025-11-26T18:28:52Z</time>
      </trkpt>
      <trkpt lat="42.94423" lon="0.86577">
        <ele>921</ele>
        <time>2025-11-26T18:28:53Z</time>
      </trkpt>
      <trkpt lat="42.94417" lon="0.86578">
        <ele>919</ele>
        <time>2025-11-26T18:28:54Z</time>
      </trkpt>
      <trkpt lat="42.94411" lon="0.86576">
        <ele>919</ele>
        <time>2025-11-26T18:28:55Z</time>
      </trkpt>
      <trkpt lat="42.94403" lon="0.86563">
        <ele>918</ele>
        <time>2025-11-26T18:28:57Z</time>
      </trkpt>
      <trkpt lat="42.94377" lon="0.86527">
        <ele>913</ele>
        <time>2025-11-26T18:29:04Z</time>
      </trkpt>
      <trkpt lat="42.94363" lon="0.86504">
        <ele>909</ele>
        <time>2025-11-26T18:29:07Z</time>
      </trkpt>
      <trkpt lat="42.94346" lon="0.86477">
        <ele>905</ele>
        <time>2025-11-26T18:29:12Z</time>
      </trkpt>
      <trkpt lat="42.94317" lon="0.86414">
        <ele>903</ele>
        <time>2025-11-26T18:29:22Z</time>
      </trkpt>
      <trkpt lat="42.94312" lon="0.86402">
        <ele>903</ele>
        <time>2025-11-26T18:29:24Z</time>
      </trkpt>
      <trkpt lat="42.94309" lon="0.86388">
        <ele>903</ele>
        <time>2025-11-26T18:29:25Z</time>
      </trkpt>
      <trkpt lat="42.94305" lon="0.86355">
        <ele>906</ele>
        <time>2025-11-26T18:29:30Z</time>
      </trkpt>
      <trkpt lat="42.94301" lon="0.86349">
        <ele>906</ele>
        <time>2025-11-26T18:29:31Z</time>
      </trkpt>
      <trkpt lat="42.94295" lon="0.86346">
        <ele>906</ele>
        <time>2025-11-26T18:29:32Z</time>
      </trkpt>
      <trkpt lat="42.94289" lon="0.86348">
        <ele>906</ele>
        <time>2025-11-26T18:29:33Z</time>
      </trkpt>
      <trkpt lat="42.94285" lon="0.86352">
        <ele>906</ele>
        <time>2025-11-26T18:29:34Z</time>
      </trkpt>
      <trkpt lat="42.94282" lon="0.86358">
        <ele>905</ele>
        <time>2025-11-26T18:29:35Z</time>
      </trkpt>
      <trkpt lat="42.94281" lon="0.86367">
        <ele>904</ele>
        <time>2025-11-26T18:29:36Z</time>
      </trkpt>
      <trkpt lat="42.94283" lon="0.86393">
        <ele>900</ele>
        <time>2025-11-26T18:29:40Z</time>
      </trkpt>
      <trkpt lat="42.94282" lon="0.86409">
        <ele>898</ele>
        <time>2025-11-26T18:29:42Z</time>
      </trkpt>
      <trkpt lat="42.9426" lon="0.86488">
        <ele>888</ele>
        <time>2025-11-26T18:29:53Z</time>
      </trkpt>
      <trkpt lat="42.94256" lon="0.86486">
        <ele>887</ele>
        <time>2025-11-26T18:29:53Z</time>
      </trkpt>
      <trkpt lat="42.94251" lon="0.86486">
        <ele>886</ele>
        <time>2025-11-26T18:29:54Z</time>
      </trkpt>
      <trkpt lat="42.94215" lon="0.86489">
        <ele>882</ele>
        <time>2025-11-26T18:30:01Z</time>
      </trkpt>
      <trkpt lat="42.94199" lon="0.86492">
        <ele>880</ele>
        <time>2025-11-26T18:30:04Z</time>
      </trkpt>
      <trkpt lat="42.94196" lon="0.86496">
        <ele>879</ele>
        <time>2025-11-26T18:30:04Z</time>
      </trkpt>
      <trkpt lat="42.94183" lon="0.86489">
        <ele>878</ele>
        <time>2025-11-26T18:30:07Z</time>
      </trkpt>
      <trkpt lat="42.94179" lon="0.86489">
        <ele>878</ele>
        <time>2025-11-26T18:30:08Z</time>
      </trkpt>
      <trkpt lat="42.94169" lon="0.8649">
        <ele>876</ele>
        <time>2025-11-26T18:30:09Z</time>
      </trkpt>
      <trkpt lat="42.94161" lon="0.86491">
        <ele>876</ele>
        <time>2025-11-26T18:30:11Z</time>
      </trkpt>
      <trkpt lat="42.94136" lon="0.86487">
        <ele>877</ele>
        <time>2025-11-26T18:30:15Z</time>
      </trkpt>
      <trkpt lat="42.94127" lon="0.86488">
        <ele>877</ele>
        <time>2025-11-26T18:30:17Z</time>
      </trkpt>
      <trkpt lat="42.94121" lon="0.8649">
        <ele>876</ele>
        <time>2025-11-26T18:30:18Z</time>
      </trkpt>
      <trkpt lat="42.94116" lon="0.86495">
        <ele>875</ele>
        <time>2025-11-26T18:30:19Z</time>
      </trkpt>
      <trkpt lat="42.94113" lon="0.86501">
        <ele>873</ele>
        <time>2025-11-26T18:30:20Z</time>
      </trkpt>
      <trkpt lat="42.94111" lon="0.86507">
        <ele>873</ele>
        <time>2025-11-26T18:30:21Z</time>
      </trkpt>
      <trkpt lat="42.94109" lon="0.86517">
        <ele>872</ele>
        <time>2025-11-26T18:30:22Z</time>
      </trkpt>
      <trkpt lat="42.94104" lon="0.86537">
        <ele>870</ele>
        <time>2025-11-26T18:30:25Z</time>
      </trkpt>
      <trkpt lat="42.94101" lon="0.86544">
        <ele>869</ele>
        <time>2025-11-26T18:30:26Z</time>
      </trkpt>
      <trkpt lat="42.94095" lon="0.86553">
        <ele>868</ele>
        <time>2025-11-26T18:30:28Z</time>
      </trkpt>
      <trkpt lat="42.94081" lon="0.86568">
        <ele>865</ele>
        <time>2025-11-26T18:30:31Z</time>
      </trkpt>
      <trkpt lat="42.94073" lon="0.86575">
        <ele>864</ele>
        <time>2025-11-26T18:30:32Z</time>
      </trkpt>
      <trkpt lat="42.94065" lon="0.86581">
        <ele>863</ele>
        <time>2025-11-26T18:30:34Z</time>
      </trkpt>
      <trkpt lat="42.94047" lon="0.86588">
        <ele>862</ele>
        <time>2025-11-26T18:30:37Z</time>
      </trkpt>
      <trkpt lat="42.94038" lon="0.86596">
        <ele>861</ele>
        <time>2025-11-26T18:30:39Z</time>
      </trkpt>
      <trkpt lat="42.94034" lon="0.86602">
        <ele>861</ele>
        <time>2025-11-26T18:30:40Z</time>
      </trkpt>
      <trkpt lat="42.94024" lon="0.86628">
        <ele>860</ele>
        <time>2025-11-26T18:30:44Z</time>
      </trkpt>
      <trkpt lat="42.94015" lon="0.8665">
        <ele>858</ele>
        <time>2025-11-26T18:30:47Z</time>
      </trkpt>
      <trkpt lat="42.94006" lon="0.86668">
        <ele>856</ele>
        <time>2025-11-26T18:30:50Z</time>
      </trkpt>
      <trkpt lat="42.93997" lon="0.86682">
        <ele>855</ele>
        <time>2025-11-26T18:30:53Z</time>
      </trkpt>
      <trkpt lat="42.93965" lon="0.86725">
        <ele>854</ele>
        <time>2025-11-26T18:31:01Z</time>
      </trkpt>
      <trkpt lat="42.93887" lon="0.86833">
        <ele>847</ele>
        <time>2025-11-26T18:31:20Z</time>
      </trkpt>
      <trkpt lat="42.93866" lon="0.86867">
        <ele>847</ele>
        <time>2025-11-26T18:31:26Z</time>
      </trkpt>
      <trkpt lat="42.93859" lon="0.86881">
        <ele>847</ele>
        <time>2025-11-26T18:31:29Z</time>
      </trkpt>
      <trkpt lat="42.93849" lon="0.8691">
        <ele>847</ele>
        <time>2025-11-26T18:31:33Z</time>
      </trkpt>
      <trkpt lat="42.93821" lon="0.87023">
        <ele>845</ele>
        <time>2025-11-26T18:31:48Z</time>
      </trkpt>
      <trkpt lat="42.93817" lon="0.87047">
        <ele>846</ele>
        <time>2025-11-26T18:31:51Z</time>
      </trkpt>
      <trkpt lat="42.93806" lon="0.87153">
        <ele>845</ele>
        <time>2025-11-26T18:32:05Z</time>
      </trkpt>
      <trkpt lat="42.93797" lon="0.87243">
        <ele>845</ele>
        <time>2025-11-26T18:32:17Z</time>
      </trkpt>
      <trkpt lat="42.93784" lon="0.87332">
        <ele>841</ele>
        <time>2025-11-26T18:32:29Z</time>
      </trkpt>
      <trkpt lat="42.93782" lon="0.8735">
        <ele>839</ele>
        <time>2025-11-26T18:32:31Z</time>
      </trkpt>
      <trkpt lat="42.93782" lon="0.87364">
        <ele>838</ele>
        <time>2025-11-26T18:32:33Z</time>
      </trkpt>
      <trkpt lat="42.93784" lon="0.87377">
        <ele>836</ele>
        <time>2025-11-26T18:32:35Z</time>
      </trkpt>
      <trkpt lat="42.93791" lon="0.87392">
        <ele>833</ele>
        <time>2025-11-26T18:32:37Z</time>
      </trkpt>
      <trkpt lat="42.93802" lon="0.87412">
        <ele>829</ele>
        <time>2025-11-26T18:32:41Z</time>
      </trkpt>
      <trkpt lat="42.9383" lon="0.87453">
        <ele>832</ele>
        <time>2025-11-26T18:32:48Z</time>
      </trkpt>
      <trkpt lat="42.9386" lon="0.87479">
        <ele>833</ele>
        <time>2025-11-26T18:32:54Z</time>
      </trkpt>
      <trkpt lat="42.93912" lon="0.8752">
        <ele>831</ele>
        <time>2025-11-26T18:33:05Z</time>
      </trkpt>
      <trkpt lat="42.93922" lon="0.87529">
        <ele>832</ele>
        <time>2025-11-26T18:33:07Z</time>
      </trkpt>
      <trkpt lat="42.93936" lon="0.87541">
        <ele>833</ele>
        <time>2025-11-26T18:33:10Z</time>
      </trkpt>
      <trkpt lat="42.93991" lon="0.87595">
        <ele>825</ele>
        <time>2025-11-26T18:33:22Z</time>
      </trkpt>
      <trkpt lat="42.94005" lon="0.87613">
        <ele>823</ele>
        <time>2025-11-26T18:33:25Z</time>
      </trkpt>
      <trkpt lat="42.9401" lon="0.87626">
        <ele>824</ele>
        <time>2025-11-26T18:33:27Z</time>
      </trkpt>
      <trkpt lat="42.94015" lon="0.87648">
        <ele>824</ele>
        <time>2025-11-26T18:33:30Z</time>
      </trkpt>
      <trkpt lat="42.94024" lon="0.87694">
        <ele>825</ele>
        <time>2025-11-26T18:33:36Z</time>
      </trkpt>
      <trkpt lat="42.94027" lon="0.87726">
        <ele>826</ele>
        <time>2025-11-26T18:33:41Z</time>
      </trkpt>
      <trkpt lat="42.94033" lon="0.87806">
        <ele>823</ele>
        <time>2025-11-26T18:33:51Z</time>
      </trkpt>
      <trkpt lat="42.94036" lon="0.87871">
        <ele>819</ele>
        <time>2025-11-26T18:34:00Z</time>
      </trkpt>
      <trkpt lat="42.9404" lon="0.87905">
        <ele>816</ele>
        <time>2025-11-26T18:34:04Z</time>
      </trkpt>
      <trkpt lat="42.94041" lon="0.87934">
        <ele>814</ele>
        <time>2025-11-26T18:34:08Z</time>
      </trkpt>
      <trkpt lat="42.94041" lon="0.88008">
        <ele>811</ele>
        <time>2025-11-26T18:34:18Z</time>
      </trkpt>
      <trkpt lat="42.9404" lon="0.88024">
        <ele>809</ele>
        <time>2025-11-26T18:34:20Z</time>
      </trkpt>
      <trkpt lat="42.94035" lon="0.88042">
        <ele>807</ele>
        <time>2025-11-26T18:34:22Z</time>
      </trkpt>
      <trkpt lat="42.94021" lon="0.88077">
        <ele>804</ele>
        <time>2025-11-26T18:34:27Z</time>
      </trkpt>
      <trkpt lat="42.93978" lon="0.88182">
        <ele>794</ele>
        <time>2025-11-26T18:34:43Z</time>
      </trkpt>
      <trkpt lat="42.93969" lon="0.88208">
        <ele>791</ele>
        <time>2025-11-26T18:34:47Z</time>
      </trkpt>
      <trkpt lat="42.9396" lon="0.88237">
        <ele>787</ele>
        <time>2025-11-26T18:34:51Z</time>
      </trkpt>
      <trkpt lat="42.93952" lon="0.88253">
        <ele>785</ele>
        <time>2025-11-26T18:34:53Z</time>
      </trkpt>
      <trkpt lat="42.93943" lon="0.88265">
        <ele>785</ele>
        <time>2025-11-26T18:34:56Z</time>
      </trkpt>
      <trkpt lat="42.93923" lon="0.88288">
        <ele>783</ele>
        <time>2025-11-26T18:35:00Z</time>
      </trkpt>
      <trkpt lat="42.93907" lon="0.88302">
        <ele>781</ele>
        <time>2025-11-26T18:35:04Z</time>
      </trkpt>
      <trkpt lat="42.93898" lon="0.88307">
        <ele>781</ele>
        <time>2025-11-26T18:35:05Z</time>
      </trkpt>
      <trkpt lat="42.93844" lon="0.8833">
        <ele>778</ele>
        <time>2025-11-26T18:35:15Z</time>
      </trkpt>
      <trkpt lat="42.93829" lon="0.88341">
        <ele>778</ele>
        <time>2025-11-26T18:35:18Z</time>
      </trkpt>
      <trkpt lat="42.93819" lon="0.8835">
        <ele>780</ele>
        <time>2025-11-26T18:35:21Z</time>
      </trkpt>
      <trkpt lat="42.9381" lon="0.88362">
        <ele>780</ele>
        <time>2025-11-26T18:35:23Z</time>
      </trkpt>
      <trkpt lat="42.93802" lon="0.88376">
        <ele>780</ele>
        <time>2025-11-26T18:35:25Z</time>
      </trkpt>
      <trkpt lat="42.93781" lon="0.8842">
        <ele>772</ele>
        <time>2025-11-26T18:35:32Z</time>
      </trkpt>
      <trkpt lat="42.93775" lon="0.88431">
        <ele>770</ele>
        <time>2025-11-26T18:35:34Z</time>
      </trkpt>
      <trkpt lat="42.93768" lon="0.88439">
        <ele>769</ele>
        <time>2025-11-26T18:35:35Z</time>
      </trkpt>
      <trkpt lat="42.93761" lon="0.88444">
        <ele>768</ele>
        <time>2025-11-26T18:35:37Z</time>
      </trkpt>
      <trkpt lat="42.93744" lon="0.88451">
        <ele>766</ele>
        <time>2025-11-26T18:35:40Z</time>
      </trkpt>
      <trkpt lat="42.93724" lon="0.88457">
        <ele>767</ele>
        <time>2025-11-26T18:35:44Z</time>
      </trkpt>
      <trkpt lat="42.93701" lon="0.8847">
        <ele>765</ele>
        <time>2025-11-26T18:35:48Z</time>
      </trkpt>
      <trkpt lat="42.93684" lon="0.88483">
        <ele>763</ele>
        <time>2025-11-26T18:35:52Z</time>
      </trkpt>
      <trkpt lat="42.93655" lon="0.88511">
        <ele>758</ele>
        <time>2025-11-26T18:35:58Z</time>
      </trkpt>
      <trkpt lat="42.93644" lon="0.88517">
        <ele>758</ele>
        <time>2025-11-26T18:36:00Z</time>
      </trkpt>
      <trkpt lat="42.93587" lon="0.88539">
        <ele>752</ele>
        <time>2025-11-26T18:36:10Z</time>
      </trkpt>
      <trkpt lat="42.93568" lon="0.88546">
        <ele>752</ele>
        <time>2025-11-26T18:36:14Z</time>
      </trkpt>
      <trkpt lat="42.93554" lon="0.88553">
        <ele>752</ele>
        <time>2025-11-26T18:36:17Z</time>
      </trkpt>
      <trkpt lat="42.93547" lon="0.88559">
        <ele>752</ele>
        <time>2025-11-26T18:36:18Z</time>
      </trkpt>
      <trkpt lat="42.93539" lon="0.88573">
        <ele>752</ele>
        <time>2025-11-26T18:36:20Z</time>
      </trkpt>
      <trkpt lat="42.93536" lon="0.88582">
        <ele>751</ele>
        <time>2025-11-26T18:36:22Z</time>
      </trkpt>
      <trkpt lat="42.93534" lon="0.88591">
        <ele>752</ele>
        <time>2025-11-26T18:36:23Z</time>
      </trkpt>
      <trkpt lat="42.93536" lon="0.88671">
        <ele>755</ele>
        <time>2025-11-26T18:36:33Z</time>
      </trkpt>
      <trkpt lat="42.93534" lon="0.88692">
        <ele>756</ele>
        <time>2025-11-26T18:36:36Z</time>
      </trkpt>
      <trkpt lat="42.93531" lon="0.88708">
        <ele>755</ele>
        <time>2025-11-26T18:36:38Z</time>
      </trkpt>
      <trkpt lat="42.93527" lon="0.88722">
        <ele>754</ele>
        <time>2025-11-26T18:36:40Z</time>
      </trkpt>
      <trkpt lat="42.9352" lon="0.88734">
        <ele>751</ele>
        <time>2025-11-26T18:36:42Z</time>
      </trkpt>
      <trkpt lat="42.93511" lon="0.88747">
        <ele>746</ele>
        <time>2025-11-26T18:36:45Z</time>
      </trkpt>
      <trkpt lat="42.93499" lon="0.88756">
        <ele>742</ele>
        <time>2025-11-26T18:36:47Z</time>
      </trkpt>
      <trkpt lat="42.9347" lon="0.88772">
        <ele>746</ele>
        <time>2025-11-26T18:36:53Z</time>
      </trkpt>
      <trkpt lat="42.93433" lon="0.88797">
        <ele>742</ele>
        <time>2025-11-26T18:37:00Z</time>
      </trkpt>
      <trkpt lat="42.93414" lon="0.8881">
        <ele>736</ele>
        <time>2025-11-26T18:37:04Z</time>
      </trkpt>
      <trkpt lat="42.93408" lon="0.88817">
        <ele>735</ele>
        <time>2025-11-26T18:37:05Z</time>
      </trkpt>
      <trkpt lat="42.93404" lon="0.88826">
        <ele>733</ele>
        <time>2025-11-26T18:37:06Z</time>
      </trkpt>
      <trkpt lat="42.93401" lon="0.88834">
        <ele>732</ele>
        <time>2025-11-26T18:37:08Z</time>
      </trkpt>
      <trkpt lat="42.934" lon="0.88848">
        <ele>733</ele>
        <time>2025-11-26T18:37:09Z</time>
      </trkpt>
      <trkpt lat="42.93401" lon="0.88874">
        <ele>734</ele>
        <time>2025-11-26T18:37:13Z</time>
      </trkpt>
      <trkpt lat="42.934" lon="0.88885">
        <ele>734</ele>
        <time>2025-11-26T18:37:14Z</time>
      </trkpt>
      <trkpt lat="42.93399" lon="0.8889">
        <ele>735</ele>
        <time>2025-11-26T18:37:15Z</time>
      </trkpt>
      <trkpt lat="42.93397" lon="0.88897">
        <ele>735</ele>
        <time>2025-11-26T18:37:16Z</time>
      </trkpt>
      <trkpt lat="42.93393" lon="0.88901">
        <ele>734</ele>
        <time>2025-11-26T18:37:17Z</time>
      </trkpt>
      <trkpt lat="42.93381" lon="0.88909">
        <ele>732</ele>
        <time>2025-11-26T18:37:19Z</time>
      </trkpt>
      <trkpt lat="42.93366" lon="0.88917">
        <ele>728</ele>
        <time>2025-11-26T18:37:22Z</time>
      </trkpt>
      <trkpt lat="42.93353" lon="0.88924">
        <ele>726</ele>
        <time>2025-11-26T18:37:25Z</time>
      </trkpt>
      <trkpt lat="42.93347" lon="0.88925">
        <ele>724</ele>
        <time>2025-11-26T18:37:26Z</time>
      </trkpt>
      <trkpt lat="42.93284" lon="0.88924">
        <ele>728</ele>
        <time>2025-11-26T18:37:37Z</time>
      </trkpt>
      <trkpt lat="42.93272" lon="0.88926">
        <ele>730</ele>
        <time>2025-11-26T18:37:39Z</time>
      </trkpt>
      <trkpt lat="42.93262" lon="0.88931">
        <ele>730</ele>
        <time>2025-11-26T18:37:41Z</time>
      </trkpt>
      <trkpt lat="42.93255" lon="0.88936">
        <ele>730</ele>
        <time>2025-11-26T18:37:42Z</time>
      </trkpt>
      <trkpt lat="42.93249" lon="0.88942">
        <ele>729</ele>
        <time>2025-11-26T18:37:44Z</time>
      </trkpt>
      <trkpt lat="42.93224" lon="0.88982">
        <ele>725</ele>
        <time>2025-11-26T18:37:50Z</time>
      </trkpt>
      <trkpt lat="42.93189" lon="0.89027">
        <ele>723</ele>
        <time>2025-11-26T18:37:59Z</time>
      </trkpt>
      <trkpt lat="42.93166" lon="0.89061">
        <ele>718</ele>
        <time>2025-11-26T18:38:05Z</time>
      </trkpt>
      <trkpt lat="42.93152" lon="0.8908">
        <ele>717</ele>
        <time>2025-11-26T18:38:09Z</time>
      </trkpt>
      <trkpt lat="42.93144" lon="0.89088">
        <ele>718</ele>
        <time>2025-11-26T18:38:10Z</time>
      </trkpt>
      <trkpt lat="42.93138" lon="0.89092">
        <ele>719</ele>
        <time>2025-11-26T18:38:12Z</time>
      </trkpt>
      <trkpt lat="42.93119" lon="0.891">
        <ele>721</ele>
        <time>2025-11-26T18:38:15Z</time>
      </trkpt>
      <trkpt lat="42.93103" lon="0.89107">
        <ele>722</ele>
        <time>2025-11-26T18:38:18Z</time>
      </trkpt>
      <trkpt lat="42.93087" lon="0.89118">
        <ele>722</ele>
        <time>2025-11-26T18:38:21Z</time>
      </trkpt>
      <trkpt lat="42.93079" lon="0.89131">
        <ele>722</ele>
        <time>2025-11-26T18:38:23Z</time>
      </trkpt>
      <trkpt lat="42.93074" lon="0.89143">
        <ele>721</ele>
        <time>2025-11-26T18:38:25Z</time>
      </trkpt>
      <trkpt lat="42.93071" lon="0.89156">
        <ele>720</ele>
        <time>2025-11-26T18:38:27Z</time>
      </trkpt>
      <trkpt lat="42.93069" lon="0.89174">
        <ele>718</ele>
        <time>2025-11-26T18:38:29Z</time>
      </trkpt>
      <trkpt lat="42.9307" lon="0.89185">
        <ele>717</ele>
        <time>2025-11-26T18:38:31Z</time>
      </trkpt>
      <trkpt lat="42.93073" lon="0.89202">
        <ele>715</ele>
        <time>2025-11-26T18:38:33Z</time>
      </trkpt>
      <trkpt lat="42.93087" lon="0.89252">
        <ele>710</ele>
        <time>2025-11-26T18:38:40Z</time>
      </trkpt>
      <trkpt lat="42.93091" lon="0.89268">
        <ele>708</ele>
        <time>2025-11-26T18:38:42Z</time>
      </trkpt>
      <trkpt lat="42.93091" lon="0.89279">
        <ele>706</ele>
        <time>2025-11-26T18:38:44Z</time>
      </trkpt>
      <trkpt lat="42.93089" lon="0.8929">
        <ele>705</ele>
        <time>2025-11-26T18:38:45Z</time>
      </trkpt>
      <trkpt lat="42.93086" lon="0.893">
        <ele>703</ele>
        <time>2025-11-26T18:38:47Z</time>
      </trkpt>
      <trkpt lat="42.93058" lon="0.8936">
        <ele>702</ele>
        <time>2025-11-26T18:38:56Z</time>
      </trkpt>
      <trkpt lat="42.93054" lon="0.89368">
        <ele>701</ele>
        <time>2025-11-26T18:38:57Z</time>
      </trkpt>
      <trkpt lat="42.93043" lon="0.89392">
        <ele>700</ele>
        <time>2025-11-26T18:39:01Z</time>
      </trkpt>
      <trkpt lat="42.93032" lon="0.89408">
        <ele>697</ele>
        <time>2025-11-26T18:39:04Z</time>
      </trkpt>
      <trkpt lat="42.93016" lon="0.89427">
        <ele>695</ele>
        <time>2025-11-26T18:39:07Z</time>
      </trkpt>
      <trkpt lat="42.93006" lon="0.89434">
        <ele>694</ele>
        <time>2025-11-26T18:39:09Z</time>
      </trkpt>
      <trkpt lat="42.92953" lon="0.89464">
        <ele>689</ele>
        <time>2025-11-26T18:39:20Z</time>
      </trkpt>
      <trkpt lat="42.92921" lon="0.89478">
        <ele>684</ele>
        <time>2025-11-26T18:39:26Z</time>
      </trkpt>
      <trkpt lat="42.92917" lon="0.8948">
        <ele>683</ele>
        <time>2025-11-26T18:39:26Z</time>
      </trkpt>
      <trkpt lat="42.92915" lon="0.89483">
        <ele>683</ele>
        <time>2025-11-26T18:39:27Z</time>
      </trkpt>
      <trkpt lat="42.92909" lon="0.89498">
        <ele>683</ele>
        <time>2025-11-26T18:39:29Z</time>
      </trkpt>
      <trkpt lat="42.92904" lon="0.89504">
        <ele>684</ele>
        <time>2025-11-26T18:39:30Z</time>
      </trkpt>
      <trkpt lat="42.92891" lon="0.8952">
        <ele>687</ele>
        <time>2025-11-26T18:39:33Z</time>
      </trkpt>
      <trkpt lat="42.92885" lon="0.89532">
        <ele>688</ele>
        <time>2025-11-26T18:39:35Z</time>
      </trkpt>
      <trkpt lat="42.92868" lon="0.89599">
        <ele>693</ele>
        <time>2025-11-26T18:39:45Z</time>
      </trkpt>
      <trkpt lat="42.9286" lon="0.8963">
        <ele>696</ele>
        <time>2025-11-26T18:39:49Z</time>
      </trkpt>
      <trkpt lat="42.92858" lon="0.89641">
        <ele>697</ele>
        <time>2025-11-26T18:39:50Z</time>
      </trkpt>
      <trkpt lat="42.92858" lon="0.89652">
        <ele>698</ele>
        <time>2025-11-26T18:39:52Z</time>
      </trkpt>
      <trkpt lat="42.92861" lon="0.89668">
        <ele>697</ele>
        <time>2025-11-26T18:39:54Z</time>
      </trkpt>
      <trkpt lat="42.92875" lon="0.8971">
        <ele>696</ele>
        <time>2025-11-26T18:40:00Z</time>
      </trkpt>
      <trkpt lat="42.92882" lon="0.89729">
        <ele>695</ele>
        <time>2025-11-26T18:40:03Z</time>
      </trkpt>
      <trkpt lat="42.9289" lon="0.89745">
        <ele>693</ele>
        <time>2025-11-26T18:40:05Z</time>
      </trkpt>
      <trkpt lat="42.92899" lon="0.89759">
        <ele>691</ele>
        <time>2025-11-26T18:40:08Z</time>
      </trkpt>
      <trkpt lat="42.92913" lon="0.89775">
        <ele>687</ele>
        <time>2025-11-26T18:40:11Z</time>
      </trkpt>
      <trkpt lat="42.9292" lon="0.89785">
        <ele>688</ele>
        <time>2025-11-26T18:40:13Z</time>
      </trkpt>
      <trkpt lat="42.92926" lon="0.89799">
        <ele>691</ele>
        <time>2025-11-26T18:40:15Z</time>
      </trkpt>
      <trkpt lat="42.92931" lon="0.89816">
        <ele>694</ele>
        <time>2025-11-26T18:40:17Z</time>
      </trkpt>
      <trkpt lat="42.92936" lon="0.89847">
        <ele>697</ele>
        <time>2025-11-26T18:40:21Z</time>
      </trkpt>
      <trkpt lat="42.92946" lon="0.89926">
        <ele>701</ele>
        <time>2025-11-26T18:40:32Z</time>
      </trkpt>
      <trkpt lat="42.92948" lon="0.89952">
        <ele>701</ele>
        <time>2025-11-26T18:40:35Z</time>
      </trkpt>
      <trkpt lat="42.92947" lon="0.89978">
        <ele>700</ele>
        <time>2025-11-26T18:40:39Z</time>
      </trkpt>
      <trkpt lat="42.92942" lon="0.90042">
        <ele>696</ele>
        <time>2025-11-26T18:40:47Z</time>
      </trkpt>
      <trkpt lat="42.92942" lon="0.90115">
        <ele>693</ele>
        <time>2025-11-26T18:40:57Z</time>
      </trkpt>
      <trkpt lat="42.92942" lon="0.90127">
        <ele>693</ele>
        <time>2025-11-26T18:40:58Z</time>
      </trkpt>
      <trkpt lat="42.92936" lon="0.90158">
        <ele>689</ele>
        <time>2025-11-26T18:41:02Z</time>
      </trkpt>
      <trkpt lat="42.92933" lon="0.90167">
        <ele>688</ele>
        <time>2025-11-26T18:41:04Z</time>
      </trkpt>
      <trkpt lat="42.92927" lon="0.90179">
        <ele>686</ele>
        <time>2025-11-26T18:41:05Z</time>
      </trkpt>
      <trkpt lat="42.92913" lon="0.90206">
        <ele>683</ele>
        <time>2025-11-26T18:41:10Z</time>
      </trkpt>
      <trkpt lat="42.92905" lon="0.90223">
        <ele>685</ele>
        <time>2025-11-26T18:41:12Z</time>
      </trkpt>
      <trkpt lat="42.92895" lon="0.90251">
        <ele>686</ele>
        <time>2025-11-26T18:41:16Z</time>
      </trkpt>
      <trkpt lat="42.9289" lon="0.90267">
        <ele>686</ele>
        <time>2025-11-26T18:41:19Z</time>
      </trkpt>
      <trkpt lat="42.92886" lon="0.90285">
        <ele>686</ele>
        <time>2025-11-26T18:41:21Z</time>
      </trkpt>
      <trkpt lat="42.92884" lon="0.90307">
        <ele>686</ele>
        <time>2025-11-26T18:41:24Z</time>
      </trkpt>
      <trkpt lat="42.92885" lon="0.90334">
        <ele>685</ele>
        <time>2025-11-26T18:41:28Z</time>
      </trkpt>
      <trkpt lat="42.92888" lon="0.90353">
        <ele>684</ele>
        <time>2025-11-26T18:41:30Z</time>
      </trkpt>
      <trkpt lat="42.92892" lon="0.90367">
        <ele>683</ele>
        <time>2025-11-26T18:41:32Z</time>
      </trkpt>
      <trkpt lat="42.92897" lon="0.90379">
        <ele>682</ele>
        <time>2025-11-26T18:41:34Z</time>
      </trkpt>
      <trkpt lat="42.92905" lon="0.90392">
        <ele>679</ele>
        <time>2025-11-26T18:41:36Z</time>
      </trkpt>
      <trkpt lat="42.92917" lon="0.90407">
        <ele>674</ele>
        <time>2025-11-26T18:41:39Z</time>
      </trkpt>
      <trkpt lat="42.92927" lon="0.90417">
        <ele>674</ele>
        <time>2025-11-26T18:41:41Z</time>
      </trkpt>
      <trkpt lat="42.92962" lon="0.90447">
        <ele>677</ele>
        <time>2025-11-26T18:41:49Z</time>
      </trkpt>
      <trkpt lat="42.93002" lon="0.90489">
        <ele>677</ele>
        <time>2025-11-26T18:41:57Z</time>
      </trkpt>
      <trkpt lat="42.93009" lon="0.90499">
        <ele>678</ele>
        <time>2025-11-26T18:41:59Z</time>
      </trkpt>
      <trkpt lat="42.93011" lon="0.90507">
        <ele>679</ele>
        <time>2025-11-26T18:42:00Z</time>
      </trkpt>
      <trkpt lat="42.93011" lon="0.90517">
        <ele>680</ele>
        <time>2025-11-26T18:42:02Z</time>
      </trkpt>
      <trkpt lat="42.9301" lon="0.90528">
        <ele>681</ele>
        <time>2025-11-26T18:42:03Z</time>
      </trkpt>
      <trkpt lat="42.93002" lon="0.90544">
        <ele>681</ele>
        <time>2025-11-26T18:42:06Z</time>
      </trkpt>
      <trkpt lat="42.92979" lon="0.90584">
        <ele>680</ele>
        <time>2025-11-26T18:42:12Z</time>
      </trkpt>
      <trkpt lat="42.92951" lon="0.90625">
        <ele>677</ele>
        <time>2025-11-26T18:42:20Z</time>
      </trkpt>
      <trkpt lat="42.92941" lon="0.90643">
        <ele>675</ele>
        <time>2025-11-26T18:42:23Z</time>
      </trkpt>
      <trkpt lat="42.92937" lon="0.9066">
        <ele>675</ele>
        <time>2025-11-26T18:42:25Z</time>
      </trkpt>
      <trkpt lat="42.92933" lon="0.90676">
        <ele>673</ele>
        <time>2025-11-26T18:42:27Z</time>
      </trkpt>
      <trkpt lat="42.92932" lon="0.90693">
        <ele>672</ele>
        <time>2025-11-26T18:42:29Z</time>
      </trkpt>
      <trkpt lat="42.92934" lon="0.9071">
        <ele>672</ele>
        <time>2025-11-26T18:42:32Z</time>
      </trkpt>
      <trkpt lat="42.92937" lon="0.90727">
        <ele>672</ele>
        <time>2025-11-26T18:42:34Z</time>
      </trkpt>
      <trkpt lat="42.92944" lon="0.90746">
        <ele>674</ele>
        <time>2025-11-26T18:42:37Z</time>
      </trkpt>
      <trkpt lat="42.92951" lon="0.90758">
        <ele>676</ele>
        <time>2025-11-26T18:42:39Z</time>
      </trkpt>
      <trkpt lat="42.92964" lon="0.90775">
        <ele>679</ele>
        <time>2025-11-26T18:42:42Z</time>
      </trkpt>
      <trkpt lat="42.92969" lon="0.90783">
        <ele>680</ele>
        <time>2025-11-26T18:42:43Z</time>
      </trkpt>
      <trkpt lat="42.92971" lon="0.90791">
        <ele>680</ele>
        <time>2025-11-26T18:42:44Z</time>
      </trkpt>
      <trkpt lat="42.92971" lon="0.90803">
        <ele>679</ele>
        <time>2025-11-26T18:42:46Z</time>
      </trkpt>
      <trkpt lat="42.92969" lon="0.90821">
        <ele>677</ele>
        <time>2025-11-26T18:42:48Z</time>
      </trkpt>
      <trkpt lat="42.92962" lon="0.90851">
        <ele>675</ele>
        <time>2025-11-26T18:42:52Z</time>
      </trkpt>
      <trkpt lat="42.92946" lon="0.90899">
        <ele>675</ele>
        <time>2025-11-26T18:42:59Z</time>
      </trkpt>
      <trkpt lat="42.92918" lon="0.90964">
        <ele>674</ele>
        <time>2025-11-26T18:43:09Z</time>
      </trkpt>
      <trkpt lat="42.92886" lon="0.91025">
        <ele>672</ele>
        <time>2025-11-26T18:43:19Z</time>
      </trkpt>
      <trkpt lat="42.92882" lon="0.91041">
        <ele>671</ele>
        <time>2025-11-26T18:43:21Z</time>
      </trkpt>
      <trkpt lat="42.92881" lon="0.91058">
        <ele>671</ele>
        <time>2025-11-26T18:43:23Z</time>
      </trkpt>
      <trkpt lat="42.92883" lon="0.9108">
        <ele>672</ele>
        <time>2025-11-26T18:43:26Z</time>
      </trkpt>
      <trkpt lat="42.92889" lon="0.91107">
        <ele>673</ele>
        <time>2025-11-26T18:43:30Z</time>
      </trkpt>
      <trkpt lat="42.92893" lon="0.9114">
        <ele>672</ele>
        <time>2025-11-26T18:43:34Z</time>
      </trkpt>
      <trkpt lat="42.92899" lon="0.91227">
        <ele>668</ele>
        <time>2025-11-26T18:43:45Z</time>
      </trkpt>
      <trkpt lat="42.92904" lon="0.91247">
        <ele>667</ele>
        <time>2025-11-26T18:43:48Z</time>
      </trkpt>
      <trkpt lat="42.92916" lon="0.9128">
        <ele>665</ele>
        <time>2025-11-26T18:43:53Z</time>
      </trkpt>
      <trkpt lat="42.92921" lon="0.91297">
        <ele>666</ele>
        <time>2025-11-26T18:43:55Z</time>
      </trkpt>
      <trkpt lat="42.92924" lon="0.91316">
        <ele>665</ele>
        <time>2025-11-26T18:43:58Z</time>
      </trkpt>
      <trkpt lat="42.92926" lon="0.91336">
        <ele>664</ele>
        <time>2025-11-26T18:44:01Z</time>
      </trkpt>
      <trkpt lat="42.92925" lon="0.91429">
        <ele>656</ele>
        <time>2025-11-26T18:44:13Z</time>
      </trkpt>
      <trkpt lat="42.92927" lon="0.91445">
        <ele>655</ele>
        <time>2025-11-26T18:44:15Z</time>
      </trkpt>
      <trkpt lat="42.92932" lon="0.91464">
        <ele>654</ele>
        <time>2025-11-26T18:44:17Z</time>
      </trkpt>
      <trkpt lat="42.92938" lon="0.91477">
        <ele>653</ele>
        <time>2025-11-26T18:44:19Z</time>
      </trkpt>
      <trkpt lat="42.92973" lon="0.91527">
        <ele>652</ele>
        <time>2025-11-26T18:44:28Z</time>
      </trkpt>
      <trkpt lat="42.92984" lon="0.91542">
        <ele>651</ele>
        <time>2025-11-26T18:44:31Z</time>
      </trkpt>
      <trkpt lat="42.92992" lon="0.91551">
        <ele>650</ele>
        <time>2025-11-26T18:44:33Z</time>
      </trkpt>
      <trkpt lat="42.93002" lon="0.91558">
        <ele>649</ele>
        <time>2025-11-26T18:44:35Z</time>
      </trkpt>
      <trkpt lat="42.93018" lon="0.91567">
        <ele>647</ele>
        <time>2025-11-26T18:44:38Z</time>
      </trkpt>
      <trkpt lat="42.93034" lon="0.91572">
        <ele>646</ele>
        <time>2025-11-26T18:44:41Z</time>
      </trkpt>
      <trkpt lat="42.93096" lon="0.91583">
        <ele>641</ele>
        <time>2025-11-26T18:44:52Z</time>
      </trkpt>
      <trkpt lat="42.93122" lon="0.91591">
        <ele>641</ele>
        <time>2025-11-26T18:44:57Z</time>
      </trkpt>
      <trkpt lat="42.93162" lon="0.91606">
        <ele>640</ele>
        <time>2025-11-26T18:45:04Z</time>
      </trkpt>
      <trkpt lat="42.93172" lon="0.91612">
        <ele>641</ele>
        <time>2025-11-26T18:45:06Z</time>
      </trkpt>
      <trkpt lat="42.93186" lon="0.91624">
        <ele>646</ele>
        <time>2025-11-26T18:45:09Z</time>
      </trkpt>
      <trkpt lat="42.93195" lon="0.91634">
        <ele>648</ele>
        <time>2025-11-26T18:45:11Z</time>
      </trkpt>
      <trkpt lat="42.93202" lon="0.91645">
        <ele>649</ele>
        <time>2025-11-26T18:45:13Z</time>
      </trkpt>
      <trkpt lat="42.93208" lon="0.91656">
        <ele>650</ele>
        <time>2025-11-26T18:45:15Z</time>
      </trkpt>
      <trkpt lat="42.93212" lon="0.91668">
        <ele>651</ele>
        <time>2025-11-26T18:45:17Z</time>
      </trkpt>
      <trkpt lat="42.93215" lon="0.91681">
        <ele>651</ele>
        <time>2025-11-26T18:45:18Z</time>
      </trkpt>
      <trkpt lat="42.93216" lon="0.91697">
        <ele>651</ele>
        <time>2025-11-26T18:45:21Z</time>
      </trkpt>
      <trkpt lat="42.93211" lon="0.91762">
        <ele>646</ele>
        <time>2025-11-26T18:45:29Z</time>
      </trkpt>
      <trkpt lat="42.93211" lon="0.91784">
        <ele>645</ele>
        <time>2025-11-26T18:45:32Z</time>
      </trkpt>
      <trkpt lat="42.93213" lon="0.9181">
        <ele>644</ele>
        <time>2025-11-26T18:45:35Z</time>
      </trkpt>
      <trkpt lat="42.93216" lon="0.91829">
        <ele>643</ele>
        <time>2025-11-26T18:45:38Z</time>
      </trkpt>
      <trkpt lat="42.93235" lon="0.9192">
        <ele>642</ele>
        <time>2025-11-26T18:45:50Z</time>
      </trkpt>
      <trkpt lat="42.9324" lon="0.91938">
        <ele>642</ele>
        <time>2025-11-26T18:45:53Z</time>
      </trkpt>
      <trkpt lat="42.9326" lon="0.92009">
        <ele>643</ele>
        <time>2025-11-26T18:46:03Z</time>
      </trkpt>
      <trkpt lat="42.93265" lon="0.92028">
        <ele>644</ele>
        <time>2025-11-26T18:46:05Z</time>
      </trkpt>
      <trkpt lat="42.93266" lon="0.92045">
        <ele>643</ele>
        <time>2025-11-26T18:46:07Z</time>
      </trkpt>
      <trkpt lat="42.93267" lon="0.92076">
        <ele>641</ele>
        <time>2025-11-26T18:46:11Z</time>
      </trkpt>
      <trkpt lat="42.93265" lon="0.92124">
        <ele>639</ele>
        <time>2025-11-26T18:46:18Z</time>
      </trkpt>
      <trkpt lat="42.93262" lon="0.92176">
        <ele>636</ele>
        <time>2025-11-26T18:46:25Z</time>
      </trkpt>
      <trkpt lat="42.93258" lon="0.92203">
        <ele>636</ele>
        <time>2025-11-26T18:46:28Z</time>
      </trkpt>
      <trkpt lat="42.93246" lon="0.92275">
        <ele>634</ele>
        <time>2025-11-26T18:46:38Z</time>
      </trkpt>
      <trkpt lat="42.93238" lon="0.92311">
        <ele>634</ele>
        <time>2025-11-26T18:46:43Z</time>
      </trkpt>
      <trkpt lat="42.93226" lon="0.92355">
        <ele>634</ele>
        <time>2025-11-26T18:46:49Z</time>
      </trkpt>
      <trkpt lat="42.93221" lon="0.92383">
        <ele>636</ele>
        <time>2025-11-26T18:46:53Z</time>
      </trkpt>
      <trkpt lat="42.93199" lon="0.9253">
        <ele>643</ele>
        <time>2025-11-26T18:47:12Z</time>
      </trkpt>
      <trkpt lat="42.93181" lon="0.92667">
        <ele>640</ele>
        <time>2025-11-26T18:47:30Z</time>
      </trkpt>
      <trkpt lat="42.93183" lon="0.92683">
        <ele>641</ele>
        <time>2025-11-26T18:47:32Z</time>
      </trkpt>
      <trkpt lat="42.93186" lon="0.92696">
        <ele>642</ele>
        <time>2025-11-26T18:47:34Z</time>
      </trkpt>
      <trkpt lat="42.9319" lon="0.92709">
        <ele>643</ele>
        <time>2025-11-26T18:47:36Z</time>
      </trkpt>
      <trkpt lat="42.93199" lon="0.92728">
        <ele>645</ele>
        <time>2025-11-26T18:47:39Z</time>
      </trkpt>
      <trkpt lat="42.93203" lon="0.92739">
        <ele>646</ele>
        <time>2025-11-26T18:47:40Z</time>
      </trkpt>
      <trkpt lat="42.93203" lon="0.92747">
        <ele>646</ele>
        <time>2025-11-26T18:47:42Z</time>
      </trkpt>
      <trkpt lat="42.93202" lon="0.92755">
        <ele>646</ele>
        <time>2025-11-26T18:47:43Z</time>
      </trkpt>
      <trkpt lat="42.93197" lon="0.92766">
        <ele>646</ele>
        <time>2025-11-26T18:47:44Z</time>
      </trkpt>
      <trkpt lat="42.93194" lon="0.92772">
        <ele>647</ele>
        <time>2025-11-26T18:47:45Z</time>
      </trkpt>
      <trkpt lat="42.93159" lon="0.9281">
        <ele>646</ele>
        <time>2025-11-26T18:47:53Z</time>
      </trkpt>
      <trkpt lat="42.93135" lon="0.92834">
        <ele>646</ele>
        <time>2025-11-26T18:47:58Z</time>
      </trkpt>
      <trkpt lat="42.93117" lon="0.9285">
        <ele>646</ele>
        <time>2025-11-26T18:48:02Z</time>
      </trkpt>
      <trkpt lat="42.93105" lon="0.92857">
        <ele>645</ele>
        <time>2025-11-26T18:48:05Z</time>
      </trkpt>
      <trkpt lat="42.93083" lon="0.92863">
        <ele>643</ele>
        <time>2025-11-26T18:48:09Z</time>
      </trkpt>
      <trkpt lat="42.93059" lon="0.92866">
        <ele>642</ele>
        <time>2025-11-26T18:48:13Z</time>
      </trkpt>
      <trkpt lat="42.93044" lon="0.9287">
        <ele>642</ele>
        <time>2025-11-26T18:48:16Z</time>
      </trkpt>
      <trkpt lat="42.93027" lon="0.92879">
        <ele>642</ele>
        <time>2025-11-26T18:48:19Z</time>
      </trkpt>
      <trkpt lat="42.9301" lon="0.92889">
        <ele>643</ele>
        <time>2025-11-26T18:48:22Z</time>
      </trkpt>
      <trkpt lat="42.92995" lon="0.92902">
        <ele>643</ele>
        <time>2025-11-26T18:48:25Z</time>
      </trkpt>
      <trkpt lat="42.92985" lon="0.92917">
        <ele>644</ele>
        <time>2025-11-26T18:48:28Z</time>
      </trkpt>
      <trkpt lat="42.9298" lon="0.92931">
        <ele>644</ele>
        <time>2025-11-26T18:48:30Z</time>
      </trkpt>
      <trkpt lat="42.92976" lon="0.92953">
        <ele>644</ele>
        <time>2025-11-26T18:48:33Z</time>
      </trkpt>
      <trkpt lat="42.92976" lon="0.92972">
        <ele>644</ele>
        <time>2025-11-26T18:48:35Z</time>
      </trkpt>
      <trkpt lat="42.92982" lon="0.93002">
        <ele>646</ele>
        <time>2025-11-26T18:48:39Z</time>
      </trkpt>
      <trkpt lat="42.92993" lon="0.93027">
        <ele>648</ele>
        <time>2025-11-26T18:48:43Z</time>
      </trkpt>
      <trkpt lat="42.93038" lon="0.93102">
        <ele>651</ele>
        <time>2025-11-26T18:48:56Z</time>
      </trkpt>
      <trkpt lat="42.93082" lon="0.93178">
        <ele>650</ele>
        <time>2025-11-26T18:49:09Z</time>
      </trkpt>
      <trkpt lat="42.931" lon="0.93205">
        <ele>650</ele>
        <time>2025-11-26T18:49:13Z</time>
      </trkpt>
      <trkpt lat="42.93132" lon="0.93244">
        <ele>650</ele>
        <time>2025-11-26T18:49:21Z</time>
      </trkpt>
      <trkpt lat="42.93208" lon="0.93323">
        <ele>650</ele>
        <time>2025-11-26T18:49:38Z</time>
      </trkpt>
      <trkpt lat="42.93222" lon="0.93339">
        <ele>650</ele>
        <time>2025-11-26T18:49:41Z</time>
      </trkpt>
      <trkpt lat="42.93228" lon="0.9335">
        <ele>650</ele>
        <time>2025-11-26T18:49:43Z</time>
      </trkpt>
      <trkpt lat="42.9327" lon="0.93434">
        <ele>651</ele>
        <time>2025-11-26T18:49:56Z</time>
      </trkpt>
      <trkpt lat="42.933" lon="0.93491">
        <ele>653</ele>
        <time>2025-11-26T18:50:05Z</time>
      </trkpt>
      <trkpt lat="42.93309" lon="0.9351">
        <ele>654</ele>
        <time>2025-11-26T18:50:08Z</time>
      </trkpt>
      <trkpt lat="42.93346" lon="0.93578">
        <ele>655</ele>
        <time>2025-11-26T18:50:19Z</time>
      </trkpt>
      <trkpt lat="42.93404" lon="0.93694">
        <ele>656</ele>
        <time>2025-11-26T18:50:38Z</time>
      </trkpt>
      <trkpt lat="42.93408" lon="0.93711">
        <ele>656</ele>
        <time>2025-11-26T18:50:40Z</time>
      </trkpt>
      <trkpt lat="42.93413" lon="0.93752">
        <ele>655</ele>
        <time>2025-11-26T18:50:45Z</time>
      </trkpt>
      <trkpt lat="42.93414" lon="0.93775">
        <ele>654</ele>
        <time>2025-11-26T18:50:48Z</time>
      </trkpt>
      <trkpt lat="42.93416" lon="0.93794">
        <ele>654</ele>
        <time>2025-11-26T18:50:51Z</time>
      </trkpt>
      <trkpt lat="42.93416" lon="0.93808">
        <ele>653</ele>
        <time>2025-11-26T18:50:53Z</time>
      </trkpt>
      <trkpt lat="42.93419" lon="0.93833">
        <ele>652</ele>
        <time>2025-11-26T18:50:56Z</time>
      </trkpt>
      <trkpt lat="42.93423" lon="0.93904">
        <ele>648</ele>
        <time>2025-11-26T18:51:05Z</time>
      </trkpt>
      <trkpt lat="42.93427" lon="0.93959">
        <ele>645</ele>
        <time>2025-11-26T18:51:12Z</time>
      </trkpt>
      <trkpt lat="42.93432" lon="0.93987">
        <ele>644</ele>
        <time>2025-11-26T18:51:16Z</time>
      </trkpt>
      <trkpt lat="42.93439" lon="0.94012">
        <ele>643</ele>
        <time>2025-11-26T18:51:20Z</time>
      </trkpt>
      <trkpt lat="42.93449" lon="0.94043">
        <ele>642</ele>
        <time>2025-11-26T18:51:24Z</time>
      </trkpt>
      <trkpt lat="42.93461" lon="0.94074">
        <ele>642</ele>
        <time>2025-11-26T18:51:29Z</time>
      </trkpt>
      <trkpt lat="42.93477" lon="0.94107">
        <ele>639</ele>
        <time>2025-11-26T18:51:34Z</time>
      </trkpt>
      <trkpt lat="42.93484" lon="0.94118">
        <ele>638</ele>
        <time>2025-11-26T18:51:36Z</time>
      </trkpt>
      <trkpt lat="42.93493" lon="0.94126">
        <ele>637</ele>
        <time>2025-11-26T18:51:38Z</time>
      </trkpt>
      <trkpt lat="42.93505" lon="0.94132">
        <ele>637</ele>
        <time>2025-11-26T18:51:40Z</time>
      </trkpt>
      <trkpt lat="42.93562" lon="0.94136">
        <ele>638</ele>
        <time>2025-11-26T18:51:50Z</time>
      </trkpt>
      <trkpt lat="42.93589" lon="0.9413">
        <ele>641</ele>
        <time>2025-11-26T18:51:55Z</time>
      </trkpt>
      <trkpt lat="42.93603" lon="0.94134">
        <ele>641</ele>
        <time>2025-11-26T18:51:57Z</time>
      </trkpt>
      <trkpt lat="42.93608" lon="0.9414">
        <ele>640</ele>
        <time>2025-11-26T18:51:59Z</time>
      </trkpt>
      <trkpt lat="42.93614" lon="0.94156">
        <ele>637</ele>
        <time>2025-11-26T18:52:01Z</time>
      </trkpt>
      <trkpt lat="42.93615" lon="0.94163">
        <ele>635</ele>
        <time>2025-11-26T18:52:02Z</time>
      </trkpt>
      <trkpt lat="42.93613" lon="0.9418">
        <ele>635</ele>
        <time>2025-11-26T18:52:04Z</time>
      </trkpt>
      <trkpt lat="42.93591" lon="0.94231">
        <ele>630</ele>
        <time>2025-11-26T18:52:12Z</time>
      </trkpt>
      <trkpt lat="42.9358" lon="0.94255">
        <ele>627</ele>
        <time>2025-11-26T18:52:16Z</time>
      </trkpt>
      <trkpt lat="42.93534" lon="0.94356">
        <ele>626</ele>
        <time>2025-11-26T18:52:31Z</time>
      </trkpt>
      <trkpt lat="42.93526" lon="0.94378">
        <ele>624</ele>
        <time>2025-11-26T18:52:34Z</time>
      </trkpt>
      <trkpt lat="42.93522" lon="0.94402">
        <ele>624</ele>
        <time>2025-11-26T18:52:37Z</time>
      </trkpt>
      <trkpt lat="42.93521" lon="0.94413">
        <ele>623</ele>
        <time>2025-11-26T18:52:39Z</time>
      </trkpt>
      <trkpt lat="42.93521" lon="0.94426">
        <ele>623</ele>
        <time>2025-11-26T18:52:41Z</time>
      </trkpt>
      <trkpt lat="42.93522" lon="0.94445">
        <ele>623</ele>
        <time>2025-11-26T18:52:43Z</time>
      </trkpt>
      <trkpt lat="42.93527" lon="0.94491">
        <ele>623</ele>
        <time>2025-11-26T18:52:49Z</time>
      </trkpt>
      <trkpt lat="42.93529" lon="0.94499">
        <ele>623</ele>
        <time>2025-11-26T18:52:50Z</time>
      </trkpt>
      <trkpt lat="42.93532" lon="0.94546">
        <ele>620</ele>
        <time>2025-11-26T18:52:56Z</time>
      </trkpt>
      <trkpt lat="42.93537" lon="0.94582">
        <ele>618</ele>
        <time>2025-11-26T18:53:01Z</time>
      </trkpt>
      <trkpt lat="42.93547" lon="0.94615">
        <ele>615</ele>
        <time>2025-11-26T18:53:06Z</time>
      </trkpt>
      <trkpt lat="42.93559" lon="0.94643">
        <ele>612</ele>
        <time>2025-11-26T18:53:10Z</time>
      </trkpt>
      <trkpt lat="42.93572" lon="0.94665">
        <ele>610</ele>
        <time>2025-11-26T18:53:14Z</time>
      </trkpt>
      <trkpt lat="42.93585" lon="0.94682">
        <ele>609</ele>
        <time>2025-11-26T18:53:17Z</time>
      </trkpt>
      <trkpt lat="42.93603" lon="0.94699">
        <ele>610</ele>
        <time>2025-11-26T18:53:21Z</time>
      </trkpt>
      <trkpt lat="42.9369" lon="0.94768">
        <ele>614</ele>
        <time>2025-11-26T18:53:39Z</time>
      </trkpt>
      <trkpt lat="42.93702" lon="0.94784">
        <ele>616</ele>
        <time>2025-11-26T18:53:42Z</time>
      </trkpt>
      <trkpt lat="42.9371" lon="0.94801">
        <ele>615</ele>
        <time>2025-11-26T18:53:44Z</time>
      </trkpt>
      <trkpt lat="42.93717" lon="0.94834">
        <ele>612</ele>
        <time>2025-11-26T18:53:49Z</time>
      </trkpt>
      <trkpt lat="42.93737" lon="0.94953">
        <ele>606</ele>
        <time>2025-11-26T18:54:05Z</time>
      </trkpt>
      <trkpt lat="42.93742" lon="0.94994">
        <ele>603</ele>
        <time>2025-11-26T18:54:10Z</time>
      </trkpt>
      <trkpt lat="42.93743" lon="0.95025">
        <ele>600</ele>
        <time>2025-11-26T18:54:14Z</time>
      </trkpt>
      <trkpt lat="42.93742" lon="0.95078">
        <ele>596</ele>
        <time>2025-11-26T18:54:21Z</time>
      </trkpt>
      <trkpt lat="42.93743" lon="0.95096">
        <ele>595</ele>
        <time>2025-11-26T18:54:23Z</time>
      </trkpt>
      <trkpt lat="42.93746" lon="0.95112">
        <ele>594</ele>
        <time>2025-11-26T18:54:26Z</time>
      </trkpt>
      <trkpt lat="42.93751" lon="0.95124">
        <ele>594</ele>
        <time>2025-11-26T18:54:27Z</time>
      </trkpt>
      <trkpt lat="42.93757" lon="0.95137">
        <ele>596</ele>
        <time>2025-11-26T18:54:29Z</time>
      </trkpt>
      <trkpt lat="42.93772" lon="0.95167">
        <ele>600</ele>
        <time>2025-11-26T18:54:34Z</time>
      </trkpt>
      <trkpt lat="42.93782" lon="0.95191">
        <ele>602</ele>
        <time>2025-11-26T18:54:38Z</time>
      </trkpt>
      <trkpt lat="42.93788" lon="0.95212">
        <ele>603</ele>
        <time>2025-11-26T18:54:41Z</time>
      </trkpt>
      <trkpt lat="42.93791" lon="0.95229">
        <ele>602</ele>
        <time>2025-11-26T18:54:43Z</time>
      </trkpt>
      <trkpt lat="42.93793" lon="0.95247">
        <ele>601</ele>
        <time>2025-11-26T18:54:45Z</time>
      </trkpt>
      <trkpt lat="42.93794" lon="0.95264">
        <ele>600</ele>
        <time>2025-11-26T18:54:48Z</time>
      </trkpt>
      <trkpt lat="42.93793" lon="0.95283">
        <ele>599</ele>
        <time>2025-11-26T18:54:50Z</time>
      </trkpt>
      <trkpt lat="42.9379" lon="0.95299">
        <ele>597</ele>
        <time>2025-11-26T18:54:52Z</time>
      </trkpt>
      <trkpt lat="42.93786" lon="0.95311">
        <ele>595</ele>
        <time>2025-11-26T18:54:54Z</time>
      </trkpt>
      <trkpt lat="42.93783" lon="0.95321">
        <ele>594</ele>
        <time>2025-11-26T18:54:55Z</time>
      </trkpt>
      <trkpt lat="42.93777" lon="0.95331">
        <ele>591</ele>
        <time>2025-11-26T18:54:57Z</time>
      </trkpt>
      <trkpt lat="42.93751" lon="0.9537">
        <ele>589</ele>
        <time>2025-11-26T18:55:04Z</time>
      </trkpt>
      <trkpt lat="42.93732" lon="0.954">
        <ele>591</ele>
        <time>2025-11-26T18:55:09Z</time>
      </trkpt>
      <trkpt lat="42.93673" lon="0.95513">
        <ele>585</ele>
        <time>2025-11-26T18:55:27Z</time>
      </trkpt>
      <trkpt lat="42.93666" lon="0.95533">
        <ele>584</ele>
        <time>2025-11-26T18:55:30Z</time>
      </trkpt>
      <trkpt lat="42.93663" lon="0.95552">
        <ele>585</ele>
        <time>2025-11-26T18:55:33Z</time>
      </trkpt>
      <trkpt lat="42.93661" lon="0.95576">
        <ele>586</ele>
        <time>2025-11-26T18:55:36Z</time>
      </trkpt>
      <trkpt lat="42.93663" lon="0.95594">
        <ele>586</ele>
        <time>2025-11-26T18:55:38Z</time>
      </trkpt>
      <trkpt lat="42.93669" lon="0.95616">
        <ele>585</ele>
        <time>2025-11-26T18:55:41Z</time>
      </trkpt>
      <trkpt lat="42.93678" lon="0.95636">
        <ele>587</ele>
        <time>2025-11-26T18:55:44Z</time>
      </trkpt>
      <trkpt lat="42.93713" lon="0.957">
        <ele>595</ele>
        <time>2025-11-26T18:55:55Z</time>
      </trkpt>
      <trkpt lat="42.93719" lon="0.95719">
        <ele>596</ele>
        <time>2025-11-26T18:55:57Z</time>
      </trkpt>
      <trkpt lat="42.93723" lon="0.95741">
        <ele>596</ele>
        <time>2025-11-26T18:56:00Z</time>
      </trkpt>
      <trkpt lat="42.93726" lon="0.95769">
        <ele>596</ele>
        <time>2025-11-26T18:56:04Z</time>
      </trkpt>
      <trkpt lat="42.93726" lon="0.95813">
        <ele>595</ele>
        <time>2025-11-26T18:56:10Z</time>
      </trkpt>
      <trkpt lat="42.9372" lon="0.95882">
        <ele>590</ele>
        <time>2025-11-26T18:56:19Z</time>
      </trkpt>
      <trkpt lat="42.93718" lon="0.95936">
        <ele>587</ele>
        <time>2025-11-26T18:56:26Z</time>
      </trkpt>
      <trkpt lat="42.93717" lon="0.9615">
        <ele>577</ele>
        <time>2025-11-26T18:56:54Z</time>
      </trkpt>
      <trkpt lat="42.93715" lon="0.9617">
        <ele>576</ele>
        <time>2025-11-26T18:56:56Z</time>
      </trkpt>
      <trkpt lat="42.93711" lon="0.96185">
        <ele>575</ele>
        <time>2025-11-26T18:56:58Z</time>
      </trkpt>
      <trkpt lat="42.93702" lon="0.9621">
        <ele>574</ele>
        <time>2025-11-26T18:57:02Z</time>
      </trkpt>
      <trkpt lat="42.93693" lon="0.96226">
        <ele>572</ele>
        <time>2025-11-26T18:57:05Z</time>
      </trkpt>
      <trkpt lat="42.93683" lon="0.9624">
        <ele>570</ele>
        <time>2025-11-26T18:57:07Z</time>
      </trkpt>
      <trkpt lat="42.9367" lon="0.96252">
        <ele>568</ele>
        <time>2025-11-26T18:57:10Z</time>
      </trkpt>
      <trkpt lat="42.93647" lon="0.96268">
        <ele>569</ele>
        <time>2025-11-26T18:57:14Z</time>
      </trkpt>
      <trkpt lat="42.93622" lon="0.96283">
        <ele>572</ele>
        <time>2025-11-26T18:57:19Z</time>
      </trkpt>
      <trkpt lat="42.93617" lon="0.96289">
        <ele>573</ele>
        <time>2025-11-26T18:57:21Z</time>
      </trkpt>
      <trkpt lat="42.93615" lon="0.96293">
        <ele>573</ele>
        <time>2025-11-26T18:57:21Z</time>
      </trkpt>
      <trkpt lat="42.93615" lon="0.96297">
        <ele>573</ele>
        <time>2025-11-26T18:57:22Z</time>
      </trkpt>
      <trkpt lat="42.93618" lon="0.96306">
        <ele>573</ele>
        <time>2025-11-26T18:57:23Z</time>
      </trkpt>
      <trkpt lat="42.93632" lon="0.96319">
        <ele>571</ele>
        <time>2025-11-26T18:57:26Z</time>
      </trkpt>
      <trkpt lat="42.9365" lon="0.96345">
        <ele>569</ele>
        <time>2025-11-26T18:57:31Z</time>
      </trkpt>
      <trkpt lat="42.93662" lon="0.96371">
        <ele>568</ele>
        <time>2025-11-26T18:57:35Z</time>
      </trkpt>
      <trkpt lat="42.93668" lon="0.96391">
        <ele>567</ele>
        <time>2025-11-26T18:57:37Z</time>
      </trkpt>
      <trkpt lat="42.93675" lon="0.96423">
        <ele>567</ele>
        <time>2025-11-26T18:57:42Z</time>
      </trkpt>
      <trkpt lat="42.93687" lon="0.96485">
        <ele>568</ele>
        <time>2025-11-26T18:57:50Z</time>
      </trkpt>
      <trkpt lat="42.93692" lon="0.96529">
        <ele>567</ele>
        <time>2025-11-26T18:57:56Z</time>
      </trkpt>
      <trkpt lat="42.93696" lon="0.96581">
        <ele>567</ele>
        <time>2025-11-26T18:58:03Z</time>
      </trkpt>
      <trkpt lat="42.93696" lon="0.96614">
        <ele>568</ele>
        <time>2025-11-26T18:58:07Z</time>
      </trkpt>
      <trkpt lat="42.93702" lon="0.96685">
        <ele>568</ele>
        <time>2025-11-26T18:58:16Z</time>
      </trkpt>
      <trkpt lat="42.93703" lon="0.96724">
        <ele>568</ele>
        <time>2025-11-26T18:58:21Z</time>
      </trkpt>
      <trkpt lat="42.93703" lon="0.96745">
        <ele>568</ele>
        <time>2025-11-26T18:58:24Z</time>
      </trkpt>
      <trkpt lat="42.93696" lon="0.96788">
        <ele>566</ele>
        <time>2025-11-26T18:58:30Z</time>
      </trkpt>
      <trkpt lat="42.9365" lon="0.97011">
        <ele>557</ele>
        <time>2025-11-26T18:59:00Z</time>
      </trkpt>
      <trkpt lat="42.93593" lon="0.97296">
        <ele>553</ele>
        <time>2025-11-26T18:59:39Z</time>
      </trkpt>
      <trkpt lat="42.93589" lon="0.97318">
        <ele>553</ele>
        <time>2025-11-26T18:59:42Z</time>
      </trkpt>
      <trkpt lat="42.93576" lon="0.9738">
        <ele>553</ele>
        <time>2025-11-26T18:59:50Z</time>
      </trkpt>
      <trkpt lat="42.93572" lon="0.97404">
        <ele>553</ele>
        <time>2025-11-26T18:59:53Z</time>
      </trkpt>
      <trkpt lat="42.9357" lon="0.97408">
        <ele>553</ele>
        <time>2025-11-26T18:59:54Z</time>
      </trkpt>
      <trkpt lat="42.93569" lon="0.97416">
        <ele>553</ele>
        <time>2025-11-26T18:59:55Z</time>
      </trkpt>
      <trkpt lat="42.93567" lon="0.97423">
        <ele>553</ele>
        <time>2025-11-26T18:59:56Z</time>
      </trkpt>
      <trkpt lat="42.93566" lon="0.97429">
        <ele>553</ele>
        <time>2025-11-26T18:59:57Z</time>
      </trkpt>
      <trkpt lat="42.93564" lon="0.9744">
        <ele>553</ele>
        <time>2025-11-26T18:59:58Z</time>
      </trkpt>
      <trkpt lat="42.93547" lon="0.97503">
        <ele>554</ele>
        <time>2025-11-26T19:00:07Z</time>
      </trkpt>
      <trkpt lat="42.93517" lon="0.97608">
        <ele>557</ele>
        <time>2025-11-26T19:00:22Z</time>
      </trkpt>
      <trkpt lat="42.93514" lon="0.97618">
        <ele>557</ele>
        <time>2025-11-26T19:00:23Z</time>
      </trkpt>
      <trkpt lat="42.93509" lon="0.97627">
        <ele>558</ele>
        <time>2025-11-26T19:00:24Z</time>
      </trkpt>
      <trkpt lat="42.935" lon="0.97638">
        <ele>557</ele>
        <time>2025-11-26T19:00:27Z</time>
      </trkpt>
      <trkpt lat="42.93491" lon="0.97646">
        <ele>557</ele>
        <time>2025-11-26T19:00:28Z</time>
      </trkpt>
      <trkpt lat="42.93462" lon="0.97674">
        <ele>556</ele>
        <time>2025-11-26T19:00:35Z</time>
      </trkpt>
      <trkpt lat="42.93447" lon="0.9769">
        <ele>556</ele>
        <time>2025-11-26T19:00:38Z</time>
      </trkpt>
      <trkpt lat="42.93432" lon="0.9771">
        <ele>555</ele>
        <time>2025-11-26T19:00:42Z</time>
      </trkpt>
      <trkpt lat="42.93409" lon="0.97746">
        <ele>554</ele>
        <time>2025-11-26T19:00:48Z</time>
      </trkpt>
      <trkpt lat="42.93354" lon="0.97842">
        <ele>554</ele>
        <time>2025-11-26T19:01:04Z</time>
      </trkpt>
      <trkpt lat="42.93345" lon="0.97862">
        <ele>554</ele>
        <time>2025-11-26T19:01:07Z</time>
      </trkpt>
      <trkpt lat="42.93338" lon="0.97881">
        <ele>554</ele>
        <time>2025-11-26T19:01:10Z</time>
      </trkpt>
      <trkpt lat="42.93332" lon="0.97908">
        <ele>554</ele>
        <time>2025-11-26T19:01:14Z</time>
      </trkpt>
      <trkpt lat="42.93321" lon="0.97959">
        <ele>554</ele>
        <time>2025-11-26T19:01:20Z</time>
      </trkpt>
      <trkpt lat="42.9331" lon="0.98025">
        <ele>555</ele>
        <time>2025-11-26T19:01:29Z</time>
      </trkpt>
      <trkpt lat="42.93296" lon="0.98118">
        <ele>557</ele>
        <time>2025-11-26T19:01:42Z</time>
      </trkpt>
      <trkpt lat="42.93285" lon="0.98174">
        <ele>556</ele>
        <time>2025-11-26T19:01:49Z</time>
      </trkpt>
      <trkpt lat="42.93279" lon="0.98201">
        <ele>555</ele>
        <time>2025-11-26T19:01:53Z</time>
      </trkpt>
      <trkpt lat="42.93272" lon="0.98222">
        <ele>554</ele>
        <time>2025-11-26T19:01:56Z</time>
      </trkpt>
      <trkpt lat="42.9324" lon="0.98308">
        <ele>550</ele>
        <time>2025-11-26T19:02:08Z</time>
      </trkpt>
      <trkpt lat="42.93232" lon="0.98332">
        <ele>549</ele>
        <time>2025-11-26T19:02:12Z</time>
      </trkpt>
      <trkpt lat="42.93227" lon="0.98353">
        <ele>549</ele>
        <time>2025-11-26T19:02:15Z</time>
      </trkpt>
      <trkpt lat="42.93222" lon="0.9838">
        <ele>549</ele>
        <time>2025-11-26T19:02:18Z</time>
      </trkpt>
      <trkpt lat="42.93209" lon="0.98467">
        <ele>547</ele>
        <time>2025-11-26T19:02:30Z</time>
      </trkpt>
      <trkpt lat="42.93204" lon="0.98508">
        <ele>547</ele>
        <time>2025-11-26T19:02:35Z</time>
      </trkpt>
      <trkpt lat="42.93204" lon="0.98523">
        <ele>546</ele>
        <time>2025-11-26T19:02:37Z</time>
      </trkpt>
      <trkpt lat="42.93203" lon="0.98538">
        <ele>546</ele>
        <time>2025-11-26T19:02:39Z</time>
      </trkpt>
      <trkpt lat="42.93204" lon="0.98568">
        <ele>546</ele>
        <time>2025-11-26T19:02:43Z</time>
      </trkpt>
      <trkpt lat="42.93206" lon="0.98599">
        <ele>546</ele>
        <time>2025-11-26T19:02:47Z</time>
      </trkpt>
      <trkpt lat="42.93214" lon="0.98675">
        <ele>547</ele>
        <time>2025-11-26T19:02:57Z</time>
      </trkpt>
      <trkpt lat="42.93215" lon="0.98699">
        <ele>547</ele>
        <time>2025-11-26T19:03:00Z</time>
      </trkpt>
      <trkpt lat="42.93214" lon="0.98722">
        <ele>547</ele>
        <time>2025-11-26T19:03:03Z</time>
      </trkpt>
      <trkpt lat="42.93207" lon="0.98813">
        <ele>546</ele>
        <time>2025-11-26T19:03:15Z</time>
      </trkpt>
      <trkpt lat="42.93207" lon="0.98834">
        <ele>546</ele>
        <time>2025-11-26T19:03:18Z</time>
      </trkpt>
      <trkpt lat="42.93209" lon="0.98858">
        <ele>547</ele>
        <time>2025-11-26T19:03:21Z</time>
      </trkpt>
      <trkpt lat="42.93217" lon="0.98934">
        <ele>547</ele>
        <time>2025-11-26T19:03:31Z</time>
      </trkpt>
      <trkpt lat="42.9323" lon="0.99016">
        <ele>546</ele>
        <time>2025-11-26T19:03:42Z</time>
      </trkpt>
      <trkpt lat="42.93231" lon="0.9903">
        <ele>546</ele>
        <time>2025-11-26T19:03:44Z</time>
      </trkpt>
      <trkpt lat="42.93231" lon="0.99046">
        <ele>546</ele>
        <time>2025-11-26T19:03:46Z</time>
      </trkpt>
      <trkpt lat="42.93221" lon="0.99097">
        <ele>544</ele>
        <time>2025-11-26T19:03:53Z</time>
      </trkpt>
      <trkpt lat="42.93215" lon="0.99153">
        <ele>544</ele>
        <time>2025-11-26T19:04:00Z</time>
      </trkpt>
      <trkpt lat="42.93212" lon="0.99173">
        <ele>543</ele>
        <time>2025-11-26T19:04:03Z</time>
      </trkpt>
      <trkpt lat="42.93208" lon="0.99188">
        <ele>543</ele>
        <time>2025-11-26T19:04:05Z</time>
      </trkpt>
      <trkpt lat="42.93201" lon="0.99203">
        <ele>543</ele>
        <time>2025-11-26T19:04:07Z</time>
      </trkpt>
      <trkpt lat="42.93196" lon="0.99209">
        <ele>542</ele>
        <time>2025-11-26T19:04:09Z</time>
      </trkpt>
      <trkpt lat="42.93188" lon="0.99214">
        <ele>542</ele>
        <time>2025-11-26T19:04:10Z</time>
      </trkpt>
      <trkpt lat="42.9315" lon="0.99231">
        <ele>540</ele>
        <time>2025-11-26T19:04:17Z</time>
      </trkpt>
      <trkpt lat="42.93137" lon="0.99235">
        <ele>540</ele>
        <time>2025-11-26T19:04:20Z</time>
      </trkpt>
      <trkpt lat="42.93127" lon="0.99241">
        <ele>539</ele>
        <time>2025-11-26T19:04:22Z</time>
      </trkpt>
      <trkpt lat="42.93119" lon="0.99248">
        <ele>539</ele>
        <time>2025-11-26T19:04:23Z</time>
      </trkpt>
      <trkpt lat="42.93113" lon="0.99255">
        <ele>538</ele>
        <time>2025-11-26T19:04:25Z</time>
      </trkpt>
      <trkpt lat="42.93094" lon="0.99283">
        <ele>537</ele>
        <time>2025-11-26T19:04:30Z</time>
      </trkpt>
      <trkpt lat="42.93086" lon="0.99293">
        <ele>536</ele>
        <time>2025-11-26T19:04:32Z</time>
      </trkpt>
      <trkpt lat="42.93057" lon="0.99321">
        <ele>535</ele>
        <time>2025-11-26T19:04:38Z</time>
      </trkpt>
      <trkpt lat="42.93048" lon="0.99332">
        <ele>534</ele>
        <time>2025-11-26T19:04:40Z</time>
      </trkpt>
      <trkpt lat="42.93043" lon="0.99339">
        <ele>534</ele>
        <time>2025-11-26T19:04:41Z</time>
      </trkpt>
      <trkpt lat="42.93037" lon="0.9935">
        <ele>534</ele>
        <time>2025-11-26T19:04:43Z</time>
      </trkpt>
      <trkpt lat="42.93028" lon="0.99386">
        <ele>535</ele>
        <time>2025-11-26T19:04:48Z</time>
      </trkpt>
      <trkpt lat="42.93019" lon="0.99448">
        <ele>535</ele>
        <time>2025-11-26T19:04:56Z</time>
      </trkpt>
      <trkpt lat="42.93015" lon="0.99474">
        <ele>535</ele>
        <time>2025-11-26T19:05:00Z</time>
      </trkpt>
      <trkpt lat="42.93008" lon="0.99499">
        <ele>535</ele>
        <time>2025-11-26T19:05:03Z</time>
      </trkpt>
      <trkpt lat="42.93001" lon="0.99516">
        <ele>536</ele>
        <time>2025-11-26T19:05:06Z</time>
      </trkpt>
      <trkpt lat="42.92992" lon="0.99534">
        <ele>537</ele>
        <time>2025-11-26T19:05:09Z</time>
      </trkpt>
      <trkpt lat="42.9298" lon="0.99552">
        <ele>537</ele>
        <time>2025-11-26T19:05:12Z</time>
      </trkpt>
      <trkpt lat="42.92939" lon="0.99607">
        <ele>537</ele>
        <time>2025-11-26T19:05:22Z</time>
      </trkpt>
      <trkpt lat="42.92906" lon="0.99649">
        <ele>536</ele>
        <time>2025-11-26T19:05:30Z</time>
      </trkpt>
      <trkpt lat="42.92878" lon="0.99688">
        <ele>537</ele>
        <time>2025-11-26T19:05:37Z</time>
      </trkpt>
      <trkpt lat="42.92847" lon="0.99735">
        <ele>537</ele>
        <time>2025-11-26T19:05:45Z</time>
      </trkpt>
      <trkpt lat="42.92819" lon="0.99783">
        <ele>537</ele>
        <time>2025-11-26T19:05:53Z</time>
      </trkpt>
      <trkpt lat="42.92803" lon="0.99813">
        <ele>538</ele>
        <time>2025-11-26T19:05:58Z</time>
      </trkpt>
      <trkpt lat="42.92783" lon="0.99855">
        <ele>537</ele>
        <time>2025-11-26T19:06:05Z</time>
      </trkpt>
      <trkpt lat="42.92757" lon="0.99908">
        <ele>534</ele>
        <time>2025-11-26T19:06:13Z</time>
      </trkpt>
      <trkpt lat="42.92742" lon="0.99933">
        <ele>534</ele>
        <time>2025-11-26T19:06:17Z</time>
      </trkpt>
      <trkpt lat="42.92653" lon="1.00073">
        <ele>535</ele>
        <time>2025-11-26T19:06:41Z</time>
      </trkpt>
      <trkpt lat="42.92624" lon="1.00122">
        <ele>534</ele>
        <time>2025-11-26T19:06:50Z</time>
      </trkpt>
      <trkpt lat="42.92612" lon="1.00147">
        <ele>533</ele>
        <time>2025-11-26T19:06:53Z</time>
      </trkpt>
      <trkpt lat="42.92602" lon="1.00172">
        <ele>532</ele>
        <time>2025-11-26T19:06:57Z</time>
      </trkpt>
      <trkpt lat="42.92596" lon="1.00193">
        <ele>532</ele>
        <time>2025-11-26T19:07:00Z</time>
      </trkpt>
      <trkpt lat="42.92577" lon="1.00268">
        <ele>531</ele>
        <time>2025-11-26T19:07:10Z</time>
      </trkpt>
      <trkpt lat="42.92564" lon="1.00335">
        <ele>535</ele>
        <time>2025-11-26T19:07:20Z</time>
      </trkpt>
      <trkpt lat="42.92554" lon="1.00395">
        <ele>534</ele>
        <time>2025-11-26T19:07:28Z</time>
      </trkpt>
      <trkpt lat="42.92548" lon="1.00439">
        <ele>533</ele>
        <time>2025-11-26T19:07:33Z</time>
      </trkpt>
      <trkpt lat="42.92546" lon="1.00474">
        <ele>532</ele>
        <time>2025-11-26T19:07:38Z</time>
      </trkpt>
      <trkpt lat="42.92541" lon="1.00538">
        <ele>531</ele>
        <time>2025-11-26T19:07:46Z</time>
      </trkpt>
      <trkpt lat="42.9254" lon="1.00594">
        <ele>530</ele>
        <time>2025-11-26T19:07:54Z</time>
      </trkpt>
      <trkpt lat="42.9254" lon="1.00626">
        <ele>529</ele>
        <time>2025-11-26T19:07:58Z</time>
      </trkpt>
      <trkpt lat="42.92542" lon="1.00664">
        <ele>528</ele>
        <time>2025-11-26T19:08:03Z</time>
      </trkpt>
      <trkpt lat="42.9257" lon="1.01049">
        <ele>524</ele>
        <time>2025-11-26T19:08:53Z</time>
      </trkpt>
      <trkpt lat="42.9258" lon="1.01109">
        <ele>522</ele>
        <time>2025-11-26T19:09:01Z</time>
      </trkpt>
      <trkpt lat="42.9259" lon="1.01165">
        <ele>521</ele>
        <time>2025-11-26T19:09:09Z</time>
      </trkpt>
      <trkpt lat="42.92597" lon="1.01196">
        <ele>522</ele>
        <time>2025-11-26T19:09:13Z</time>
      </trkpt>
      <trkpt lat="42.92607" lon="1.01229">
        <ele>522</ele>
        <time>2025-11-26T19:09:18Z</time>
      </trkpt>
      <trkpt lat="42.92669" lon="1.01411">
        <ele>518</ele>
        <time>2025-11-26T19:09:44Z</time>
      </trkpt>
      <trkpt lat="42.92696" lon="1.01463">
        <ele>520</ele>
        <time>2025-11-26T19:09:52Z</time>
      </trkpt>
      <trkpt lat="42.92729" lon="1.01516">
        <ele>520</ele>
        <time>2025-11-26T19:10:01Z</time>
      </trkpt>
      <trkpt lat="42.92741" lon="1.01542">
        <ele>520</ele>
        <time>2025-11-26T19:10:05Z</time>
      </trkpt>
      <trkpt lat="42.92746" lon="1.01562">
        <ele>519</ele>
        <time>2025-11-26T19:10:08Z</time>
      </trkpt>
      <trkpt lat="42.92748" lon="1.01573">
        <ele>519</ele>
        <time>2025-11-26T19:10:09Z</time>
      </trkpt>
      <trkpt lat="42.92749" lon="1.01583">
        <ele>519</ele>
        <time>2025-11-26T19:10:11Z</time>
      </trkpt>
      <trkpt lat="42.92749" lon="1.01597">
        <ele>520</ele>
        <time>2025-11-26T19:10:12Z</time>
      </trkpt>
      <trkpt lat="42.92745" lon="1.01622">
        <ele>521</ele>
        <time>2025-11-26T19:10:16Z</time>
      </trkpt>
      <trkpt lat="42.9274" lon="1.01635">
        <ele>521</ele>
        <time>2025-11-26T19:10:18Z</time>
      </trkpt>
      <trkpt lat="42.92732" lon="1.01651">
        <ele>522</ele>
        <time>2025-11-26T19:10:20Z</time>
      </trkpt>
      <trkpt lat="42.92704" lon="1.01702">
        <ele>521</ele>
        <time>2025-11-26T19:10:29Z</time>
      </trkpt>
      <trkpt lat="42.92693" lon="1.01726">
        <ele>520</ele>
        <time>2025-11-26T19:10:32Z</time>
      </trkpt>
      <trkpt lat="42.92671" lon="1.01801">
        <ele>518</ele>
        <time>2025-11-26T19:10:43Z</time>
      </trkpt>
      <trkpt lat="42.92663" lon="1.01839">
        <ele>519</ele>
        <time>2025-11-26T19:10:48Z</time>
      </trkpt>
      <trkpt lat="42.92661" lon="1.01856">
        <ele>519</ele>
        <time>2025-11-26T19:10:50Z</time>
      </trkpt>
      <trkpt lat="42.92661" lon="1.01874">
        <ele>519</ele>
        <time>2025-11-26T19:10:52Z</time>
      </trkpt>
      <trkpt lat="42.92663" lon="1.0191">
        <ele>518</ele>
        <time>2025-11-26T19:10:57Z</time>
      </trkpt>
      <trkpt lat="42.92667" lon="1.01964">
        <ele>516</ele>
        <time>2025-11-26T19:11:04Z</time>
      </trkpt>
      <trkpt lat="42.92668" lon="1.01975">
        <ele>516</ele>
        <time>2025-11-26T19:11:06Z</time>
      </trkpt>
      <trkpt lat="42.92672" lon="1.02025">
        <ele>518</ele>
        <time>2025-11-26T19:11:12Z</time>
      </trkpt>
      <trkpt lat="42.92672" lon="1.0203">
        <ele>519</ele>
        <time>2025-11-26T19:11:13Z</time>
      </trkpt>
      <trkpt lat="42.92676" lon="1.02049">
        <ele>520</ele>
        <time>2025-11-26T19:11:15Z</time>
      </trkpt>
      <trkpt lat="42.92681" lon="1.02063">
        <ele>521</ele>
        <time>2025-11-26T19:11:18Z</time>
      </trkpt>
      <trkpt lat="42.92687" lon="1.0208">
        <ele>521</ele>
        <time>2025-11-26T19:11:20Z</time>
      </trkpt>
      <trkpt lat="42.92699" lon="1.02102">
        <ele>521</ele>
        <time>2025-11-26T19:11:24Z</time>
      </trkpt>
      <trkpt lat="42.92792" lon="1.02267">
        <ele>519</ele>
        <time>2025-11-26T19:11:51Z</time>
      </trkpt>
      <trkpt lat="42.92798" lon="1.02282">
        <ele>519</ele>
        <time>2025-11-26T19:11:53Z</time>
      </trkpt>
      <trkpt lat="42.928" lon="1.02291">
        <ele>519</ele>
        <time>2025-11-26T19:11:54Z</time>
      </trkpt>
      <trkpt lat="42.92804" lon="1.02307">
        <ele>519</ele>
        <time>2025-11-26T19:11:56Z</time>
      </trkpt>
      <trkpt lat="42.92806" lon="1.02323">
        <ele>520</ele>
        <time>2025-11-26T19:11:58Z</time>
      </trkpt>
      <trkpt lat="42.92807" lon="1.02335">
        <ele>520</ele>
        <time>2025-11-26T19:12:00Z</time>
      </trkpt>
      <trkpt lat="42.92806" lon="1.02354">
        <ele>520</ele>
        <time>2025-11-26T19:12:02Z</time>
      </trkpt>
      <trkpt lat="42.92802" lon="1.02375">
        <ele>520</ele>
        <time>2025-11-26T19:12:05Z</time>
      </trkpt>
      <trkpt lat="42.92796" lon="1.02397">
        <ele>519</ele>
        <time>2025-11-26T19:12:08Z</time>
      </trkpt>
      <trkpt lat="42.92786" lon="1.02423">
        <ele>519</ele>
        <time>2025-11-26T19:12:12Z</time>
      </trkpt>
      <trkpt lat="42.92782" lon="1.02439">
        <ele>518</ele>
        <time>2025-11-26T19:12:14Z</time>
      </trkpt>
      <trkpt lat="42.92779" lon="1.02452">
        <ele>517</ele>
        <time>2025-11-26T19:12:16Z</time>
      </trkpt>
      <trkpt lat="42.92779" lon="1.0247">
        <ele>515</ele>
        <time>2025-11-26T19:12:19Z</time>
      </trkpt>
      <trkpt lat="42.9278" lon="1.02513">
        <ele>512</ele>
        <time>2025-11-26T19:12:24Z</time>
      </trkpt>
      <trkpt lat="42.92783" lon="1.02559">
        <ele>512</ele>
        <time>2025-11-26T19:12:30Z</time>
      </trkpt>
      <trkpt lat="42.92788" lon="1.02586">
        <ele>512</ele>
        <time>2025-11-26T19:12:34Z</time>
      </trkpt>
      <trkpt lat="42.92791" lon="1.02594">
        <ele>512</ele>
        <time>2025-11-26T19:12:35Z</time>
      </trkpt>
      <trkpt lat="42.92832" lon="1.02762">
        <ele>516</ele>
        <time>2025-11-26T19:12:58Z</time>
      </trkpt>
      <trkpt lat="42.92872" lon="1.02929">
        <ele>527</ele>
        <time>2025-11-26T19:13:21Z</time>
      </trkpt>
      <trkpt lat="42.92873" lon="1.02933">
        <ele>528</ele>
        <time>2025-11-26T19:13:21Z</time>
      </trkpt>
      <trkpt lat="42.92874" lon="1.02956">
        <ele>530</ele>
        <time>2025-11-26T19:13:24Z</time>
      </trkpt>
      <trkpt lat="42.92878" lon="1.02968">
        <ele>532</ele>
        <time>2025-11-26T19:13:26Z</time>
      </trkpt>
      <trkpt lat="42.92881" lon="1.02967">
        <ele>531</ele>
        <time>2025-11-26T19:13:27Z</time>
      </trkpt>
      <trkpt lat="42.92883" lon="1.02967">
        <ele>532</ele>
        <time>2025-11-26T19:13:27Z</time>
      </trkpt>
      <trkpt lat="42.92896" lon="1.02962">
        <ele>531</ele>
        <time>2025-11-26T19:13:29Z</time>
      </trkpt>
      <trkpt lat="42.92948" lon="1.02942">
        <ele>529</ele>
        <time>2025-11-26T19:13:39Z</time>
      </trkpt>
      <trkpt lat="42.92966" lon="1.02936">
        <ele>528</ele>
        <time>2025-11-26T19:13:42Z</time>
      </trkpt>
      <trkpt lat="42.93101" lon="1.0288">
        <ele>524</ele>
        <time>2025-11-26T19:14:08Z</time>
      </trkpt>
      <trkpt lat="42.93209" lon="1.02834">
        <ele>521</ele>
        <time>2025-11-26T19:14:28Z</time>
      </trkpt>
      <trkpt lat="42.9331" lon="1.02791">
        <ele>518</ele>
        <time>2025-11-26T19:14:46Z</time>
      </trkpt>
      <trkpt lat="42.93338" lon="1.02785">
        <ele>518</ele>
        <time>2025-11-26T19:14:52Z</time>
      </trkpt>
      <trkpt lat="42.93354" lon="1.02784">
        <ele>517</ele>
        <time>2025-11-26T19:14:54Z</time>
      </trkpt>
      <trkpt lat="42.93375" lon="1.02787">
        <ele>517</ele>
        <time>2025-11-26T19:14:58Z</time>
      </trkpt>
      <trkpt lat="42.93409" lon="1.028">
        <ele>517</ele>
        <time>2025-11-26T19:15:04Z</time>
      </trkpt>
      <trkpt lat="42.93575" lon="1.02899">
        <ele>515</ele>
        <time>2025-11-26T19:15:37Z</time>
      </trkpt>
      <trkpt lat="42.93599" lon="1.02917">
        <ele>514</ele>
        <time>2025-11-26T19:15:41Z</time>
      </trkpt>
      <trkpt lat="42.93634" lon="1.0296">
        <ele>514</ele>
        <time>2025-11-26T19:15:50Z</time>
      </trkpt>
      <trkpt lat="42.9368" lon="1.03019">
        <ele>512</ele>
        <time>2025-11-26T19:16:01Z</time>
      </trkpt>
      <trkpt lat="42.93702" lon="1.03053">
        <ele>510</ele>
        <time>2025-11-26T19:16:07Z</time>
      </trkpt>
      <trkpt lat="42.93719" lon="1.03097">
        <ele>509</ele>
        <time>2025-11-26T19:16:13Z</time>
      </trkpt>
      <trkpt lat="42.9373" lon="1.03139">
        <ele>510</ele>
        <time>2025-11-26T19:16:19Z</time>
      </trkpt>
      <trkpt lat="42.93741" lon="1.03174">
        <ele>510</ele>
        <time>2025-11-26T19:16:24Z</time>
      </trkpt>
      <trkpt lat="42.93747" lon="1.03188">
        <ele>510</ele>
        <time>2025-11-26T19:16:26Z</time>
      </trkpt>
      <trkpt lat="42.93755" lon="1.03202">
        <ele>510</ele>
        <time>2025-11-26T19:16:29Z</time>
      </trkpt>
      <trkpt lat="42.93768" lon="1.03219">
        <ele>510</ele>
        <time>2025-11-26T19:16:32Z</time>
      </trkpt>
      <trkpt lat="42.93775" lon="1.03231">
        <ele>511</ele>
        <time>2025-11-26T19:16:34Z</time>
      </trkpt>
      <trkpt lat="42.93785" lon="1.03241">
        <ele>510</ele>
        <time>2025-11-26T19:16:36Z</time>
      </trkpt>
      <trkpt lat="42.93794" lon="1.03249">
        <ele>510</ele>
        <time>2025-11-26T19:16:38Z</time>
      </trkpt>
      <trkpt lat="42.93816" lon="1.03265">
        <ele>510</ele>
        <time>2025-11-26T19:16:42Z</time>
      </trkpt>
      <trkpt lat="42.93827" lon="1.03273">
        <ele>509</ele>
        <time>2025-11-26T19:16:45Z</time>
      </trkpt>
      <trkpt lat="42.93836" lon="1.03281">
        <ele>509</ele>
        <time>2025-11-26T19:16:47Z</time>
      </trkpt>
      <trkpt lat="42.93843" lon="1.03287">
        <ele>509</ele>
        <time>2025-11-26T19:16:48Z</time>
      </trkpt>
      <trkpt lat="42.9385" lon="1.03293">
        <ele>508</ele>
        <time>2025-11-26T19:16:50Z</time>
      </trkpt>
      <trkpt lat="42.93866" lon="1.03313">
        <ele>508</ele>
        <time>2025-11-26T19:16:53Z</time>
      </trkpt>
      <trkpt lat="42.93873" lon="1.03322">
        <ele>507</ele>
        <time>2025-11-26T19:16:55Z</time>
      </trkpt>
      <trkpt lat="42.93891" lon="1.03353">
        <ele>506</ele>
        <time>2025-11-26T19:17:00Z</time>
      </trkpt>
      <trkpt lat="42.93899" lon="1.03368">
        <ele>506</ele>
        <time>2025-11-26T19:17:03Z</time>
      </trkpt>
      <trkpt lat="42.93929" lon="1.03429">
        <ele>504</ele>
        <time>2025-11-26T19:17:12Z</time>
      </trkpt>
      <trkpt lat="42.93968" lon="1.03519">
        <ele>507</ele>
        <time>2025-11-26T19:17:26Z</time>
      </trkpt>
      <trkpt lat="42.93981" lon="1.03544">
        <ele>507</ele>
        <time>2025-11-26T19:17:30Z</time>
      </trkpt>
      <trkpt lat="42.93996" lon="1.0356">
        <ele>506</ele>
        <time>2025-11-26T19:17:33Z</time>
      </trkpt>
      <trkpt lat="42.94051" lon="1.03613">
        <ele>503</ele>
        <time>2025-11-26T19:17:45Z</time>
      </trkpt>
      <trkpt lat="42.9407" lon="1.03637">
        <ele>502</ele>
        <time>2025-11-26T19:17:50Z</time>
      </trkpt>
      <trkpt lat="42.94109" lon="1.03699">
        <ele>503</ele>
        <time>2025-11-26T19:18:00Z</time>
      </trkpt>
      <trkpt lat="42.94124" lon="1.03713">
        <ele>502</ele>
        <time>2025-11-26T19:18:04Z</time>
      </trkpt>
      <trkpt lat="42.94156" lon="1.03735">
        <ele>502</ele>
        <time>2025-11-26T19:18:10Z</time>
      </trkpt>
      <trkpt lat="42.94315" lon="1.03837">
        <ele>499</ele>
        <time>2025-11-26T19:18:41Z</time>
      </trkpt>
      <trkpt lat="42.9433" lon="1.03849">
        <ele>499</ele>
        <time>2025-11-26T19:18:44Z</time>
      </trkpt>
      <trkpt lat="42.94345" lon="1.03866">
        <ele>498</ele>
        <time>2025-11-26T19:18:48Z</time>
      </trkpt>
      <trkpt lat="42.94478" lon="1.04056">
        <ele>494</ele>
        <time>2025-11-26T19:19:22Z</time>
      </trkpt>
      <trkpt lat="42.94484" lon="1.04067">
        <ele>495</ele>
        <time>2025-11-26T19:19:24Z</time>
      </trkpt>
      <trkpt lat="42.94492" lon="1.0408">
        <ele>495</ele>
        <time>2025-11-26T19:19:26Z</time>
      </trkpt>
      <trkpt lat="42.94506" lon="1.04106">
        <ele>494</ele>
        <time>2025-11-26T19:19:30Z</time>
      </trkpt>
      <trkpt lat="42.94529" lon="1.04164">
        <ele>494</ele>
        <time>2025-11-26T19:19:39Z</time>
      </trkpt>
      <trkpt lat="42.94547" lon="1.04205">
        <ele>493</ele>
        <time>2025-11-26T19:19:45Z</time>
      </trkpt>
      <trkpt lat="42.94576" lon="1.04252">
        <ele>489</ele>
        <time>2025-11-26T19:19:53Z</time>
      </trkpt>
      <trkpt lat="42.94587" lon="1.04278">
        <ele>490</ele>
        <time>2025-11-26T19:19:57Z</time>
      </trkpt>
      <trkpt lat="42.94595" lon="1.04299">
        <ele>490</ele>
        <time>2025-11-26T19:20:00Z</time>
      </trkpt>
      <trkpt lat="42.94602" lon="1.04327">
        <ele>491</ele>
        <time>2025-11-26T19:20:04Z</time>
      </trkpt>
      <trkpt lat="42.94607" lon="1.04355">
        <ele>490</ele>
        <time>2025-11-26T19:20:08Z</time>
      </trkpt>
      <trkpt lat="42.94625" lon="1.04624">
        <ele>489</ele>
        <time>2025-11-26T19:20:43Z</time>
      </trkpt>
      <trkpt lat="42.94632" lon="1.04667">
        <ele>487</ele>
        <time>2025-11-26T19:20:49Z</time>
      </trkpt>
      <trkpt lat="42.94654" lon="1.04757">
        <ele>487</ele>
        <time>2025-11-26T19:21:01Z</time>
      </trkpt>
      <trkpt lat="42.94702" lon="1.04928">
        <ele>484</ele>
        <time>2025-11-26T19:21:25Z</time>
      </trkpt>
      <trkpt lat="42.94705" lon="1.04967">
        <ele>483</ele>
        <time>2025-11-26T19:21:30Z</time>
      </trkpt>
      <trkpt lat="42.94704" lon="1.04988">
        <ele>483</ele>
        <time>2025-11-26T19:21:33Z</time>
      </trkpt>
      <trkpt lat="42.94702" lon="1.05008">
        <ele>483</ele>
        <time>2025-11-26T19:21:35Z</time>
      </trkpt>
      <trkpt lat="42.94696" lon="1.05035">
        <ele>483</ele>
        <time>2025-11-26T19:21:39Z</time>
      </trkpt>
      <trkpt lat="42.94678" lon="1.05096">
        <ele>482</ele>
        <time>2025-11-26T19:21:48Z</time>
      </trkpt>
      <trkpt lat="42.94674" lon="1.05114">
        <ele>481</ele>
        <time>2025-11-26T19:21:50Z</time>
      </trkpt>
      <trkpt lat="42.9467" lon="1.05132">
        <ele>481</ele>
        <time>2025-11-26T19:21:52Z</time>
      </trkpt>
      <trkpt lat="42.94669" lon="1.05147">
        <ele>479</ele>
        <time>2025-11-26T19:21:54Z</time>
      </trkpt>
      <trkpt lat="42.94669" lon="1.05163">
        <ele>478</ele>
        <time>2025-11-26T19:21:57Z</time>
      </trkpt>
      <trkpt lat="42.9467" lon="1.05181">
        <ele>478</ele>
        <time>2025-11-26T19:21:59Z</time>
      </trkpt>
      <trkpt lat="42.94687" lon="1.05317">
        <ele>476</ele>
        <time>2025-11-26T19:22:17Z</time>
      </trkpt>
      <trkpt lat="42.94698" lon="1.05374">
        <ele>475</ele>
        <time>2025-11-26T19:22:25Z</time>
      </trkpt>
      <trkpt lat="42.9472" lon="1.05463">
        <ele>473</ele>
        <time>2025-11-26T19:22:37Z</time>
      </trkpt>
      <trkpt lat="42.94731" lon="1.05506">
        <ele>472</ele>
        <time>2025-11-26T19:22:43Z</time>
      </trkpt>
      <trkpt lat="42.94734" lon="1.05523">
        <ele>471</ele>
        <time>2025-11-26T19:22:45Z</time>
      </trkpt>
      <trkpt lat="42.94736" lon="1.05549">
        <ele>470</ele>
        <time>2025-11-26T19:22:48Z</time>
      </trkpt>
      <trkpt lat="42.9474" lon="1.05617">
        <ele>468</ele>
        <time>2025-11-26T19:22:57Z</time>
      </trkpt>
      <trkpt lat="42.94741" lon="1.05626">
        <ele>468</ele>
        <time>2025-11-26T19:22:58Z</time>
      </trkpt>
      <trkpt lat="42.94741" lon="1.05634">
        <ele>468</ele>
        <time>2025-11-26T19:22:59Z</time>
      </trkpt>
      <trkpt lat="42.94743" lon="1.05659">
        <ele>467</ele>
        <time>2025-11-26T19:23:03Z</time>
      </trkpt>
      <trkpt lat="42.94747" lon="1.05689">
        <ele>467</ele>
        <time>2025-11-26T19:23:07Z</time>
      </trkpt>
      <trkpt lat="42.94751" lon="1.05706">
        <ele>466</ele>
        <time>2025-11-26T19:23:09Z</time>
      </trkpt>
      <trkpt lat="42.94754" lon="1.05719">
        <ele>467</ele>
        <time>2025-11-26T19:23:11Z</time>
      </trkpt>
      <trkpt lat="42.94758" lon="1.05731">
        <ele>467</ele>
        <time>2025-11-26T19:23:13Z</time>
      </trkpt>
      <trkpt lat="42.94778" lon="1.05767">
        <ele>466</ele>
        <time>2025-11-26T19:23:18Z</time>
      </trkpt>
      <trkpt lat="42.94789" lon="1.05784">
        <ele>466</ele>
        <time>2025-11-26T19:23:21Z</time>
      </trkpt>
      <trkpt lat="42.94798" lon="1.05803">
        <ele>465</ele>
        <time>2025-11-26T19:23:24Z</time>
      </trkpt>
      <trkpt lat="42.94817" lon="1.05837">
        <ele>465</ele>
        <time>2025-11-26T19:23:30Z</time>
      </trkpt>
      <trkpt lat="42.94824" lon="1.05855">
        <ele>465</ele>
        <time>2025-11-26T19:23:33Z</time>
      </trkpt>
      <trkpt lat="42.94825" lon="1.05858">
        <ele>465</ele>
        <time>2025-11-26T19:23:33Z</time>
      </trkpt>
      <trkpt lat="42.94836" lon="1.059">
        <ele>466</ele>
        <time>2025-11-26T19:23:39Z</time>
      </trkpt>
      <trkpt lat="42.94835" lon="1.0591">
        <ele>466</ele>
        <time>2025-11-26T19:23:40Z</time>
      </trkpt>
      <trkpt lat="42.94818" lon="1.05997">
        <ele>464</ele>
        <time>2025-11-26T19:23:52Z</time>
      </trkpt>
      <trkpt lat="42.94813" lon="1.06013">
        <ele>464</ele>
        <time>2025-11-26T19:23:54Z</time>
      </trkpt>
      <trkpt lat="42.94809" lon="1.06029">
        <ele>464</ele>
        <time>2025-11-26T19:23:56Z</time>
      </trkpt>
      <trkpt lat="42.94801" lon="1.06059">
        <ele>463</ele>
        <time>2025-11-26T19:24:00Z</time>
      </trkpt>
      <trkpt lat="42.94794" lon="1.0609">
        <ele>462</ele>
        <time>2025-11-26T19:24:05Z</time>
      </trkpt>
      <trkpt lat="42.9479" lon="1.06113">
        <ele>462</ele>
        <time>2025-11-26T19:24:08Z</time>
      </trkpt>
      <trkpt lat="42.94774" lon="1.06176">
        <ele>461</ele>
        <time>2025-11-26T19:24:16Z</time>
      </trkpt>
      <trkpt lat="42.94773" lon="1.06187">
        <ele>461</ele>
        <time>2025-11-26T19:24:18Z</time>
      </trkpt>
      <trkpt lat="42.94772" lon="1.06197">
        <ele>461</ele>
        <time>2025-11-26T19:24:19Z</time>
      </trkpt>
      <trkpt lat="42.94774" lon="1.06212">
        <ele>461</ele>
        <time>2025-11-26T19:24:21Z</time>
      </trkpt>
      <trkpt lat="42.94777" lon="1.06226">
        <ele>461</ele>
        <time>2025-11-26T19:24:23Z</time>
      </trkpt>
      <trkpt lat="42.94784" lon="1.06256">
        <ele>461</ele>
        <time>2025-11-26T19:24:27Z</time>
      </trkpt>
      <trkpt lat="42.94787" lon="1.06269">
        <ele>461</ele>
        <time>2025-11-26T19:24:29Z</time>
      </trkpt>
      <trkpt lat="42.94792" lon="1.063">
        <ele>461</ele>
        <time>2025-11-26T19:24:33Z</time>
      </trkpt>
      <trkpt lat="42.94799" lon="1.06355">
        <ele>461</ele>
        <time>2025-11-26T19:24:40Z</time>
      </trkpt>
      <trkpt lat="42.9482" lon="1.06561">
        <ele>461</ele>
        <time>2025-11-26T19:25:07Z</time>
      </trkpt>
      <trkpt lat="42.94823" lon="1.06603">
        <ele>461</ele>
        <time>2025-11-26T19:25:13Z</time>
      </trkpt>
      <trkpt lat="42.94825" lon="1.06638">
        <ele>461</ele>
        <time>2025-11-26T19:25:18Z</time>
      </trkpt>
      <trkpt lat="42.94824" lon="1.06704">
        <ele>459</ele>
        <time>2025-11-26T19:25:26Z</time>
      </trkpt>
      <trkpt lat="42.94826" lon="1.06754">
        <ele>458</ele>
        <time>2025-11-26T19:25:33Z</time>
      </trkpt>
      <trkpt lat="42.94828" lon="1.06799">
        <ele>457</ele>
        <time>2025-11-26T19:25:39Z</time>
      </trkpt>
      <trkpt lat="42.94827" lon="1.06833">
        <ele>457</ele>
        <time>2025-11-26T19:25:43Z</time>
      </trkpt>
      <trkpt lat="42.94827" lon="1.06853">
        <ele>457</ele>
        <time>2025-11-26T19:25:46Z</time>
      </trkpt>
      <trkpt lat="42.94829" lon="1.06872">
        <ele>456</ele>
        <time>2025-11-26T19:25:48Z</time>
      </trkpt>
      <trkpt lat="42.94843" lon="1.06941">
        <ele>456</ele>
        <time>2025-11-26T19:25:57Z</time>
      </trkpt>
      <trkpt lat="42.94857" lon="1.07045">
        <ele>455</ele>
        <time>2025-11-26T19:26:11Z</time>
      </trkpt>
      <trkpt lat="42.94863" lon="1.07071">
        <ele>455</ele>
        <time>2025-11-26T19:26:15Z</time>
      </trkpt>
      <trkpt lat="42.94877" lon="1.07107">
        <ele>455</ele>
        <time>2025-11-26T19:26:20Z</time>
      </trkpt>
      <trkpt lat="42.94883" lon="1.07119">
        <ele>455</ele>
        <time>2025-11-26T19:26:22Z</time>
      </trkpt>
      <trkpt lat="42.94894" lon="1.07137">
        <ele>454</ele>
        <time>2025-11-26T19:26:25Z</time>
      </trkpt>
      <trkpt lat="42.94916" lon="1.07167">
        <ele>454</ele>
        <time>2025-11-26T19:26:31Z</time>
      </trkpt>
      <trkpt lat="42.9495" lon="1.07199">
        <ele>454</ele>
        <time>2025-11-26T19:26:38Z</time>
      </trkpt>
      <trkpt lat="42.94969" lon="1.07218">
        <ele>454</ele>
        <time>2025-11-26T19:26:42Z</time>
      </trkpt>
      <trkpt lat="42.94991" lon="1.07246">
        <ele>453</ele>
        <time>2025-11-26T19:26:47Z</time>
      </trkpt>
      <trkpt lat="42.95006" lon="1.07277">
        <ele>453</ele>
        <time>2025-11-26T19:26:52Z</time>
      </trkpt>
      <trkpt lat="42.95035" lon="1.07335">
        <ele>453</ele>
        <time>2025-11-26T19:27:01Z</time>
      </trkpt>
      <trkpt lat="42.95061" lon="1.07393">
        <ele>452</ele>
        <time>2025-11-26T19:27:10Z</time>
      </trkpt>
      <trkpt lat="42.95088" lon="1.07452">
        <ele>451</ele>
        <time>2025-11-26T19:27:19Z</time>
      </trkpt>
      <trkpt lat="42.95099" lon="1.07471">
        <ele>450</ele>
        <time>2025-11-26T19:27:22Z</time>
      </trkpt>
      <trkpt lat="42.95113" lon="1.07492">
        <ele>450</ele>
        <time>2025-11-26T19:27:26Z</time>
      </trkpt>
      <trkpt lat="42.95133" lon="1.07517">
        <ele>450</ele>
        <time>2025-11-26T19:27:31Z</time>
      </trkpt>
      <trkpt lat="42.95188" lon="1.07583">
        <ele>450</ele>
        <time>2025-11-26T19:27:44Z</time>
      </trkpt>
      <trkpt lat="42.95247" lon="1.07669">
        <ele>450</ele>
        <time>2025-11-26T19:27:59Z</time>
      </trkpt>
      <trkpt lat="42.95267" lon="1.07696">
        <ele>450</ele>
        <time>2025-11-26T19:28:04Z</time>
      </trkpt>
      <trkpt lat="42.95311" lon="1.07748">
        <ele>449</ele>
        <time>2025-11-26T19:28:15Z</time>
      </trkpt>
      <trkpt lat="42.95327" lon="1.07769">
        <ele>449</ele>
        <time>2025-11-26T19:28:19Z</time>
      </trkpt>
      <trkpt lat="42.95356" lon="1.07816">
        <ele>447</ele>
        <time>2025-11-26T19:28:27Z</time>
      </trkpt>
      <trkpt lat="42.95389" lon="1.0787">
        <ele>446</ele>
        <time>2025-11-26T19:28:36Z</time>
      </trkpt>
      <trkpt lat="42.95393" lon="1.07876">
        <ele>446</ele>
        <time>2025-11-26T19:28:37Z</time>
      </trkpt>
      <trkpt lat="42.95403" lon="1.07889">
        <ele>446</ele>
        <time>2025-11-26T19:28:39Z</time>
      </trkpt>
      <trkpt lat="42.95416" lon="1.0791">
        <ele>445</ele>
        <time>2025-11-26T19:28:43Z</time>
      </trkpt>
      <trkpt lat="42.9542" lon="1.07922">
        <ele>445</ele>
        <time>2025-11-26T19:28:45Z</time>
      </trkpt>
      <trkpt lat="42.95425" lon="1.07937">
        <ele>445</ele>
        <time>2025-11-26T19:28:47Z</time>
      </trkpt>
      <trkpt lat="42.95435" lon="1.07977">
        <ele>445</ele>
        <time>2025-11-26T19:28:52Z</time>
      </trkpt>
      <trkpt lat="42.95443" lon="1.08006">
        <ele>444</ele>
        <time>2025-11-26T19:28:56Z</time>
      </trkpt>
      <trkpt lat="42.95446" lon="1.08013">
        <ele>444</ele>
        <time>2025-11-26T19:28:57Z</time>
      </trkpt>
      <trkpt lat="42.95456" lon="1.08037">
        <ele>444</ele>
        <time>2025-11-26T19:29:01Z</time>
      </trkpt>
      <trkpt lat="42.95471" lon="1.08065">
        <ele>445</ele>
        <time>2025-11-26T19:29:05Z</time>
      </trkpt>
      <trkpt lat="42.95492" lon="1.08098">
        <ele>445</ele>
        <time>2025-11-26T19:29:11Z</time>
      </trkpt>
      <trkpt lat="42.95515" lon="1.08144">
        <ele>445</ele>
        <time>2025-11-26T19:29:18Z</time>
      </trkpt>
      <trkpt lat="42.95535" lon="1.08189">
        <ele>444</ele>
        <time>2025-11-26T19:29:25Z</time>
      </trkpt>
      <trkpt lat="42.95545" lon="1.08213">
        <ele>443</ele>
        <time>2025-11-26T19:29:29Z</time>
      </trkpt>
      <trkpt lat="42.95566" lon="1.08264">
        <ele>442</ele>
        <time>2025-11-26T19:29:37Z</time>
      </trkpt>
      <trkpt lat="42.95576" lon="1.08285">
        <ele>442</ele>
        <time>2025-11-26T19:29:40Z</time>
      </trkpt>
      <trkpt lat="42.95604" lon="1.08331">
        <ele>441</ele>
        <time>2025-11-26T19:29:48Z</time>
      </trkpt>
      <trkpt lat="42.95618" lon="1.08351">
        <ele>440</ele>
        <time>2025-11-26T19:29:51Z</time>
      </trkpt>
      <trkpt lat="42.95662" lon="1.08415">
        <ele>439</ele>
        <time>2025-11-26T19:30:03Z</time>
      </trkpt>
      <trkpt lat="42.95678" lon="1.08433">
        <ele>439</ele>
        <time>2025-11-26T19:30:06Z</time>
      </trkpt>
      <trkpt lat="42.95685" lon="1.08439">
        <ele>439</ele>
        <time>2025-11-26T19:30:08Z</time>
      </trkpt>
      <trkpt lat="42.95703" lon="1.08449">
        <ele>439</ele>
        <time>2025-11-26T19:30:11Z</time>
      </trkpt>
      <trkpt lat="42.95712" lon="1.08453">
        <ele>439</ele>
        <time>2025-11-26T19:30:13Z</time>
      </trkpt>
      <trkpt lat="42.95744" lon="1.08461">
        <ele>439</ele>
        <time>2025-11-26T19:30:19Z</time>
      </trkpt>
      <trkpt lat="42.95779" lon="1.08473">
        <ele>439</ele>
        <time>2025-11-26T19:30:25Z</time>
      </trkpt>
      <trkpt lat="42.95791" lon="1.08478">
        <ele>439</ele>
        <time>2025-11-26T19:30:27Z</time>
      </trkpt>
      <trkpt lat="42.95802" lon="1.08485">
        <ele>439</ele>
        <time>2025-11-26T19:30:30Z</time>
      </trkpt>
      <trkpt lat="42.95816" lon="1.08496">
        <ele>438</ele>
        <time>2025-11-26T19:30:32Z</time>
      </trkpt>
      <trkpt lat="42.95832" lon="1.08513">
        <ele>438</ele>
        <time>2025-11-26T19:30:36Z</time>
      </trkpt>
      <trkpt lat="42.95845" lon="1.0853">
        <ele>438</ele>
        <time>2025-11-26T19:30:39Z</time>
      </trkpt>
      <trkpt lat="42.9585" lon="1.0854">
        <ele>438</ele>
        <time>2025-11-26T19:30:41Z</time>
      </trkpt>
      <trkpt lat="42.95856" lon="1.08552">
        <ele>438</ele>
        <time>2025-11-26T19:30:43Z</time>
      </trkpt>
      <trkpt lat="42.95872" lon="1.08599">
        <ele>438</ele>
        <time>2025-11-26T19:30:49Z</time>
      </trkpt>
      <trkpt lat="42.95878" lon="1.08613">
        <ele>438</ele>
        <time>2025-11-26T19:30:52Z</time>
      </trkpt>
      <trkpt lat="42.95884" lon="1.08623">
        <ele>438</ele>
        <time>2025-11-26T19:30:53Z</time>
      </trkpt>
      <trkpt lat="42.95896" lon="1.08637">
        <ele>438</ele>
        <time>2025-11-26T19:30:56Z</time>
      </trkpt>
      <trkpt lat="42.95927" lon="1.08657">
        <ele>438</ele>
        <time>2025-11-26T19:31:02Z</time>
      </trkpt>
      <trkpt lat="42.95979" lon="1.08677">
        <ele>438</ele>
        <time>2025-11-26T19:31:12Z</time>
      </trkpt>
      <trkpt lat="42.96033" lon="1.08691">
        <ele>440</ele>
        <time>2025-11-26T19:31:22Z</time>
      </trkpt>
      <trkpt lat="42.96053" lon="1.087">
        <ele>441</ele>
        <time>2025-11-26T19:31:25Z</time>
      </trkpt>
      <trkpt lat="42.96056" lon="1.08702">
        <ele>442</ele>
        <time>2025-11-26T19:31:26Z</time>
      </trkpt>
      <trkpt lat="42.96076" lon="1.08726">
        <ele>441</ele>
        <time>2025-11-26T19:31:31Z</time>
      </trkpt>
      <trkpt lat="42.96113" lon="1.08785">
        <ele>444</ele>
        <time>2025-11-26T19:31:41Z</time>
      </trkpt>
      <trkpt lat="42.96145" lon="1.08849">
        <ele>446</ele>
        <time>2025-11-26T19:31:51Z</time>
      </trkpt>
      <trkpt lat="42.96153" lon="1.08886">
        <ele>445</ele>
        <time>2025-11-26T19:31:56Z</time>
      </trkpt>
      <trkpt lat="42.96159" lon="1.08964">
        <ele>443</ele>
        <time>2025-11-26T19:32:06Z</time>
      </trkpt>
      <trkpt lat="42.96177" lon="1.09082">
        <ele>444</ele>
        <time>2025-11-26T19:32:22Z</time>
      </trkpt>
      <trkpt lat="42.96178" lon="1.09086">
        <ele>444</ele>
        <time>2025-11-26T19:32:22Z</time>
      </trkpt>
      <trkpt lat="42.96189" lon="1.09134">
        <ele>441</ele>
        <time>2025-11-26T19:32:29Z</time>
      </trkpt>
      <trkpt lat="42.96195" lon="1.09154">
        <ele>440</ele>
        <time>2025-11-26T19:32:32Z</time>
      </trkpt>
      <trkpt lat="42.96203" lon="1.09173">
        <ele>440</ele>
        <time>2025-11-26T19:32:34Z</time>
      </trkpt>
      <trkpt lat="42.96227" lon="1.09227">
        <ele>437</ele>
        <time>2025-11-26T19:32:43Z</time>
      </trkpt>
      <trkpt lat="42.9623" lon="1.09239">
        <ele>436</ele>
        <time>2025-11-26T19:32:44Z</time>
      </trkpt>
      <trkpt lat="42.96234" lon="1.09254">
        <ele>435</ele>
        <time>2025-11-26T19:32:46Z</time>
      </trkpt>
      <trkpt lat="42.96233" lon="1.0926">
        <ele>434</ele>
        <time>2025-11-26T19:32:47Z</time>
      </trkpt>
      <trkpt lat="42.96233" lon="1.09264">
        <ele>434</ele>
        <time>2025-11-26T19:32:48Z</time>
      </trkpt>
      <trkpt lat="42.96234" lon="1.09268">
        <ele>434</ele>
        <time>2025-11-26T19:32:48Z</time>
      </trkpt>
      <trkpt lat="42.96236" lon="1.09271">
        <ele>434</ele>
        <time>2025-11-26T19:32:49Z</time>
      </trkpt>
      <trkpt lat="42.96241" lon="1.09273">
        <ele>435</ele>
        <time>2025-11-26T19:32:50Z</time>
      </trkpt>
      <trkpt lat="42.96255" lon="1.09284">
        <ele>435</ele>
        <time>2025-11-26T19:32:53Z</time>
      </trkpt>
      <trkpt lat="42.9626" lon="1.09288">
        <ele>435</ele>
        <time>2025-11-26T19:32:54Z</time>
      </trkpt>
      <trkpt lat="42.96268" lon="1.09294">
        <ele>435</ele>
        <time>2025-11-26T19:32:55Z</time>
      </trkpt>
      <trkpt lat="42.96302" lon="1.09326">
        <ele>434</ele>
        <time>2025-11-26T19:33:03Z</time>
      </trkpt>
      <trkpt lat="42.96304" lon="1.09328">
        <ele>434</ele>
        <time>2025-11-26T19:33:03Z</time>
      </trkpt>
      <trkpt lat="42.96324" lon="1.09353">
        <ele>434</ele>
        <time>2025-11-26T19:33:08Z</time>
      </trkpt>
      <trkpt lat="42.96368" lon="1.0943">
        <ele>434</ele>
        <time>2025-11-26T19:33:21Z</time>
      </trkpt>
      <trkpt lat="42.9639" lon="1.09469">
        <ele>433</ele>
        <time>2025-11-26T19:33:27Z</time>
      </trkpt>
      <trkpt lat="42.96401" lon="1.09486">
        <ele>432</ele>
        <time>2025-11-26T19:33:30Z</time>
      </trkpt>
      <trkpt lat="42.96405" lon="1.09491">
        <ele>432</ele>
        <time>2025-11-26T19:33:31Z</time>
      </trkpt>
      <trkpt lat="42.96426" lon="1.09523">
        <ele>431</ele>
        <time>2025-11-26T19:33:37Z</time>
      </trkpt>
      <trkpt lat="42.96473" lon="1.0959">
        <ele>430</ele>
        <time>2025-11-26T19:33:49Z</time>
      </trkpt>
      <trkpt lat="42.96523" lon="1.09667">
        <ele>430</ele>
        <time>2025-11-26T19:34:02Z</time>
      </trkpt>
      <trkpt lat="42.96585" lon="1.09757">
        <ele>428</ele>
        <time>2025-11-26T19:34:18Z</time>
      </trkpt>
      <trkpt lat="42.96641" lon="1.09856">
        <ele>430</ele>
        <time>2025-11-26T19:34:34Z</time>
      </trkpt>
      <trkpt lat="42.96646" lon="1.09867">
        <ele>430</ele>
        <time>2025-11-26T19:34:36Z</time>
      </trkpt>
      <trkpt lat="42.96651" lon="1.09885">
        <ele>430</ele>
        <time>2025-11-26T19:34:39Z</time>
      </trkpt>
      <trkpt lat="42.96657" lon="1.09909">
        <ele>430</ele>
        <time>2025-11-26T19:34:42Z</time>
      </trkpt>
      <trkpt lat="42.96666" lon="1.09965">
        <ele>429</ele>
        <time>2025-11-26T19:34:49Z</time>
      </trkpt>
      <trkpt lat="42.96676" lon="1.10033">
        <ele>427</ele>
        <time>2025-11-26T19:34:58Z</time>
      </trkpt>
      <trkpt lat="42.96682" lon="1.1008">
        <ele>426</ele>
        <time>2025-11-26T19:35:05Z</time>
      </trkpt>
      <trkpt lat="42.96688" lon="1.10137">
        <ele>427</ele>
        <time>2025-11-26T19:35:12Z</time>
      </trkpt>
      <trkpt lat="42.9669" lon="1.10155">
        <ele>427</ele>
        <time>2025-11-26T19:35:15Z</time>
      </trkpt>
      <trkpt lat="42.96691" lon="1.10163">
        <ele>427</ele>
        <time>2025-11-26T19:35:16Z</time>
      </trkpt>
      <trkpt lat="42.96689" lon="1.10176">
        <ele>426</ele>
        <time>2025-11-26T19:35:17Z</time>
      </trkpt>
      <trkpt lat="42.96688" lon="1.10186">
        <ele>426</ele>
        <time>2025-11-26T19:35:19Z</time>
      </trkpt>
      <trkpt lat="42.96689" lon="1.10189">
        <ele>426</ele>
        <time>2025-11-26T19:35:19Z</time>
      </trkpt>
      <trkpt lat="42.96687" lon="1.10194">
        <ele>426</ele>
        <time>2025-11-26T19:35:20Z</time>
      </trkpt>
      <trkpt lat="42.96685" lon="1.10199">
        <ele>426</ele>
        <time>2025-11-26T19:35:21Z</time>
      </trkpt>
      <trkpt lat="42.96685" lon="1.10204">
        <ele>426</ele>
        <time>2025-11-26T19:35:21Z</time>
      </trkpt>
      <trkpt lat="42.96688" lon="1.1021">
        <ele>426</ele>
        <time>2025-11-26T19:35:22Z</time>
      </trkpt>
      <trkpt lat="42.96692" lon="1.10214">
        <ele>426</ele>
        <time>2025-11-26T19:35:23Z</time>
      </trkpt>
      <trkpt lat="42.96695" lon="1.10215">
        <ele>426</ele>
        <time>2025-11-26T19:35:24Z</time>
      </trkpt>
      <trkpt lat="42.96695" lon="1.10219">
        <ele>426</ele>
        <time>2025-11-26T19:35:24Z</time>
      </trkpt>
      <trkpt lat="42.96699" lon="1.10228">
        <ele>425</ele>
        <time>2025-11-26T19:35:25Z</time>
      </trkpt>
      <trkpt lat="42.96706" lon="1.10244">
        <ele>425</ele>
        <time>2025-11-26T19:35:28Z</time>
      </trkpt>
      <trkpt lat="42.96712" lon="1.10261">
        <ele>425</ele>
        <time>2025-11-26T19:35:30Z</time>
      </trkpt>
      <trkpt lat="42.96718" lon="1.10276">
        <ele>424</ele>
        <time>2025-11-26T19:35:33Z</time>
      </trkpt>
      <trkpt lat="42.96726" lon="1.10291">
        <ele>424</ele>
        <time>2025-11-26T19:35:35Z</time>
      </trkpt>
      <trkpt lat="42.96756" lon="1.10341">
        <ele>423</ele>
        <time>2025-11-26T19:35:43Z</time>
      </trkpt>
      <trkpt lat="42.96768" lon="1.10362">
        <ele>423</ele>
        <time>2025-11-26T19:35:47Z</time>
      </trkpt>
      <trkpt lat="42.96778" lon="1.10385">
        <ele>423</ele>
        <time>2025-11-26T19:35:50Z</time>
      </trkpt>
      <trkpt lat="42.96804" lon="1.10475">
        <ele>423</ele>
        <time>2025-11-26T19:36:03Z</time>
      </trkpt>
      <trkpt lat="42.96867" lon="1.10632">
        <ele>422</ele>
        <time>2025-11-26T19:36:26Z</time>
      </trkpt>
      <trkpt lat="42.96936" lon="1.10803">
        <ele>421</ele>
        <time>2025-11-26T19:36:52Z</time>
      </trkpt>
      <trkpt lat="42.96983" lon="1.10923">
        <ele>419</ele>
        <time>2025-11-26T19:37:09Z</time>
      </trkpt>
      <trkpt lat="42.96999" lon="1.10962">
        <ele>418</ele>
        <time>2025-11-26T19:37:15Z</time>
      </trkpt>
      <trkpt lat="42.97132" lon="1.11296">
        <ele>419</ele>
        <time>2025-11-26T19:38:05Z</time>
      </trkpt>
      <trkpt lat="42.97142" lon="1.11327">
        <ele>419</ele>
        <time>2025-11-26T19:38:09Z</time>
      </trkpt>
      <trkpt lat="42.97147" lon="1.1135">
        <ele>419</ele>
        <time>2025-11-26T19:38:12Z</time>
      </trkpt>
      <trkpt lat="42.97165" lon="1.11562">
        <ele>417</ele>
        <time>2025-11-26T19:38:40Z</time>
      </trkpt>
      <trkpt lat="42.972" lon="1.11843">
        <ele>418</ele>
        <time>2025-11-26T19:39:17Z</time>
      </trkpt>
      <trkpt lat="42.97214" lon="1.11952">
        <ele>415</ele>
        <time>2025-11-26T19:39:32Z</time>
      </trkpt>
      <trkpt lat="42.9722" lon="1.11982">
        <ele>413</ele>
        <time>2025-11-26T19:39:36Z</time>
      </trkpt>
      <trkpt lat="42.9723" lon="1.12012">
        <ele>412</ele>
        <time>2025-11-26T19:39:40Z</time>
      </trkpt>
      <trkpt lat="42.97241" lon="1.12034">
        <ele>411</ele>
        <time>2025-11-26T19:39:43Z</time>
      </trkpt>
      <trkpt lat="42.97255" lon="1.12053">
        <ele>411</ele>
        <time>2025-11-26T19:39:47Z</time>
      </trkpt>
      <trkpt lat="42.97267" lon="1.12067">
        <ele>412</ele>
        <time>2025-11-26T19:39:50Z</time>
      </trkpt>
      <trkpt lat="42.97289" lon="1.12084">
        <ele>413</ele>
        <time>2025-11-26T19:39:54Z</time>
      </trkpt>
      <trkpt lat="42.97302" lon="1.1209">
        <ele>414</ele>
        <time>2025-11-26T19:39:57Z</time>
      </trkpt>
      <trkpt lat="42.9732" lon="1.12095">
        <ele>415</ele>
        <time>2025-11-26T19:40:00Z</time>
      </trkpt>
      <trkpt lat="42.97324" lon="1.12096">
        <ele>415</ele>
        <time>2025-11-26T19:40:01Z</time>
      </trkpt>
      <trkpt lat="42.97334" lon="1.12097">
        <ele>416</ele>
        <time>2025-11-26T19:40:02Z</time>
      </trkpt>
      <trkpt lat="42.97355" lon="1.12096">
        <ele>415</ele>
        <time>2025-11-26T19:40:06Z</time>
      </trkpt>
      <trkpt lat="42.9737" lon="1.12092">
        <ele>415</ele>
        <time>2025-11-26T19:40:09Z</time>
      </trkpt>
      <trkpt lat="42.97406" lon="1.12076">
        <ele>415</ele>
        <time>2025-11-26T19:40:16Z</time>
      </trkpt>
      <trkpt lat="42.9745" lon="1.12055">
        <ele>417</ele>
        <time>2025-11-26T19:40:24Z</time>
      </trkpt>
      <trkpt lat="42.97467" lon="1.12049">
        <ele>417</ele>
        <time>2025-11-26T19:40:27Z</time>
      </trkpt>
      <trkpt lat="42.97487" lon="1.12048">
        <ele>416</ele>
        <time>2025-11-26T19:40:31Z</time>
      </trkpt>
      <trkpt lat="42.97503" lon="1.1205">
        <ele>416</ele>
        <time>2025-11-26T19:40:33Z</time>
      </trkpt>
      <trkpt lat="42.97564" lon="1.12076">
        <ele>417</ele>
        <time>2025-11-26T19:40:45Z</time>
      </trkpt>
      <trkpt lat="42.97631" lon="1.12095">
        <ele>419</ele>
        <time>2025-11-26T19:40:57Z</time>
      </trkpt>
      <trkpt lat="42.97647" lon="1.12102">
        <ele>419</ele>
        <time>2025-11-26T19:41:00Z</time>
      </trkpt>
      <trkpt lat="42.97661" lon="1.12112">
        <ele>418</ele>
        <time>2025-11-26T19:41:03Z</time>
      </trkpt>
      <trkpt lat="42.97674" lon="1.12125">
        <ele>417</ele>
        <time>2025-11-26T19:41:06Z</time>
      </trkpt>
      <trkpt lat="42.97685" lon="1.12141">
        <ele>417</ele>
        <time>2025-11-26T19:41:08Z</time>
      </trkpt>
      <trkpt lat="42.97723" lon="1.12215">
        <ele>414</ele>
        <time>2025-11-26T19:41:20Z</time>
      </trkpt>
      <trkpt lat="42.97751" lon="1.12257">
        <ele>411</ele>
        <time>2025-11-26T19:41:28Z</time>
      </trkpt>
      <trkpt lat="42.97765" lon="1.12284">
        <ele>410</ele>
        <time>2025-11-26T19:41:32Z</time>
      </trkpt>
      <trkpt lat="42.97776" lon="1.12315">
        <ele>409</ele>
        <time>2025-11-26T19:41:36Z</time>
      </trkpt>
      <trkpt lat="42.97796" lon="1.12387">
        <ele>409</ele>
        <time>2025-11-26T19:41:46Z</time>
      </trkpt>
      <trkpt lat="42.97811" lon="1.12433">
        <ele>409</ele>
        <time>2025-11-26T19:41:53Z</time>
      </trkpt>
      <trkpt lat="42.97826" lon="1.12473">
        <ele>409</ele>
        <time>2025-11-26T19:41:59Z</time>
      </trkpt>
      <trkpt lat="42.97829" lon="1.12482">
        <ele>408</ele>
        <time>2025-11-26T19:42:00Z</time>
      </trkpt>
      <trkpt lat="42.97834" lon="1.12478">
        <ele>409</ele>
        <time>2025-11-26T19:42:01Z</time>
      </trkpt>
      <trkpt lat="42.97833" lon="1.12467">
        <ele>409</ele>
        <time>2025-11-26T19:42:03Z</time>
      </trkpt>
      <trkpt lat="42.97831" lon="1.12445">
        <ele>410</ele>
        <time>2025-11-26T19:42:06Z</time>
      </trkpt>
      <trkpt lat="42.97833" lon="1.12467">
        <ele>409</ele>
        <time>2025-11-26T19:42:08Z</time>
      </trkpt>
      <trkpt lat="42.97826" lon="1.12473">
        <ele>409</ele>
        <time>2025-11-26T19:42:10Z</time>
      </trkpt>
      <trkpt lat="42.97829" lon="1.12482">
        <ele>408</ele>
        <time>2025-11-26T19:42:11Z</time>
      </trkpt>
      <trkpt lat="42.97869" lon="1.12582">
        <ele>407</ele>
        <time>2025-11-26T19:42:26Z</time>
      </trkpt>
      <trkpt lat="42.97906" lon="1.12667">
        <ele>407</ele>
        <time>2025-11-26T19:42:39Z</time>
      </trkpt>
      <trkpt lat="42.98032" lon="1.12922">
        <ele>405</ele>
        <time>2025-11-26T19:43:19Z</time>
      </trkpt>
      <trkpt lat="42.98082" lon="1.13025">
        <ele>401</ele>
        <time>2025-11-26T19:43:35Z</time>
      </trkpt>
      <trkpt lat="42.98109" lon="1.13063">
        <ele>401</ele>
        <time>2025-11-26T19:43:42Z</time>
      </trkpt>
      <trkpt lat="42.98127" lon="1.1309">
        <ele>400</ele>
        <time>2025-11-26T19:43:47Z</time>
      </trkpt>
      <trkpt lat="42.98133" lon="1.13098">
        <ele>400</ele>
        <time>2025-11-26T19:43:48Z</time>
      </trkpt>
      <trkpt lat="42.9814" lon="1.13106">
        <ele>400</ele>
        <time>2025-11-26T19:43:50Z</time>
      </trkpt>
      <trkpt lat="42.98172" lon="1.13132">
        <ele>400</ele>
        <time>2025-11-26T19:43:56Z</time>
      </trkpt>
      <trkpt lat="42.98197" lon="1.13164">
        <ele>400</ele>
        <time>2025-11-26T19:44:03Z</time>
      </trkpt>
      <trkpt lat="42.98273" lon="1.13253">
        <ele>399</ele>
        <time>2025-11-26T19:44:20Z</time>
      </trkpt>
      <trkpt lat="42.98286" lon="1.1327">
        <ele>399</ele>
        <time>2025-11-26T19:44:24Z</time>
      </trkpt>
      <trkpt lat="42.98321" lon="1.13311">
        <ele>399</ele>
        <time>2025-11-26T19:44:32Z</time>
      </trkpt>
      <trkpt lat="42.98338" lon="1.13354">
        <ele>399</ele>
        <time>2025-11-26T19:44:38Z</time>
      </trkpt>
      <trkpt lat="42.98362" lon="1.13412">
        <ele>398</ele>
        <time>2025-11-26T19:44:47Z</time>
      </trkpt>
      <trkpt lat="42.98403" lon="1.13517">
        <ele>399</ele>
        <time>2025-11-26T19:45:02Z</time>
      </trkpt>
      <trkpt lat="42.98437" lon="1.13615">
        <ele>399</ele>
        <time>2025-11-26T19:45:16Z</time>
      </trkpt>
      <trkpt lat="42.98498" lon="1.13786">
        <ele>396</ele>
        <time>2025-11-26T19:45:41Z</time>
      </trkpt>
      <trkpt lat="42.98518" lon="1.13845">
        <ele>395</ele>
        <time>2025-11-26T19:45:50Z</time>
      </trkpt>
      <trkpt lat="42.98542" lon="1.13906">
        <ele>394</ele>
        <time>2025-11-26T19:45:59Z</time>
      </trkpt>
      <trkpt lat="42.98557" lon="1.1394">
        <ele>392</ele>
        <time>2025-11-26T19:46:04Z</time>
      </trkpt>
      <trkpt lat="42.9857" lon="1.13932">
        <ele>393</ele>
        <time>2025-11-26T19:46:06Z</time>
      </trkpt>
      <trkpt lat="42.98557" lon="1.1394">
        <ele>392</ele>
        <time>2025-11-26T19:46:09Z</time>
      </trkpt>
      <trkpt lat="42.98576" lon="1.13984">
        <ele>390</ele>
        <time>2025-11-26T19:46:16Z</time>
      </trkpt>
      <trkpt lat="42.98578" lon="1.13991">
        <ele>390</ele>
        <time>2025-11-26T19:46:16Z</time>
      </trkpt>
      <trkpt lat="42.98602" lon="1.14053">
        <ele>390.1</ele>
        <extensions>
          <visugpx:TrkExtension xmlns:visugpx="https://www.visugpx.com/editgpx/">
            <visugpx:node>1</visugpx:node>
            </visugpx:TrkExtension>
        </extensions>
      </trkpt>
      <trkpt lat="42.9854" lon="1.14122">
        <ele>390.3</ele>
        <extensions>
          <visugpx:TrkExtension xmlns:visugpx="https://www.visugpx.com/editgpx/">
            <visugpx:node>2</visugpx:node>
            </visugpx:TrkExtension>
        </extensions>
      </trkpt>
      <trkpt lat="42.98634" lon="1.14393">
        <ele>391</ele>
        <extensions>
          <visugpx:TrkExtension xmlns:visugpx="https://www.visugpx.com/editgpx/">
            <visugpx:node>3</visugpx:node>
            </visugpx:TrkExtension>
        </extensions>
      </trkpt>
      <trkpt lat="42.98859" lon="1.14895">
        <ele>395.7</ele>
        <extensions>
          <visugpx:TrkExtension xmlns:visugpx="https://www.visugpx.com/editgpx/">
            <visugpx:node>4</visugpx:node>
            </visugpx:TrkExtension>
        </extensions>
      </trkpt>
      <trkpt lat="42.98986" lon="1.15174">
        <ele>396</ele>
        <extensions>
          <visugpx:TrkExtension xmlns:visugpx="https://www.visugpx.com/editgpx/">
            <visugpx:node>5</visugpx:node>
            </visugpx:TrkExtension>
        </extensions>
      </trkpt>
      <trkpt lat="42.9902" lon="1.1525">
        <ele>396.2</ele>
        <extensions>
          <visugpx:TrkExtension xmlns:visugpx="https://www.visugpx.com/editgpx/">
            <visugpx:node>6</visugpx:node>
            </visugpx:TrkExtension>
        </extensions>
      </trkpt>
      <trkpt lat="42.99132" lon="1.15412">
        <ele>397.5</ele>
        <extensions>
          <visugpx:TrkExtension xmlns:visugpx="https://www.visugpx.com/editgpx/">
            <visugpx:node>7</visugpx:node>
            </visugpx:TrkExtension>
        </extensions>
      </trkpt>
      <trkpt lat="42.99196" lon="1.15496">
        <ele>397</ele>
        <extensions>
          <visugpx:TrkExtension xmlns:visugpx="https://www.visugpx.com/editgpx/">
            <visugpx:node>8</visugpx:node>
            </visugpx:TrkExtension>
        </extensions>
      </trkpt>
      <trkpt lat="42.99182" lon="1.15534">
        <ele>402.6</ele>
        <extensions>
          <visugpx:TrkExtension xmlns:visugpx="https://www.visugpx.com/editgpx/">
            <visugpx:node>9</visugpx:node>
            </visugpx:TrkExtension>
        </extensions>
      </trkpt>
      <trkpt lat="42.9923" lon="1.15629">
        <ele>399.2</ele>
        <extensions>
          <visugpx:TrkExtension xmlns:visugpx="https://www.visugpx.com/editgpx/">
            <visugpx:node>10</visugpx:node>
            </visugpx:TrkExtension>
        </extensions>
      </trkpt>
      <trkpt lat="42.99273" lon="1.15725">
        <ele>397.4</ele>
        <extensions>
          <visugpx:TrkExtension xmlns:visugpx="https://www.visugpx.com/editgpx/">
            <visugpx:node>11</visugpx:node>
            </visugpx:TrkExtension>
        </extensions>
      </trkpt>
      <trkpt lat="42.99283" lon="1.15799">
        <ele>397.3</ele>
        <extensions>
          <visugpx:TrkExtension xmlns:visugpx="https://www.visugpx.com/editgpx/">
            <visugpx:node>12</visugpx:node>
            </visugpx:TrkExtension>
        </extensions>
      </trkpt>
      <trkpt lat="42.99258" lon="1.15957">
        <ele>398</ele>
        <extensions>
          <visugpx:TrkExtension xmlns:visugpx="https://www.visugpx.com/editgpx/">
            <visugpx:node>13</visugpx:node>
            </visugpx:TrkExtension>
        </extensions>
      </trkpt>
      <trkpt lat="42.99272" lon="1.15987">
        <ele>399</ele>
        <extensions>
          <visugpx:TrkExtension xmlns:visugpx="https://www.visugpx.com/editgpx/">
            <visugpx:node>14</visugpx:node>
            </visugpx:TrkExtension>
        </extensions>
      </trkpt>
      <trkpt lat="42.9929" lon="1.16005">
        <ele>399.4</ele>
        <extensions>
          <visugpx:TrkExtension xmlns:visugpx="https://www.visugpx.com/editgpx/">
            <visugpx:node>15</visugpx:node>
            </visugpx:TrkExtension>
        </extensions>
      </trkpt>
      <trkpt lat="42.99364" lon="1.16174">
        <ele>405.6</ele>
        <extensions>
          <visugpx:TrkExtension xmlns:visugpx="https://www.visugpx.com/editgpx/">
            <visugpx:node>16</visugpx:node>
            </visugpx:TrkExtension>
        </extensions>
      </trkpt>
      <trkpt lat="42.99449" lon="1.16271">
        <ele>408.1</ele>
        <extensions>
          <visugpx:TrkExtension xmlns:visugpx="https://www.visugpx.com/editgpx/">
            <visugpx:node>17</visugpx:node>
            </visugpx:TrkExtension>
        </extensions>
      </trkpt>
      <trkpt lat="42.99492" lon="1.16351">
        <ele>410.3</ele>
        <extensions>
          <visugpx:TrkExtension xmlns:visugpx="https://www.visugpx.com/editgpx/">
            <visugpx:node>18</visugpx:node>
            </visugpx:TrkExtension>
        </extensions>
      </trkpt>
      <trkpt lat="42.99577" lon="1.1647">
        <ele>414.9</ele>
        <extensions>
          <visugpx:TrkExtension xmlns:visugpx="https://www.visugpx.com/editgpx/">
            <visugpx:node>19</visugpx:node>
            </visugpx:TrkExtension>
        </extensions>
      </trkpt>
      <trkpt lat="42.99606" lon="1.16485">
        <ele>415.9</ele>
        <extensions>
          <visugpx:TrkExtension xmlns:visugpx="https://www.visugpx.com/editgpx/">
            <visugpx:node>20</visugpx:node>
            </visugpx:TrkExtension>
        </extensions>
      </trkpt>
      <trkpt lat="42.99657" lon="1.16483">
        <ele>417.5</ele>
        <extensions>
          <visugpx:TrkExtension xmlns:visugpx="https://www.visugpx.com/editgpx/">
            <visugpx:node>21</visugpx:node>
            </visugpx:TrkExtension>
        </extensions>
      </trkpt>
      <trkpt lat="42.99754" lon="1.16567">
        <ele>420.4</ele>
        <extensions>
          <visugpx:TrkExtension xmlns:visugpx="https://www.visugpx.com/editgpx/">
            <visugpx:node>22</visugpx:node>
            </visugpx:TrkExtension>
        </extensions>
      </trkpt>
      <trkpt lat="42.99789" lon="1.1667">
        <ele>424.6</ele>
        <extensions>
          <visugpx:TrkExtension xmlns:visugpx="https://www.visugpx.com/editgpx/">
            <visugpx:node>23</visugpx:node>
            </visugpx:TrkExtension>
        </extensions>
      </trkpt>
      <trkpt lat="42.99811" lon="1.16726">
        <ele>426.9</ele>
        <extensions>
          <visugpx:TrkExtension xmlns:visugpx="https://www.visugpx.com/editgpx/">
            <visugpx:node>24</visugpx:node>
            </visugpx:TrkExtension>
        </extensions>
      </trkpt>
      <trkpt lat="42.99884" lon="1.16767">
        <ele>428.3</ele>
        <extensions>
          <visugpx:TrkExtension xmlns:visugpx="https://www.visugpx.com/editgpx/">
            <visugpx:node>25</visugpx:node>
            </visugpx:TrkExtension>
        </extensions>
      </trkpt>
      <trkpt lat="42.99955" lon="1.16811">
        <ele>431.8</ele>
        <extensions>
          <visugpx:TrkExtension xmlns:visugpx="https://www.visugpx.com/editgpx/">
            <visugpx:node>26</visugpx:node>
            </visugpx:TrkExtension>
        </extensions>
      </trkpt>
      <trkpt lat="43.0007" lon="1.16773">
        <ele>433.7</ele>
        <extensions>
          <visugpx:TrkExtension xmlns:visugpx="https://www.visugpx.com/editgpx/">
            <visugpx:node>27</visugpx:node>
            </visugpx:TrkExtension>
        </extensions>
      </trkpt>
      <trkpt lat="43.00112" lon="1.16778">
        <ele>434</ele>
        <extensions>
          <visugpx:TrkExtension xmlns:visugpx="https://www.visugpx.com/editgpx/">
            <visugpx:node>28</visugpx:node>
            </visugpx:TrkExtension>
        </extensions>
      </trkpt>
      <trkpt lat="43.00143" lon="1.16828">
        <ele>436.5</ele>
        <extensions>
          <visugpx:TrkExtension xmlns:visugpx="https://www.visugpx.com/editgpx/">
            <visugpx:node>29</visugpx:node>
            </visugpx:TrkExtension>
        </extensions>
      </trkpt>
      <trkpt lat="43.00167" lon="1.16885">
        <ele>440.6</ele>
        <extensions>
          <visugpx:TrkExtension xmlns:visugpx="https://www.visugpx.com/editgpx/">
            <visugpx:node>30</visugpx:node>
            </visugpx:TrkExtension>
        </extensions>
      </trkpt>
      <trkpt lat="43.00209" lon="1.16901">
        <ele>440.8</ele>
        <extensions>
          <visugpx:TrkExtension xmlns:visugpx="https://www.visugpx.com/editgpx/">
            <visugpx:node>31</visugpx:node>
            </visugpx:TrkExtension>
        </extensions>
      </trkpt>
      <trkpt lat="43.00239" lon="1.16911">
        <ele>441.1</ele>
        <extensions>
          <visugpx:TrkExtension xmlns:visugpx="https://www.visugpx.com/editgpx/">
            <visugpx:node>32</visugpx:node>
            </visugpx:TrkExtension>
        </extensions>
      </trkpt>
      <trkpt lat="43.00279" lon="1.16978">
        <ele>441.4</ele>
        <extensions>
          <visugpx:TrkExtension xmlns:visugpx="https://www.visugpx.com/editgpx/">
            <visugpx:node>33</visugpx:node>
            </visugpx:TrkExtension>
        </extensions>
      </trkpt>
      <trkpt lat="43.00284" lon="1.17036">
        <ele>443.8</ele>
        <extensions>
          <visugpx:TrkExtension xmlns:visugpx="https://www.visugpx.com/editgpx/">
            <visugpx:node>34</visugpx:node>
            </visugpx:TrkExtension>
        </extensions>
      </trkpt>
      <trkpt lat="43.00261" lon="1.17146">
        <ele>448.2</ele>
        <extensions>
          <visugpx:TrkExtension xmlns:visugpx="https://www.visugpx.com/editgpx/">
            <visugpx:node>35</visugpx:node>
            </visugpx:TrkExtension>
        </extensions>
      </trkpt>
      <trkpt lat="43.00269" lon="1.17222">
        <ele>449.3</ele>
        <extensions>
          <visugpx:TrkExtension xmlns:visugpx="https://www.visugpx.com/editgpx/">
            <visugpx:node>36</visugpx:node>
            </visugpx:TrkExtension>
        </extensions>
      </trkpt>
      <trkpt lat="43.00297" lon="1.17307">
        <ele>452</ele>
        <extensions>
          <visugpx:TrkExtension xmlns:visugpx="https://www.visugpx.com/editgpx/">
            <visugpx:node>37</visugpx:node>
            </visugpx:TrkExtension>
        </extensions>
      </trkpt>
      <trkpt lat="43.00337" lon="1.17424">
        <ele>452.6</ele>
        <extensions>
          <visugpx:TrkExtension xmlns:visugpx="https://www.visugpx.com/editgpx/">
            <visugpx:node>38</visugpx:node>
            </visugpx:TrkExtension>
        </extensions>
      </trkpt>
      <trkpt lat="43.00336" lon="1.17503">
        <ele>452.3</ele>
        <extensions>
          <visugpx:TrkExtension xmlns:visugpx="https://www.visugpx.com/editgpx/">
            <visugpx:node>39</visugpx:node>
            </visugpx:TrkExtension>
        </extensions>
      </trkpt>
      <trkpt lat="43.00345" lon="1.17525">
        <ele>452.7</ele>
        <extensions>
          <visugpx:TrkExtension xmlns:visugpx="https://www.visugpx.com/editgpx/">
            <visugpx:node>40</visugpx:node>
            </visugpx:TrkExtension>
        </extensions>
      </trkpt>
      <trkpt lat="43.0036" lon="1.17564">
        <ele>450.7</ele>
        <extensions>
          <visugpx:TrkExtension xmlns:visugpx="https://www.visugpx.com/editgpx/">
            <visugpx:node>41</visugpx:node>
            </visugpx:TrkExtension>
        </extensions>
      </trkpt>
      <trkpt lat="43.00466" lon="1.17544">
        <ele>453.9</ele>
        <extensions>
          <visugpx:TrkExtension xmlns:visugpx="https://www.visugpx.com/editgpx/">
            <visugpx:node>42</visugpx:node>
            </visugpx:TrkExtension>
        </extensions>
      </trkpt>
      <trkpt lat="43.00525" lon="1.17576">
        <ele>454.2</ele>
        <extensions>
          <visugpx:TrkExtension xmlns:visugpx="https://www.visugpx.com/editgpx/">
            <visugpx:node>43</visugpx:node>
            </visugpx:TrkExtension>
        </extensions>
      </trkpt>
      <trkpt lat="43.00576" lon="1.17711">
        <ele>456.1</ele>
        <extensions>
          <visugpx:TrkExtension xmlns:visugpx="https://www.visugpx.com/editgpx/">
            <visugpx:node>44</visugpx:node>
            </visugpx:TrkExtension>
        </extensions>
      </trkpt>
      <trkpt lat="43.00597" lon="1.17969">
        <ele>449</ele>
        <extensions>
          <visugpx:TrkExtension xmlns:visugpx="https://www.visugpx.com/editgpx/">
            <visugpx:node>45</visugpx:node>
            </visugpx:TrkExtension>
        </extensions>
      </trkpt>
      <trkpt lat="43.00599" lon="1.18143">
        <ele>440.7</ele>
        <extensions>
          <visugpx:TrkExtension xmlns:visugpx="https://www.visugpx.com/editgpx/">
            <visugpx:node>46</visugpx:node>
            </visugpx:TrkExtension>
        </extensions>
      </trkpt>
      <trkpt lat="43.00609" lon="1.18187">
        <ele>438.5</ele>
        <extensions>
          <visugpx:TrkExtension xmlns:visugpx="https://www.visugpx.com/editgpx/">
            <visugpx:node>47</visugpx:node>
            </visugpx:TrkExtension>
        </extensions>
      </trkpt>
      <trkpt lat="43.00682" lon="1.18227">
        <ele>440.7</ele>
        <extensions>
          <visugpx:TrkExtension xmlns:visugpx="https://www.visugpx.com/editgpx/">
            <visugpx:node>48</visugpx:node>
            </visugpx:TrkExtension>
        </extensions>
      </trkpt>
      <trkpt lat="43.00772" lon="1.18265">
        <ele>442.7</ele>
        <extensions>
          <visugpx:TrkExtension xmlns:visugpx="https://www.visugpx.com/editgpx/">
            <visugpx:node>49</visugpx:node>
            </visugpx:TrkExtension>
        </extensions>
      </trkpt>
      <trkpt lat="43.00739" lon="1.18412">
        <ele>435.3</ele>
        <extensions>
          <visugpx:TrkExtension xmlns:visugpx="https://www.visugpx.com/editgpx/">
            <visugpx:node>50</visugpx:node>
            </visugpx:TrkExtension>
        </extensions>
      </trkpt>
      <trkpt lat="43.00669" lon="1.18394">
        <ele>434.4</ele>
        <extensions>
          <visugpx:TrkExtension xmlns:visugpx="https://www.visugpx.com/editgpx/">
            <visugpx:node>51</visugpx:node>
            </visugpx:TrkExtension>
        </extensions>
      </trkpt>
      <trkpt lat="43.00745" lon="1.18425">
        <ele>435.5</ele>
        <extensions>
          <visugpx:TrkExtension xmlns:visugpx="https://www.visugpx.com/editgpx/">
            <visugpx:node>52</visugpx:node>
            </visugpx:TrkExtension>
        </extensions>
      </trkpt>
      <trkpt lat="43.00785" lon="1.18257">
        <ele>443.7</ele>
        <extensions>
          <visugpx:TrkExtension xmlns:visugpx="https://www.visugpx.com/editgpx/">
            <visugpx:node>53</visugpx:node>
            </visugpx:TrkExtension>
        </extensions>
      </trkpt>
      <trkpt lat="43.00623" lon="1.18184">
        <ele>441.1</ele>
        <extensions>
          <visugpx:TrkExtension xmlns:visugpx="https://www.visugpx.com/editgpx/">
            <visugpx:node>54</visugpx:node>
            </visugpx:TrkExtension>
        </extensions>
      </trkpt>
      <trkpt lat="43.00607" lon="1.18136">
        <ele>443.3</ele>
        <extensions>
          <visugpx:TrkExtension xmlns:visugpx="https://www.visugpx.com/editgpx/">
            <visugpx:node>55</visugpx:node>
            </visugpx:TrkExtension>
        </extensions>
      </trkpt>
      <trkpt lat="43.00603" lon="1.17904">
        <ele>451.5</ele>
        <extensions>
          <visugpx:TrkExtension xmlns:visugpx="https://www.visugpx.com/editgpx/">
            <visugpx:node>56</visugpx:node>
            </visugpx:TrkExtension>
        </extensions>
      </trkpt>
      <trkpt lat="43.00591" lon="1.17743">
        <ele>455.7</ele>
        <extensions>
          <visugpx:TrkExtension xmlns:visugpx="https://www.visugpx.com/editgpx/">
            <visugpx:node>57</visugpx:node>
            </visugpx:TrkExtension>
        </extensions>
      </trkpt>
      <trkpt lat="43.00544" lon="1.17583">
        <ele>454.6</ele>
        <extensions>
          <visugpx:TrkExtension xmlns:visugpx="https://www.visugpx.com/editgpx/">
            <visugpx:node>58</visugpx:node>
            </visugpx:TrkExtension>
        </extensions>
      </trkpt>
      <trkpt lat="43.00502" lon="1.17544">
        <ele>454.9</ele>
        <extensions>
          <visugpx:TrkExtension xmlns:visugpx="https://www.visugpx.com/editgpx/">
            <visugpx:node>59</visugpx:node>
            </visugpx:TrkExtension>
        </extensions>
      </trkpt>
      <trkpt lat="43.00452" lon="1.17535">
        <ele>455.1</ele>
        <extensions>
          <visugpx:TrkExtension xmlns:visugpx="https://www.visugpx.com/editgpx/">
            <visugpx:node>60</visugpx:node>
            </visugpx:TrkExtension>
        </extensions>
      </trkpt>
      <trkpt lat="43.00374" lon="1.17555">
        <ele>453.1</ele>
        <extensions>
          <visugpx:TrkExtension xmlns:visugpx="https://www.visugpx.com/editgpx/">
            <visugpx:node>61</visugpx:node>
            </visugpx:TrkExtension>
        </extensions>
      </trkpt>
      <trkpt lat="43.00341" lon="1.17541">
        <ele>451</ele>
        <extensions>
          <visugpx:TrkExtension xmlns:visugpx="https://www.visugpx.com/editgpx/">
            <visugpx:node>62</visugpx:node>
            </visugpx:TrkExtension>
        </extensions>
      </trkpt>
      <trkpt lat="43.00343" lon="1.17447">
        <ele>453.4</ele>
        <extensions>
          <visugpx:TrkExtension xmlns:visugpx="https://www.visugpx.com/editgpx/">
            <visugpx:node>63</visugpx:node>
            </visugpx:TrkExtension>
        </extensions>
      </trkpt>
      <trkpt lat="43.00337" lon="1.17394">
        <ele>453.3</ele>
        <extensions>
          <visugpx:TrkExtension xmlns:visugpx="https://www.visugpx.com/editgpx/">
            <visugpx:node>64</visugpx:node>
            </visugpx:TrkExtension>
        </extensions>
      </trkpt>
      <trkpt lat="43.00314" lon="1.17332">
        <ele>453.2</ele>
        <extensions>
          <visugpx:TrkExtension xmlns:visugpx="https://www.visugpx.com/editgpx/">
            <visugpx:node>65</visugpx:node>
            </visugpx:TrkExtension>
        </extensions>
      </trkpt>
      <trkpt lat="43.0026" lon="1.17196">
        <ele>449.3</ele>
        <extensions>
          <visugpx:TrkExtension xmlns:visugpx="https://www.visugpx.com/editgpx/">
            <visugpx:node>66</visugpx:node>
            </visugpx:TrkExtension>
        </extensions>
      </trkpt>
      <trkpt lat="43.00283" lon="1.17075">
        <ele>445.4</ele>
        <extensions>
          <visugpx:TrkExtension xmlns:visugpx="https://www.visugpx.com/editgpx/">
            <visugpx:node>67</visugpx:node>
            </visugpx:TrkExtension>
        </extensions>
      </trkpt>
      <trkpt lat="43.0029" lon="1.17008">
        <ele>442</ele>
        <extensions>
          <visugpx:TrkExtension xmlns:visugpx="https://www.visugpx.com/editgpx/">
            <visugpx:node>68</visugpx:node>
            </visugpx:TrkExtension>
        </extensions>
      </trkpt>
      <trkpt lat="43.00264" lon="1.1694">
        <ele>440.8</ele>
        <extensions>
          <visugpx:TrkExtension xmlns:visugpx="https://www.visugpx.com/editgpx/">
            <visugpx:node>69</visugpx:node>
            </visugpx:TrkExtension>
        </extensions>
      </trkpt>
      <trkpt lat="43.00249" lon="1.16908">
        <ele>440.7</ele>
        <extensions>
          <visugpx:TrkExtension xmlns:visugpx="https://www.visugpx.com/editgpx/">
            <visugpx:node>70</visugpx:node>
            </visugpx:TrkExtension>
        </extensions>
      </trkpt>
      <trkpt lat="43.00243" lon="1.16747">
        <ele>432.7</ele>
        <extensions>
          <visugpx:TrkExtension xmlns:visugpx="https://www.visugpx.com/editgpx/">
            <visugpx:node>71</visugpx:node>
            </visugpx:TrkExtension>
        </extensions>
      </trkpt>
      <trkpt lat="43.00225" lon="1.16559">
        <ele>424</ele>
        <extensions>
          <visugpx:TrkExtension xmlns:visugpx="https://www.visugpx.com/editgpx/">
            <visugpx:node>72</visugpx:node>
            </visugpx:TrkExtension>
        </extensions>
      </trkpt>
      <trkpt lat="43.00214" lon="1.16439">
        <ele>419.7</ele>
        <extensions>
          <visugpx:TrkExtension xmlns:visugpx="https://www.visugpx.com/editgpx/">
            <visugpx:node>73</visugpx:node>
            </visugpx:TrkExtension>
        </extensions>
      </trkpt>
      <trkpt lat="43.00228" lon="1.1637">
        <ele>424.8</ele>
        <extensions>
          <visugpx:TrkExtension xmlns:visugpx="https://www.visugpx.com/editgpx/">
            <visugpx:node>74</visugpx:node>
            </visugpx:TrkExtension>
        </extensions>
      </trkpt>
      <trkpt lat="43.00216" lon="1.16242">
        <ele>433.5</ele>
        <extensions>
          <visugpx:TrkExtension xmlns:visugpx="https://www.visugpx.com/editgpx/">
            <visugpx:node>75</visugpx:node>
            </visugpx:TrkExtension>
        </extensions>
      </trkpt>
      <trkpt lat="43.00167" lon="1.15927">
        <ele>453.7</ele>
        <extensions>
          <visugpx:TrkExtension xmlns:visugpx="https://www.visugpx.com/editgpx/">
            <visugpx:node>76</visugpx:node>
            </visugpx:TrkExtension>
        </extensions>
      </trkpt>
      <trkpt lat="43.00132" lon="1.15719">
        <ele>465.8</ele>
        <extensions>
          <visugpx:TrkExtension xmlns:visugpx="https://www.visugpx.com/editgpx/">
            <visugpx:node>77</visugpx:node>
            </visugpx:TrkExtension>
        </extensions>
      </trkpt>
      <trkpt lat="43.00134" lon="1.15594">
        <ele>463.2</ele>
        <extensions>
          <visugpx:TrkExtension xmlns:visugpx="https://www.visugpx.com/editgpx/">
            <visugpx:node>78</visugpx:node>
            </visugpx:TrkExtension>
        </extensions>
      </trkpt>
      <trkpt lat="43.00114" lon="1.15524">
        <ele>464.7</ele>
        <extensions>
          <visugpx:TrkExtension xmlns:visugpx="https://www.visugpx.com/editgpx/">
            <visugpx:node>79</visugpx:node>
            </visugpx:TrkExtension>
        </extensions>
      </trkpt>
      <trkpt lat="43.00092" lon="1.1548">
        <ele>467.1</ele>
        <extensions>
          <visugpx:TrkExtension xmlns:visugpx="https://www.visugpx.com/editgpx/">
            <visugpx:node>80</visugpx:node>
            </visugpx:TrkExtension>
        </extensions>
      </trkpt>
      <trkpt lat="43.00083" lon="1.15351">
        <ele>469</ele>
        <extensions>
          <visugpx:TrkExtension xmlns:visugpx="https://www.visugpx.com/editgpx/">
            <visugpx:node>81</visugpx:node>
            </visugpx:TrkExtension>
        </extensions>
      </trkpt>
      <trkpt lat="43.00099" lon="1.1509">
        <ele>470.5</ele>
        <extensions>
          <visugpx:TrkExtension xmlns:visugpx="https://www.visugpx.com/editgpx/">
            <visugpx:node>82</visugpx:node>
            </visugpx:TrkExtension>
        </extensions>
      </trkpt>
      <trkpt lat="43.00109" lon="1.14957">
        <ele>465.8</ele>
        <extensions>
          <visugpx:TrkExtension xmlns:visugpx="https://www.visugpx.com/editgpx/">
            <visugpx:node>83</visugpx:node>
            </visugpx:TrkExtension>
        </extensions>
      </trkpt>
      <trkpt lat="43.00115" lon="1.14802">
        <ele>456.7</ele>
        <extensions>
          <visugpx:TrkExtension xmlns:visugpx="https://www.visugpx.com/editgpx/">
            <visugpx:node>84</visugpx:node>
            </visugpx:TrkExtension>
        </extensions>
      </trkpt>
      <trkpt lat="43.00117" lon="1.14673">
        <ele>455.6</ele>
        <extensions>
          <visugpx:TrkExtension xmlns:visugpx="https://www.visugpx.com/editgpx/">
            <visugpx:node>85</visugpx:node>
            </visugpx:TrkExtension>
        </extensions>
      </trkpt>
      <trkpt lat="43.00131" lon="1.14565">
        <ele>454</ele>
        <extensions>
          <visugpx:TrkExtension xmlns:visugpx="https://www.visugpx.com/editgpx/">
            <visugpx:node>86</visugpx:node>
            </visugpx:TrkExtension>
        </extensions>
      </trkpt>
      <trkpt lat="43.00135" lon="1.14414">
        <ele>440.6</ele>
        <extensions>
          <visugpx:TrkExtension xmlns:visugpx="https://www.visugpx.com/editgpx/">
            <visugpx:node>87</visugpx:node>
            </visugpx:TrkExtension>
        </extensions>
      </trkpt>
      <trkpt lat="43.00151" lon="1.14301">
        <ele>432.4</ele>
        <extensions>
          <visugpx:TrkExtension xmlns:visugpx="https://www.visugpx.com/editgpx/">
            <visugpx:node>88</visugpx:node>
            </visugpx:TrkExtension>
        </extensions>
      </trkpt>
      <trkpt lat="43.00179" lon="1.14192">
        <ele>425.8</ele>
        <extensions>
          <visugpx:TrkExtension xmlns:visugpx="https://www.visugpx.com/editgpx/">
            <visugpx:node>89</visugpx:node>
            </visugpx:TrkExtension>
        </extensions>
      </trkpt>
      <trkpt lat="43.00174" lon="1.14135">
        <ele>423.8</ele>
        <extensions>
          <visugpx:TrkExtension xmlns:visugpx="https://www.visugpx.com/editgpx/">
            <visugpx:node>90</visugpx:node>
            </visugpx:TrkExtension>
        </extensions>
      </trkpt>
      <trkpt lat="43.00192" lon="1.14054">
        <ele>419.9</ele>
        <extensions>
          <visugpx:TrkExtension xmlns:visugpx="https://www.visugpx.com/editgpx/">
            <visugpx:node>91</visugpx:node>
            </visugpx:TrkExtension>
        </extensions>
      </trkpt>
      <trkpt lat="43.00206" lon="1.14027">
        <ele>419</ele>
        <extensions>
          <visugpx:TrkExtension xmlns:visugpx="https://www.visugpx.com/editgpx/">
            <visugpx:node>92</visugpx:node>
            </visugpx:TrkExtension>
        </extensions>
      </trkpt>
      <trkpt lat="43.0016" lon="1.13998">
        <ele>417.9</ele>
        <extensions>
          <visugpx:TrkExtension xmlns:visugpx="https://www.visugpx.com/editgpx/">
            <visugpx:node>93</visugpx:node>
            </visugpx:TrkExtension>
        </extensions>
      </trkpt>
      <trkpt lat="43.00094" lon="1.13913">
        <ele>418.5</ele>
        <extensions>
          <visugpx:TrkExtension xmlns:visugpx="https://www.visugpx.com/editgpx/">
            <visugpx:node>94</visugpx:node>
            </visugpx:TrkExtension>
        </extensions>
      </trkpt>
      <trkpt lat="43.00049" lon="1.13877">
        <ele>418.2</ele>
        <extensions>
          <visugpx:TrkExtension xmlns:visugpx="https://www.visugpx.com/editgpx/">
            <visugpx:node>95</visugpx:node>
            </visugpx:TrkExtension>
        </extensions>
      </trkpt>
      <trkpt lat="42.99982" lon="1.1378">
        <ele>409.6</ele>
        <extensions>
          <visugpx:TrkExtension xmlns:visugpx="https://www.visugpx.com/editgpx/">
            <visugpx:node>96</visugpx:node>
            </visugpx:TrkExtension>
        </extensions>
      </trkpt>
      <trkpt lat="43.00076" lon="1.1378">
        <ele>415</ele>
        <extensions>
          <visugpx:TrkExtension xmlns:visugpx="https://www.visugpx.com/editgpx/">
            <visugpx:node>97</visugpx:node>
            </visugpx:TrkExtension>
        </extensions>
      </trkpt>
      <trkpt lat="43.00078" lon="1.13696">
        <ele>414.1</ele>
        <extensions>
          <visugpx:TrkExtension xmlns:visugpx="https://www.visugpx.com/editgpx/">
            <visugpx:node>98</visugpx:node>
            </visugpx:TrkExtension>
        </extensions>
      </trkpt>
      <trkpt lat="43.00134" lon="1.13663">
        <ele>416.4</ele>
        <extensions>
          <visugpx:TrkExtension xmlns:visugpx="https://www.visugpx.com/editgpx/">
            <visugpx:node>99</visugpx:node>
            </visugpx:TrkExtension>
        </extensions>
      </trkpt>
      <trkpt lat="43.0016" lon="1.13591">
        <ele>413.7</ele>
        <extensions>
          <visugpx:TrkExtension xmlns:visugpx="https://www.visugpx.com/editgpx/">
            <visugpx:node>100</visugpx:node>
            </visugpx:TrkExtension>
        </extensions>
      </trkpt>
      <trkpt lat="43.00183" lon="1.13516">
        <ele>410.2</ele>
        <extensions>
          <visugpx:TrkExtension xmlns:visugpx="https://www.visugpx.com/editgpx/">
            <visugpx:node>101</visugpx:node>
            </visugpx:TrkExtension>
        </extensions>
      </trkpt>
      <trkpt lat="43.00218" lon="1.13484">
        <ele>409</ele>
        <extensions>
          <visugpx:TrkExtension xmlns:visugpx="https://www.visugpx.com/editgpx/">
            <visugpx:node>102</visugpx:node>
            </visugpx:TrkExtension>
        </extensions>
      </trkpt>
      <trkpt lat="43.00248" lon="1.13481">
        <ele>406.4</ele>
        <time>2025-11-26T16:05:31Z</time>
        <extensions>
          <visugpx:TrkExtension xmlns:visugpx="https://www.visugpx.com/editgpx/">
            <visugpx:node>103</visugpx:node>
            </visugpx:TrkExtension>
        </extensions>
      </trkpt>
      <trkpt lat="43.00248" lon="1.13481">
        <ele>406.4</ele>
        <time>2025-11-26T16:05:31Z</time>
        <extensions>
          <visugpx:TrkExtension xmlns:visugpx="https://www.visugpx.com/editgpx/">
            <visugpx:node>104</visugpx:node>
            </visugpx:TrkExtension>
        </extensions>
      </trkpt>
      <trkpt lat="43.00218" lon="1.13484">
        <ele>409</ele>
        <extensions>
          <visugpx:TrkExtension xmlns:visugpx="https://www.visugpx.com/editgpx/">
            <visugpx:node>105</visugpx:node>
            </visugpx:TrkExtension>
        </extensions>
      </trkpt>
      <trkpt lat="43.00183" lon="1.13516">
        <ele>410.2</ele>
        <extensions>
          <visugpx:TrkExtension xmlns:visugpx="https://www.visugpx.com/editgpx/">
            <visugpx:node>106</visugpx:node>
            </visugpx:TrkExtension>
        </extensions>
      </trkpt>
      <trkpt lat="43.0016" lon="1.13591">
        <ele>413.7</ele>
        <extensions>
          <visugpx:TrkExtension xmlns:visugpx="https://www.visugpx.com/editgpx/">
            <visugpx:node>107</visugpx:node>
            </visugpx:TrkExtension>
        </extensions>
      </trkpt>
      <trkpt lat="43.00134" lon="1.13663">
        <ele>416.4</ele>
        <extensions>
          <visugpx:TrkExtension xmlns:visugpx="https://www.visugpx.com/editgpx/">
            <visugpx:node>108</visugpx:node>
            </visugpx:TrkExtension>
        </extensions>
      </trkpt>
      <trkpt lat="43.00078" lon="1.13696">
        <ele>414.1</ele>
        <extensions>
          <visugpx:TrkExtension xmlns:visugpx="https://www.visugpx.com/editgpx/">
            <visugpx:node>109</visugpx:node>
            </visugpx:TrkExtension>
        </extensions>
      </trkpt>
      <trkpt lat="43.00076" lon="1.1378">
        <ele>415</ele>
        <extensions>
          <visugpx:TrkExtension xmlns:visugpx="https://www.visugpx.com/editgpx/">
            <visugpx:node>110</visugpx:node>
            </visugpx:TrkExtension>
        </extensions>
      </trkpt>
      <trkpt lat="42.99982" lon="1.1378">
        <ele>409.6</ele>
        <extensions>
          <visugpx:TrkExtension xmlns:visugpx="https://www.visugpx.com/editgpx/">
            <visugpx:node>111</visugpx:node>
            </visugpx:TrkExtension>
        </extensions>
      </trkpt>
      <trkpt lat="43.00049" lon="1.13877">
        <ele>418.2</ele>
        <extensions>
          <visugpx:TrkExtension xmlns:visugpx="https://www.visugpx.com/editgpx/">
            <visugpx:node>112</visugpx:node>
            </visugpx:TrkExtension>
        </extensions>
      </trkpt>
      <trkpt lat="43.00094" lon="1.13913">
        <ele>418.5</ele>
        <extensions>
          <visugpx:TrkExtension xmlns:visugpx="https://www.visugpx.com/editgpx/">
            <visugpx:node>113</visugpx:node>
            </visugpx:TrkExtension>
        </extensions>
      </trkpt>
      <trkpt lat="43.0016" lon="1.13998">
        <ele>417.9</ele>
        <extensions>
          <visugpx:TrkExtension xmlns:visugpx="https://www.visugpx.com/editgpx/">
            <visugpx:node>114</visugpx:node>
            </visugpx:TrkExtension>
        </extensions>
      </trkpt>
      <trkpt lat="43.00206" lon="1.14027">
        <ele>419</ele>
        <extensions>
          <visugpx:TrkExtension xmlns:visugpx="https://www.visugpx.com/editgpx/">
            <visugpx:node>115</visugpx:node>
            </visugpx:TrkExtension>
        </extensions>
      </trkpt>
      <trkpt lat="43.00192" lon="1.14054">
        <ele>419.9</ele>
        <extensions>
          <visugpx:TrkExtension xmlns:visugpx="https://www.visugpx.com/editgpx/">
            <visugpx:node>116</visugpx:node>
            </visugpx:TrkExtension>
        </extensions>
      </trkpt>
      <trkpt lat="43.00174" lon="1.14135">
        <ele>423.8</ele>
        <extensions>
          <visugpx:TrkExtension xmlns:visugpx="https://www.visugpx.com/editgpx/">
            <visugpx:node>117</visugpx:node>
            </visugpx:TrkExtension>
        </extensions>
      </trkpt>
      <trkpt lat="43.00179" lon="1.14192">
        <ele>425.8</ele>
        <extensions>
          <visugpx:TrkExtension xmlns:visugpx="https://www.visugpx.com/editgpx/">
            <visugpx:node>118</visugpx:node>
            </visugpx:TrkExtension>
        </extensions>
      </trkpt>
      <trkpt lat="43.00151" lon="1.14301">
        <ele>432.4</ele>
        <extensions>
          <visugpx:TrkExtension xmlns:visugpx="https://www.visugpx.com/editgpx/">
            <visugpx:node>119</visugpx:node>
            </visugpx:TrkExtension>
        </extensions>
      </trkpt>
      <trkpt lat="43.00135" lon="1.14414">
        <ele>440.6</ele>
        <extensions>
          <visugpx:TrkExtension xmlns:visugpx="https://www.visugpx.com/editgpx/">
            <visugpx:node>120</visugpx:node>
            </visugpx:TrkExtension>
        </extensions>
      </trkpt>
      <trkpt lat="43.00131" lon="1.14565">
        <ele>454</ele>
        <extensions>
          <visugpx:TrkExtension xmlns:visugpx="https://www.visugpx.com/editgpx/">
            <visugpx:node>121</visugpx:node>
            </visugpx:TrkExtension>
        </extensions>
      </trkpt>
      <trkpt lat="43.00117" lon="1.14673">
        <ele>455.6</ele>
        <extensions>
          <visugpx:TrkExtension xmlns:visugpx="https://www.visugpx.com/editgpx/">
            <visugpx:node>122</visugpx:node>
            </visugpx:TrkExtension>
        </extensions>
      </trkpt>
      <trkpt lat="43.00115" lon="1.14802">
        <ele>456.7</ele>
        <extensions>
          <visugpx:TrkExtension xmlns:visugpx="https://www.visugpx.com/editgpx/">
            <visugpx:node>123</visugpx:node>
            </visugpx:TrkExtension>
        </extensions>
      </trkpt>
      <trkpt lat="43.00109" lon="1.14957">
        <ele>465.8</ele>
        <extensions>
          <visugpx:TrkExtension xmlns:visugpx="https://www.visugpx.com/editgpx/">
            <visugpx:node>124</visugpx:node>
            </visugpx:TrkExtension>
        </extensions>
      </trkpt>
      <trkpt lat="43.00099" lon="1.1509">
        <ele>470.5</ele>
        <extensions>
          <visugpx:TrkExtension xmlns:visugpx="https://www.visugpx.com/editgpx/">
            <visugpx:node>125</visugpx:node>
            </visugpx:TrkExtension>
        </extensions>
      </trkpt>
      <trkpt lat="43.00083" lon="1.15351">
        <ele>469</ele>
        <extensions>
          <visugpx:TrkExtension xmlns:visugpx="https://www.visugpx.com/editgpx/">
            <visugpx:node>126</visugpx:node>
            </visugpx:TrkExtension>
        </extensions>
      </trkpt>
      <trkpt lat="43.00092" lon="1.1548">
        <ele>467.1</ele>
        <extensions>
          <visugpx:TrkExtension xmlns:visugpx="https://www.visugpx.com/editgpx/">
            <visugpx:node>127</visugpx:node>
            </visugpx:TrkExtension>
        </extensions>
      </trkpt>
      <trkpt lat="43.00114" lon="1.15524">
        <ele>464.7</ele>
        <extensions>
          <visugpx:TrkExtension xmlns:visugpx="https://www.visugpx.com/editgpx/">
            <visugpx:node>128</visugpx:node>
            </visugpx:TrkExtension>
        </extensions>
      </trkpt>
      <trkpt lat="43.00134" lon="1.15594">
        <ele>463.2</ele>
        <extensions>
          <visugpx:TrkExtension xmlns:visugpx="https://www.visugpx.com/editgpx/">
            <visugpx:node>129</visugpx:node>
            </visugpx:TrkExtension>
        </extensions>
      </trkpt>
      <trkpt lat="43.00132" lon="1.15719">
        <ele>465.8</ele>
        <extensions>
          <visugpx:TrkExtension xmlns:visugpx="https://www.visugpx.com/editgpx/">
            <visugpx:node>130</visugpx:node>
            </visugpx:TrkExtension>
        </extensions>
      </trkpt>
      <trkpt lat="43.00167" lon="1.15927">
        <ele>453.7</ele>
        <extensions>
          <visugpx:TrkExtension xmlns:visugpx="https://www.visugpx.com/editgpx/">
            <visugpx:node>131</visugpx:node>
            </visugpx:TrkExtension>
        </extensions>
      </trkpt>
      <trkpt lat="43.00216" lon="1.16242">
        <ele>433.5</ele>
        <extensions>
          <visugpx:TrkExtension xmlns:visugpx="https://www.visugpx.com/editgpx/">
            <visugpx:node>132</visugpx:node>
            </visugpx:TrkExtension>
        </extensions>
      </trkpt>
      <trkpt lat="43.00228" lon="1.1637">
        <ele>424.8</ele>
        <extensions>
          <visugpx:TrkExtension xmlns:visugpx="https://www.visugpx.com/editgpx/">
            <visugpx:node>133</visugpx:node>
            </visugpx:TrkExtension>
        </extensions>
      </trkpt>
      <trkpt lat="43.00214" lon="1.16439">
        <ele>419.7</ele>
        <extensions>
          <visugpx:TrkExtension xmlns:visugpx="https://www.visugpx.com/editgpx/">
            <visugpx:node>134</visugpx:node>
            </visugpx:TrkExtension>
        </extensions>
      </trkpt>
      <trkpt lat="43.00225" lon="1.16559">
        <ele>424</ele>
        <extensions>
          <visugpx:TrkExtension xmlns:visugpx="https://www.visugpx.com/editgpx/">
            <visugpx:node>135</visugpx:node>
            </visugpx:TrkExtension>
        </extensions>
      </trkpt>
      <trkpt lat="43.00243" lon="1.16747">
        <ele>432.7</ele>
        <extensions>
          <visugpx:TrkExtension xmlns:visugpx="https://www.visugpx.com/editgpx/">
            <visugpx:node>136</visugpx:node>
            </visugpx:TrkExtension>
        </extensions>
      </trkpt>
      <trkpt lat="43.00249" lon="1.16908">
        <ele>440.7</ele>
        <extensions>
          <visugpx:TrkExtension xmlns:visugpx="https://www.visugpx.com/editgpx/">
            <visugpx:node>137</visugpx:node>
            </visugpx:TrkExtension>
        </extensions>
      </trkpt>
      <trkpt lat="43.00264" lon="1.1694">
        <ele>440.8</ele>
        <extensions>
          <visugpx:TrkExtension xmlns:visugpx="https://www.visugpx.com/editgpx/">
            <visugpx:node>138</visugpx:node>
            </visugpx:TrkExtension>
        </extensions>
      </trkpt>
      <trkpt lat="43.0029" lon="1.17008">
        <ele>442</ele>
        <extensions>
          <visugpx:TrkExtension xmlns:visugpx="https://www.visugpx.com/editgpx/">
            <visugpx:node>139</visugpx:node>
            </visugpx:TrkExtension>
        </extensions>
      </trkpt>
      <trkpt lat="43.00283" lon="1.17075">
        <ele>445.4</ele>
        <extensions>
          <visugpx:TrkExtension xmlns:visugpx="https://www.visugpx.com/editgpx/">
            <visugpx:node>140</visugpx:node>
            </visugpx:TrkExtension>
        </extensions>
      </trkpt>
      <trkpt lat="43.0026" lon="1.17196">
        <ele>449.3</ele>
        <extensions>
          <visugpx:TrkExtension xmlns:visugpx="https://www.visugpx.com/editgpx/">
            <visugpx:node>141</visugpx:node>
            </visugpx:TrkExtension>
        </extensions>
      </trkpt>
      <trkpt lat="43.00314" lon="1.17332">
        <ele>453.2</ele>
        <extensions>
          <visugpx:TrkExtension xmlns:visugpx="https://www.visugpx.com/editgpx/">
            <visugpx:node>142</visugpx:node>
            </visugpx:TrkExtension>
        </extensions>
      </trkpt>
      <trkpt lat="43.00337" lon="1.17394">
        <ele>453.3</ele>
        <extensions>
          <visugpx:TrkExtension xmlns:visugpx="https://www.visugpx.com/editgpx/">
            <visugpx:node>143</visugpx:node>
            </visugpx:TrkExtension>
        </extensions>
      </trkpt>
      <trkpt lat="43.00343" lon="1.17447">
        <ele>453.4</ele>
        <extensions>
          <visugpx:TrkExtension xmlns:visugpx="https://www.visugpx.com/editgpx/">
            <visugpx:node>144</visugpx:node>
            </visugpx:TrkExtension>
        </extensions>
      </trkpt>
      <trkpt lat="43.00341" lon="1.17541">
        <ele>451</ele>
        <extensions>
          <visugpx:TrkExtension xmlns:visugpx="https://www.visugpx.com/editgpx/">
            <visugpx:node>145</visugpx:node>
            </visugpx:TrkExtension>
        </extensions>
      </trkpt>
      <trkpt lat="43.00374" lon="1.17555">
        <ele>453.1</ele>
        <extensions>
          <visugpx:TrkExtension xmlns:visugpx="https://www.visugpx.com/editgpx/">
            <visugpx:node>146</visugpx:node>
            </visugpx:TrkExtension>
        </extensions>
      </trkpt>
      <trkpt lat="43.00452" lon="1.17535">
        <ele>455.1</ele>
        <extensions>
          <visugpx:TrkExtension xmlns:visugpx="https://www.visugpx.com/editgpx/">
            <visugpx:node>147</visugpx:node>
            </visugpx:TrkExtension>
        </extensions>
      </trkpt>
      <trkpt lat="43.00502" lon="1.17544">
        <ele>454.9</ele>
        <extensions>
          <visugpx:TrkExtension xmlns:visugpx="https://www.visugpx.com/editgpx/">
            <visugpx:node>148</visugpx:node>
            </visugpx:TrkExtension>
        </extensions>
      </trkpt>
      <trkpt lat="43.00544" lon="1.17583">
        <ele>454.6</ele>
        <extensions>
          <visugpx:TrkExtension xmlns:visugpx="https://www.visugpx.com/editgpx/">
            <visugpx:node>149</visugpx:node>
            </visugpx:TrkExtension>
        </extensions>
      </trkpt>
      <trkpt lat="43.00591" lon="1.17743">
        <ele>455.7</ele>
        <extensions>
          <visugpx:TrkExtension xmlns:visugpx="https://www.visugpx.com/editgpx/">
            <visugpx:node>150</visugpx:node>
            </visugpx:TrkExtension>
        </extensions>
      </trkpt>
      <trkpt lat="43.00603" lon="1.17904">
        <ele>451.5</ele>
        <extensions>
          <visugpx:TrkExtension xmlns:visugpx="https://www.visugpx.com/editgpx/">
            <visugpx:node>151</visugpx:node>
            </visugpx:TrkExtension>
        </extensions>
      </trkpt>
      <trkpt lat="43.00607" lon="1.18136">
        <ele>443.3</ele>
        <extensions>
          <visugpx:TrkExtension xmlns:visugpx="https://www.visugpx.com/editgpx/">
            <visugpx:node>152</visugpx:node>
            </visugpx:TrkExtension>
        </extensions>
      </trkpt>
      <trkpt lat="43.00623" lon="1.18184">
        <ele>441.1</ele>
        <extensions>
          <visugpx:TrkExtension xmlns:visugpx="https://www.visugpx.com/editgpx/">
            <visugpx:node>153</visugpx:node>
            </visugpx:TrkExtension>
        </extensions>
      </trkpt>
      <trkpt lat="43.00785" lon="1.18257">
        <ele>443.7</ele>
        <extensions>
          <visugpx:TrkExtension xmlns:visugpx="https://www.visugpx.com/editgpx/">
            <visugpx:node>154</visugpx:node>
            </visugpx:TrkExtension>
        </extensions>
      </trkpt>
      <trkpt lat="43.00745" lon="1.18425">
        <ele>435.5</ele>
        <extensions>
          <visugpx:TrkExtension xmlns:visugpx="https://www.visugpx.com/editgpx/">
            <visugpx:node>155</visugpx:node>
            </visugpx:TrkExtension>
        </extensions>
      </trkpt>
      <trkpt lat="43.00669" lon="1.18394">
        <ele>434.4</ele>
        <extensions>
          <visugpx:TrkExtension xmlns:visugpx="https://www.visugpx.com/editgpx/">
            <visugpx:node>156</visugpx:node>
            </visugpx:TrkExtension>
        </extensions>
      </trkpt>
    </trkseg>
  </trk>
</gpx>